<?xml version="1.0" encoding="UTF-8" standalone="no" ?>
<gpx xmlns="http://www.topografix.com/GPX/1/1" xmlns:xsi="http://www.w3.org/2001/XMLSchema-instance" xsi:schemaLocation="http://www.topografix.com/GPX/1/1 http://www.topografix.com/GPX/1/1/gpx.xsd" version="1.1" creator="VisuGPX - https://www.visugpx.com">
  <metadata>
    <name>Bonnieux Moure Negre</name>
    <desc><![CDATA[Une superbe boucle optimisée dans le temps
Bonne condition physiques et technique exigées]]></desc>
  </metadata>
  <trk>
    <name><![CDATA[Bonnieux Moure Negre]]></name>
    <extensions>
      <line xmlns="http://www.topografix.com/GPX/gpx_style/0/2">
        <color>0000FF</color>
        <width>4</width>
      </line>
    </extensions>
    <trkseg>
      <trkpt lat="43.81075" lon="5.34315">
        <ele>302.8</ele>
        <time>2022-05-15T14:24:40Z</time>
      </trkpt>
      <trkpt lat="43.81072" lon="5.34311">
        <ele>302.6</ele>
        <time>2022-05-15T14:24:41Z</time>
      </trkpt>
      <trkpt lat="43.81057" lon="5.3429">
        <ele>300.9</ele>
        <time>2022-05-15T14:24:45Z</time>
      </trkpt>
      <trkpt lat="43.81028" lon="5.34257">
        <ele>296.5</ele>
        <time>2022-05-15T14:24:51Z</time>
      </trkpt>
      <trkpt lat="43.81023" lon="5.3425">
        <ele>295.3</ele>
        <time>2022-05-15T14:24:52Z</time>
      </trkpt>
      <trkpt lat="43.8102" lon="5.3424">
        <ele>297.4</ele>
        <time>2022-05-15T14:24:53Z</time>
      </trkpt>
      <trkpt lat="43.81021" lon="5.34229">
        <ele>299.7</ele>
        <time>2022-05-15T14:24:54Z</time>
      </trkpt>
      <trkpt lat="43.81025" lon="5.34219">
        <ele>301.6</ele>
        <time>2022-05-15T14:24:55Z</time>
      </trkpt>
      <trkpt lat="43.8103" lon="5.3421">
        <ele>303.2</ele>
        <time>2022-05-15T14:24:56Z</time>
      </trkpt>
      <trkpt lat="43.81046" lon="5.34181">
        <ele>307.5</ele>
        <time>2022-05-15T14:24:59Z</time>
      </trkpt>
      <trkpt lat="43.81048" lon="5.34159">
        <ele>312.1</ele>
        <time>2022-05-15T14:25:01Z</time>
      </trkpt>
      <trkpt lat="43.81036" lon="5.34144">
        <ele>318.7</ele>
        <time>2022-05-15T14:25:03Z</time>
      </trkpt>
      <trkpt lat="43.8102" lon="5.34153">
        <ele>318</ele>
        <time>2022-05-15T14:25:05Z</time>
      </trkpt>
      <trkpt lat="43.81006" lon="5.34187">
        <ele>309.6</ele>
        <time>2022-05-15T14:25:08Z</time>
      </trkpt>
      <trkpt lat="43.80991" lon="5.34204">
        <ele>308.7</ele>
        <time>2022-05-15T14:25:10Z</time>
      </trkpt>
      <trkpt lat="43.80983" lon="5.34207">
        <ele>310.2</ele>
        <time>2022-05-15T14:25:11Z</time>
      </trkpt>
      <trkpt lat="43.80974" lon="5.34205">
        <ele>313.4</ele>
        <time>2022-05-15T14:25:12Z</time>
      </trkpt>
      <trkpt lat="43.80965" lon="5.34201">
        <ele>317.2</ele>
        <time>2022-05-15T14:25:13Z</time>
      </trkpt>
      <trkpt lat="43.80948" lon="5.34195">
        <ele>324.2</ele>
        <time>2022-05-15T14:25:15Z</time>
      </trkpt>
      <trkpt lat="43.80941" lon="5.34199">
        <ele>325</ele>
        <time>2022-05-15T14:25:16Z</time>
      </trkpt>
      <trkpt lat="43.80936" lon="5.34206">
        <ele>324.2</ele>
        <time>2022-05-15T14:25:17Z</time>
      </trkpt>
      <trkpt lat="43.80933" lon="5.34214">
        <ele>322.4</ele>
        <time>2022-05-15T14:25:18Z</time>
      </trkpt>
      <trkpt lat="43.80933" lon="5.34225">
        <ele>318.7</ele>
        <time>2022-05-15T14:25:20Z</time>
      </trkpt>
      <trkpt lat="43.80937" lon="5.34228">
        <ele>316.6</ele>
        <time>2022-05-15T14:25:22Z</time>
      </trkpt>
      <trkpt lat="43.80942" lon="5.34229">
        <ele>315</ele>
        <time>2022-05-15T14:25:24Z</time>
      </trkpt>
      <trkpt lat="43.80959" lon="5.34238">
        <ele>307.9</ele>
        <time>2022-05-15T14:25:29Z</time>
      </trkpt>
      <trkpt lat="43.80972" lon="5.34255">
        <ele>301.7</ele>
        <time>2022-05-15T14:25:35Z</time>
      </trkpt>
      <trkpt lat="43.80985" lon="5.34273">
        <ele>301.5</ele>
        <time>2022-05-15T14:25:41Z</time>
      </trkpt>
      <trkpt lat="43.81" lon="5.34289">
        <ele>303</ele>
        <time>2022-05-15T14:25:47Z</time>
      </trkpt>
      <trkpt lat="43.81013" lon="5.34301">
        <ele>304.7</ele>
        <time>2022-05-15T14:25:52Z</time>
      </trkpt>
      <trkpt lat="43.81025" lon="5.34314">
        <ele>306.3</ele>
        <time>2022-05-15T14:25:57Z</time>
      </trkpt>
      <trkpt lat="43.81037" lon="5.34329">
        <ele>307.8</ele>
        <time>2022-05-15T14:26:02Z</time>
      </trkpt>
      <trkpt lat="43.81049" lon="5.34349">
        <ele>312.7</ele>
        <time>2022-05-15T14:26:08Z</time>
      </trkpt>
      <trkpt lat="43.81054" lon="5.34369">
        <ele>319</ele>
        <time>2022-05-15T14:26:13Z</time>
      </trkpt>
      <trkpt lat="43.8106" lon="5.34393">
        <ele>326.3</ele>
        <time>2022-05-15T14:26:19Z</time>
      </trkpt>
      <trkpt lat="43.81069" lon="5.34409">
        <ele>330.1</ele>
        <time>2022-05-15T14:26:24Z</time>
      </trkpt>
      <trkpt lat="43.81087" lon="5.34416">
        <ele>328.7</ele>
        <time>2022-05-15T14:26:30Z</time>
      </trkpt>
      <trkpt lat="43.81106" lon="5.34415">
        <ele>322.6</ele>
        <time>2022-05-15T14:26:36Z</time>
      </trkpt>
      <trkpt lat="43.81124" lon="5.34412">
        <ele>316.6</ele>
        <time>2022-05-15T14:26:42Z</time>
      </trkpt>
      <trkpt lat="43.81136" lon="5.34409">
        <ele>312.7</ele>
        <time>2022-05-15T14:26:47Z</time>
      </trkpt>
      <trkpt lat="43.8115" lon="5.34394">
        <ele>308</ele>
        <time>2022-05-15T14:26:52Z</time>
      </trkpt>
      <trkpt lat="43.81156" lon="5.34393">
        <ele>306.6</ele>
        <time>2022-05-15T14:26:54Z</time>
      </trkpt>
      <trkpt lat="43.81159" lon="5.34395">
        <ele>306</ele>
        <time>2022-05-15T14:26:55Z</time>
      </trkpt>
      <trkpt lat="43.81183" lon="5.34411">
        <ele>303.6</ele>
        <time>2022-05-15T14:27:02Z</time>
      </trkpt>
      <trkpt lat="43.81208" lon="5.34429">
        <ele>305.9</ele>
        <time>2022-05-15T14:27:09Z</time>
      </trkpt>
      <trkpt lat="43.81218" lon="5.34436">
        <ele>307.2</ele>
        <time>2022-05-15T14:27:12Z</time>
      </trkpt>
      <trkpt lat="43.81235" lon="5.34447">
        <ele>308.8</ele>
        <time>2022-05-15T14:27:17Z</time>
      </trkpt>
      <trkpt lat="43.81251" lon="5.34456">
        <ele>309.4</ele>
        <time>2022-05-15T14:27:22Z</time>
      </trkpt>
      <trkpt lat="43.81262" lon="5.34463">
        <ele>310.2</ele>
        <time>2022-05-15T14:27:26Z</time>
      </trkpt>
      <trkpt lat="43.81274" lon="5.34472">
        <ele>310.4</ele>
        <time>2022-05-15T14:27:32Z</time>
      </trkpt>
      <trkpt lat="43.81283" lon="5.34481">
        <ele>310.2</ele>
        <time>2022-05-15T14:27:36Z</time>
      </trkpt>
      <trkpt lat="43.81296" lon="5.34497">
        <ele>308.8</ele>
        <time>2022-05-15T14:27:42Z</time>
      </trkpt>
      <trkpt lat="43.81305" lon="5.34504">
        <ele>307.9</ele>
        <time>2022-05-15T14:27:46Z</time>
      </trkpt>
      <trkpt lat="43.8132" lon="5.34508">
        <ele>305.1</ele>
        <time>2022-05-15T14:27:51Z</time>
      </trkpt>
      <trkpt lat="43.8134" lon="5.34512">
        <ele>302.7</ele>
        <time>2022-05-15T14:27:57Z</time>
      </trkpt>
      <trkpt lat="43.81359" lon="5.34514">
        <ele>303.3</ele>
        <time>2022-05-15T14:28:02Z</time>
      </trkpt>
      <trkpt lat="43.81374" lon="5.34516">
        <ele>303.6</ele>
        <time>2022-05-15T14:28:06Z</time>
      </trkpt>
      <trkpt lat="43.81394" lon="5.34511">
        <ele>303.5</ele>
        <time>2022-05-15T14:28:11Z</time>
      </trkpt>
      <trkpt lat="43.81414" lon="5.34507">
        <ele>303.8</ele>
        <time>2022-05-15T14:28:16Z</time>
      </trkpt>
      <trkpt lat="43.81423" lon="5.34505">
        <ele>304.3</ele>
        <time>2022-05-15T14:28:18Z</time>
      </trkpt>
      <trkpt lat="43.81437" lon="5.34504">
        <ele>305.1</ele>
        <time>2022-05-15T14:28:21Z</time>
      </trkpt>
      <trkpt lat="43.81445" lon="5.34502">
        <ele>305.7</ele>
        <time>2022-05-15T14:28:23Z</time>
      </trkpt>
      <trkpt lat="43.81453" lon="5.34503">
        <ele>306.1</ele>
        <time>2022-05-15T14:28:25Z</time>
      </trkpt>
      <trkpt lat="43.81467" lon="5.34506">
        <ele>306.8</ele>
        <time>2022-05-15T14:28:28Z</time>
      </trkpt>
      <trkpt lat="43.8148" lon="5.34512">
        <ele>307.3</ele>
        <time>2022-05-15T14:28:31Z</time>
      </trkpt>
      <trkpt lat="43.81502" lon="5.34525">
        <ele>307.8</ele>
        <time>2022-05-15T14:28:36Z</time>
      </trkpt>
      <trkpt lat="43.81514" lon="5.34533">
        <ele>307.4</ele>
        <time>2022-05-15T14:28:39Z</time>
      </trkpt>
      <trkpt lat="43.81518" lon="5.34537">
        <ele>307.2</ele>
        <time>2022-05-15T14:28:40Z</time>
      </trkpt>
      <trkpt lat="43.81532" lon="5.34554">
        <ele>306.4</ele>
        <time>2022-05-15T14:28:44Z</time>
      </trkpt>
      <trkpt lat="43.81538" lon="5.34563">
        <ele>306</ele>
        <time>2022-05-15T14:28:46Z</time>
      </trkpt>
      <trkpt lat="43.8154" lon="5.34568">
        <ele>305.7</ele>
        <time>2022-05-15T14:28:47Z</time>
      </trkpt>
      <trkpt lat="43.81545" lon="5.34583">
        <ele>305</ele>
        <time>2022-05-15T14:28:50Z</time>
      </trkpt>
      <trkpt lat="43.81556" lon="5.3461">
        <ele>306.5</ele>
        <time>2022-05-15T14:28:56Z</time>
      </trkpt>
      <trkpt lat="43.81567" lon="5.3463">
        <ele>307</ele>
        <time>2022-05-15T14:29:01Z</time>
      </trkpt>
      <trkpt lat="43.81578" lon="5.34643">
        <ele>306.8</ele>
        <time>2022-05-15T14:29:05Z</time>
      </trkpt>
      <trkpt lat="43.81583" lon="5.34646">
        <ele>306.5</ele>
        <time>2022-05-15T14:29:07Z</time>
      </trkpt>
      <trkpt lat="43.81588" lon="5.34656">
        <ele>307</ele>
        <time>2022-05-15T14:29:10Z</time>
      </trkpt>
      <trkpt lat="43.81592" lon="5.34665">
        <ele>307.3</ele>
        <time>2022-05-15T14:29:13Z</time>
      </trkpt>
      <trkpt lat="43.81596" lon="5.34669">
        <ele>307.6</ele>
        <time>2022-05-15T14:29:15Z</time>
      </trkpt>
      <trkpt lat="43.8161" lon="5.34682">
        <ele>308.6</ele>
        <time>2022-05-15T14:29:20Z</time>
      </trkpt>
      <trkpt lat="43.81625" lon="5.34691">
        <ele>308.9</ele>
        <time>2022-05-15T14:29:25Z</time>
      </trkpt>
      <trkpt lat="43.81642" lon="5.347">
        <ele>308.8</ele>
        <time>2022-05-15T14:29:31Z</time>
      </trkpt>
      <trkpt lat="43.8166" lon="5.34712">
        <ele>308.1</ele>
        <time>2022-05-15T14:29:37Z</time>
      </trkpt>
      <trkpt lat="43.81677" lon="5.34726">
        <ele>308.4</ele>
        <time>2022-05-15T14:29:43Z</time>
      </trkpt>
      <trkpt lat="43.81687" lon="5.34737">
        <ele>308.9</ele>
        <time>2022-05-15T14:29:47Z</time>
      </trkpt>
      <trkpt lat="43.81694" lon="5.34745">
        <ele>309</ele>
        <time>2022-05-15T14:29:50Z</time>
      </trkpt>
      <trkpt lat="43.81695" lon="5.34749">
        <ele>308.8</ele>
        <time>2022-05-15T14:29:51Z</time>
      </trkpt>
      <trkpt lat="43.81702" lon="5.34764">
        <ele>310</ele>
        <time>2022-05-15T14:29:56Z</time>
      </trkpt>
      <trkpt lat="43.81707" lon="5.34781">
        <ele>311</ele>
        <time>2022-05-15T14:30:01Z</time>
      </trkpt>
      <trkpt lat="43.81712" lon="5.34794">
        <ele>311.7</ele>
        <time>2022-05-15T14:30:05Z</time>
      </trkpt>
      <trkpt lat="43.81722" lon="5.34814">
        <ele>312.4</ele>
        <time>2022-05-15T14:30:10Z</time>
      </trkpt>
      <trkpt lat="43.8173" lon="5.34836">
        <ele>312.7</ele>
        <time>2022-05-15T14:30:14Z</time>
      </trkpt>
      <trkpt lat="43.81733" lon="5.34847">
        <ele>313.2</ele>
        <time>2022-05-15T14:30:16Z</time>
      </trkpt>
      <trkpt lat="43.81739" lon="5.34868">
        <ele>314.1</ele>
        <time>2022-05-15T14:30:20Z</time>
      </trkpt>
      <trkpt lat="43.81742" lon="5.34879">
        <ele>314.4</ele>
        <time>2022-05-15T14:30:22Z</time>
      </trkpt>
      <trkpt lat="43.8175" lon="5.34899">
        <ele>314.4</ele>
        <time>2022-05-15T14:30:25Z</time>
      </trkpt>
      <trkpt lat="43.81757" lon="5.34912">
        <ele>314.8</ele>
        <time>2022-05-15T14:30:27Z</time>
      </trkpt>
      <trkpt lat="43.81769" lon="5.34932">
        <ele>316.9</ele>
        <time>2022-05-15T14:30:30Z</time>
      </trkpt>
      <trkpt lat="43.81771" lon="5.34938">
        <ele>317.7</ele>
        <time>2022-05-15T14:30:31Z</time>
      </trkpt>
      <trkpt lat="43.81774" lon="5.34943">
        <ele>318.2</ele>
        <time>2022-05-15T14:30:32Z</time>
      </trkpt>
      <trkpt lat="43.81781" lon="5.34952">
        <ele>318.8</ele>
        <time>2022-05-15T14:30:34Z</time>
      </trkpt>
      <trkpt lat="43.81784" lon="5.34957">
        <ele>319.1</ele>
        <time>2022-05-15T14:30:35Z</time>
      </trkpt>
      <trkpt lat="43.81791" lon="5.34967">
        <ele>319.4</ele>
        <time>2022-05-15T14:30:37Z</time>
      </trkpt>
      <trkpt lat="43.81802" lon="5.34989">
        <ele>319.8</ele>
        <time>2022-05-15T14:30:41Z</time>
      </trkpt>
      <trkpt lat="43.81811" lon="5.35018">
        <ele>321.3</ele>
        <time>2022-05-15T14:30:46Z</time>
      </trkpt>
      <trkpt lat="43.81815" lon="5.35028">
        <ele>321.6</ele>
        <time>2022-05-15T14:30:48Z</time>
      </trkpt>
      <trkpt lat="43.81819" lon="5.35038">
        <ele>321.8</ele>
        <time>2022-05-15T14:30:50Z</time>
      </trkpt>
      <trkpt lat="43.81822" lon="5.35047">
        <ele>322</ele>
        <time>2022-05-15T14:30:52Z</time>
      </trkpt>
      <trkpt lat="43.81824" lon="5.35053">
        <ele>322.1</ele>
        <time>2022-05-15T14:30:53Z</time>
      </trkpt>
      <trkpt lat="43.81832" lon="5.35084">
        <ele>322.5</ele>
        <time>2022-05-15T14:30:58Z</time>
      </trkpt>
      <trkpt lat="43.81836" lon="5.35102">
        <ele>324.1</ele>
        <time>2022-05-15T14:31:01Z</time>
      </trkpt>
      <trkpt lat="43.81846" lon="5.35153">
        <ele>328.8</ele>
        <time>2022-05-15T14:31:09Z</time>
      </trkpt>
      <trkpt lat="43.81849" lon="5.35178">
        <ele>331</ele>
        <time>2022-05-15T14:31:14Z</time>
      </trkpt>
      <trkpt lat="43.81854" lon="5.35202">
        <ele>332.4</ele>
        <time>2022-05-15T14:31:19Z</time>
      </trkpt>
      <trkpt lat="43.81863" lon="5.35225">
        <ele>332.5</ele>
        <time>2022-05-15T14:31:24Z</time>
      </trkpt>
      <trkpt lat="43.81873" lon="5.35255">
        <ele>332.4</ele>
        <time>2022-05-15T14:31:31Z</time>
      </trkpt>
      <trkpt lat="43.81883" lon="5.35283">
        <ele>332</ele>
        <time>2022-05-15T14:31:37Z</time>
      </trkpt>
      <trkpt lat="43.81889" lon="5.35309">
        <ele>332.6</ele>
        <time>2022-05-15T14:31:42Z</time>
      </trkpt>
      <trkpt lat="43.81901" lon="5.3533">
        <ele>331.5</ele>
        <time>2022-05-15T14:31:47Z</time>
      </trkpt>
      <trkpt lat="43.81916" lon="5.35342">
        <ele>329.3</ele>
        <time>2022-05-15T14:31:52Z</time>
      </trkpt>
      <trkpt lat="43.8194" lon="5.35359">
        <ele>329.7</ele>
        <time>2022-05-15T14:31:58Z</time>
      </trkpt>
      <trkpt lat="43.81962" lon="5.35386">
        <ele>329.4</ele>
        <time>2022-05-15T14:32:04Z</time>
      </trkpt>
      <trkpt lat="43.8199" lon="5.35424">
        <ele>326.3</ele>
        <time>2022-05-15T14:32:12Z</time>
      </trkpt>
      <trkpt lat="43.81995" lon="5.35432">
        <ele>325.8</ele>
        <time>2022-05-15T14:32:14Z</time>
      </trkpt>
      <trkpt lat="43.82005" lon="5.35447">
        <ele>325.5</ele>
        <time>2022-05-15T14:32:17Z</time>
      </trkpt>
      <trkpt lat="43.82007" lon="5.35452">
        <ele>325.7</ele>
        <time>2022-05-15T14:32:18Z</time>
      </trkpt>
      <trkpt lat="43.82015" lon="5.35465">
        <ele>326.2</ele>
        <time>2022-05-15T14:32:21Z</time>
      </trkpt>
      <trkpt lat="43.82021" lon="5.35474">
        <ele>326.5</ele>
        <time>2022-05-15T14:32:23Z</time>
      </trkpt>
      <trkpt lat="43.82026" lon="5.35484">
        <ele>326.7</ele>
        <time>2022-05-15T14:32:25Z</time>
      </trkpt>
      <trkpt lat="43.82029" lon="5.35489">
        <ele>326.7</ele>
        <time>2022-05-15T14:32:26Z</time>
      </trkpt>
      <trkpt lat="43.82042" lon="5.35511">
        <ele>327.2</ele>
        <time>2022-05-15T14:32:31Z</time>
      </trkpt>
      <trkpt lat="43.82059" lon="5.35548">
        <ele>327.7</ele>
        <time>2022-05-15T14:32:39Z</time>
      </trkpt>
      <trkpt lat="43.82075" lon="5.35576">
        <ele>326.3</ele>
        <time>2022-05-15T14:32:46Z</time>
      </trkpt>
      <trkpt lat="43.82085" lon="5.35593">
        <ele>325.4</ele>
        <time>2022-05-15T14:32:51Z</time>
      </trkpt>
      <trkpt lat="43.82097" lon="5.35616">
        <ele>326.9</ele>
        <time>2022-05-15T14:32:57Z</time>
      </trkpt>
      <trkpt lat="43.82109" lon="5.35636">
        <ele>327.8</ele>
        <time>2022-05-15T14:33:03Z</time>
      </trkpt>
      <trkpt lat="43.82123" lon="5.35651">
        <ele>328.3</ele>
        <time>2022-05-15T14:33:09Z</time>
      </trkpt>
      <trkpt lat="43.82142" lon="5.35675">
        <ele>328.5</ele>
        <time>2022-05-15T14:33:17Z</time>
      </trkpt>
      <trkpt lat="43.82153" lon="5.35695">
        <ele>328.5</ele>
        <time>2022-05-15T14:33:22Z</time>
      </trkpt>
      <trkpt lat="43.82164" lon="5.35717">
        <ele>327.9</ele>
        <time>2022-05-15T14:33:28Z</time>
      </trkpt>
      <trkpt lat="43.82178" lon="5.35736">
        <ele>329.2</ele>
        <time>2022-05-15T14:33:33Z</time>
      </trkpt>
      <trkpt lat="43.82192" lon="5.35755">
        <ele>331.1</ele>
        <time>2022-05-15T14:33:39Z</time>
      </trkpt>
      <trkpt lat="43.82199" lon="5.35776">
        <ele>332.7</ele>
        <time>2022-05-15T14:33:46Z</time>
      </trkpt>
      <trkpt lat="43.82201" lon="5.35793">
        <ele>333.3</ele>
        <time>2022-05-15T14:33:51Z</time>
      </trkpt>
      <trkpt lat="43.82208" lon="5.35811">
        <ele>334.2</ele>
        <time>2022-05-15T14:33:57Z</time>
      </trkpt>
      <trkpt lat="43.82216" lon="5.35826">
        <ele>334.8</ele>
        <time>2022-05-15T14:34:02Z</time>
      </trkpt>
      <trkpt lat="43.82226" lon="5.3584">
        <ele>335.3</ele>
        <time>2022-05-15T14:34:07Z</time>
      </trkpt>
      <trkpt lat="43.82236" lon="5.35857">
        <ele>336</ele>
        <time>2022-05-15T14:34:13Z</time>
      </trkpt>
      <trkpt lat="43.82246" lon="5.3587">
        <ele>336.4</ele>
        <time>2022-05-15T14:34:18Z</time>
      </trkpt>
      <trkpt lat="43.82259" lon="5.35876">
        <ele>338.2</ele>
        <time>2022-05-15T14:34:24Z</time>
      </trkpt>
      <trkpt lat="43.82279" lon="5.35876">
        <ele>341.9</ele>
        <time>2022-05-15T14:34:31Z</time>
      </trkpt>
      <trkpt lat="43.82299" lon="5.35874">
        <ele>345.7</ele>
        <time>2022-05-15T14:34:38Z</time>
      </trkpt>
      <trkpt lat="43.82314" lon="5.35877">
        <ele>348.2</ele>
        <time>2022-05-15T14:34:44Z</time>
      </trkpt>
      <trkpt lat="43.82332" lon="5.35886">
        <ele>350.5</ele>
        <time>2022-05-15T14:34:51Z</time>
      </trkpt>
      <trkpt lat="43.82347" lon="5.3589">
        <ele>351.3</ele>
        <time>2022-05-15T14:34:57Z</time>
      </trkpt>
      <trkpt lat="43.82367" lon="5.3588">
        <ele>354.4</ele>
        <time>2022-05-15T14:35:05Z</time>
      </trkpt>
      <trkpt lat="43.82379" lon="5.35876">
        <ele>356</ele>
        <time>2022-05-15T14:35:10Z</time>
      </trkpt>
      <trkpt lat="43.82381" lon="5.35878">
        <ele>355.9</ele>
        <time>2022-05-15T14:35:11Z</time>
      </trkpt>
      <trkpt lat="43.82389" lon="5.35889">
        <ele>355</ele>
        <time>2022-05-15T14:35:14Z</time>
      </trkpt>
      <trkpt lat="43.82401" lon="5.359">
        <ele>354.4</ele>
        <time>2022-05-15T14:35:17Z</time>
      </trkpt>
      <trkpt lat="43.82407" lon="5.359">
        <ele>354.8</ele>
        <time>2022-05-15T14:35:18Z</time>
      </trkpt>
      <trkpt lat="43.82413" lon="5.359">
        <ele>355.3</ele>
        <time>2022-05-15T14:35:19Z</time>
      </trkpt>
      <trkpt lat="43.82426" lon="5.35899">
        <ele>356.5</ele>
        <time>2022-05-15T14:35:21Z</time>
      </trkpt>
      <trkpt lat="43.82441" lon="5.35905">
        <ele>357</ele>
        <time>2022-05-15T14:35:23Z</time>
      </trkpt>
      <trkpt lat="43.82449" lon="5.35906">
        <ele>357.5</ele>
        <time>2022-05-15T14:35:24Z</time>
      </trkpt>
      <trkpt lat="43.82456" lon="5.35903">
        <ele>358.5</ele>
        <time>2022-05-15T14:35:25Z</time>
      </trkpt>
      <trkpt lat="43.82467" lon="5.35893">
        <ele>360.7</ele>
        <time>2022-05-15T14:35:27Z</time>
      </trkpt>
      <trkpt lat="43.82483" lon="5.35877">
        <ele>363.7</ele>
        <time>2022-05-15T14:35:31Z</time>
      </trkpt>
      <trkpt lat="43.82506" lon="5.35858">
        <ele>366.7</ele>
        <time>2022-05-15T14:35:38Z</time>
      </trkpt>
      <trkpt lat="43.82535" lon="5.35854">
        <ele>366.9</ele>
        <time>2022-05-15T14:35:46Z</time>
      </trkpt>
      <trkpt lat="43.82559" lon="5.35855">
        <ele>366.8</ele>
        <time>2022-05-15T14:35:53Z</time>
      </trkpt>
      <trkpt lat="43.82579" lon="5.35856">
        <ele>366.8</ele>
        <time>2022-05-15T14:35:59Z</time>
      </trkpt>
      <trkpt lat="43.82594" lon="5.35857">
        <ele>367.3</ele>
        <time>2022-05-15T14:36:04Z</time>
      </trkpt>
      <trkpt lat="43.82613" lon="5.35857">
        <ele>368.2</ele>
        <time>2022-05-15T14:36:10Z</time>
      </trkpt>
      <trkpt lat="43.8264" lon="5.3586">
        <ele>369.8</ele>
        <time>2022-05-15T14:36:18Z</time>
      </trkpt>
      <trkpt lat="43.82661" lon="5.35873">
        <ele>372.8</ele>
        <time>2022-05-15T14:36:25Z</time>
      </trkpt>
      <trkpt lat="43.82675" lon="5.35889">
        <ele>375.8</ele>
        <time>2022-05-15T14:36:31Z</time>
      </trkpt>
      <trkpt lat="43.82689" lon="5.35903">
        <ele>378</ele>
        <time>2022-05-15T14:36:37Z</time>
      </trkpt>
      <trkpt lat="43.82704" lon="5.35924">
        <ele>382.1</ele>
        <time>2022-05-15T14:36:44Z</time>
      </trkpt>
      <trkpt lat="43.82716" lon="5.35946">
        <ele>388.2</ele>
        <time>2022-05-15T14:36:51Z</time>
      </trkpt>
      <trkpt lat="43.82728" lon="5.35964">
        <ele>393.2</ele>
        <time>2022-05-15T14:36:57Z</time>
      </trkpt>
      <trkpt lat="43.82744" lon="5.35984">
        <ele>398.6</ele>
        <time>2022-05-15T14:37:03Z</time>
      </trkpt>
      <trkpt lat="43.82762" lon="5.36012">
        <ele>402.8</ele>
        <time>2022-05-15T14:37:10Z</time>
      </trkpt>
      <trkpt lat="43.82775" lon="5.3604">
        <ele>405.3</ele>
        <time>2022-05-15T14:37:16Z</time>
      </trkpt>
      <trkpt lat="43.8279" lon="5.3607">
        <ele>407.5</ele>
        <time>2022-05-15T14:37:22Z</time>
      </trkpt>
      <trkpt lat="43.82801" lon="5.36094">
        <ele>409.2</ele>
        <time>2022-05-15T14:37:26Z</time>
      </trkpt>
      <trkpt lat="43.82805" lon="5.36106">
        <ele>410.4</ele>
        <time>2022-05-15T14:37:28Z</time>
      </trkpt>
      <trkpt lat="43.82815" lon="5.36141">
        <ele>413.8</ele>
        <time>2022-05-15T14:37:33Z</time>
      </trkpt>
      <trkpt lat="43.82827" lon="5.36182">
        <ele>416.9</ele>
        <time>2022-05-15T14:37:39Z</time>
      </trkpt>
      <trkpt lat="43.82837" lon="5.36217">
        <ele>418.5</ele>
        <time>2022-05-15T14:37:44Z</time>
      </trkpt>
      <trkpt lat="43.82849" lon="5.36265">
        <ele>419.8</ele>
        <time>2022-05-15T14:37:51Z</time>
      </trkpt>
      <trkpt lat="43.82858" lon="5.36296">
        <ele>419.3</ele>
        <time>2022-05-15T14:37:56Z</time>
      </trkpt>
      <trkpt lat="43.8286" lon="5.36302">
        <ele>419.1</ele>
        <time>2022-05-15T14:37:57Z</time>
      </trkpt>
      <trkpt lat="43.82872" lon="5.36336">
        <ele>417.8</ele>
        <time>2022-05-15T14:38:04Z</time>
      </trkpt>
      <trkpt lat="43.82882" lon="5.3636">
        <ele>417</ele>
        <time>2022-05-15T14:38:10Z</time>
      </trkpt>
      <trkpt lat="43.82893" lon="5.3638">
        <ele>415.5</ele>
        <time>2022-05-15T14:38:15Z</time>
      </trkpt>
      <trkpt lat="43.82896" lon="5.36385">
        <ele>415.1</ele>
        <time>2022-05-15T14:38:16Z</time>
      </trkpt>
      <trkpt lat="43.82911" lon="5.36404">
        <ele>412.3</ele>
        <time>2022-05-15T14:38:20Z</time>
      </trkpt>
      <trkpt lat="43.82934" lon="5.36434">
        <ele>412.3</ele>
        <time>2022-05-15T14:38:26Z</time>
      </trkpt>
      <trkpt lat="43.8296" lon="5.36464">
        <ele>414.3</ele>
        <time>2022-05-15T14:38:33Z</time>
      </trkpt>
      <trkpt lat="43.82974" lon="5.36486">
        <ele>417.2</ele>
        <time>2022-05-15T14:38:38Z</time>
      </trkpt>
      <trkpt lat="43.82992" lon="5.36516">
        <ele>420.7</ele>
        <time>2022-05-15T14:38:45Z</time>
      </trkpt>
      <trkpt lat="43.83007" lon="5.36532">
        <ele>420.8</ele>
        <time>2022-05-15T14:38:50Z</time>
      </trkpt>
      <trkpt lat="43.83031" lon="5.36542">
        <ele>417.4</ele>
        <time>2022-05-15T14:38:56Z</time>
      </trkpt>
      <trkpt lat="43.83053" lon="5.36549">
        <ele>414</ele>
        <time>2022-05-15T14:39:02Z</time>
      </trkpt>
      <trkpt lat="43.83081" lon="5.36556">
        <ele>409.5</ele>
        <time>2022-05-15T14:39:09Z</time>
      </trkpt>
      <trkpt lat="43.83103" lon="5.36561">
        <ele>409.9</ele>
        <time>2022-05-15T14:39:15Z</time>
      </trkpt>
      <trkpt lat="43.83127" lon="5.36564">
        <ele>410.3</ele>
        <time>2022-05-15T14:39:21Z</time>
      </trkpt>
      <trkpt lat="43.83154" lon="5.36573">
        <ele>410.8</ele>
        <time>2022-05-15T14:39:27Z</time>
      </trkpt>
      <trkpt lat="43.83183" lon="5.36587">
        <ele>411.3</ele>
        <time>2022-05-15T14:39:34Z</time>
      </trkpt>
      <trkpt lat="43.83214" lon="5.36605">
        <ele>413.9</ele>
        <time>2022-05-15T14:39:42Z</time>
      </trkpt>
      <trkpt lat="43.83235" lon="5.36618">
        <ele>415.7</ele>
        <time>2022-05-15T14:39:48Z</time>
      </trkpt>
      <trkpt lat="43.8326" lon="5.36633">
        <ele>417.6</ele>
        <time>2022-05-15T14:39:56Z</time>
      </trkpt>
      <trkpt lat="43.83288" lon="5.36648">
        <ele>418.5</ele>
        <time>2022-05-15T14:40:05Z</time>
      </trkpt>
      <trkpt lat="43.83315" lon="5.36661">
        <ele>418.1</ele>
        <time>2022-05-15T14:40:14Z</time>
      </trkpt>
      <trkpt lat="43.8333" lon="5.36674">
        <ele>418.3</ele>
        <time>2022-05-15T14:40:20Z</time>
      </trkpt>
      <trkpt lat="43.83344" lon="5.36693">
        <ele>420.5</ele>
        <time>2022-05-15T14:40:27Z</time>
      </trkpt>
      <trkpt lat="43.83351" lon="5.36702">
        <ele>421.5</ele>
        <time>2022-05-15T14:40:31Z</time>
      </trkpt>
      <trkpt lat="43.83353" lon="5.36705">
        <ele>421.8</ele>
        <time>2022-05-15T14:40:32Z</time>
      </trkpt>
      <trkpt lat="43.8337" lon="5.36728">
        <ele>424.1</ele>
        <time>2022-05-15T14:40:39Z</time>
      </trkpt>
      <trkpt lat="43.83387" lon="5.36755">
        <ele>426.2</ele>
        <time>2022-05-15T14:40:46Z</time>
      </trkpt>
      <trkpt lat="43.83403" lon="5.36778">
        <ele>427.3</ele>
        <time>2022-05-15T14:40:53Z</time>
      </trkpt>
      <trkpt lat="43.83422" lon="5.36799">
        <ele>427.9</ele>
        <time>2022-05-15T14:41:01Z</time>
      </trkpt>
      <trkpt lat="43.83433" lon="5.36814">
        <ele>428.6</ele>
        <time>2022-05-15T14:41:06Z</time>
      </trkpt>
      <trkpt lat="43.83445" lon="5.36829">
        <ele>429.3</ele>
        <time>2022-05-15T14:41:12Z</time>
      </trkpt>
      <trkpt lat="43.83454" lon="5.36846">
        <ele>430.7</ele>
        <time>2022-05-15T14:41:17Z</time>
      </trkpt>
      <trkpt lat="43.83468" lon="5.36866">
        <ele>432.2</ele>
        <time>2022-05-15T14:41:23Z</time>
      </trkpt>
      <trkpt lat="43.8348" lon="5.36889">
        <ele>434.1</ele>
        <time>2022-05-15T14:41:29Z</time>
      </trkpt>
      <trkpt lat="43.83495" lon="5.36913">
        <ele>435.9</ele>
        <time>2022-05-15T14:41:36Z</time>
      </trkpt>
      <trkpt lat="43.83509" lon="5.36933">
        <ele>436.9</ele>
        <time>2022-05-15T14:41:42Z</time>
      </trkpt>
      <trkpt lat="43.83523" lon="5.36952">
        <ele>437.7</ele>
        <time>2022-05-15T14:41:48Z</time>
      </trkpt>
      <trkpt lat="43.83542" lon="5.36978">
        <ele>439</ele>
        <time>2022-05-15T14:41:55Z</time>
      </trkpt>
      <trkpt lat="43.83557" lon="5.37004">
        <ele>440.6</ele>
        <time>2022-05-15T14:42:01Z</time>
      </trkpt>
      <trkpt lat="43.83562" lon="5.37029">
        <ele>442.3</ele>
        <time>2022-05-15T14:42:06Z</time>
      </trkpt>
      <trkpt lat="43.83554" lon="5.37056">
        <ele>446</ele>
        <time>2022-05-15T14:42:12Z</time>
      </trkpt>
      <trkpt lat="43.83545" lon="5.37078">
        <ele>449.8</ele>
        <time>2022-05-15T14:42:18Z</time>
      </trkpt>
      <trkpt lat="43.83536" lon="5.371">
        <ele>453.5</ele>
        <time>2022-05-15T14:42:24Z</time>
      </trkpt>
      <trkpt lat="43.83528" lon="5.37114">
        <ele>456.4</ele>
        <time>2022-05-15T14:42:29Z</time>
      </trkpt>
      <trkpt lat="43.83526" lon="5.3713">
        <ele>458.4</ele>
        <time>2022-05-15T14:42:34Z</time>
      </trkpt>
      <trkpt lat="43.83534" lon="5.37144">
        <ele>457.7</ele>
        <time>2022-05-15T14:42:38Z</time>
      </trkpt>
      <trkpt lat="43.83554" lon="5.37171">
        <ele>454.4</ele>
        <time>2022-05-15T14:42:46Z</time>
      </trkpt>
      <trkpt lat="43.83562" lon="5.37183">
        <ele>453.1</ele>
        <time>2022-05-15T14:42:50Z</time>
      </trkpt>
      <trkpt lat="43.83562" lon="5.37188">
        <ele>453.5</ele>
        <time>2022-05-15T14:42:51Z</time>
      </trkpt>
      <trkpt lat="43.8356" lon="5.37203">
        <ele>455.1</ele>
        <time>2022-05-15T14:42:56Z</time>
      </trkpt>
      <trkpt lat="43.83561" lon="5.37201">
        <ele>454.7</ele>
        <time>2022-05-15T14:43:05Z</time>
      </trkpt>
      <trkpt lat="43.83561" lon="5.37191">
        <ele>454</ele>
        <time>2022-05-15T14:43:09Z</time>
      </trkpt>
      <trkpt lat="43.83555" lon="5.37179">
        <ele>454.7</ele>
        <time>2022-05-15T14:43:12Z</time>
      </trkpt>
      <trkpt lat="43.83552" lon="5.37174">
        <ele>455.2</ele>
        <time>2022-05-15T14:43:13Z</time>
      </trkpt>
      <trkpt lat="43.83531" lon="5.37145">
        <ele>458.5</ele>
        <time>2022-05-15T14:43:18Z</time>
      </trkpt>
      <trkpt lat="43.83528" lon="5.37139">
        <ele>458.7</ele>
        <time>2022-05-15T14:43:19Z</time>
      </trkpt>
      <trkpt lat="43.83527" lon="5.37124">
        <ele>457.6</ele>
        <time>2022-05-15T14:43:21Z</time>
      </trkpt>
      <trkpt lat="43.8353" lon="5.3711">
        <ele>455.6</ele>
        <time>2022-05-15T14:43:23Z</time>
      </trkpt>
      <trkpt lat="43.83532" lon="5.37105">
        <ele>454.8</ele>
        <time>2022-05-15T14:43:24Z</time>
      </trkpt>
      <trkpt lat="43.83532" lon="5.371">
        <ele>454.3</ele>
        <time>2022-05-15T14:43:25Z</time>
      </trkpt>
      <trkpt lat="43.83527" lon="5.37091">
        <ele>454.5</ele>
        <time>2022-05-15T14:43:27Z</time>
      </trkpt>
      <trkpt lat="43.83515" lon="5.37082">
        <ele>455.9</ele>
        <time>2022-05-15T14:43:31Z</time>
      </trkpt>
      <trkpt lat="43.83505" lon="5.37072">
        <ele>456.2</ele>
        <time>2022-05-15T14:43:35Z</time>
      </trkpt>
      <trkpt lat="43.83485" lon="5.3705">
        <ele>454.7</ele>
        <time>2022-05-15T14:43:43Z</time>
      </trkpt>
      <trkpt lat="43.8348" lon="5.37046">
        <ele>454.4</ele>
        <time>2022-05-15T14:43:47Z</time>
      </trkpt>
      <trkpt lat="43.83478" lon="5.37046">
        <ele>454.6</ele>
        <time>2022-05-15T14:44:15Z</time>
      </trkpt>
      <trkpt lat="43.83475" lon="5.37049">
        <ele>455.4</ele>
        <time>2022-05-15T14:44:17Z</time>
      </trkpt>
      <trkpt lat="43.83475" lon="5.37053">
        <ele>456.1</ele>
        <time>2022-05-15T14:44:19Z</time>
      </trkpt>
      <trkpt lat="43.83472" lon="5.37059">
        <ele>457.4</ele>
        <time>2022-05-15T14:44:22Z</time>
      </trkpt>
      <trkpt lat="43.83461" lon="5.37064">
        <ele>459.3</ele>
        <time>2022-05-15T14:44:27Z</time>
      </trkpt>
      <trkpt lat="43.83448" lon="5.3706">
        <ele>459.7</ele>
        <time>2022-05-15T14:44:32Z</time>
      </trkpt>
      <trkpt lat="43.83432" lon="5.37052">
        <ele>459.7</ele>
        <time>2022-05-15T14:44:37Z</time>
      </trkpt>
      <trkpt lat="43.83408" lon="5.37044">
        <ele>459.7</ele>
        <time>2022-05-15T14:44:45Z</time>
      </trkpt>
      <trkpt lat="43.83386" lon="5.37038">
        <ele>459.3</ele>
        <time>2022-05-15T14:44:53Z</time>
      </trkpt>
      <trkpt lat="43.8337" lon="5.37034">
        <ele>459.1</ele>
        <time>2022-05-15T14:44:59Z</time>
      </trkpt>
      <trkpt lat="43.8336" lon="5.37024">
        <ele>457.7</ele>
        <time>2022-05-15T14:45:05Z</time>
      </trkpt>
      <trkpt lat="43.83356" lon="5.37017">
        <ele>456.7</ele>
        <time>2022-05-15T14:45:08Z</time>
      </trkpt>
      <trkpt lat="43.83356" lon="5.37015">
        <ele>456.4</ele>
        <time>2022-05-15T14:45:09Z</time>
      </trkpt>
      <trkpt lat="43.8335" lon="5.37012">
        <ele>456.2</ele>
        <time>2022-05-15T14:45:12Z</time>
      </trkpt>
      <trkpt lat="43.83347" lon="5.37014">
        <ele>456.6</ele>
        <time>2022-05-15T14:45:14Z</time>
      </trkpt>
      <trkpt lat="43.83347" lon="5.37023">
        <ele>458.1</ele>
        <time>2022-05-15T14:45:18Z</time>
      </trkpt>
      <trkpt lat="43.83345" lon="5.37037">
        <ele>460.4</ele>
        <time>2022-05-15T14:45:23Z</time>
      </trkpt>
      <trkpt lat="43.83341" lon="5.37048">
        <ele>462.3</ele>
        <time>2022-05-15T14:45:28Z</time>
      </trkpt>
      <trkpt lat="43.83339" lon="5.3705">
        <ele>462.7</ele>
        <time>2022-05-15T14:45:29Z</time>
      </trkpt>
      <trkpt lat="43.83334" lon="5.37053">
        <ele>463.3</ele>
        <time>2022-05-15T14:45:32Z</time>
      </trkpt>
      <trkpt lat="43.83323" lon="5.37053">
        <ele>465.4</ele>
        <time>2022-05-15T14:45:38Z</time>
      </trkpt>
      <trkpt lat="43.83313" lon="5.37054">
        <ele>467.6</ele>
        <time>2022-05-15T14:45:43Z</time>
      </trkpt>
      <trkpt lat="43.83302" lon="5.37059">
        <ele>470.5</ele>
        <time>2022-05-15T14:45:48Z</time>
      </trkpt>
      <trkpt lat="43.833" lon="5.3706">
        <ele>471.1</ele>
        <time>2022-05-15T14:45:49Z</time>
      </trkpt>
      <trkpt lat="43.83299" lon="5.37066">
        <ele>472.1</ele>
        <time>2022-05-15T14:45:51Z</time>
      </trkpt>
      <trkpt lat="43.83301" lon="5.37071">
        <ele>472.5</ele>
        <time>2022-05-15T14:45:53Z</time>
      </trkpt>
      <trkpt lat="43.83305" lon="5.37073">
        <ele>472</ele>
        <time>2022-05-15T14:45:55Z</time>
      </trkpt>
      <trkpt lat="43.83314" lon="5.37078">
        <ele>470.9</ele>
        <time>2022-05-15T14:46:00Z</time>
      </trkpt>
      <trkpt lat="43.83328" lon="5.3709">
        <ele>470.9</ele>
        <time>2022-05-15T14:46:06Z</time>
      </trkpt>
      <trkpt lat="43.83347" lon="5.37102">
        <ele>473</ele>
        <time>2022-05-15T14:46:13Z</time>
      </trkpt>
      <trkpt lat="43.8336" lon="5.37118">
        <ele>476.9</ele>
        <time>2022-05-15T14:46:19Z</time>
      </trkpt>
      <trkpt lat="43.83373" lon="5.37138">
        <ele>481.4</ele>
        <time>2022-05-15T14:46:26Z</time>
      </trkpt>
      <trkpt lat="43.8338" lon="5.37152">
        <ele>484.4</ele>
        <time>2022-05-15T14:46:31Z</time>
      </trkpt>
      <trkpt lat="43.83387" lon="5.37172">
        <ele>488.5</ele>
        <time>2022-05-15T14:46:37Z</time>
      </trkpt>
      <trkpt lat="43.8339" lon="5.37194">
        <ele>492.3</ele>
        <time>2022-05-15T14:46:43Z</time>
      </trkpt>
      <trkpt lat="43.83389" lon="5.37197">
        <ele>492.9</ele>
        <time>2022-05-15T14:46:44Z</time>
      </trkpt>
      <trkpt lat="43.83388" lon="5.37215">
        <ele>496.3</ele>
        <time>2022-05-15T14:46:49Z</time>
      </trkpt>
      <trkpt lat="43.83386" lon="5.37234">
        <ele>500.1</ele>
        <time>2022-05-15T14:46:55Z</time>
      </trkpt>
      <trkpt lat="43.83381" lon="5.37249">
        <ele>503.5</ele>
        <time>2022-05-15T14:47:00Z</time>
      </trkpt>
      <trkpt lat="43.83374" lon="5.37267">
        <ele>505.3</ele>
        <time>2022-05-15T14:47:06Z</time>
      </trkpt>
      <trkpt lat="43.83367" lon="5.37282">
        <ele>506.9</ele>
        <time>2022-05-15T14:47:12Z</time>
      </trkpt>
      <trkpt lat="43.83361" lon="5.37291">
        <ele>508.2</ele>
        <time>2022-05-15T14:47:16Z</time>
      </trkpt>
      <trkpt lat="43.8336" lon="5.37292">
        <ele>508.3</ele>
        <time>2022-05-15T14:47:17Z</time>
      </trkpt>
      <trkpt lat="43.83354" lon="5.37305">
        <ele>509.7</ele>
        <time>2022-05-15T14:47:23Z</time>
      </trkpt>
      <trkpt lat="43.83346" lon="5.37321">
        <ele>511.6</ele>
        <time>2022-05-15T14:47:30Z</time>
      </trkpt>
      <trkpt lat="43.83344" lon="5.37324">
        <ele>512</ele>
        <time>2022-05-15T14:47:32Z</time>
      </trkpt>
      <trkpt lat="43.83342" lon="5.37328">
        <ele>512.5</ele>
        <time>2022-05-15T14:47:34Z</time>
      </trkpt>
      <trkpt lat="43.83341" lon="5.37331">
        <ele>512.8</ele>
        <time>2022-05-15T14:47:35Z</time>
      </trkpt>
      <trkpt lat="43.8334" lon="5.37338">
        <ele>513.2</ele>
        <time>2022-05-15T14:47:38Z</time>
      </trkpt>
      <trkpt lat="43.83337" lon="5.37349">
        <ele>513.9</ele>
        <time>2022-05-15T14:47:43Z</time>
      </trkpt>
      <trkpt lat="43.83333" lon="5.3736">
        <ele>514.6</ele>
        <time>2022-05-15T14:47:48Z</time>
      </trkpt>
      <trkpt lat="43.83331" lon="5.37369">
        <ele>514.9</ele>
        <time>2022-05-15T14:47:52Z</time>
      </trkpt>
      <trkpt lat="43.8333" lon="5.37372">
        <ele>515</ele>
        <time>2022-05-15T14:47:53Z</time>
      </trkpt>
      <trkpt lat="43.83324" lon="5.37385">
        <ele>515.4</ele>
        <time>2022-05-15T14:47:59Z</time>
      </trkpt>
      <trkpt lat="43.83319" lon="5.37389">
        <ele>515.6</ele>
        <time>2022-05-15T14:48:03Z</time>
      </trkpt>
      <trkpt lat="43.83317" lon="5.3739">
        <ele>515.7</ele>
        <time>2022-05-15T14:48:04Z</time>
      </trkpt>
      <trkpt lat="43.83312" lon="5.374">
        <ele>516.1</ele>
        <time>2022-05-15T14:48:09Z</time>
      </trkpt>
      <trkpt lat="43.83311" lon="5.37401">
        <ele>516.1</ele>
        <time>2022-05-15T14:48:10Z</time>
      </trkpt>
      <trkpt lat="43.83306" lon="5.37406">
        <ele>516.4</ele>
        <time>2022-05-15T14:48:13Z</time>
      </trkpt>
      <trkpt lat="43.83303" lon="5.37409">
        <ele>516.5</ele>
        <time>2022-05-15T14:48:15Z</time>
      </trkpt>
      <trkpt lat="43.83297" lon="5.37417">
        <ele>516.9</ele>
        <time>2022-05-15T14:48:20Z</time>
      </trkpt>
      <trkpt lat="43.83296" lon="5.37418">
        <ele>516.9</ele>
        <time>2022-05-15T14:48:21Z</time>
      </trkpt>
      <trkpt lat="43.83289" lon="5.37424">
        <ele>517.2</ele>
        <time>2022-05-15T14:48:26Z</time>
      </trkpt>
      <trkpt lat="43.83287" lon="5.37425">
        <ele>517.2</ele>
        <time>2022-05-15T14:48:27Z</time>
      </trkpt>
      <trkpt lat="43.83283" lon="5.37426">
        <ele>517.3</ele>
        <time>2022-05-15T14:48:29Z</time>
      </trkpt>
      <trkpt lat="43.83279" lon="5.37426">
        <ele>517.4</ele>
        <time>2022-05-15T14:48:31Z</time>
      </trkpt>
      <trkpt lat="43.83273" lon="5.3743">
        <ele>517.6</ele>
        <time>2022-05-15T14:48:35Z</time>
      </trkpt>
      <trkpt lat="43.83268" lon="5.37433">
        <ele>517.7</ele>
        <time>2022-05-15T14:48:39Z</time>
      </trkpt>
      <trkpt lat="43.8326" lon="5.37442">
        <ele>517.9</ele>
        <time>2022-05-15T14:48:44Z</time>
      </trkpt>
      <trkpt lat="43.83256" lon="5.37456">
        <ele>518</ele>
        <time>2022-05-15T14:48:48Z</time>
      </trkpt>
      <trkpt lat="43.83257" lon="5.37466">
        <ele>518</ele>
        <time>2022-05-15T14:48:51Z</time>
      </trkpt>
      <trkpt lat="43.83258" lon="5.37472">
        <ele>518</ele>
        <time>2022-05-15T14:48:53Z</time>
      </trkpt>
      <trkpt lat="43.83258" lon="5.37481">
        <ele>518</ele>
        <time>2022-05-15T14:48:56Z</time>
      </trkpt>
      <trkpt lat="43.83256" lon="5.37484">
        <ele>518</ele>
        <time>2022-05-15T14:48:57Z</time>
      </trkpt>
      <trkpt lat="43.83244" lon="5.37493">
        <ele>517.9</ele>
        <time>2022-05-15T14:49:03Z</time>
      </trkpt>
      <trkpt lat="43.83228" lon="5.37508">
        <ele>517.3</ele>
        <time>2022-05-15T14:49:10Z</time>
      </trkpt>
      <trkpt lat="43.83212" lon="5.37524">
        <ele>516.1</ele>
        <time>2022-05-15T14:49:16Z</time>
      </trkpt>
      <trkpt lat="43.83193" lon="5.37551">
        <ele>514</ele>
        <time>2022-05-15T14:49:23Z</time>
      </trkpt>
      <trkpt lat="43.83181" lon="5.37576">
        <ele>512</ele>
        <time>2022-05-15T14:49:29Z</time>
      </trkpt>
      <trkpt lat="43.83182" lon="5.37598">
        <ele>508</ele>
        <time>2022-05-15T14:49:33Z</time>
      </trkpt>
      <trkpt lat="43.83179" lon="5.3761">
        <ele>505</ele>
        <time>2022-05-15T14:49:35Z</time>
      </trkpt>
      <trkpt lat="43.83174" lon="5.37614">
        <ele>503.7</ele>
        <time>2022-05-15T14:49:36Z</time>
      </trkpt>
      <trkpt lat="43.83168" lon="5.37615">
        <ele>503.1</ele>
        <time>2022-05-15T14:49:37Z</time>
      </trkpt>
      <trkpt lat="43.83154" lon="5.37617">
        <ele>500.8</ele>
        <time>2022-05-15T14:49:39Z</time>
      </trkpt>
      <trkpt lat="43.83138" lon="5.37623">
        <ele>497.4</ele>
        <time>2022-05-15T14:49:41Z</time>
      </trkpt>
      <trkpt lat="43.83129" lon="5.37625">
        <ele>495.8</ele>
        <time>2022-05-15T14:49:42Z</time>
      </trkpt>
      <trkpt lat="43.83118" lon="5.37625">
        <ele>494.4</ele>
        <time>2022-05-15T14:49:43Z</time>
      </trkpt>
      <trkpt lat="43.83086" lon="5.37625">
        <ele>490.3</ele>
        <time>2022-05-15T14:49:46Z</time>
      </trkpt>
      <trkpt lat="43.83053" lon="5.37625">
        <ele>484.2</ele>
        <time>2022-05-15T14:49:49Z</time>
      </trkpt>
      <trkpt lat="43.83045" lon="5.37624">
        <ele>482.8</ele>
        <time>2022-05-15T14:49:50Z</time>
      </trkpt>
      <trkpt lat="43.83038" lon="5.37622">
        <ele>481.8</ele>
        <time>2022-05-15T14:49:51Z</time>
      </trkpt>
      <trkpt lat="43.83034" lon="5.37621">
        <ele>481.2</ele>
        <time>2022-05-15T14:49:52Z</time>
      </trkpt>
      <trkpt lat="43.83031" lon="5.37622">
        <ele>480.5</ele>
        <time>2022-05-15T14:49:53Z</time>
      </trkpt>
      <trkpt lat="43.83031" lon="5.37626">
        <ele>479.8</ele>
        <time>2022-05-15T14:49:54Z</time>
      </trkpt>
      <trkpt lat="43.83038" lon="5.37635">
        <ele>479.5</ele>
        <time>2022-05-15T14:49:56Z</time>
      </trkpt>
      <trkpt lat="43.83044" lon="5.37641">
        <ele>479.6</ele>
        <time>2022-05-15T14:49:57Z</time>
      </trkpt>
      <trkpt lat="43.83056" lon="5.37657">
        <ele>478.9</ele>
        <time>2022-05-15T14:49:59Z</time>
      </trkpt>
      <trkpt lat="43.83086" lon="5.37694">
        <ele>477</ele>
        <time>2022-05-15T14:50:03Z</time>
      </trkpt>
      <trkpt lat="43.83095" lon="5.37701">
        <ele>476.5</ele>
        <time>2022-05-15T14:50:04Z</time>
      </trkpt>
      <trkpt lat="43.83113" lon="5.37711">
        <ele>476.1</ele>
        <time>2022-05-15T14:50:06Z</time>
      </trkpt>
      <trkpt lat="43.83148" lon="5.37728">
        <ele>475.9</ele>
        <time>2022-05-15T14:50:10Z</time>
      </trkpt>
      <trkpt lat="43.8317" lon="5.37735">
        <ele>476.4</ele>
        <time>2022-05-15T14:50:13Z</time>
      </trkpt>
      <trkpt lat="43.83176" lon="5.37736">
        <ele>476.8</ele>
        <time>2022-05-15T14:50:14Z</time>
      </trkpt>
      <trkpt lat="43.83182" lon="5.37739">
        <ele>476.9</ele>
        <time>2022-05-15T14:50:15Z</time>
      </trkpt>
      <trkpt lat="43.83187" lon="5.37745">
        <ele>476.2</ele>
        <time>2022-05-15T14:50:16Z</time>
      </trkpt>
      <trkpt lat="43.83189" lon="5.37753">
        <ele>475.1</ele>
        <time>2022-05-15T14:50:17Z</time>
      </trkpt>
      <trkpt lat="43.83185" lon="5.37767">
        <ele>473.3</ele>
        <time>2022-05-15T14:50:19Z</time>
      </trkpt>
      <trkpt lat="43.83166" lon="5.37781">
        <ele>470</ele>
        <time>2022-05-15T14:50:22Z</time>
      </trkpt>
      <trkpt lat="43.83149" lon="5.37793">
        <ele>467.3</ele>
        <time>2022-05-15T14:50:25Z</time>
      </trkpt>
      <trkpt lat="43.83145" lon="5.37795">
        <ele>466.7</ele>
        <time>2022-05-15T14:50:26Z</time>
      </trkpt>
      <trkpt lat="43.83131" lon="5.37792">
        <ele>465.8</ele>
        <time>2022-05-15T14:50:30Z</time>
      </trkpt>
      <trkpt lat="43.83116" lon="5.37774">
        <ele>466.3</ele>
        <time>2022-05-15T14:50:35Z</time>
      </trkpt>
      <trkpt lat="43.83099" lon="5.37766">
        <ele>465.6</ele>
        <time>2022-05-15T14:50:39Z</time>
      </trkpt>
      <trkpt lat="43.83089" lon="5.37765">
        <ele>464.9</ele>
        <time>2022-05-15T14:50:41Z</time>
      </trkpt>
      <trkpt lat="43.83056" lon="5.37754">
        <ele>462.1</ele>
        <time>2022-05-15T14:50:47Z</time>
      </trkpt>
      <trkpt lat="43.83031" lon="5.37747">
        <ele>459.6</ele>
        <time>2022-05-15T14:50:51Z</time>
      </trkpt>
      <trkpt lat="43.83026" lon="5.37746">
        <ele>459.1</ele>
        <time>2022-05-15T14:50:52Z</time>
      </trkpt>
      <trkpt lat="43.83022" lon="5.37745">
        <ele>458.7</ele>
        <time>2022-05-15T14:50:53Z</time>
      </trkpt>
      <trkpt lat="43.83012" lon="5.37747">
        <ele>457</ele>
        <time>2022-05-15T14:50:55Z</time>
      </trkpt>
      <trkpt lat="43.83007" lon="5.37747">
        <ele>456.4</ele>
        <time>2022-05-15T14:50:56Z</time>
      </trkpt>
      <trkpt lat="43.83002" lon="5.37749">
        <ele>455.4</ele>
        <time>2022-05-15T14:50:57Z</time>
      </trkpt>
      <trkpt lat="43.82998" lon="5.37754">
        <ele>454.9</ele>
        <time>2022-05-15T14:50:58Z</time>
      </trkpt>
      <trkpt lat="43.82994" lon="5.37761">
        <ele>454.8</ele>
        <time>2022-05-15T14:50:59Z</time>
      </trkpt>
      <trkpt lat="43.82988" lon="5.37775">
        <ele>454.7</ele>
        <time>2022-05-15T14:51:01Z</time>
      </trkpt>
      <trkpt lat="43.82977" lon="5.37793">
        <ele>454.8</ele>
        <time>2022-05-15T14:51:04Z</time>
      </trkpt>
      <trkpt lat="43.82973" lon="5.37799">
        <ele>454.8</ele>
        <time>2022-05-15T14:51:05Z</time>
      </trkpt>
      <trkpt lat="43.82969" lon="5.37805">
        <ele>455</ele>
        <time>2022-05-15T14:51:06Z</time>
      </trkpt>
      <trkpt lat="43.82961" lon="5.37819">
        <ele>455.5</ele>
        <time>2022-05-15T14:51:08Z</time>
      </trkpt>
      <trkpt lat="43.82955" lon="5.37826">
        <ele>455.8</ele>
        <time>2022-05-15T14:51:09Z</time>
      </trkpt>
      <trkpt lat="43.82949" lon="5.37831">
        <ele>456.1</ele>
        <time>2022-05-15T14:51:10Z</time>
      </trkpt>
      <trkpt lat="43.82937" lon="5.37837">
        <ele>456.9</ele>
        <time>2022-05-15T14:51:12Z</time>
      </trkpt>
      <trkpt lat="43.82913" lon="5.37841">
        <ele>458.1</ele>
        <time>2022-05-15T14:51:17Z</time>
      </trkpt>
      <trkpt lat="43.82898" lon="5.37851">
        <ele>460.3</ele>
        <time>2022-05-15T14:51:22Z</time>
      </trkpt>
      <trkpt lat="43.82878" lon="5.37875">
        <ele>464.5</ele>
        <time>2022-05-15T14:51:30Z</time>
      </trkpt>
      <trkpt lat="43.8286" lon="5.37901">
        <ele>468.9</ele>
        <time>2022-05-15T14:51:38Z</time>
      </trkpt>
      <trkpt lat="43.82849" lon="5.37915">
        <ele>471.5</ele>
        <time>2022-05-15T14:51:43Z</time>
      </trkpt>
      <trkpt lat="43.82829" lon="5.37921">
        <ele>473.6</ele>
        <time>2022-05-15T14:51:50Z</time>
      </trkpt>
      <trkpt lat="43.82811" lon="5.37918">
        <ele>475</ele>
        <time>2022-05-15T14:51:57Z</time>
      </trkpt>
      <trkpt lat="43.82794" lon="5.37913">
        <ele>475.9</ele>
        <time>2022-05-15T14:52:04Z</time>
      </trkpt>
      <trkpt lat="43.82775" lon="5.3792">
        <ele>478.2</ele>
        <time>2022-05-15T14:52:12Z</time>
      </trkpt>
      <trkpt lat="43.8276" lon="5.37921">
        <ele>479.6</ele>
        <time>2022-05-15T14:52:18Z</time>
      </trkpt>
      <trkpt lat="43.82752" lon="5.37909">
        <ele>479</ele>
        <time>2022-05-15T14:52:23Z</time>
      </trkpt>
      <trkpt lat="43.82741" lon="5.37888">
        <ele>477.8</ele>
        <time>2022-05-15T14:52:29Z</time>
      </trkpt>
      <trkpt lat="43.82727" lon="5.37871">
        <ele>477.6</ele>
        <time>2022-05-15T14:52:34Z</time>
      </trkpt>
      <trkpt lat="43.82709" lon="5.37858">
        <ele>478.3</ele>
        <time>2022-05-15T14:52:39Z</time>
      </trkpt>
      <trkpt lat="43.82691" lon="5.37856">
        <ele>480.1</ele>
        <time>2022-05-15T14:52:43Z</time>
      </trkpt>
      <trkpt lat="43.82687" lon="5.37857">
        <ele>480.7</ele>
        <time>2022-05-15T14:52:44Z</time>
      </trkpt>
      <trkpt lat="43.82683" lon="5.37858">
        <ele>481.2</ele>
        <time>2022-05-15T14:52:45Z</time>
      </trkpt>
      <trkpt lat="43.82665" lon="5.3786">
        <ele>483.5</ele>
        <time>2022-05-15T14:52:49Z</time>
      </trkpt>
      <trkpt lat="43.82661" lon="5.37859">
        <ele>484.2</ele>
        <time>2022-05-15T14:52:50Z</time>
      </trkpt>
      <trkpt lat="43.82647" lon="5.37849">
        <ele>485.8</ele>
        <time>2022-05-15T14:52:54Z</time>
      </trkpt>
      <trkpt lat="43.82636" lon="5.37837">
        <ele>486.5</ele>
        <time>2022-05-15T14:52:58Z</time>
      </trkpt>
      <trkpt lat="43.82625" lon="5.37825">
        <ele>487</ele>
        <time>2022-05-15T14:53:01Z</time>
      </trkpt>
      <trkpt lat="43.82622" lon="5.37821">
        <ele>486.9</ele>
        <time>2022-05-15T14:53:02Z</time>
      </trkpt>
      <trkpt lat="43.82619" lon="5.37817">
        <ele>486.9</ele>
        <time>2022-05-15T14:53:03Z</time>
      </trkpt>
      <trkpt lat="43.82611" lon="5.37803">
        <ele>486.2</ele>
        <time>2022-05-15T14:53:06Z</time>
      </trkpt>
      <trkpt lat="43.82609" lon="5.37799">
        <ele>486</ele>
        <time>2022-05-15T14:53:07Z</time>
      </trkpt>
      <trkpt lat="43.82597" lon="5.37779">
        <ele>484.8</ele>
        <time>2022-05-15T14:53:12Z</time>
      </trkpt>
      <trkpt lat="43.82579" lon="5.37761">
        <ele>483.9</ele>
        <time>2022-05-15T14:53:18Z</time>
      </trkpt>
      <trkpt lat="43.82555" lon="5.37746">
        <ele>483</ele>
        <time>2022-05-15T14:53:25Z</time>
      </trkpt>
      <trkpt lat="43.82533" lon="5.37738">
        <ele>483.5</ele>
        <time>2022-05-15T14:53:31Z</time>
      </trkpt>
      <trkpt lat="43.82513" lon="5.37725">
        <ele>483.5</ele>
        <time>2022-05-15T14:53:37Z</time>
      </trkpt>
      <trkpt lat="43.82498" lon="5.37721">
        <ele>483.8</ele>
        <time>2022-05-15T14:53:41Z</time>
      </trkpt>
      <trkpt lat="43.82491" lon="5.37716">
        <ele>483.1</ele>
        <time>2022-05-15T14:53:43Z</time>
      </trkpt>
      <trkpt lat="43.82484" lon="5.3771">
        <ele>482.2</ele>
        <time>2022-05-15T14:53:45Z</time>
      </trkpt>
      <trkpt lat="43.82476" lon="5.37707">
        <ele>481.4</ele>
        <time>2022-05-15T14:53:47Z</time>
      </trkpt>
      <trkpt lat="43.82463" lon="5.37704">
        <ele>480.3</ele>
        <time>2022-05-15T14:53:50Z</time>
      </trkpt>
      <trkpt lat="43.82451" lon="5.37702">
        <ele>479.3</ele>
        <time>2022-05-15T14:53:53Z</time>
      </trkpt>
      <trkpt lat="43.82419" lon="5.37697">
        <ele>476.5</ele>
        <time>2022-05-15T14:54:01Z</time>
      </trkpt>
      <trkpt lat="43.82393" lon="5.37701">
        <ele>464.9</ele>
        <time>2022-05-15T14:54:08Z</time>
      </trkpt>
      <trkpt lat="43.82377" lon="5.3771">
        <ele>458.6</ele>
        <time>2022-05-15T14:54:13Z</time>
      </trkpt>
      <trkpt lat="43.82357" lon="5.37716">
        <ele>450</ele>
        <time>2022-05-15T14:54:18Z</time>
      </trkpt>
      <trkpt lat="43.82349" lon="5.3772">
        <ele>447</ele>
        <time>2022-05-15T14:54:20Z</time>
      </trkpt>
      <trkpt lat="43.82337" lon="5.37729">
        <ele>443.4</ele>
        <time>2022-05-15T14:54:23Z</time>
      </trkpt>
      <trkpt lat="43.82325" lon="5.37749">
        <ele>441.6</ele>
        <time>2022-05-15T14:54:27Z</time>
      </trkpt>
      <trkpt lat="43.82322" lon="5.37754">
        <ele>440.8</ele>
        <time>2022-05-15T14:54:28Z</time>
      </trkpt>
      <trkpt lat="43.82318" lon="5.37759">
        <ele>439.2</ele>
        <time>2022-05-15T14:54:29Z</time>
      </trkpt>
      <trkpt lat="43.82309" lon="5.37773">
        <ele>436.1</ele>
        <time>2022-05-15T14:54:32Z</time>
      </trkpt>
      <trkpt lat="43.82297" lon="5.37787">
        <ele>430.4</ele>
        <time>2022-05-15T14:54:37Z</time>
      </trkpt>
      <trkpt lat="43.82288" lon="5.37801">
        <ele>426.3</ele>
        <time>2022-05-15T14:54:41Z</time>
      </trkpt>
      <trkpt lat="43.82279" lon="5.37814">
        <ele>421.7</ele>
        <time>2022-05-15T14:54:45Z</time>
      </trkpt>
      <trkpt lat="43.82266" lon="5.37835">
        <ele>414.4</ele>
        <time>2022-05-15T14:54:51Z</time>
      </trkpt>
      <trkpt lat="43.82259" lon="5.37852">
        <ele>410.8</ele>
        <time>2022-05-15T14:54:56Z</time>
      </trkpt>
      <trkpt lat="43.82249" lon="5.3788">
        <ele>406.9</ele>
        <time>2022-05-15T14:55:03Z</time>
      </trkpt>
      <trkpt lat="43.82243" lon="5.379">
        <ele>408.5</ele>
        <time>2022-05-15T14:55:08Z</time>
      </trkpt>
      <trkpt lat="43.82241" lon="5.37925">
        <ele>410.1</ele>
        <time>2022-05-15T14:55:14Z</time>
      </trkpt>
      <trkpt lat="43.82242" lon="5.37947">
        <ele>410.5</ele>
        <time>2022-05-15T14:55:20Z</time>
      </trkpt>
      <trkpt lat="43.8224" lon="5.37967">
        <ele>410.5</ele>
        <time>2022-05-15T14:55:25Z</time>
      </trkpt>
      <trkpt lat="43.82245" lon="5.37986">
        <ele>411.3</ele>
        <time>2022-05-15T14:55:30Z</time>
      </trkpt>
      <trkpt lat="43.82242" lon="5.37999">
        <ele>411.1</ele>
        <time>2022-05-15T14:55:34Z</time>
      </trkpt>
      <trkpt lat="43.82232" lon="5.38002">
        <ele>410</ele>
        <time>2022-05-15T14:55:38Z</time>
      </trkpt>
      <trkpt lat="43.82226" lon="5.38004">
        <ele>409.2</ele>
        <time>2022-05-15T14:55:41Z</time>
      </trkpt>
      <trkpt lat="43.82224" lon="5.38005">
        <ele>408.9</ele>
        <time>2022-05-15T14:55:42Z</time>
      </trkpt>
      <trkpt lat="43.82222" lon="5.38007">
        <ele>408.6</ele>
        <time>2022-05-15T14:55:43Z</time>
      </trkpt>
      <trkpt lat="43.82221" lon="5.38015">
        <ele>408.2</ele>
        <time>2022-05-15T14:55:45Z</time>
      </trkpt>
      <trkpt lat="43.8222" lon="5.38023">
        <ele>407.7</ele>
        <time>2022-05-15T14:55:47Z</time>
      </trkpt>
      <trkpt lat="43.82218" lon="5.38025">
        <ele>407.4</ele>
        <time>2022-05-15T14:55:48Z</time>
      </trkpt>
      <trkpt lat="43.82216" lon="5.38028">
        <ele>407.1</ele>
        <time>2022-05-15T14:55:49Z</time>
      </trkpt>
      <trkpt lat="43.82216" lon="5.38036">
        <ele>406.7</ele>
        <time>2022-05-15T14:55:51Z</time>
      </trkpt>
      <trkpt lat="43.82218" lon="5.38047">
        <ele>406.4</ele>
        <time>2022-05-15T14:55:55Z</time>
      </trkpt>
      <trkpt lat="43.82221" lon="5.38049">
        <ele>406.5</ele>
        <time>2022-05-15T14:55:56Z</time>
      </trkpt>
      <trkpt lat="43.82226" lon="5.38049">
        <ele>407</ele>
        <time>2022-05-15T14:55:58Z</time>
      </trkpt>
      <trkpt lat="43.82228" lon="5.38051">
        <ele>407</ele>
        <time>2022-05-15T14:55:59Z</time>
      </trkpt>
      <trkpt lat="43.82236" lon="5.3806">
        <ele>407.3</ele>
        <time>2022-05-15T14:56:03Z</time>
      </trkpt>
      <trkpt lat="43.8224" lon="5.3807">
        <ele>407</ele>
        <time>2022-05-15T14:56:07Z</time>
      </trkpt>
      <trkpt lat="43.82242" lon="5.38072">
        <ele>407.1</ele>
        <time>2022-05-15T14:56:08Z</time>
      </trkpt>
      <trkpt lat="43.82246" lon="5.38075">
        <ele>407.2</ele>
        <time>2022-05-15T14:56:10Z</time>
      </trkpt>
      <trkpt lat="43.82253" lon="5.38083">
        <ele>409.4</ele>
        <time>2022-05-15T14:56:13Z</time>
      </trkpt>
      <trkpt lat="43.82263" lon="5.38087">
        <ele>417.2</ele>
        <time>2022-05-15T14:56:17Z</time>
      </trkpt>
      <trkpt lat="43.82266" lon="5.3809">
        <ele>419.5</ele>
        <time>2022-05-15T14:56:18Z</time>
      </trkpt>
      <trkpt lat="43.8227" lon="5.38097">
        <ele>422.5</ele>
        <time>2022-05-15T14:56:21Z</time>
      </trkpt>
      <trkpt lat="43.82271" lon="5.38104">
        <ele>423</ele>
        <time>2022-05-15T14:56:23Z</time>
      </trkpt>
      <trkpt lat="43.82278" lon="5.38122">
        <ele>427.5</ele>
        <time>2022-05-15T14:56:28Z</time>
      </trkpt>
      <trkpt lat="43.82283" lon="5.38148">
        <ele>429.6</ele>
        <time>2022-05-15T14:56:34Z</time>
      </trkpt>
      <trkpt lat="43.82287" lon="5.38184">
        <ele>429.9</ele>
        <time>2022-05-15T14:56:41Z</time>
      </trkpt>
      <trkpt lat="43.82294" lon="5.38206">
        <ele>432.2</ele>
        <time>2022-05-15T14:56:46Z</time>
      </trkpt>
      <trkpt lat="43.8229" lon="5.38208">
        <ele>429.8</ele>
        <time>2022-05-15T14:56:49Z</time>
      </trkpt>
      <trkpt lat="43.82279" lon="5.38213">
        <ele>423.4</ele>
        <time>2022-05-15T14:56:53Z</time>
      </trkpt>
      <trkpt lat="43.82277" lon="5.38217">
        <ele>422.1</ele>
        <time>2022-05-15T14:56:54Z</time>
      </trkpt>
      <trkpt lat="43.82275" lon="5.38225">
        <ele>420.6</ele>
        <time>2022-05-15T14:56:56Z</time>
      </trkpt>
      <trkpt lat="43.82274" lon="5.38243">
        <ele>419.2</ele>
        <time>2022-05-15T14:57:00Z</time>
      </trkpt>
      <trkpt lat="43.82279" lon="5.3827">
        <ele>420.7</ele>
        <time>2022-05-15T14:57:06Z</time>
      </trkpt>
      <trkpt lat="43.82289" lon="5.38297">
        <ele>423</ele>
        <time>2022-05-15T14:57:12Z</time>
      </trkpt>
      <trkpt lat="43.82298" lon="5.38316">
        <ele>423.8</ele>
        <time>2022-05-15T14:57:17Z</time>
      </trkpt>
      <trkpt lat="43.823" lon="5.38319">
        <ele>424</ele>
        <time>2022-05-15T14:57:18Z</time>
      </trkpt>
      <trkpt lat="43.8231" lon="5.3833">
        <ele>424.6</ele>
        <time>2022-05-15T14:57:22Z</time>
      </trkpt>
      <trkpt lat="43.82315" lon="5.38348">
        <ele>423.5</ele>
        <time>2022-05-15T14:57:27Z</time>
      </trkpt>
      <trkpt lat="43.82324" lon="5.38368">
        <ele>422.1</ele>
        <time>2022-05-15T14:57:32Z</time>
      </trkpt>
      <trkpt lat="43.82332" lon="5.38381">
        <ele>420.6</ele>
        <time>2022-05-15T14:57:36Z</time>
      </trkpt>
      <trkpt lat="43.82343" lon="5.38402">
        <ele>423.3</ele>
        <time>2022-05-15T14:57:41Z</time>
      </trkpt>
      <trkpt lat="43.82345" lon="5.38407">
        <ele>423.6</ele>
        <time>2022-05-15T14:57:42Z</time>
      </trkpt>
      <trkpt lat="43.82358" lon="5.38432">
        <ele>428.5</ele>
        <time>2022-05-15T14:57:48Z</time>
      </trkpt>
      <trkpt lat="43.82368" lon="5.38456">
        <ele>432.4</ele>
        <time>2022-05-15T14:57:53Z</time>
      </trkpt>
      <trkpt lat="43.82374" lon="5.38479">
        <ele>433.7</ele>
        <time>2022-05-15T14:57:57Z</time>
      </trkpt>
      <trkpt lat="43.82376" lon="5.38484">
        <ele>434.4</ele>
        <time>2022-05-15T14:57:58Z</time>
      </trkpt>
      <trkpt lat="43.82382" lon="5.3851">
        <ele>434.5</ele>
        <time>2022-05-15T14:58:03Z</time>
      </trkpt>
      <trkpt lat="43.82383" lon="5.38521">
        <ele>433.3</ele>
        <time>2022-05-15T14:58:05Z</time>
      </trkpt>
      <trkpt lat="43.82382" lon="5.38525">
        <ele>432.3</ele>
        <time>2022-05-15T14:58:06Z</time>
      </trkpt>
      <trkpt lat="43.82387" lon="5.3854">
        <ele>431.9</ele>
        <time>2022-05-15T14:58:10Z</time>
      </trkpt>
      <trkpt lat="43.82393" lon="5.38548">
        <ele>432.7</ele>
        <time>2022-05-15T14:58:14Z</time>
      </trkpt>
      <trkpt lat="43.82397" lon="5.38553">
        <ele>433.1</ele>
        <time>2022-05-15T14:58:16Z</time>
      </trkpt>
      <trkpt lat="43.824" lon="5.38561">
        <ele>432.5</ele>
        <time>2022-05-15T14:58:18Z</time>
      </trkpt>
      <trkpt lat="43.82408" lon="5.38581">
        <ele>430.4</ele>
        <time>2022-05-15T14:58:23Z</time>
      </trkpt>
      <trkpt lat="43.8242" lon="5.38598">
        <ele>434.9</ele>
        <time>2022-05-15T14:58:28Z</time>
      </trkpt>
      <trkpt lat="43.82425" lon="5.3862">
        <ele>438.8</ele>
        <time>2022-05-15T14:58:33Z</time>
      </trkpt>
      <trkpt lat="43.82423" lon="5.38633">
        <ele>437.8</ele>
        <time>2022-05-15T14:58:36Z</time>
      </trkpt>
      <trkpt lat="43.82423" lon="5.38637">
        <ele>437.9</ele>
        <time>2022-05-15T14:58:37Z</time>
      </trkpt>
      <trkpt lat="43.82426" lon="5.38657">
        <ele>440</ele>
        <time>2022-05-15T14:58:41Z</time>
      </trkpt>
      <trkpt lat="43.82437" lon="5.38678">
        <ele>445.1</ele>
        <time>2022-05-15T14:58:46Z</time>
      </trkpt>
      <trkpt lat="43.82444" lon="5.38695">
        <ele>447.3</ele>
        <time>2022-05-15T14:58:50Z</time>
      </trkpt>
      <trkpt lat="43.82451" lon="5.38701">
        <ele>450.5</ele>
        <time>2022-05-15T14:58:52Z</time>
      </trkpt>
      <trkpt lat="43.82456" lon="5.38706">
        <ele>452.7</ele>
        <time>2022-05-15T14:58:54Z</time>
      </trkpt>
      <trkpt lat="43.8246" lon="5.38716">
        <ele>453.9</ele>
        <time>2022-05-15T14:58:58Z</time>
      </trkpt>
      <trkpt lat="43.82466" lon="5.38737">
        <ele>455</ele>
        <time>2022-05-15T14:59:02Z</time>
      </trkpt>
      <trkpt lat="43.82466" lon="5.38743">
        <ele>454.4</ele>
        <time>2022-05-15T14:59:03Z</time>
      </trkpt>
      <trkpt lat="43.82465" lon="5.38749">
        <ele>453.2</ele>
        <time>2022-05-15T14:59:04Z</time>
      </trkpt>
      <trkpt lat="43.82467" lon="5.38761">
        <ele>452.2</ele>
        <time>2022-05-15T14:59:06Z</time>
      </trkpt>
      <trkpt lat="43.82471" lon="5.3878">
        <ele>450.6</ele>
        <time>2022-05-15T14:59:10Z</time>
      </trkpt>
      <trkpt lat="43.82472" lon="5.38784">
        <ele>450.2</ele>
        <time>2022-05-15T14:59:11Z</time>
      </trkpt>
      <trkpt lat="43.82477" lon="5.388">
        <ele>449</ele>
        <time>2022-05-15T14:59:15Z</time>
      </trkpt>
      <trkpt lat="43.82484" lon="5.38804">
        <ele>450.7</ele>
        <time>2022-05-15T14:59:18Z</time>
      </trkpt>
      <trkpt lat="43.82495" lon="5.38796">
        <ele>456.8</ele>
        <time>2022-05-15T14:59:22Z</time>
      </trkpt>
      <trkpt lat="43.82497" lon="5.38796">
        <ele>457.6</ele>
        <time>2022-05-15T14:59:23Z</time>
      </trkpt>
      <trkpt lat="43.82499" lon="5.38797">
        <ele>458.1</ele>
        <time>2022-05-15T14:59:24Z</time>
      </trkpt>
      <trkpt lat="43.82504" lon="5.38801">
        <ele>459.1</ele>
        <time>2022-05-15T14:59:26Z</time>
      </trkpt>
      <trkpt lat="43.82519" lon="5.38805">
        <ele>464.8</ele>
        <time>2022-05-15T14:59:31Z</time>
      </trkpt>
      <trkpt lat="43.82533" lon="5.38811">
        <ele>469.6</ele>
        <time>2022-05-15T14:59:35Z</time>
      </trkpt>
      <trkpt lat="43.8254" lon="5.38813">
        <ele>472.2</ele>
        <time>2022-05-15T14:59:37Z</time>
      </trkpt>
      <trkpt lat="43.82542" lon="5.38815">
        <ele>472.6</ele>
        <time>2022-05-15T14:59:38Z</time>
      </trkpt>
      <trkpt lat="43.8255" lon="5.38827">
        <ele>473.1</ele>
        <time>2022-05-15T14:59:41Z</time>
      </trkpt>
      <trkpt lat="43.82554" lon="5.3883">
        <ele>474.2</ele>
        <time>2022-05-15T14:59:42Z</time>
      </trkpt>
      <trkpt lat="43.82564" lon="5.38838">
        <ele>476.3</ele>
        <time>2022-05-15T14:59:44Z</time>
      </trkpt>
      <trkpt lat="43.82569" lon="5.38842">
        <ele>477</ele>
        <time>2022-05-15T14:59:45Z</time>
      </trkpt>
      <trkpt lat="43.82575" lon="5.38854">
        <ele>475.1</ele>
        <time>2022-05-15T14:59:47Z</time>
      </trkpt>
      <trkpt lat="43.82584" lon="5.38882">
        <ele>467.4</ele>
        <time>2022-05-15T14:59:51Z</time>
      </trkpt>
      <trkpt lat="43.82585" lon="5.38887">
        <ele>465.8</ele>
        <time>2022-05-15T14:59:52Z</time>
      </trkpt>
      <trkpt lat="43.82586" lon="5.38894">
        <ele>463.4</ele>
        <time>2022-05-15T14:59:55Z</time>
      </trkpt>
      <trkpt lat="43.82586" lon="5.38897">
        <ele>462.2</ele>
        <time>2022-05-15T15:00:00Z</time>
      </trkpt>
      <trkpt lat="43.82588" lon="5.38901">
        <ele>461.5</ele>
        <time>2022-05-15T15:00:02Z</time>
      </trkpt>
      <trkpt lat="43.8259" lon="5.38906">
        <ele>460.5</ele>
        <time>2022-05-15T15:00:05Z</time>
      </trkpt>
      <trkpt lat="43.82592" lon="5.38911">
        <ele>459.6</ele>
        <time>2022-05-15T15:00:07Z</time>
      </trkpt>
      <trkpt lat="43.82597" lon="5.38929">
        <ele>457.3</ele>
        <time>2022-05-15T15:00:13Z</time>
      </trkpt>
      <trkpt lat="43.826" lon="5.38932">
        <ele>458.1</ele>
        <time>2022-05-15T15:00:15Z</time>
      </trkpt>
      <trkpt lat="43.82602" lon="5.38932">
        <ele>459</ele>
        <time>2022-05-15T15:00:16Z</time>
      </trkpt>
      <trkpt lat="43.82608" lon="5.38934">
        <ele>461.4</ele>
        <time>2022-05-15T15:00:19Z</time>
      </trkpt>
      <trkpt lat="43.8261" lon="5.38938">
        <ele>461.3</ele>
        <time>2022-05-15T15:00:21Z</time>
      </trkpt>
      <trkpt lat="43.82612" lon="5.3895">
        <ele>459</ele>
        <time>2022-05-15T15:00:25Z</time>
      </trkpt>
      <trkpt lat="43.82612" lon="5.38954">
        <ele>458</ele>
        <time>2022-05-15T15:00:27Z</time>
      </trkpt>
      <trkpt lat="43.82609" lon="5.38955">
        <ele>456.5</ele>
        <time>2022-05-15T15:00:29Z</time>
      </trkpt>
      <trkpt lat="43.82596" lon="5.38946">
        <ele>453.2</ele>
        <time>2022-05-15T15:00:34Z</time>
      </trkpt>
      <trkpt lat="43.82588" lon="5.38938">
        <ele>451.3</ele>
        <time>2022-05-15T15:00:37Z</time>
      </trkpt>
      <trkpt lat="43.82588" lon="5.38937">
        <ele>451.5</ele>
        <time>2022-05-15T15:00:38Z</time>
      </trkpt>
      <trkpt lat="43.82585" lon="5.38933">
        <ele>450.8</ele>
        <time>2022-05-15T15:01:20Z</time>
      </trkpt>
      <trkpt lat="43.82585" lon="5.3893">
        <ele>451.4</ele>
        <time>2022-05-15T15:01:21Z</time>
      </trkpt>
      <trkpt lat="43.82582" lon="5.38924">
        <ele>451.4</ele>
        <time>2022-05-15T15:01:23Z</time>
      </trkpt>
      <trkpt lat="43.82575" lon="5.38915">
        <ele>451.3</ele>
        <time>2022-05-15T15:01:26Z</time>
      </trkpt>
      <trkpt lat="43.8257" lon="5.38898">
        <ele>456.4</ele>
        <time>2022-05-15T15:01:29Z</time>
      </trkpt>
      <trkpt lat="43.82567" lon="5.38892">
        <ele>457.6</ele>
        <time>2022-05-15T15:01:30Z</time>
      </trkpt>
      <trkpt lat="43.8256" lon="5.38873">
        <ele>462</ele>
        <time>2022-05-15T15:01:33Z</time>
      </trkpt>
      <trkpt lat="43.82557" lon="5.38869">
        <ele>462.3</ele>
        <time>2022-05-15T15:01:34Z</time>
      </trkpt>
      <trkpt lat="43.82547" lon="5.38857">
        <ele>462.3</ele>
        <time>2022-05-15T15:01:38Z</time>
      </trkpt>
      <trkpt lat="43.82539" lon="5.38852">
        <ele>460.5</ele>
        <time>2022-05-15T15:01:41Z</time>
      </trkpt>
      <trkpt lat="43.82538" lon="5.38858">
        <ele>458.3</ele>
        <time>2022-05-15T15:01:45Z</time>
      </trkpt>
      <trkpt lat="43.82541" lon="5.38869">
        <ele>456.1</ele>
        <time>2022-05-15T15:01:48Z</time>
      </trkpt>
      <trkpt lat="43.82546" lon="5.38889">
        <ele>451.6</ele>
        <time>2022-05-15T15:01:51Z</time>
      </trkpt>
      <trkpt lat="43.8255" lon="5.38902">
        <ele>448.7</ele>
        <time>2022-05-15T15:01:54Z</time>
      </trkpt>
      <trkpt lat="43.82552" lon="5.38914">
        <ele>445.2</ele>
        <time>2022-05-15T15:01:58Z</time>
      </trkpt>
      <trkpt lat="43.82551" lon="5.38914">
        <ele>445</ele>
        <time>2022-05-15T15:02:03Z</time>
      </trkpt>
      <trkpt lat="43.8255" lon="5.38913">
        <ele>445</ele>
        <time>2022-05-15T15:02:04Z</time>
      </trkpt>
      <trkpt lat="43.82543" lon="5.38901">
        <ele>446.8</ele>
        <time>2022-05-15T15:02:09Z</time>
      </trkpt>
      <trkpt lat="43.82542" lon="5.38897">
        <ele>447.7</ele>
        <time>2022-05-15T15:02:10Z</time>
      </trkpt>
      <trkpt lat="43.82536" lon="5.38891">
        <ele>447.6</ele>
        <time>2022-05-15T15:02:12Z</time>
      </trkpt>
      <trkpt lat="43.82533" lon="5.38886">
        <ele>448.1</ele>
        <time>2022-05-15T15:02:14Z</time>
      </trkpt>
      <trkpt lat="43.82532" lon="5.38887">
        <ele>447.4</ele>
        <time>2022-05-15T15:02:15Z</time>
      </trkpt>
      <trkpt lat="43.82533" lon="5.38894">
        <ele>445.7</ele>
        <time>2022-05-15T15:02:17Z</time>
      </trkpt>
      <trkpt lat="43.82536" lon="5.38902">
        <ele>444.3</ele>
        <time>2022-05-15T15:02:19Z</time>
      </trkpt>
      <trkpt lat="43.82537" lon="5.38908">
        <ele>442.8</ele>
        <time>2022-05-15T15:02:21Z</time>
      </trkpt>
      <trkpt lat="43.82536" lon="5.38909">
        <ele>442.2</ele>
        <time>2022-05-15T15:02:22Z</time>
      </trkpt>
      <trkpt lat="43.82534" lon="5.38908">
        <ele>441.9</ele>
        <time>2022-05-15T15:02:24Z</time>
      </trkpt>
      <trkpt lat="43.8253" lon="5.38904">
        <ele>441.9</ele>
        <time>2022-05-15T15:02:26Z</time>
      </trkpt>
      <trkpt lat="43.82521" lon="5.38895">
        <ele>441.5</ele>
        <time>2022-05-15T15:02:29Z</time>
      </trkpt>
      <trkpt lat="43.82517" lon="5.38892">
        <ele>441</ele>
        <time>2022-05-15T15:02:30Z</time>
      </trkpt>
      <trkpt lat="43.8251" lon="5.38884">
        <ele>440.6</ele>
        <time>2022-05-15T15:02:32Z</time>
      </trkpt>
      <trkpt lat="43.82503" lon="5.38877">
        <ele>439.7</ele>
        <time>2022-05-15T15:02:34Z</time>
      </trkpt>
      <trkpt lat="43.8249" lon="5.38869">
        <ele>439.2</ele>
        <time>2022-05-15T15:02:38Z</time>
      </trkpt>
      <trkpt lat="43.82485" lon="5.38866">
        <ele>439.1</ele>
        <time>2022-05-15T15:02:40Z</time>
      </trkpt>
      <trkpt lat="43.82484" lon="5.38866">
        <ele>439</ele>
        <time>2022-05-15T15:02:41Z</time>
      </trkpt>
      <trkpt lat="43.82483" lon="5.38867">
        <ele>438.7</ele>
        <time>2022-05-15T15:02:44Z</time>
      </trkpt>
      <trkpt lat="43.82483" lon="5.3887">
        <ele>438.3</ele>
        <time>2022-05-15T15:02:45Z</time>
      </trkpt>
      <trkpt lat="43.82483" lon="5.38873">
        <ele>437.9</ele>
        <time>2022-05-15T15:02:46Z</time>
      </trkpt>
      <trkpt lat="43.82485" lon="5.38881">
        <ele>436.8</ele>
        <time>2022-05-15T15:02:48Z</time>
      </trkpt>
      <trkpt lat="43.82491" lon="5.38895">
        <ele>434.7</ele>
        <time>2022-05-15T15:02:51Z</time>
      </trkpt>
      <trkpt lat="43.82494" lon="5.389">
        <ele>433.7</ele>
        <time>2022-05-15T15:02:52Z</time>
      </trkpt>
      <trkpt lat="43.82495" lon="5.38905">
        <ele>432.7</ele>
        <time>2022-05-15T15:02:53Z</time>
      </trkpt>
      <trkpt lat="43.82497" lon="5.38916">
        <ele>430.4</ele>
        <time>2022-05-15T15:02:55Z</time>
      </trkpt>
      <trkpt lat="43.82504" lon="5.38929">
        <ele>434.1</ele>
        <time>2022-05-15T15:02:58Z</time>
      </trkpt>
      <trkpt lat="43.82511" lon="5.3894">
        <ele>437.8</ele>
        <time>2022-05-15T15:03:01Z</time>
      </trkpt>
      <trkpt lat="43.82519" lon="5.38955">
        <ele>441.5</ele>
        <time>2022-05-15T15:03:04Z</time>
      </trkpt>
      <trkpt lat="43.82531" lon="5.38972">
        <ele>444</ele>
        <time>2022-05-15T15:03:08Z</time>
      </trkpt>
      <trkpt lat="43.82541" lon="5.38988">
        <ele>444.6</ele>
        <time>2022-05-15T15:03:12Z</time>
      </trkpt>
      <trkpt lat="43.82552" lon="5.38996">
        <ele>443.3</ele>
        <time>2022-05-15T15:03:16Z</time>
      </trkpt>
      <trkpt lat="43.82562" lon="5.38999">
        <ele>441.7</ele>
        <time>2022-05-15T15:03:21Z</time>
      </trkpt>
      <trkpt lat="43.82563" lon="5.39">
        <ele>441.4</ele>
        <time>2022-05-15T15:03:26Z</time>
      </trkpt>
      <trkpt lat="43.82564" lon="5.39002">
        <ele>441.7</ele>
        <time>2022-05-15T15:03:55Z</time>
      </trkpt>
      <trkpt lat="43.82573" lon="5.39001">
        <ele>439.9</ele>
        <time>2022-05-15T15:04:01Z</time>
      </trkpt>
      <trkpt lat="43.82586" lon="5.38997">
        <ele>439.3</ele>
        <time>2022-05-15T15:04:05Z</time>
      </trkpt>
      <trkpt lat="43.82615" lon="5.38989">
        <ele>449.7</ele>
        <time>2022-05-15T15:04:10Z</time>
      </trkpt>
      <trkpt lat="43.82619" lon="5.38996">
        <ele>449</ele>
        <time>2022-05-15T15:04:11Z</time>
      </trkpt>
      <trkpt lat="43.82625" lon="5.39005">
        <ele>449.5</ele>
        <time>2022-05-15T15:04:12Z</time>
      </trkpt>
      <trkpt lat="43.8264" lon="5.39036">
        <ele>451.8</ele>
        <time>2022-05-15T15:04:15Z</time>
      </trkpt>
      <trkpt lat="43.82646" lon="5.3904">
        <ele>452.4</ele>
        <time>2022-05-15T15:04:16Z</time>
      </trkpt>
      <trkpt lat="43.82659" lon="5.39045">
        <ele>453.6</ele>
        <time>2022-05-15T15:04:19Z</time>
      </trkpt>
      <trkpt lat="43.82672" lon="5.39051">
        <ele>454.2</ele>
        <time>2022-05-15T15:04:23Z</time>
      </trkpt>
      <trkpt lat="43.82686" lon="5.39056">
        <ele>454.9</ele>
        <time>2022-05-15T15:04:28Z</time>
      </trkpt>
      <trkpt lat="43.82688" lon="5.39057">
        <ele>455</ele>
        <time>2022-05-15T15:04:29Z</time>
      </trkpt>
      <trkpt lat="43.82698" lon="5.39061">
        <ele>455.3</ele>
        <time>2022-05-15T15:04:32Z</time>
      </trkpt>
      <trkpt lat="43.82713" lon="5.39066">
        <ele>455.8</ele>
        <time>2022-05-15T15:04:37Z</time>
      </trkpt>
      <trkpt lat="43.82716" lon="5.39066">
        <ele>456</ele>
        <time>2022-05-15T15:04:38Z</time>
      </trkpt>
      <trkpt lat="43.82725" lon="5.39065">
        <ele>457.1</ele>
        <time>2022-05-15T15:04:41Z</time>
      </trkpt>
      <trkpt lat="43.82738" lon="5.39067">
        <ele>457.8</ele>
        <time>2022-05-15T15:04:45Z</time>
      </trkpt>
      <trkpt lat="43.82741" lon="5.39069">
        <ele>457.6</ele>
        <time>2022-05-15T15:04:46Z</time>
      </trkpt>
      <trkpt lat="43.82752" lon="5.39071">
        <ele>458</ele>
        <time>2022-05-15T15:04:50Z</time>
      </trkpt>
      <trkpt lat="43.82757" lon="5.39071">
        <ele>458</ele>
        <time>2022-05-15T15:04:55Z</time>
      </trkpt>
      <trkpt lat="43.82758" lon="5.39071">
        <ele>458</ele>
        <time>2022-05-15T15:05:38Z</time>
      </trkpt>
      <trkpt lat="43.82764" lon="5.39069">
        <ele>458.5</ele>
        <time>2022-05-15T15:05:42Z</time>
      </trkpt>
      <trkpt lat="43.82765" lon="5.39068">
        <ele>458.8</ele>
        <time>2022-05-15T15:05:47Z</time>
      </trkpt>
      <trkpt lat="43.82778" lon="5.39066">
        <ele>459.4</ele>
        <time>2022-05-15T15:05:57Z</time>
      </trkpt>
      <trkpt lat="43.82781" lon="5.39066">
        <ele>459.4</ele>
        <time>2022-05-15T15:05:58Z</time>
      </trkpt>
      <trkpt lat="43.82786" lon="5.39067">
        <ele>459.2</ele>
        <time>2022-05-15T15:06:00Z</time>
      </trkpt>
      <trkpt lat="43.82789" lon="5.39068">
        <ele>458.9</ele>
        <time>2022-05-15T15:06:01Z</time>
      </trkpt>
      <trkpt lat="43.828" lon="5.39073">
        <ele>457.2</ele>
        <time>2022-05-15T15:06:06Z</time>
      </trkpt>
      <trkpt lat="43.8281" lon="5.39074">
        <ele>456.8</ele>
        <time>2022-05-15T15:06:11Z</time>
      </trkpt>
      <trkpt lat="43.82819" lon="5.39087">
        <ele>454.4</ele>
        <time>2022-05-15T15:06:16Z</time>
      </trkpt>
      <trkpt lat="43.82827" lon="5.39103">
        <ele>458.5</ele>
        <time>2022-05-15T15:06:20Z</time>
      </trkpt>
      <trkpt lat="43.82837" lon="5.39118">
        <ele>461.9</ele>
        <time>2022-05-15T15:06:24Z</time>
      </trkpt>
      <trkpt lat="43.82846" lon="5.39133">
        <ele>464.3</ele>
        <time>2022-05-15T15:06:28Z</time>
      </trkpt>
      <trkpt lat="43.82855" lon="5.39142">
        <ele>464.6</ele>
        <time>2022-05-15T15:06:34Z</time>
      </trkpt>
      <trkpt lat="43.82859" lon="5.39147">
        <ele>464.6</ele>
        <time>2022-05-15T15:06:39Z</time>
      </trkpt>
      <trkpt lat="43.82861" lon="5.39153">
        <ele>465.1</ele>
        <time>2022-05-15T15:06:42Z</time>
      </trkpt>
      <trkpt lat="43.82863" lon="5.39156">
        <ele>465</ele>
        <time>2022-05-15T15:06:44Z</time>
      </trkpt>
      <trkpt lat="43.82864" lon="5.39156">
        <ele>464.8</ele>
        <time>2022-05-15T15:06:48Z</time>
      </trkpt>
      <trkpt lat="43.82871" lon="5.39165">
        <ele>464</ele>
        <time>2022-05-15T15:07:14Z</time>
      </trkpt>
      <trkpt lat="43.82881" lon="5.39177">
        <ele>463.5</ele>
        <time>2022-05-15T15:07:19Z</time>
      </trkpt>
      <trkpt lat="43.82887" lon="5.39187">
        <ele>464</ele>
        <time>2022-05-15T15:07:22Z</time>
      </trkpt>
      <trkpt lat="43.82892" lon="5.39194">
        <ele>464.1</ele>
        <time>2022-05-15T15:07:24Z</time>
      </trkpt>
      <trkpt lat="43.82907" lon="5.39215">
        <ele>464.7</ele>
        <time>2022-05-15T15:07:29Z</time>
      </trkpt>
      <trkpt lat="43.8291" lon="5.39222">
        <ele>465.4</ele>
        <time>2022-05-15T15:07:31Z</time>
      </trkpt>
      <trkpt lat="43.82911" lon="5.39234">
        <ele>467.9</ele>
        <time>2022-05-15T15:07:34Z</time>
      </trkpt>
      <trkpt lat="43.82921" lon="5.39262">
        <ele>473.3</ele>
        <time>2022-05-15T15:07:42Z</time>
      </trkpt>
      <trkpt lat="43.8293" lon="5.39282">
        <ele>477.6</ele>
        <time>2022-05-15T15:07:48Z</time>
      </trkpt>
      <trkpt lat="43.82937" lon="5.39292">
        <ele>478.7</ele>
        <time>2022-05-15T15:07:53Z</time>
      </trkpt>
      <trkpt lat="43.82938" lon="5.39294">
        <ele>479</ele>
        <time>2022-05-15T15:07:59Z</time>
      </trkpt>
      <trkpt lat="43.8294" lon="5.39295">
        <ele>478.7</ele>
        <time>2022-05-15T15:08:05Z</time>
      </trkpt>
      <trkpt lat="43.82951" lon="5.39308">
        <ele>478.8</ele>
        <time>2022-05-15T15:08:16Z</time>
      </trkpt>
      <trkpt lat="43.82963" lon="5.39325">
        <ele>478.5</ele>
        <time>2022-05-15T15:08:22Z</time>
      </trkpt>
      <trkpt lat="43.82971" lon="5.39335">
        <ele>477.5</ele>
        <time>2022-05-15T15:08:26Z</time>
      </trkpt>
      <trkpt lat="43.82972" lon="5.39338">
        <ele>477.9</ele>
        <time>2022-05-15T15:08:27Z</time>
      </trkpt>
      <trkpt lat="43.82976" lon="5.39348">
        <ele>478.9</ele>
        <time>2022-05-15T15:08:32Z</time>
      </trkpt>
      <trkpt lat="43.82981" lon="5.39355">
        <ele>478.8</ele>
        <time>2022-05-15T15:08:35Z</time>
      </trkpt>
      <trkpt lat="43.82982" lon="5.39358">
        <ele>479.2</ele>
        <time>2022-05-15T15:08:36Z</time>
      </trkpt>
      <trkpt lat="43.82992" lon="5.39377">
        <ele>480.4</ele>
        <time>2022-05-15T15:08:42Z</time>
      </trkpt>
      <trkpt lat="43.83002" lon="5.39393">
        <ele>481.3</ele>
        <time>2022-05-15T15:08:47Z</time>
      </trkpt>
      <trkpt lat="43.83009" lon="5.39394">
        <ele>479.9</ele>
        <time>2022-05-15T15:08:50Z</time>
      </trkpt>
      <trkpt lat="43.83012" lon="5.39397">
        <ele>479.8</ele>
        <time>2022-05-15T15:08:52Z</time>
      </trkpt>
      <trkpt lat="43.83025" lon="5.3941">
        <ele>478.6</ele>
        <time>2022-05-15T15:08:57Z</time>
      </trkpt>
      <trkpt lat="43.83037" lon="5.39427">
        <ele>478</ele>
        <time>2022-05-15T15:09:02Z</time>
      </trkpt>
      <trkpt lat="43.83039" lon="5.39429">
        <ele>477.8</ele>
        <time>2022-05-15T15:09:03Z</time>
      </trkpt>
      <trkpt lat="43.83043" lon="5.39431">
        <ele>476.9</ele>
        <time>2022-05-15T15:09:05Z</time>
      </trkpt>
      <trkpt lat="43.83044" lon="5.39432">
        <ele>476.8</ele>
        <time>2022-05-15T15:09:06Z</time>
      </trkpt>
      <trkpt lat="43.83049" lon="5.39437">
        <ele>476.3</ele>
        <time>2022-05-15T15:09:08Z</time>
      </trkpt>
      <trkpt lat="43.83057" lon="5.39445">
        <ele>475.5</ele>
        <time>2022-05-15T15:09:12Z</time>
      </trkpt>
      <trkpt lat="43.83067" lon="5.3946">
        <ele>475.8</ele>
        <time>2022-05-15T15:09:17Z</time>
      </trkpt>
      <trkpt lat="43.83077" lon="5.39473">
        <ele>475.6</ele>
        <time>2022-05-15T15:09:22Z</time>
      </trkpt>
      <trkpt lat="43.83083" lon="5.39474">
        <ele>473.9</ele>
        <time>2022-05-15T15:09:27Z</time>
      </trkpt>
      <trkpt lat="43.83093" lon="5.39478">
        <ele>474.1</ele>
        <time>2022-05-15T15:09:33Z</time>
      </trkpt>
      <trkpt lat="43.831" lon="5.39481">
        <ele>474.1</ele>
        <time>2022-05-15T15:09:37Z</time>
      </trkpt>
      <trkpt lat="43.8311" lon="5.39484">
        <ele>473.6</ele>
        <time>2022-05-15T15:09:42Z</time>
      </trkpt>
      <trkpt lat="43.83111" lon="5.39484">
        <ele>473.6</ele>
        <time>2022-05-15T15:09:43Z</time>
      </trkpt>
      <trkpt lat="43.83119" lon="5.39488">
        <ele>473.1</ele>
        <time>2022-05-15T15:09:47Z</time>
      </trkpt>
      <trkpt lat="43.83133" lon="5.39497">
        <ele>471.6</ele>
        <time>2022-05-15T15:09:52Z</time>
      </trkpt>
      <trkpt lat="43.83151" lon="5.3951">
        <ele>471.4</ele>
        <time>2022-05-15T15:09:57Z</time>
      </trkpt>
      <trkpt lat="43.83165" lon="5.39528">
        <ele>473.7</ele>
        <time>2022-05-15T15:10:02Z</time>
      </trkpt>
      <trkpt lat="43.83171" lon="5.39538">
        <ele>475.9</ele>
        <time>2022-05-15T15:10:05Z</time>
      </trkpt>
      <trkpt lat="43.83173" lon="5.3954">
        <ele>476.3</ele>
        <time>2022-05-15T15:10:06Z</time>
      </trkpt>
      <trkpt lat="43.83185" lon="5.39554">
        <ele>478.3</ele>
        <time>2022-05-15T15:10:11Z</time>
      </trkpt>
      <trkpt lat="43.83195" lon="5.39562">
        <ele>478.2</ele>
        <time>2022-05-15T15:10:15Z</time>
      </trkpt>
      <trkpt lat="43.83211" lon="5.39569">
        <ele>476.2</ele>
        <time>2022-05-15T15:10:21Z</time>
      </trkpt>
      <trkpt lat="43.83221" lon="5.39577">
        <ele>474.3</ele>
        <time>2022-05-15T15:10:25Z</time>
      </trkpt>
      <trkpt lat="43.83223" lon="5.39578">
        <ele>473.9</ele>
        <time>2022-05-15T15:10:26Z</time>
      </trkpt>
      <trkpt lat="43.83228" lon="5.39599">
        <ele>475.2</ele>
        <time>2022-05-15T15:10:30Z</time>
      </trkpt>
      <trkpt lat="43.83231" lon="5.39623">
        <ele>478.4</ele>
        <time>2022-05-15T15:10:35Z</time>
      </trkpt>
      <trkpt lat="43.83231" lon="5.39643">
        <ele>481.7</ele>
        <time>2022-05-15T15:10:40Z</time>
      </trkpt>
      <trkpt lat="43.83231" lon="5.39657">
        <ele>484</ele>
        <time>2022-05-15T15:10:44Z</time>
      </trkpt>
      <trkpt lat="43.8323" lon="5.39677">
        <ele>485.5</ele>
        <time>2022-05-15T15:10:48Z</time>
      </trkpt>
      <trkpt lat="43.83234" lon="5.39703">
        <ele>483.2</ele>
        <time>2022-05-15T15:10:53Z</time>
      </trkpt>
      <trkpt lat="43.8324" lon="5.39714">
        <ele>480.9</ele>
        <time>2022-05-15T15:10:57Z</time>
      </trkpt>
      <trkpt lat="43.83245" lon="5.39724">
        <ele>479.1</ele>
        <time>2022-05-15T15:11:03Z</time>
      </trkpt>
      <trkpt lat="43.83246" lon="5.39727">
        <ele>478.7</ele>
        <time>2022-05-15T15:11:09Z</time>
      </trkpt>
      <trkpt lat="43.83247" lon="5.39728">
        <ele>478.4</ele>
        <time>2022-05-15T15:12:00Z</time>
      </trkpt>
      <trkpt lat="43.8325" lon="5.39731">
        <ele>477.5</ele>
        <time>2022-05-15T15:12:02Z</time>
      </trkpt>
      <trkpt lat="43.83252" lon="5.39737">
        <ele>477.1</ele>
        <time>2022-05-15T15:12:04Z</time>
      </trkpt>
      <trkpt lat="43.83254" lon="5.39739">
        <ele>476.9</ele>
        <time>2022-05-15T15:12:05Z</time>
      </trkpt>
      <trkpt lat="43.83259" lon="5.39738">
        <ele>476.4</ele>
        <time>2022-05-15T15:12:07Z</time>
      </trkpt>
      <trkpt lat="43.83261" lon="5.39739">
        <ele>476.2</ele>
        <time>2022-05-15T15:12:08Z</time>
      </trkpt>
      <trkpt lat="43.83264" lon="5.39745">
        <ele>475.9</ele>
        <time>2022-05-15T15:12:10Z</time>
      </trkpt>
      <trkpt lat="43.83265" lon="5.39749">
        <ele>475.7</ele>
        <time>2022-05-15T15:12:11Z</time>
      </trkpt>
      <trkpt lat="43.83266" lon="5.39755">
        <ele>476.3</ele>
        <time>2022-05-15T15:12:12Z</time>
      </trkpt>
      <trkpt lat="43.83267" lon="5.39758">
        <ele>476.5</ele>
        <time>2022-05-15T15:12:13Z</time>
      </trkpt>
      <trkpt lat="43.83269" lon="5.39758">
        <ele>476.3</ele>
        <time>2022-05-15T15:12:14Z</time>
      </trkpt>
      <trkpt lat="43.8327" lon="5.39761">
        <ele>476.6</ele>
        <time>2022-05-15T15:12:15Z</time>
      </trkpt>
      <trkpt lat="43.83271" lon="5.39771">
        <ele>477.6</ele>
        <time>2022-05-15T15:12:17Z</time>
      </trkpt>
      <trkpt lat="43.83272" lon="5.39776">
        <ele>478.1</ele>
        <time>2022-05-15T15:12:18Z</time>
      </trkpt>
      <trkpt lat="43.83276" lon="5.39782">
        <ele>478.2</ele>
        <time>2022-05-15T15:12:20Z</time>
      </trkpt>
      <trkpt lat="43.83281" lon="5.39792">
        <ele>478.6</ele>
        <time>2022-05-15T15:12:23Z</time>
      </trkpt>
      <trkpt lat="43.83285" lon="5.39814">
        <ele>480.1</ele>
        <time>2022-05-15T15:12:27Z</time>
      </trkpt>
      <trkpt lat="43.83286" lon="5.39818">
        <ele>480.2</ele>
        <time>2022-05-15T15:12:28Z</time>
      </trkpt>
      <trkpt lat="43.83289" lon="5.39821">
        <ele>480</ele>
        <time>2022-05-15T15:12:30Z</time>
      </trkpt>
      <trkpt lat="43.83297" lon="5.39833">
        <ele>479.4</ele>
        <time>2022-05-15T15:12:34Z</time>
      </trkpt>
      <trkpt lat="43.833" lon="5.39843">
        <ele>480.2</ele>
        <time>2022-05-15T15:12:36Z</time>
      </trkpt>
      <trkpt lat="43.83302" lon="5.39846">
        <ele>480.1</ele>
        <time>2022-05-15T15:12:37Z</time>
      </trkpt>
      <trkpt lat="43.83303" lon="5.39849">
        <ele>480.3</ele>
        <time>2022-05-15T15:12:38Z</time>
      </trkpt>
      <trkpt lat="43.83303" lon="5.39856">
        <ele>481.3</ele>
        <time>2022-05-15T15:12:40Z</time>
      </trkpt>
      <trkpt lat="43.83303" lon="5.39859">
        <ele>481.7</ele>
        <time>2022-05-15T15:12:41Z</time>
      </trkpt>
      <trkpt lat="43.83302" lon="5.39869">
        <ele>483.3</ele>
        <time>2022-05-15T15:12:45Z</time>
      </trkpt>
      <trkpt lat="43.83302" lon="5.39872">
        <ele>483.7</ele>
        <time>2022-05-15T15:12:47Z</time>
      </trkpt>
      <trkpt lat="43.83303" lon="5.39878">
        <ele>484.3</ele>
        <time>2022-05-15T15:12:49Z</time>
      </trkpt>
      <trkpt lat="43.83304" lon="5.39881">
        <ele>484.4</ele>
        <time>2022-05-15T15:12:50Z</time>
      </trkpt>
      <trkpt lat="43.83308" lon="5.39892">
        <ele>484.7</ele>
        <time>2022-05-15T15:12:53Z</time>
      </trkpt>
      <trkpt lat="43.83309" lon="5.39899">
        <ele>485.2</ele>
        <time>2022-05-15T15:12:56Z</time>
      </trkpt>
      <trkpt lat="43.83312" lon="5.39905">
        <ele>485</ele>
        <time>2022-05-15T15:12:57Z</time>
      </trkpt>
      <trkpt lat="43.83315" lon="5.39922">
        <ele>486.3</ele>
        <time>2022-05-15T15:13:01Z</time>
      </trkpt>
      <trkpt lat="43.83311" lon="5.39935">
        <ele>490</ele>
        <time>2022-05-15T15:13:05Z</time>
      </trkpt>
      <trkpt lat="43.83311" lon="5.3994">
        <ele>490.8</ele>
        <time>2022-05-15T15:13:07Z</time>
      </trkpt>
      <trkpt lat="43.83311" lon="5.39943">
        <ele>491.4</ele>
        <time>2022-05-15T15:13:10Z</time>
      </trkpt>
      <trkpt lat="43.83313" lon="5.39947">
        <ele>491.3</ele>
        <time>2022-05-15T15:14:17Z</time>
      </trkpt>
      <trkpt lat="43.83313" lon="5.3995">
        <ele>491.9</ele>
        <time>2022-05-15T15:14:18Z</time>
      </trkpt>
      <trkpt lat="43.83316" lon="5.39958">
        <ele>492.2</ele>
        <time>2022-05-15T15:14:21Z</time>
      </trkpt>
      <trkpt lat="43.8332" lon="5.39978">
        <ele>494.2</ele>
        <time>2022-05-15T15:14:27Z</time>
      </trkpt>
      <trkpt lat="43.83323" lon="5.39984">
        <ele>494.1</ele>
        <time>2022-05-15T15:14:30Z</time>
      </trkpt>
      <trkpt lat="43.83324" lon="5.39986">
        <ele>494.1</ele>
        <time>2022-05-15T15:14:31Z</time>
      </trkpt>
      <trkpt lat="43.83329" lon="5.39995">
        <ele>493.8</ele>
        <time>2022-05-15T15:14:35Z</time>
      </trkpt>
      <trkpt lat="43.83331" lon="5.39998">
        <ele>493.5</ele>
        <time>2022-05-15T15:14:40Z</time>
      </trkpt>
      <trkpt lat="43.83331" lon="5.4">
        <ele>493.9</ele>
        <time>2022-05-15T15:14:50Z</time>
      </trkpt>
      <trkpt lat="43.83333" lon="5.40004">
        <ele>493.4</ele>
        <time>2022-05-15T15:15:03Z</time>
      </trkpt>
      <trkpt lat="43.83333" lon="5.40007">
        <ele>493.6</ele>
        <time>2022-05-15T15:15:07Z</time>
      </trkpt>
      <trkpt lat="43.83334" lon="5.4001">
        <ele>493.6</ele>
        <time>2022-05-15T15:15:13Z</time>
      </trkpt>
      <trkpt lat="43.83335" lon="5.40013">
        <ele>493.6</ele>
        <time>2022-05-15T15:15:14Z</time>
      </trkpt>
      <trkpt lat="43.8334" lon="5.40025">
        <ele>493.4</ele>
        <time>2022-05-15T15:15:19Z</time>
      </trkpt>
      <trkpt lat="43.83341" lon="5.40032">
        <ele>493.7</ele>
        <time>2022-05-15T15:15:23Z</time>
      </trkpt>
      <trkpt lat="43.8334" lon="5.40038">
        <ele>494.3</ele>
        <time>2022-05-15T15:15:27Z</time>
      </trkpt>
      <trkpt lat="43.8334" lon="5.40041">
        <ele>494.5</ele>
        <time>2022-05-15T15:15:28Z</time>
      </trkpt>
      <trkpt lat="43.83338" lon="5.40048">
        <ele>495.4</ele>
        <time>2022-05-15T15:15:32Z</time>
      </trkpt>
      <trkpt lat="43.83335" lon="5.40051">
        <ele>496.3</ele>
        <time>2022-05-15T15:15:37Z</time>
      </trkpt>
      <trkpt lat="43.8333" lon="5.40057">
        <ele>498.4</ele>
        <time>2022-05-15T15:15:41Z</time>
      </trkpt>
      <trkpt lat="43.83331" lon="5.4006">
        <ele>498.2</ele>
        <time>2022-05-15T15:15:42Z</time>
      </trkpt>
      <trkpt lat="43.83337" lon="5.40075">
        <ele>497.5</ele>
        <time>2022-05-15T15:15:48Z</time>
      </trkpt>
      <trkpt lat="43.83342" lon="5.40091">
        <ele>497.1</ele>
        <time>2022-05-15T15:15:53Z</time>
      </trkpt>
      <trkpt lat="43.83344" lon="5.40098">
        <ele>496.7</ele>
        <time>2022-05-15T15:15:55Z</time>
      </trkpt>
      <trkpt lat="43.83346" lon="5.40104">
        <ele>496.4</ele>
        <time>2022-05-15T15:15:57Z</time>
      </trkpt>
      <trkpt lat="43.83348" lon="5.40121">
        <ele>496.3</ele>
        <time>2022-05-15T15:16:02Z</time>
      </trkpt>
      <trkpt lat="43.83351" lon="5.40145">
        <ele>496.1</ele>
        <time>2022-05-15T15:16:08Z</time>
      </trkpt>
      <trkpt lat="43.8335" lon="5.40165">
        <ele>497</ele>
        <time>2022-05-15T15:16:13Z</time>
      </trkpt>
      <trkpt lat="43.83351" lon="5.40172">
        <ele>497.4</ele>
        <time>2022-05-15T15:16:15Z</time>
      </trkpt>
      <trkpt lat="43.83353" lon="5.4018">
        <ele>497.8</ele>
        <time>2022-05-15T15:16:17Z</time>
      </trkpt>
      <trkpt lat="43.83358" lon="5.40198">
        <ele>498.5</ele>
        <time>2022-05-15T15:16:21Z</time>
      </trkpt>
      <trkpt lat="43.83365" lon="5.4022">
        <ele>499.1</ele>
        <time>2022-05-15T15:16:26Z</time>
      </trkpt>
      <trkpt lat="43.83372" lon="5.40234">
        <ele>498.5</ele>
        <time>2022-05-15T15:16:30Z</time>
      </trkpt>
      <trkpt lat="43.83381" lon="5.40249">
        <ele>497.4</ele>
        <time>2022-05-15T15:16:34Z</time>
      </trkpt>
      <trkpt lat="43.83383" lon="5.40253">
        <ele>497.4</ele>
        <time>2022-05-15T15:16:35Z</time>
      </trkpt>
      <trkpt lat="43.83386" lon="5.40259">
        <ele>497.5</ele>
        <time>2022-05-15T15:16:37Z</time>
      </trkpt>
      <trkpt lat="43.83393" lon="5.40278">
        <ele>498.3</ele>
        <time>2022-05-15T15:16:42Z</time>
      </trkpt>
      <trkpt lat="43.83397" lon="5.403">
        <ele>500.6</ele>
        <time>2022-05-15T15:16:47Z</time>
      </trkpt>
      <trkpt lat="43.83399" lon="5.40313">
        <ele>502</ele>
        <time>2022-05-15T15:16:51Z</time>
      </trkpt>
      <trkpt lat="43.83402" lon="5.40326">
        <ele>503.1</ele>
        <time>2022-05-15T15:16:55Z</time>
      </trkpt>
      <trkpt lat="43.83404" lon="5.40339">
        <ele>504.8</ele>
        <time>2022-05-15T15:16:59Z</time>
      </trkpt>
      <trkpt lat="43.83406" lon="5.40349">
        <ele>506.1</ele>
        <time>2022-05-15T15:17:01Z</time>
      </trkpt>
      <trkpt lat="43.83408" lon="5.40359">
        <ele>507.5</ele>
        <time>2022-05-15T15:17:03Z</time>
      </trkpt>
      <trkpt lat="43.83418" lon="5.40386">
        <ele>509.3</ele>
        <time>2022-05-15T15:17:09Z</time>
      </trkpt>
      <trkpt lat="43.83433" lon="5.40405">
        <ele>508</ele>
        <time>2022-05-15T15:17:14Z</time>
      </trkpt>
      <trkpt lat="43.8345" lon="5.40419">
        <ele>504.5</ele>
        <time>2022-05-15T15:17:19Z</time>
      </trkpt>
      <trkpt lat="43.83459" lon="5.40425">
        <ele>502.5</ele>
        <time>2022-05-15T15:17:21Z</time>
      </trkpt>
      <trkpt lat="43.83468" lon="5.40429">
        <ele>500</ele>
        <time>2022-05-15T15:17:23Z</time>
      </trkpt>
      <trkpt lat="43.83489" lon="5.40434">
        <ele>493.2</ele>
        <time>2022-05-15T15:17:27Z</time>
      </trkpt>
      <trkpt lat="43.83501" lon="5.40436">
        <ele>489.3</ele>
        <time>2022-05-15T15:17:29Z</time>
      </trkpt>
      <trkpt lat="43.83511" lon="5.40437">
        <ele>487.9</ele>
        <time>2022-05-15T15:17:31Z</time>
      </trkpt>
      <trkpt lat="43.8352" lon="5.40438">
        <ele>486.6</ele>
        <time>2022-05-15T15:17:33Z</time>
      </trkpt>
      <trkpt lat="43.83527" lon="5.40441">
        <ele>485.9</ele>
        <time>2022-05-15T15:17:35Z</time>
      </trkpt>
      <trkpt lat="43.8353" lon="5.40445">
        <ele>485.9</ele>
        <time>2022-05-15T15:17:37Z</time>
      </trkpt>
      <trkpt lat="43.83531" lon="5.40447">
        <ele>486</ele>
        <time>2022-05-15T15:17:38Z</time>
      </trkpt>
      <trkpt lat="43.83534" lon="5.40457">
        <ele>486.8</ele>
        <time>2022-05-15T15:17:41Z</time>
      </trkpt>
      <trkpt lat="43.83534" lon="5.40466">
        <ele>488</ele>
        <time>2022-05-15T15:17:43Z</time>
      </trkpt>
      <trkpt lat="43.8353" lon="5.40483">
        <ele>491.1</ele>
        <time>2022-05-15T15:17:47Z</time>
      </trkpt>
      <trkpt lat="43.83519" lon="5.40509">
        <ele>497</ele>
        <time>2022-05-15T15:17:53Z</time>
      </trkpt>
      <trkpt lat="43.83506" lon="5.4054">
        <ele>503.6</ele>
        <time>2022-05-15T15:18:01Z</time>
      </trkpt>
      <trkpt lat="43.83496" lon="5.40569">
        <ele>510.1</ele>
        <time>2022-05-15T15:18:09Z</time>
      </trkpt>
      <trkpt lat="43.83487" lon="5.40601">
        <ele>514.7</ele>
        <time>2022-05-15T15:18:17Z</time>
      </trkpt>
      <trkpt lat="43.83477" lon="5.40634">
        <ele>517.9</ele>
        <time>2022-05-15T15:18:26Z</time>
      </trkpt>
      <trkpt lat="43.83467" lon="5.40666">
        <ele>521.3</ele>
        <time>2022-05-15T15:18:35Z</time>
      </trkpt>
      <trkpt lat="43.83467" lon="5.40668">
        <ele>521.2</ele>
        <time>2022-05-15T15:18:58Z</time>
      </trkpt>
      <trkpt lat="43.83466" lon="5.40669">
        <ele>521.6</ele>
        <time>2022-05-15T15:18:59Z</time>
      </trkpt>
      <trkpt lat="43.83462" lon="5.40679">
        <ele>522.8</ele>
        <time>2022-05-15T15:19:03Z</time>
      </trkpt>
      <trkpt lat="43.83453" lon="5.407">
        <ele>525.8</ele>
        <time>2022-05-15T15:19:09Z</time>
      </trkpt>
      <trkpt lat="43.83449" lon="5.40719">
        <ele>526.8</ele>
        <time>2022-05-15T15:19:14Z</time>
      </trkpt>
      <trkpt lat="43.83444" lon="5.40747">
        <ele>528</ele>
        <time>2022-05-15T15:19:21Z</time>
      </trkpt>
      <trkpt lat="43.83441" lon="5.40764">
        <ele>528.5</ele>
        <time>2022-05-15T15:19:26Z</time>
      </trkpt>
      <trkpt lat="43.83435" lon="5.40773">
        <ele>530.8</ele>
        <time>2022-05-15T15:19:29Z</time>
      </trkpt>
      <trkpt lat="43.83433" lon="5.4078">
        <ele>531.2</ele>
        <time>2022-05-15T15:19:31Z</time>
      </trkpt>
      <trkpt lat="43.83428" lon="5.40803">
        <ele>531.8</ele>
        <time>2022-05-15T15:19:36Z</time>
      </trkpt>
      <trkpt lat="43.8342" lon="5.40837">
        <ele>532.1</ele>
        <time>2022-05-15T15:19:44Z</time>
      </trkpt>
      <trkpt lat="43.83409" lon="5.40869">
        <ele>530.3</ele>
        <time>2022-05-15T15:19:52Z</time>
      </trkpt>
      <trkpt lat="43.83404" lon="5.4089">
        <ele>528.5</ele>
        <time>2022-05-15T15:19:57Z</time>
      </trkpt>
      <trkpt lat="43.83394" lon="5.40917">
        <ele>527.7</ele>
        <time>2022-05-15T15:20:04Z</time>
      </trkpt>
      <trkpt lat="43.8338" lon="5.40938">
        <ele>529.7</ele>
        <time>2022-05-15T15:20:10Z</time>
      </trkpt>
      <trkpt lat="43.83377" lon="5.4094">
        <ele>530.5</ele>
        <time>2022-05-15T15:20:11Z</time>
      </trkpt>
      <trkpt lat="43.83373" lon="5.40938">
        <ele>532.3</ele>
        <time>2022-05-15T15:20:13Z</time>
      </trkpt>
      <trkpt lat="43.83371" lon="5.40936">
        <ele>533.3</ele>
        <time>2022-05-15T15:20:14Z</time>
      </trkpt>
      <trkpt lat="43.8337" lon="5.40931">
        <ele>534.5</ele>
        <time>2022-05-15T15:20:16Z</time>
      </trkpt>
      <trkpt lat="43.83372" lon="5.40927">
        <ele>534.4</ele>
        <time>2022-05-15T15:20:18Z</time>
      </trkpt>
      <trkpt lat="43.83374" lon="5.40922">
        <ele>534.5</ele>
        <time>2022-05-15T15:20:20Z</time>
      </trkpt>
      <trkpt lat="43.83375" lon="5.40908">
        <ele>536.4</ele>
        <time>2022-05-15T15:20:25Z</time>
      </trkpt>
      <trkpt lat="43.83377" lon="5.40898">
        <ele>537.2</ele>
        <time>2022-05-15T15:20:28Z</time>
      </trkpt>
      <trkpt lat="43.83379" lon="5.40891">
        <ele>537.5</ele>
        <time>2022-05-15T15:20:30Z</time>
      </trkpt>
      <trkpt lat="43.83382" lon="5.40882">
        <ele>537.9</ele>
        <time>2022-05-15T15:20:33Z</time>
      </trkpt>
      <trkpt lat="43.83384" lon="5.40875">
        <ele>538.3</ele>
        <time>2022-05-15T15:20:35Z</time>
      </trkpt>
      <trkpt lat="43.83388" lon="5.40867">
        <ele>538.1</ele>
        <time>2022-05-15T15:20:38Z</time>
      </trkpt>
      <trkpt lat="43.83391" lon="5.40861">
        <ele>538.1</ele>
        <time>2022-05-15T15:20:40Z</time>
      </trkpt>
      <trkpt lat="43.83393" lon="5.40849">
        <ele>539.3</ele>
        <time>2022-05-15T15:20:43Z</time>
      </trkpt>
      <trkpt lat="43.83394" lon="5.40842">
        <ele>540.2</ele>
        <time>2022-05-15T15:20:45Z</time>
      </trkpt>
      <trkpt lat="43.83396" lon="5.40822">
        <ele>541.7</ele>
        <time>2022-05-15T15:20:50Z</time>
      </trkpt>
      <trkpt lat="43.83395" lon="5.40798">
        <ele>543.7</ele>
        <time>2022-05-15T15:20:55Z</time>
      </trkpt>
      <trkpt lat="43.83394" lon="5.40779">
        <ele>545.3</ele>
        <time>2022-05-15T15:20:59Z</time>
      </trkpt>
      <trkpt lat="43.83393" lon="5.40762">
        <ele>546.7</ele>
        <time>2022-05-15T15:21:03Z</time>
      </trkpt>
      <trkpt lat="43.83393" lon="5.4075">
        <ele>547.5</ele>
        <time>2022-05-15T15:21:06Z</time>
      </trkpt>
      <trkpt lat="43.83393" lon="5.40746">
        <ele>547.5</ele>
        <time>2022-05-15T15:21:07Z</time>
      </trkpt>
      <trkpt lat="43.83398" lon="5.40729">
        <ele>546.3</ele>
        <time>2022-05-15T15:21:11Z</time>
      </trkpt>
      <trkpt lat="43.83401" lon="5.4071">
        <ele>545.7</ele>
        <time>2022-05-15T15:21:15Z</time>
      </trkpt>
      <trkpt lat="43.83404" lon="5.40698">
        <ele>545.2</ele>
        <time>2022-05-15T15:21:18Z</time>
      </trkpt>
      <trkpt lat="43.83404" lon="5.40695">
        <ele>545.2</ele>
        <time>2022-05-15T15:21:19Z</time>
      </trkpt>
      <trkpt lat="43.83405" lon="5.40693">
        <ele>545</ele>
        <time>2022-05-15T15:21:20Z</time>
      </trkpt>
      <trkpt lat="43.83406" lon="5.40676">
        <ele>545</ele>
        <time>2022-05-15T15:21:23Z</time>
      </trkpt>
      <trkpt lat="43.83409" lon="5.40652">
        <ele>544.7</ele>
        <time>2022-05-15T15:21:28Z</time>
      </trkpt>
      <trkpt lat="43.83409" lon="5.40649">
        <ele>544.7</ele>
        <time>2022-05-15T15:21:29Z</time>
      </trkpt>
      <trkpt lat="43.83411" lon="5.40636">
        <ele>544.4</ele>
        <time>2022-05-15T15:21:32Z</time>
      </trkpt>
      <trkpt lat="43.83413" lon="5.40623">
        <ele>544.2</ele>
        <time>2022-05-15T15:21:35Z</time>
      </trkpt>
      <trkpt lat="43.83414" lon="5.4062">
        <ele>544.1</ele>
        <time>2022-05-15T15:21:36Z</time>
      </trkpt>
      <trkpt lat="43.83418" lon="5.40604">
        <ele>543.2</ele>
        <time>2022-05-15T15:21:40Z</time>
      </trkpt>
      <trkpt lat="43.83419" lon="5.40598">
        <ele>542.9</ele>
        <time>2022-05-15T15:21:41Z</time>
      </trkpt>
      <trkpt lat="43.83422" lon="5.40575">
        <ele>540.9</ele>
        <time>2022-05-15T15:21:46Z</time>
      </trkpt>
      <trkpt lat="43.8342" lon="5.40548">
        <ele>538.8</ele>
        <time>2022-05-15T15:21:52Z</time>
      </trkpt>
      <trkpt lat="43.8341" lon="5.40526">
        <ele>539.3</ele>
        <time>2022-05-15T15:21:58Z</time>
      </trkpt>
      <trkpt lat="43.83396" lon="5.4051">
        <ele>541.1</ele>
        <time>2022-05-15T15:22:04Z</time>
      </trkpt>
      <trkpt lat="43.83376" lon="5.405">
        <ele>545.2</ele>
        <time>2022-05-15T15:22:11Z</time>
      </trkpt>
      <trkpt lat="43.83368" lon="5.4049">
        <ele>545.9</ele>
        <time>2022-05-15T15:22:15Z</time>
      </trkpt>
      <trkpt lat="43.83361" lon="5.40475">
        <ele>545.9</ele>
        <time>2022-05-15T15:22:20Z</time>
      </trkpt>
      <trkpt lat="43.83357" lon="5.40457">
        <ele>545</ele>
        <time>2022-05-15T15:22:25Z</time>
      </trkpt>
      <trkpt lat="43.83349" lon="5.40436">
        <ele>545.6</ele>
        <time>2022-05-15T15:22:31Z</time>
      </trkpt>
      <trkpt lat="43.8334" lon="5.40422">
        <ele>547.7</ele>
        <time>2022-05-15T15:22:36Z</time>
      </trkpt>
      <trkpt lat="43.83325" lon="5.40407">
        <ele>548.2</ele>
        <time>2022-05-15T15:22:43Z</time>
      </trkpt>
      <trkpt lat="43.83313" lon="5.40394">
        <ele>546</ele>
        <time>2022-05-15T15:22:49Z</time>
      </trkpt>
      <trkpt lat="43.83301" lon="5.40381">
        <ele>544</ele>
        <time>2022-05-15T15:22:55Z</time>
      </trkpt>
      <trkpt lat="43.83291" lon="5.40362">
        <ele>540.6</ele>
        <time>2022-05-15T15:23:02Z</time>
      </trkpt>
      <trkpt lat="43.83282" lon="5.40346">
        <ele>538</ele>
        <time>2022-05-15T15:23:08Z</time>
      </trkpt>
      <trkpt lat="43.83273" lon="5.40335">
        <ele>536.6</ele>
        <time>2022-05-15T15:23:13Z</time>
      </trkpt>
      <trkpt lat="43.83258" lon="5.40315">
        <ele>534.9</ele>
        <time>2022-05-15T15:23:21Z</time>
      </trkpt>
      <trkpt lat="43.83247" lon="5.40298">
        <ele>533.5</ele>
        <time>2022-05-15T15:23:27Z</time>
      </trkpt>
      <trkpt lat="43.83232" lon="5.40287">
        <ele>534.4</ele>
        <time>2022-05-15T15:23:34Z</time>
      </trkpt>
      <trkpt lat="43.83217" lon="5.40283">
        <ele>536.7</ele>
        <time>2022-05-15T15:23:40Z</time>
      </trkpt>
      <trkpt lat="43.83202" lon="5.40284">
        <ele>539.6</ele>
        <time>2022-05-15T15:23:46Z</time>
      </trkpt>
      <trkpt lat="43.8319" lon="5.40287">
        <ele>541.9</ele>
        <time>2022-05-15T15:23:51Z</time>
      </trkpt>
      <trkpt lat="43.83175" lon="5.40293">
        <ele>544.6</ele>
        <time>2022-05-15T15:23:58Z</time>
      </trkpt>
      <trkpt lat="43.83163" lon="5.403">
        <ele>546.6</ele>
        <time>2022-05-15T15:24:04Z</time>
      </trkpt>
      <trkpt lat="43.83152" lon="5.40312">
        <ele>548.7</ele>
        <time>2022-05-15T15:24:10Z</time>
      </trkpt>
      <trkpt lat="43.83142" lon="5.40322">
        <ele>550.8</ele>
        <time>2022-05-15T15:24:15Z</time>
      </trkpt>
      <trkpt lat="43.83128" lon="5.40337">
        <ele>553.8</ele>
        <time>2022-05-15T15:24:22Z</time>
      </trkpt>
      <trkpt lat="43.83116" lon="5.40338">
        <ele>556.5</ele>
        <time>2022-05-15T15:24:27Z</time>
      </trkpt>
      <trkpt lat="43.83114" lon="5.40338">
        <ele>557</ele>
        <time>2022-05-15T15:24:28Z</time>
      </trkpt>
      <trkpt lat="43.83101" lon="5.40331">
        <ele>560</ele>
        <time>2022-05-15T15:24:34Z</time>
      </trkpt>
      <trkpt lat="43.83097" lon="5.40333">
        <ele>560.9</ele>
        <time>2022-05-15T15:24:36Z</time>
      </trkpt>
      <trkpt lat="43.83094" lon="5.40338">
        <ele>561.5</ele>
        <time>2022-05-15T15:24:38Z</time>
      </trkpt>
      <trkpt lat="43.83089" lon="5.40352">
        <ele>562.1</ele>
        <time>2022-05-15T15:24:43Z</time>
      </trkpt>
      <trkpt lat="43.83082" lon="5.40365">
        <ele>563</ele>
        <time>2022-05-15T15:24:48Z</time>
      </trkpt>
      <trkpt lat="43.83075" lon="5.40371">
        <ele>563.5</ele>
        <time>2022-05-15T15:24:52Z</time>
      </trkpt>
      <trkpt lat="43.83073" lon="5.40374">
        <ele>563.6</ele>
        <time>2022-05-15T15:24:53Z</time>
      </trkpt>
      <trkpt lat="43.83066" lon="5.40385">
        <ele>564.2</ele>
        <time>2022-05-15T15:24:58Z</time>
      </trkpt>
      <trkpt lat="43.83062" lon="5.4039">
        <ele>564.6</ele>
        <time>2022-05-15T15:25:00Z</time>
      </trkpt>
      <trkpt lat="43.83058" lon="5.40395">
        <ele>565.1</ele>
        <time>2022-05-15T15:25:03Z</time>
      </trkpt>
      <trkpt lat="43.83053" lon="5.40401">
        <ele>565.7</ele>
        <time>2022-05-15T15:25:06Z</time>
      </trkpt>
      <trkpt lat="43.83052" lon="5.40406">
        <ele>565.9</ele>
        <time>2022-05-15T15:25:08Z</time>
      </trkpt>
      <trkpt lat="43.83047" lon="5.40413">
        <ele>566.6</ele>
        <time>2022-05-15T15:25:12Z</time>
      </trkpt>
      <trkpt lat="43.83045" lon="5.40413">
        <ele>567</ele>
        <time>2022-05-15T15:25:13Z</time>
      </trkpt>
      <trkpt lat="43.83043" lon="5.40411">
        <ele>567.2</ele>
        <time>2022-05-15T15:25:14Z</time>
      </trkpt>
      <trkpt lat="43.83041" lon="5.40404">
        <ele>567.4</ele>
        <time>2022-05-15T15:25:17Z</time>
      </trkpt>
      <trkpt lat="43.83041" lon="5.40396">
        <ele>567.3</ele>
        <time>2022-05-15T15:25:20Z</time>
      </trkpt>
      <trkpt lat="43.83041" lon="5.4039">
        <ele>567.3</ele>
        <time>2022-05-15T15:25:23Z</time>
      </trkpt>
      <trkpt lat="43.83041" lon="5.40388">
        <ele>567.2</ele>
        <time>2022-05-15T15:25:24Z</time>
      </trkpt>
      <trkpt lat="43.8304" lon="5.40377">
        <ele>567.2</ele>
        <time>2022-05-15T15:25:28Z</time>
      </trkpt>
      <trkpt lat="43.83042" lon="5.40369">
        <ele>566.9</ele>
        <time>2022-05-15T15:25:31Z</time>
      </trkpt>
      <trkpt lat="43.83043" lon="5.40363">
        <ele>566.7</ele>
        <time>2022-05-15T15:25:33Z</time>
      </trkpt>
      <trkpt lat="43.83043" lon="5.40347">
        <ele>566.6</ele>
        <time>2022-05-15T15:25:38Z</time>
      </trkpt>
      <trkpt lat="43.83044" lon="5.40341">
        <ele>566.4</ele>
        <time>2022-05-15T15:25:40Z</time>
      </trkpt>
      <trkpt lat="43.83046" lon="5.40335">
        <ele>566.3</ele>
        <time>2022-05-15T15:25:42Z</time>
      </trkpt>
      <trkpt lat="43.83047" lon="5.40318">
        <ele>565.4</ele>
        <time>2022-05-15T15:25:47Z</time>
      </trkpt>
      <trkpt lat="43.83047" lon="5.40314">
        <ele>565.1</ele>
        <time>2022-05-15T15:25:48Z</time>
      </trkpt>
      <trkpt lat="43.83047" lon="5.40305">
        <ele>564.7</ele>
        <time>2022-05-15T15:25:51Z</time>
      </trkpt>
      <trkpt lat="43.83049" lon="5.40288">
        <ele>563.7</ele>
        <time>2022-05-15T15:25:56Z</time>
      </trkpt>
      <trkpt lat="43.83049" lon="5.40286">
        <ele>563.6</ele>
        <time>2022-05-15T15:25:57Z</time>
      </trkpt>
      <trkpt lat="43.8305" lon="5.40276">
        <ele>563.1</ele>
        <time>2022-05-15T15:26:00Z</time>
      </trkpt>
      <trkpt lat="43.8305" lon="5.40262">
        <ele>562.4</ele>
        <time>2022-05-15T15:26:04Z</time>
      </trkpt>
      <trkpt lat="43.8305" lon="5.40259">
        <ele>562.3</ele>
        <time>2022-05-15T15:26:05Z</time>
      </trkpt>
      <trkpt lat="43.8305" lon="5.40242">
        <ele>561</ele>
        <time>2022-05-15T15:26:10Z</time>
      </trkpt>
      <trkpt lat="43.83048" lon="5.40233">
        <ele>559.9</ele>
        <time>2022-05-15T15:26:13Z</time>
      </trkpt>
      <trkpt lat="43.83044" lon="5.40232">
        <ele>559.5</ele>
        <time>2022-05-15T15:26:15Z</time>
      </trkpt>
      <trkpt lat="43.83035" lon="5.4024">
        <ele>559.9</ele>
        <time>2022-05-15T15:26:20Z</time>
      </trkpt>
      <trkpt lat="43.83025" lon="5.40251">
        <ele>561</ele>
        <time>2022-05-15T15:26:26Z</time>
      </trkpt>
      <trkpt lat="43.8301" lon="5.40264">
        <ele>561.7</ele>
        <time>2022-05-15T15:26:33Z</time>
      </trkpt>
      <trkpt lat="43.82994" lon="5.40276">
        <ele>562.3</ele>
        <time>2022-05-15T15:26:40Z</time>
      </trkpt>
      <trkpt lat="43.82989" lon="5.40281">
        <ele>562.5</ele>
        <time>2022-05-15T15:26:43Z</time>
      </trkpt>
      <trkpt lat="43.82987" lon="5.40283">
        <ele>562.6</ele>
        <time>2022-05-15T15:26:44Z</time>
      </trkpt>
      <trkpt lat="43.82978" lon="5.40296">
        <ele>563.6</ele>
        <time>2022-05-15T15:26:49Z</time>
      </trkpt>
      <trkpt lat="43.82963" lon="5.40306">
        <ele>564.3</ele>
        <time>2022-05-15T15:26:55Z</time>
      </trkpt>
      <trkpt lat="43.82948" lon="5.40317">
        <ele>565.5</ele>
        <time>2022-05-15T15:27:01Z</time>
      </trkpt>
      <trkpt lat="43.82934" lon="5.40329">
        <ele>567.4</ele>
        <time>2022-05-15T15:27:07Z</time>
      </trkpt>
      <trkpt lat="43.82916" lon="5.40345">
        <ele>569</ele>
        <time>2022-05-15T15:27:15Z</time>
      </trkpt>
      <trkpt lat="43.82907" lon="5.40348">
        <ele>568</ele>
        <time>2022-05-15T15:27:20Z</time>
      </trkpt>
      <trkpt lat="43.82905" lon="5.40348">
        <ele>567.8</ele>
        <time>2022-05-15T15:27:21Z</time>
      </trkpt>
      <trkpt lat="43.82903" lon="5.40348">
        <ele>567.5</ele>
        <time>2022-05-15T15:27:23Z</time>
      </trkpt>
      <trkpt lat="43.82901" lon="5.40348">
        <ele>567.2</ele>
        <time>2022-05-15T15:27:24Z</time>
      </trkpt>
      <trkpt lat="43.82886" lon="5.40353">
        <ele>565.7</ele>
        <time>2022-05-15T15:27:31Z</time>
      </trkpt>
      <trkpt lat="43.82871" lon="5.40355">
        <ele>564</ele>
        <time>2022-05-15T15:27:37Z</time>
      </trkpt>
      <trkpt lat="43.82854" lon="5.40363">
        <ele>562.9</ele>
        <time>2022-05-15T15:27:43Z</time>
      </trkpt>
      <trkpt lat="43.82836" lon="5.40372">
        <ele>562.3</ele>
        <time>2022-05-15T15:27:49Z</time>
      </trkpt>
      <trkpt lat="43.82822" lon="5.40375">
        <ele>562.8</ele>
        <time>2022-05-15T15:27:54Z</time>
      </trkpt>
      <trkpt lat="43.82809" lon="5.40381">
        <ele>563.8</ele>
        <time>2022-05-15T15:27:59Z</time>
      </trkpt>
      <trkpt lat="43.82794" lon="5.40382">
        <ele>564.1</ele>
        <time>2022-05-15T15:28:04Z</time>
      </trkpt>
      <trkpt lat="43.82781" lon="5.4039">
        <ele>564.6</ele>
        <time>2022-05-15T15:28:09Z</time>
      </trkpt>
      <trkpt lat="43.82767" lon="5.4041">
        <ele>565</ele>
        <time>2022-05-15T15:28:15Z</time>
      </trkpt>
      <trkpt lat="43.82751" lon="5.40427">
        <ele>565.6</ele>
        <time>2022-05-15T15:28:21Z</time>
      </trkpt>
      <trkpt lat="43.82733" lon="5.4044">
        <ele>571</ele>
        <time>2022-05-15T15:28:28Z</time>
      </trkpt>
      <trkpt lat="43.82718" lon="5.40452">
        <ele>575</ele>
        <time>2022-05-15T15:28:34Z</time>
      </trkpt>
      <trkpt lat="43.82703" lon="5.40471">
        <ele>578.2</ele>
        <time>2022-05-15T15:28:41Z</time>
      </trkpt>
      <trkpt lat="43.82689" lon="5.40487">
        <ele>579.8</ele>
        <time>2022-05-15T15:28:47Z</time>
      </trkpt>
      <trkpt lat="43.82673" lon="5.40503">
        <ele>580.8</ele>
        <time>2022-05-15T15:28:54Z</time>
      </trkpt>
      <trkpt lat="43.82651" lon="5.40525">
        <ele>585.9</ele>
        <time>2022-05-15T15:29:04Z</time>
      </trkpt>
      <trkpt lat="43.82642" lon="5.40542">
        <ele>588.6</ele>
        <time>2022-05-15T15:29:10Z</time>
      </trkpt>
      <trkpt lat="43.82631" lon="5.40572">
        <ele>592</ele>
        <time>2022-05-15T15:29:18Z</time>
      </trkpt>
      <trkpt lat="43.82623" lon="5.40598">
        <ele>594.7</ele>
        <time>2022-05-15T15:29:24Z</time>
      </trkpt>
      <trkpt lat="43.8262" lon="5.40619">
        <ele>596.3</ele>
        <time>2022-05-15T15:29:29Z</time>
      </trkpt>
      <trkpt lat="43.82617" lon="5.40653">
        <ele>598.5</ele>
        <time>2022-05-15T15:29:37Z</time>
      </trkpt>
      <trkpt lat="43.82615" lon="5.40689">
        <ele>601.8</ele>
        <time>2022-05-15T15:29:45Z</time>
      </trkpt>
      <trkpt lat="43.82613" lon="5.40723">
        <ele>605.6</ele>
        <time>2022-05-15T15:29:53Z</time>
      </trkpt>
      <trkpt lat="43.82611" lon="5.40762">
        <ele>609.5</ele>
        <time>2022-05-15T15:30:02Z</time>
      </trkpt>
      <trkpt lat="43.82612" lon="5.40793">
        <ele>611.5</ele>
        <time>2022-05-15T15:30:09Z</time>
      </trkpt>
      <trkpt lat="43.82617" lon="5.40832">
        <ele>613.5</ele>
        <time>2022-05-15T15:30:18Z</time>
      </trkpt>
      <trkpt lat="43.82618" lon="5.4087">
        <ele>616.7</ele>
        <time>2022-05-15T15:30:26Z</time>
      </trkpt>
      <trkpt lat="43.82614" lon="5.40905">
        <ele>620.3</ele>
        <time>2022-05-15T15:30:33Z</time>
      </trkpt>
      <trkpt lat="43.82608" lon="5.4093">
        <ele>622.8</ele>
        <time>2022-05-15T15:30:39Z</time>
      </trkpt>
      <trkpt lat="43.82598" lon="5.4096">
        <ele>625.5</ele>
        <time>2022-05-15T15:30:46Z</time>
      </trkpt>
      <trkpt lat="43.82588" lon="5.40984">
        <ele>627.8</ele>
        <time>2022-05-15T15:30:52Z</time>
      </trkpt>
      <trkpt lat="43.82574" lon="5.4101">
        <ele>631.5</ele>
        <time>2022-05-15T15:30:59Z</time>
      </trkpt>
      <trkpt lat="43.82559" lon="5.4102">
        <ele>634.9</ele>
        <time>2022-05-15T15:31:05Z</time>
      </trkpt>
      <trkpt lat="43.82541" lon="5.41028">
        <ele>638.6</ele>
        <time>2022-05-15T15:31:12Z</time>
      </trkpt>
      <trkpt lat="43.82517" lon="5.41039">
        <ele>643.4</ele>
        <time>2022-05-15T15:31:21Z</time>
      </trkpt>
      <trkpt lat="43.82511" lon="5.41043">
        <ele>644.5</ele>
        <time>2022-05-15T15:31:26Z</time>
      </trkpt>
      <trkpt lat="43.82511" lon="5.41044">
        <ele>644.6</ele>
        <time>2022-05-15T15:32:08Z</time>
      </trkpt>
      <trkpt lat="43.82509" lon="5.41047">
        <ele>645</ele>
        <time>2022-05-15T15:32:17Z</time>
      </trkpt>
      <trkpt lat="43.82498" lon="5.41059">
        <ele>647.1</ele>
        <time>2022-05-15T15:32:24Z</time>
      </trkpt>
      <trkpt lat="43.82487" lon="5.41071">
        <ele>649.4</ele>
        <time>2022-05-15T15:32:30Z</time>
      </trkpt>
      <trkpt lat="43.82477" lon="5.41083">
        <ele>651.1</ele>
        <time>2022-05-15T15:32:36Z</time>
      </trkpt>
      <trkpt lat="43.82461" lon="5.41103">
        <ele>652.5</ele>
        <time>2022-05-15T15:32:46Z</time>
      </trkpt>
      <trkpt lat="43.82448" lon="5.41119">
        <ele>652.4</ele>
        <time>2022-05-15T15:32:55Z</time>
      </trkpt>
      <trkpt lat="43.82436" lon="5.4113">
        <ele>651.9</ele>
        <time>2022-05-15T15:33:03Z</time>
      </trkpt>
      <trkpt lat="43.82426" lon="5.41133">
        <ele>652</ele>
        <time>2022-05-15T15:33:09Z</time>
      </trkpt>
      <trkpt lat="43.82414" lon="5.41137">
        <ele>651.6</ele>
        <time>2022-05-15T15:33:16Z</time>
      </trkpt>
      <trkpt lat="43.824" lon="5.41142">
        <ele>650.2</ele>
        <time>2022-05-15T15:33:24Z</time>
      </trkpt>
      <trkpt lat="43.82387" lon="5.41144">
        <ele>649.4</ele>
        <time>2022-05-15T15:33:31Z</time>
      </trkpt>
      <trkpt lat="43.82385" lon="5.41144">
        <ele>649.3</ele>
        <time>2022-05-15T15:33:32Z</time>
      </trkpt>
      <trkpt lat="43.82376" lon="5.41145">
        <ele>648.8</ele>
        <time>2022-05-15T15:33:36Z</time>
      </trkpt>
      <trkpt lat="43.8236" lon="5.41147">
        <ele>647.9</ele>
        <time>2022-05-15T15:33:44Z</time>
      </trkpt>
      <trkpt lat="43.82348" lon="5.41148">
        <ele>647.2</ele>
        <time>2022-05-15T15:33:49Z</time>
      </trkpt>
      <trkpt lat="43.82336" lon="5.4115">
        <ele>646.3</ele>
        <time>2022-05-15T15:33:54Z</time>
      </trkpt>
      <trkpt lat="43.82324" lon="5.41149">
        <ele>646.2</ele>
        <time>2022-05-15T15:33:59Z</time>
      </trkpt>
      <trkpt lat="43.82303" lon="5.41149">
        <ele>645.8</ele>
        <time>2022-05-15T15:34:05Z</time>
      </trkpt>
      <trkpt lat="43.82282" lon="5.41147">
        <ele>645.8</ele>
        <time>2022-05-15T15:34:11Z</time>
      </trkpt>
      <trkpt lat="43.82262" lon="5.41143">
        <ele>646.1</ele>
        <time>2022-05-15T15:34:17Z</time>
      </trkpt>
      <trkpt lat="43.82243" lon="5.41139">
        <ele>647.9</ele>
        <time>2022-05-15T15:34:22Z</time>
      </trkpt>
      <trkpt lat="43.82242" lon="5.4114">
        <ele>647.9</ele>
        <time>2022-05-15T15:34:25Z</time>
      </trkpt>
      <trkpt lat="43.82241" lon="5.41138">
        <ele>648.5</ele>
        <time>2022-05-15T15:34:32Z</time>
      </trkpt>
      <trkpt lat="43.82239" lon="5.41137">
        <ele>649</ele>
        <time>2022-05-15T15:34:42Z</time>
      </trkpt>
      <trkpt lat="43.82227" lon="5.41133">
        <ele>651.8</ele>
        <time>2022-05-15T15:34:48Z</time>
      </trkpt>
      <trkpt lat="43.82218" lon="5.41127">
        <ele>654.4</ele>
        <time>2022-05-15T15:34:53Z</time>
      </trkpt>
      <trkpt lat="43.82206" lon="5.41119">
        <ele>657.5</ele>
        <time>2022-05-15T15:34:59Z</time>
      </trkpt>
      <trkpt lat="43.82195" lon="5.41109">
        <ele>660.5</ele>
        <time>2022-05-15T15:35:05Z</time>
      </trkpt>
      <trkpt lat="43.82186" lon="5.41103">
        <ele>662.5</ele>
        <time>2022-05-15T15:35:10Z</time>
      </trkpt>
      <trkpt lat="43.82182" lon="5.411">
        <ele>663.4</ele>
        <time>2022-05-15T15:35:12Z</time>
      </trkpt>
      <trkpt lat="43.82176" lon="5.41096">
        <ele>664.6</ele>
        <time>2022-05-15T15:35:15Z</time>
      </trkpt>
      <trkpt lat="43.82163" lon="5.41083">
        <ele>668.4</ele>
        <time>2022-05-15T15:35:22Z</time>
      </trkpt>
      <trkpt lat="43.8215" lon="5.4107">
        <ele>673.5</ele>
        <time>2022-05-15T15:35:28Z</time>
      </trkpt>
      <trkpt lat="43.82143" lon="5.41065">
        <ele>676.1</ele>
        <time>2022-05-15T15:35:31Z</time>
      </trkpt>
      <trkpt lat="43.82139" lon="5.41061">
        <ele>677.4</ele>
        <time>2022-05-15T15:35:33Z</time>
      </trkpt>
      <trkpt lat="43.82124" lon="5.41048">
        <ele>682.3</ele>
        <time>2022-05-15T15:35:40Z</time>
      </trkpt>
      <trkpt lat="43.8211" lon="5.41038">
        <ele>686.3</ele>
        <time>2022-05-15T15:35:47Z</time>
      </trkpt>
      <trkpt lat="43.82096" lon="5.41024">
        <ele>689.6</ele>
        <time>2022-05-15T15:35:55Z</time>
      </trkpt>
      <trkpt lat="43.82082" lon="5.41011">
        <ele>692.8</ele>
        <time>2022-05-15T15:36:02Z</time>
      </trkpt>
      <trkpt lat="43.82071" lon="5.41002">
        <ele>697.9</ele>
        <time>2022-05-15T15:36:08Z</time>
      </trkpt>
      <trkpt lat="43.82057" lon="5.4099">
        <ele>704.2</ele>
        <time>2022-05-15T15:36:15Z</time>
      </trkpt>
      <trkpt lat="43.82058" lon="5.41001">
        <ele>704.8</ele>
        <time>2022-05-15T15:36:40Z</time>
      </trkpt>
      <trkpt lat="43.82066" lon="5.41037">
        <ele>704.7</ele>
        <time>2022-05-15T15:37:02Z</time>
      </trkpt>
      <trkpt lat="43.82072" lon="5.41068">
        <ele>704.5</ele>
        <time>2022-05-15T15:37:08Z</time>
      </trkpt>
      <trkpt lat="43.82074" lon="5.41092">
        <ele>705.6</ele>
      </trkpt>
      <trkpt lat="43.82072" lon="5.4112">
        <ele>708.9</ele>
        <time>2022-05-15T15:37:37Z</time>
      </trkpt>
      <trkpt lat="43.82073" lon="5.41138">
        <ele>709.6</ele>
        <time>2022-05-15T15:37:41Z</time>
      </trkpt>
      <trkpt lat="43.82075" lon="5.41162">
        <ele>710.1</ele>
        <time>2022-05-15T15:37:49Z</time>
      </trkpt>
      <trkpt lat="43.82082" lon="5.41178">
        <ele>705.3</ele>
        <time>2022-05-15T15:37:53Z</time>
      </trkpt>
      <trkpt lat="43.82085" lon="5.41182">
        <ele>703.3</ele>
        <time>2022-05-15T15:37:54Z</time>
      </trkpt>
      <trkpt lat="43.82091" lon="5.41194">
        <ele>699.4</ele>
        <time>2022-05-15T15:37:56Z</time>
      </trkpt>
      <trkpt lat="43.82095" lon="5.41207">
        <ele>696.4</ele>
        <time>2022-05-15T15:37:58Z</time>
      </trkpt>
      <trkpt lat="43.82098" lon="5.41219">
        <ele>694.1</ele>
        <time>2022-05-15T15:38:00Z</time>
      </trkpt>
      <trkpt lat="43.82099" lon="5.41225">
        <ele>693.2</ele>
        <time>2022-05-15T15:38:01Z</time>
      </trkpt>
      <trkpt lat="43.82098" lon="5.41244">
        <ele>692.7</ele>
        <time>2022-05-15T15:38:04Z</time>
      </trkpt>
      <trkpt lat="43.82097" lon="5.4125">
        <ele>693</ele>
        <time>2022-05-15T15:38:05Z</time>
      </trkpt>
      <trkpt lat="43.82092" lon="5.4127">
        <ele>691.8</ele>
        <time>2022-05-15T15:38:08Z</time>
      </trkpt>
      <trkpt lat="43.8209" lon="5.41277">
        <ele>691.5</ele>
        <time>2022-05-15T15:38:09Z</time>
      </trkpt>
      <trkpt lat="43.82084" lon="5.41297">
        <ele>690.5</ele>
        <time>2022-05-15T15:38:12Z</time>
      </trkpt>
      <trkpt lat="43.82076" lon="5.41314">
        <ele>692.1</ele>
        <time>2022-05-15T15:38:16Z</time>
      </trkpt>
      <trkpt lat="43.82069" lon="5.41333">
        <ele>692.9</ele>
        <time>2022-05-15T15:38:21Z</time>
      </trkpt>
      <trkpt lat="43.82072" lon="5.41343">
        <ele>689.1</ele>
        <time>2022-05-15T15:38:24Z</time>
      </trkpt>
      <trkpt lat="43.82072" lon="5.41344">
        <ele>688.9</ele>
        <time>2022-05-15T15:38:27Z</time>
      </trkpt>
      <trkpt lat="43.82074" lon="5.41344">
        <ele>687.6</ele>
        <time>2022-05-15T15:38:28Z</time>
      </trkpt>
      <trkpt lat="43.82085" lon="5.41344">
        <ele>680.6</ele>
        <time>2022-05-15T15:38:31Z</time>
      </trkpt>
      <trkpt lat="43.82121" lon="5.41346">
        <ele>665.3</ele>
        <time>2022-05-15T15:38:34Z</time>
      </trkpt>
      <trkpt lat="43.82144" lon="5.41349">
        <ele>656.1</ele>
        <time>2022-05-15T15:38:36Z</time>
      </trkpt>
      <trkpt lat="43.82164" lon="5.41352">
        <ele>648.7</ele>
        <time>2022-05-15T15:38:38Z</time>
      </trkpt>
      <trkpt lat="43.8219" lon="5.41341">
        <ele>639.8</ele>
        <time>2022-05-15T15:38:41Z</time>
      </trkpt>
      <trkpt lat="43.82215" lon="5.4134">
        <ele>633.9</ele>
        <time>2022-05-15T15:38:44Z</time>
      </trkpt>
      <trkpt lat="43.8224" lon="5.41352">
        <ele>632.2</ele>
        <time>2022-05-15T15:38:47Z</time>
      </trkpt>
      <trkpt lat="43.82247" lon="5.41357">
        <ele>632.3</ele>
        <time>2022-05-15T15:38:48Z</time>
      </trkpt>
      <trkpt lat="43.82261" lon="5.41371">
        <ele>633.6</ele>
        <time>2022-05-15T15:38:50Z</time>
      </trkpt>
      <trkpt lat="43.82277" lon="5.41389">
        <ele>634.6</ele>
        <time>2022-05-15T15:38:53Z</time>
      </trkpt>
      <trkpt lat="43.82279" lon="5.41401">
        <ele>637.2</ele>
        <time>2022-05-15T15:38:55Z</time>
      </trkpt>
      <trkpt lat="43.8228" lon="5.41405">
        <ele>637.9</ele>
        <time>2022-05-15T15:38:56Z</time>
      </trkpt>
      <trkpt lat="43.82281" lon="5.41408">
        <ele>638.4</ele>
        <time>2022-05-15T15:38:57Z</time>
      </trkpt>
      <trkpt lat="43.82281" lon="5.41409">
        <ele>638.6</ele>
        <time>2022-05-15T15:38:59Z</time>
      </trkpt>
      <trkpt lat="43.82282" lon="5.41409">
        <ele>638.3</ele>
        <time>2022-05-15T15:39:01Z</time>
      </trkpt>
      <trkpt lat="43.82285" lon="5.41411">
        <ele>637.8</ele>
        <time>2022-05-15T15:39:03Z</time>
      </trkpt>
      <trkpt lat="43.82289" lon="5.41417">
        <ele>638</ele>
        <time>2022-05-15T15:39:05Z</time>
      </trkpt>
      <trkpt lat="43.82292" lon="5.4142">
        <ele>638.1</ele>
        <time>2022-05-15T15:39:06Z</time>
      </trkpt>
      <trkpt lat="43.82295" lon="5.41422">
        <ele>637.7</ele>
        <time>2022-05-15T15:39:07Z</time>
      </trkpt>
      <trkpt lat="43.82299" lon="5.41427">
        <ele>638</ele>
        <time>2022-05-15T15:39:09Z</time>
      </trkpt>
      <trkpt lat="43.82309" lon="5.4144">
        <ele>638.4</ele>
        <time>2022-05-15T15:39:13Z</time>
      </trkpt>
      <trkpt lat="43.82315" lon="5.41447">
        <ele>638</ele>
        <time>2022-05-15T15:39:15Z</time>
      </trkpt>
      <trkpt lat="43.82317" lon="5.41452">
        <ele>638.6</ele>
        <time>2022-05-15T15:39:16Z</time>
      </trkpt>
      <trkpt lat="43.82321" lon="5.41459">
        <ele>638.8</ele>
        <time>2022-05-15T15:39:18Z</time>
      </trkpt>
      <trkpt lat="43.82325" lon="5.41464">
        <ele>638.3</ele>
        <time>2022-05-15T15:39:19Z</time>
      </trkpt>
      <trkpt lat="43.82331" lon="5.41476">
        <ele>638.4</ele>
        <time>2022-05-15T15:39:21Z</time>
      </trkpt>
      <trkpt lat="43.82336" lon="5.4148">
        <ele>637.1</ele>
        <time>2022-05-15T15:39:22Z</time>
      </trkpt>
      <trkpt lat="43.82341" lon="5.41487">
        <ele>636.6</ele>
        <time>2022-05-15T15:39:24Z</time>
      </trkpt>
      <trkpt lat="43.82344" lon="5.4149">
        <ele>635.9</ele>
        <time>2022-05-15T15:39:25Z</time>
      </trkpt>
      <trkpt lat="43.82349" lon="5.41506">
        <ele>635.8</ele>
        <time>2022-05-15T15:39:29Z</time>
      </trkpt>
      <trkpt lat="43.82359" lon="5.41526">
        <ele>632</ele>
        <time>2022-05-15T15:39:34Z</time>
      </trkpt>
      <trkpt lat="43.82368" lon="5.41548">
        <ele>629</ele>
        <time>2022-05-15T15:39:39Z</time>
      </trkpt>
      <trkpt lat="43.82381" lon="5.41572">
        <ele>625</ele>
        <time>2022-05-15T15:39:46Z</time>
      </trkpt>
      <trkpt lat="43.82384" lon="5.4159">
        <ele>625.2</ele>
        <time>2022-05-15T15:39:50Z</time>
      </trkpt>
      <trkpt lat="43.82385" lon="5.41597">
        <ele>625.5</ele>
        <time>2022-05-15T15:39:51Z</time>
      </trkpt>
      <trkpt lat="43.8239" lon="5.41611">
        <ele>625</ele>
        <time>2022-05-15T15:39:53Z</time>
      </trkpt>
      <trkpt lat="43.82394" lon="5.41622">
        <ele>624.5</ele>
        <time>2022-05-15T15:39:55Z</time>
      </trkpt>
      <trkpt lat="43.824" lon="5.41638">
        <ele>623.8</ele>
        <time>2022-05-15T15:39:59Z</time>
      </trkpt>
      <trkpt lat="43.82405" lon="5.41648">
        <ele>622.8</ele>
        <time>2022-05-15T15:40:01Z</time>
      </trkpt>
      <trkpt lat="43.82407" lon="5.41653">
        <ele>622.5</ele>
        <time>2022-05-15T15:40:02Z</time>
      </trkpt>
      <trkpt lat="43.82411" lon="5.41667">
        <ele>622.3</ele>
        <time>2022-05-15T15:40:06Z</time>
      </trkpt>
      <trkpt lat="43.82416" lon="5.41684">
        <ele>623.2</ele>
        <time>2022-05-15T15:40:13Z</time>
      </trkpt>
      <trkpt lat="43.82423" lon="5.41702">
        <ele>623.1</ele>
        <time>2022-05-15T15:40:18Z</time>
      </trkpt>
      <trkpt lat="43.82424" lon="5.41712">
        <ele>624.2</ele>
        <time>2022-05-15T15:40:20Z</time>
      </trkpt>
      <trkpt lat="43.82423" lon="5.41723">
        <ele>626.4</ele>
        <time>2022-05-15T15:40:22Z</time>
      </trkpt>
      <trkpt lat="43.82423" lon="5.41729">
        <ele>627.4</ele>
        <time>2022-05-15T15:40:25Z</time>
      </trkpt>
      <trkpt lat="43.82424" lon="5.4173">
        <ele>627.1</ele>
        <time>2022-05-15T15:41:08Z</time>
      </trkpt>
      <trkpt lat="43.82426" lon="5.41737">
        <ele>627.2</ele>
        <time>2022-05-15T15:41:26Z</time>
      </trkpt>
      <trkpt lat="43.82432" lon="5.41755">
        <ele>627</ele>
        <time>2022-05-15T15:41:32Z</time>
      </trkpt>
      <trkpt lat="43.82439" lon="5.41776">
        <ele>626.5</ele>
        <time>2022-05-15T15:41:38Z</time>
      </trkpt>
      <trkpt lat="43.82442" lon="5.41799">
        <ele>628.2</ele>
        <time>2022-05-15T15:41:45Z</time>
      </trkpt>
      <trkpt lat="43.82444" lon="5.41826">
        <ele>630.9</ele>
        <time>2022-05-15T15:41:52Z</time>
      </trkpt>
      <trkpt lat="43.82445" lon="5.41851">
        <ele>633.2</ele>
        <time>2022-05-15T15:41:59Z</time>
      </trkpt>
      <trkpt lat="43.82444" lon="5.41872">
        <ele>636.1</ele>
        <time>2022-05-15T15:42:05Z</time>
      </trkpt>
      <trkpt lat="43.82441" lon="5.41903">
        <ele>641.3</ele>
        <time>2022-05-15T15:42:14Z</time>
      </trkpt>
      <trkpt lat="43.8244" lon="5.41925">
        <ele>644.7</ele>
        <time>2022-05-15T15:42:21Z</time>
      </trkpt>
      <trkpt lat="43.82439" lon="5.41941">
        <ele>647.7</ele>
        <time>2022-05-15T15:42:26Z</time>
      </trkpt>
      <trkpt lat="43.8244" lon="5.4196">
        <ele>649.9</ele>
        <time>2022-05-15T15:42:32Z</time>
      </trkpt>
      <trkpt lat="43.82446" lon="5.41981">
        <ele>649.2</ele>
        <time>2022-05-15T15:42:38Z</time>
      </trkpt>
      <trkpt lat="43.8245" lon="5.42">
        <ele>649.4</ele>
        <time>2022-05-15T15:42:44Z</time>
      </trkpt>
      <trkpt lat="43.82451" lon="5.42015">
        <ele>650.1</ele>
        <time>2022-05-15T15:42:50Z</time>
      </trkpt>
      <trkpt lat="43.8245" lon="5.42028">
        <ele>651.9</ele>
        <time>2022-05-15T15:42:54Z</time>
      </trkpt>
      <trkpt lat="43.82449" lon="5.42033">
        <ele>653</ele>
        <time>2022-05-15T15:42:56Z</time>
      </trkpt>
      <trkpt lat="43.8245" lon="5.42049">
        <ele>653.8</ele>
        <time>2022-05-15T15:43:02Z</time>
      </trkpt>
      <trkpt lat="43.82454" lon="5.42069">
        <ele>653</ele>
        <time>2022-05-15T15:43:09Z</time>
      </trkpt>
      <trkpt lat="43.82461" lon="5.42085">
        <ele>649.8</ele>
        <time>2022-05-15T15:43:16Z</time>
      </trkpt>
      <trkpt lat="43.82468" lon="5.42094">
        <ele>645.7</ele>
        <time>2022-05-15T15:43:21Z</time>
      </trkpt>
      <trkpt lat="43.82472" lon="5.42106">
        <ele>643.7</ele>
        <time>2022-05-15T15:43:26Z</time>
      </trkpt>
      <trkpt lat="43.82472" lon="5.42118">
        <ele>644.2</ele>
        <time>2022-05-15T15:43:32Z</time>
      </trkpt>
      <trkpt lat="43.8247" lon="5.42121">
        <ele>645.5</ele>
        <time>2022-05-15T15:43:34Z</time>
      </trkpt>
      <trkpt lat="43.82466" lon="5.42125">
        <ele>648</ele>
        <time>2022-05-15T15:43:37Z</time>
      </trkpt>
      <trkpt lat="43.82455" lon="5.42138">
        <ele>654.7</ele>
        <time>2022-05-15T15:43:44Z</time>
      </trkpt>
      <trkpt lat="43.82446" lon="5.42149">
        <ele>660</ele>
        <time>2022-05-15T15:43:49Z</time>
      </trkpt>
      <trkpt lat="43.8244" lon="5.42165">
        <ele>663.4</ele>
        <time>2022-05-15T15:43:54Z</time>
      </trkpt>
      <trkpt lat="43.8244" lon="5.42184">
        <ele>663.9</ele>
        <time>2022-05-15T15:43:59Z</time>
      </trkpt>
      <trkpt lat="43.82449" lon="5.42199">
        <ele>660.1</ele>
        <time>2022-05-15T15:44:04Z</time>
      </trkpt>
      <trkpt lat="43.8246" lon="5.42219">
        <ele>656.2</ele>
        <time>2022-05-15T15:44:10Z</time>
      </trkpt>
      <trkpt lat="43.82469" lon="5.42242">
        <ele>654.2</ele>
        <time>2022-05-15T15:44:16Z</time>
      </trkpt>
      <trkpt lat="43.82473" lon="5.42261">
        <ele>653.7</ele>
        <time>2022-05-15T15:44:21Z</time>
      </trkpt>
      <trkpt lat="43.82478" lon="5.42284">
        <ele>652.8</ele>
        <time>2022-05-15T15:44:27Z</time>
      </trkpt>
      <trkpt lat="43.82485" lon="5.42301">
        <ele>651.5</ele>
        <time>2022-05-15T15:44:32Z</time>
      </trkpt>
      <trkpt lat="43.82491" lon="5.4232">
        <ele>651.1</ele>
        <time>2022-05-15T15:44:38Z</time>
      </trkpt>
      <trkpt lat="43.82495" lon="5.42339">
        <ele>650.4</ele>
        <time>2022-05-15T15:44:43Z</time>
      </trkpt>
      <trkpt lat="43.8249" lon="5.42351">
        <ele>649.8</ele>
        <time>2022-05-15T15:44:47Z</time>
      </trkpt>
      <trkpt lat="43.82474" lon="5.42364">
        <ele>650.9</ele>
        <time>2022-05-15T15:44:53Z</time>
      </trkpt>
      <trkpt lat="43.82459" lon="5.42379">
        <ele>650.9</ele>
        <time>2022-05-15T15:44:59Z</time>
      </trkpt>
      <trkpt lat="43.8244" lon="5.42396">
        <ele>650.6</ele>
        <time>2022-05-15T15:45:06Z</time>
      </trkpt>
      <trkpt lat="43.82424" lon="5.42411">
        <ele>649.4</ele>
        <time>2022-05-15T15:45:12Z</time>
      </trkpt>
      <trkpt lat="43.82412" lon="5.42424">
        <ele>650.4</ele>
        <time>2022-05-15T15:45:17Z</time>
      </trkpt>
      <trkpt lat="43.82397" lon="5.42439">
        <ele>654.6</ele>
        <time>2022-05-15T15:45:23Z</time>
      </trkpt>
      <trkpt lat="43.82375" lon="5.42455">
        <ele>661.2</ele>
        <time>2022-05-15T15:45:31Z</time>
      </trkpt>
      <trkpt lat="43.82364" lon="5.42457">
        <ele>663.8</ele>
        <time>2022-05-15T15:45:35Z</time>
      </trkpt>
      <trkpt lat="43.82362" lon="5.42456">
        <ele>664</ele>
        <time>2022-05-15T15:45:36Z</time>
      </trkpt>
      <trkpt lat="43.82341" lon="5.42446">
        <ele>666</ele>
        <time>2022-05-15T15:45:43Z</time>
      </trkpt>
      <trkpt lat="43.82322" lon="5.42437">
        <ele>669.5</ele>
        <time>2022-05-15T15:45:50Z</time>
      </trkpt>
      <trkpt lat="43.82306" lon="5.42428">
        <ele>673.1</ele>
        <time>2022-05-15T15:45:56Z</time>
      </trkpt>
      <trkpt lat="43.82292" lon="5.42409">
        <ele>673.2</ele>
        <time>2022-05-15T15:46:02Z</time>
      </trkpt>
      <trkpt lat="43.82282" lon="5.4239">
        <ele>671.9</ele>
        <time>2022-05-15T15:46:08Z</time>
      </trkpt>
      <trkpt lat="43.82268" lon="5.42369">
        <ele>669.7</ele>
        <time>2022-05-15T15:46:15Z</time>
      </trkpt>
      <trkpt lat="43.82253" lon="5.42349">
        <ele>666</ele>
        <time>2022-05-15T15:46:22Z</time>
      </trkpt>
      <trkpt lat="43.82238" lon="5.4233">
        <ele>663.1</ele>
        <time>2022-05-15T15:46:29Z</time>
      </trkpt>
      <trkpt lat="43.82221" lon="5.42326">
        <ele>665.9</ele>
        <time>2022-05-15T15:46:35Z</time>
      </trkpt>
      <trkpt lat="43.82204" lon="5.42324">
        <ele>668.4</ele>
        <time>2022-05-15T15:46:41Z</time>
      </trkpt>
      <trkpt lat="43.8218" lon="5.42318">
        <ele>672.5</ele>
        <time>2022-05-15T15:46:49Z</time>
      </trkpt>
      <trkpt lat="43.8216" lon="5.42316">
        <ele>676.3</ele>
        <time>2022-05-15T15:46:56Z</time>
      </trkpt>
      <trkpt lat="43.82137" lon="5.42318">
        <ele>681.8</ele>
        <time>2022-05-15T15:47:04Z</time>
      </trkpt>
      <trkpt lat="43.82113" lon="5.42323">
        <ele>686.7</ele>
        <time>2022-05-15T15:47:12Z</time>
      </trkpt>
      <trkpt lat="43.82096" lon="5.4233">
        <ele>688.9</ele>
        <time>2022-05-15T15:47:18Z</time>
      </trkpt>
      <trkpt lat="43.82082" lon="5.4234">
        <ele>690.5</ele>
        <time>2022-05-15T15:47:24Z</time>
      </trkpt>
      <trkpt lat="43.82066" lon="5.42354">
        <ele>693.9</ele>
        <time>2022-05-15T15:47:31Z</time>
      </trkpt>
      <trkpt lat="43.82046" lon="5.4237">
        <ele>697.3</ele>
        <time>2022-05-15T15:47:39Z</time>
      </trkpt>
      <trkpt lat="43.82029" lon="5.42385">
        <ele>698.8</ele>
        <time>2022-05-15T15:47:46Z</time>
      </trkpt>
      <trkpt lat="43.82013" lon="5.42396">
        <ele>700.2</ele>
        <time>2022-05-15T15:47:52Z</time>
      </trkpt>
      <trkpt lat="43.81997" lon="5.42413">
        <ele>699.6</ele>
        <time>2022-05-15T15:47:58Z</time>
      </trkpt>
      <trkpt lat="43.81983" lon="5.42427">
        <ele>703.4</ele>
        <time>2022-05-15T15:48:04Z</time>
      </trkpt>
      <trkpt lat="43.8197" lon="5.42439">
        <ele>707.4</ele>
        <time>2022-05-15T15:48:09Z</time>
      </trkpt>
      <trkpt lat="43.81958" lon="5.42454">
        <ele>710.2</ele>
        <time>2022-05-15T15:48:15Z</time>
      </trkpt>
      <trkpt lat="43.81957" lon="5.4246">
        <ele>709.5</ele>
        <time>2022-05-15T15:48:17Z</time>
      </trkpt>
      <trkpt lat="43.81957" lon="5.42466">
        <ele>708.4</ele>
        <time>2022-05-15T15:48:19Z</time>
      </trkpt>
      <trkpt lat="43.81957" lon="5.42474">
        <ele>706.9</ele>
        <time>2022-05-15T15:48:21Z</time>
      </trkpt>
      <trkpt lat="43.81955" lon="5.42486">
        <ele>705.5</ele>
        <time>2022-05-15T15:48:24Z</time>
      </trkpt>
      <trkpt lat="43.81952" lon="5.42506">
        <ele>703.6</ele>
        <time>2022-05-15T15:48:30Z</time>
      </trkpt>
      <trkpt lat="43.81953" lon="5.42525">
        <ele>701.6</ele>
        <time>2022-05-15T15:48:36Z</time>
      </trkpt>
      <trkpt lat="43.81951" lon="5.42548">
        <ele>700.2</ele>
        <time>2022-05-15T15:48:44Z</time>
      </trkpt>
      <trkpt lat="43.81945" lon="5.42569">
        <ele>699.7</ele>
        <time>2022-05-15T15:48:52Z</time>
      </trkpt>
      <trkpt lat="43.81941" lon="5.42592">
        <ele>699.1</ele>
        <time>2022-05-15T15:49:00Z</time>
      </trkpt>
      <trkpt lat="43.81939" lon="5.42615">
        <ele>699.5</ele>
        <time>2022-05-15T15:49:08Z</time>
      </trkpt>
      <trkpt lat="43.81936" lon="5.42637">
        <ele>699.7</ele>
        <time>2022-05-15T15:49:16Z</time>
      </trkpt>
      <trkpt lat="43.81932" lon="5.42656">
        <ele>699.8</ele>
        <time>2022-05-15T15:49:23Z</time>
      </trkpt>
      <trkpt lat="43.81932" lon="5.42675">
        <ele>700</ele>
        <time>2022-05-15T15:49:30Z</time>
      </trkpt>
      <trkpt lat="43.81928" lon="5.42702">
        <ele>701.2</ele>
        <time>2022-05-15T15:49:39Z</time>
      </trkpt>
      <trkpt lat="43.81928" lon="5.42715">
        <ele>701.7</ele>
        <time>2022-05-15T15:49:44Z</time>
      </trkpt>
      <trkpt lat="43.8193" lon="5.42737">
        <ele>702.7</ele>
        <time>2022-05-15T15:49:52Z</time>
      </trkpt>
      <trkpt lat="43.8193" lon="5.42755">
        <ele>704</ele>
        <time>2022-05-15T15:49:58Z</time>
      </trkpt>
      <trkpt lat="43.81931" lon="5.42774">
        <ele>706.7</ele>
        <time>2022-05-15T15:50:06Z</time>
      </trkpt>
      <trkpt lat="43.81935" lon="5.4279">
        <ele>709.4</ele>
        <time>2022-05-15T15:50:13Z</time>
      </trkpt>
      <trkpt lat="43.81935" lon="5.42807">
        <ele>711.7</ele>
        <time>2022-05-15T15:50:20Z</time>
      </trkpt>
      <trkpt lat="43.81934" lon="5.42822">
        <ele>713.7</ele>
        <time>2022-05-15T15:50:26Z</time>
      </trkpt>
      <trkpt lat="43.81933" lon="5.42838">
        <ele>716.2</ele>
        <time>2022-05-15T15:50:33Z</time>
      </trkpt>
      <trkpt lat="43.81933" lon="5.42854">
        <ele>719.7</ele>
        <time>2022-05-15T15:50:40Z</time>
      </trkpt>
      <trkpt lat="43.81932" lon="5.42874">
        <ele>724.1</ele>
        <time>2022-05-15T15:50:48Z</time>
      </trkpt>
      <trkpt lat="43.81927" lon="5.42892">
        <ele>727.7</ele>
        <time>2022-05-15T15:50:55Z</time>
      </trkpt>
      <trkpt lat="43.81926" lon="5.42912">
        <ele>732.3</ele>
        <time>2022-05-15T15:51:02Z</time>
      </trkpt>
      <trkpt lat="43.81929" lon="5.42933">
        <ele>737</ele>
        <time>2022-05-15T15:51:10Z</time>
      </trkpt>
      <trkpt lat="43.81932" lon="5.42952">
        <ele>741.1</ele>
        <time>2022-05-15T15:51:17Z</time>
      </trkpt>
      <trkpt lat="43.8193" lon="5.42975">
        <ele>746</ele>
        <time>2022-05-15T15:51:25Z</time>
      </trkpt>
      <trkpt lat="43.81927" lon="5.43001">
        <ele>751.7</ele>
        <time>2022-05-15T15:51:34Z</time>
      </trkpt>
      <trkpt lat="43.81926" lon="5.43004">
        <ele>752.3</ele>
        <time>2022-05-15T15:51:35Z</time>
      </trkpt>
      <trkpt lat="43.81922" lon="5.43019">
        <ele>755.3</ele>
        <time>2022-05-15T15:51:41Z</time>
      </trkpt>
      <trkpt lat="43.81917" lon="5.43032">
        <ele>758.1</ele>
        <time>2022-05-15T15:51:46Z</time>
      </trkpt>
      <trkpt lat="43.81915" lon="5.43055">
        <ele>762</ele>
        <time>2022-05-15T15:51:54Z</time>
      </trkpt>
      <trkpt lat="43.81915" lon="5.43072">
        <ele>765.3</ele>
        <time>2022-05-15T15:52:00Z</time>
      </trkpt>
      <trkpt lat="43.81915" lon="5.43085">
        <ele>767.7</ele>
        <time>2022-05-15T15:52:05Z</time>
      </trkpt>
      <trkpt lat="43.81919" lon="5.43105">
        <ele>771.1</ele>
        <time>2022-05-15T15:52:12Z</time>
      </trkpt>
      <trkpt lat="43.81925" lon="5.43119">
        <ele>772.7</ele>
        <time>2022-05-15T15:52:18Z</time>
      </trkpt>
      <trkpt lat="43.81932" lon="5.43142">
        <ele>775.4</ele>
        <time>2022-05-15T15:52:27Z</time>
      </trkpt>
      <trkpt lat="43.8194" lon="5.43159">
        <ele>777.1</ele>
        <time>2022-05-15T15:52:34Z</time>
      </trkpt>
      <trkpt lat="43.81952" lon="5.43174">
        <ele>778.5</ele>
        <time>2022-05-15T15:52:42Z</time>
      </trkpt>
      <trkpt lat="43.8196" lon="5.43189">
        <ele>780.9</ele>
        <time>2022-05-15T15:52:49Z</time>
      </trkpt>
      <trkpt lat="43.81968" lon="5.43208">
        <ele>783.9</ele>
        <time>2022-05-15T15:52:57Z</time>
      </trkpt>
      <trkpt lat="43.81977" lon="5.43223">
        <ele>785.7</ele>
        <time>2022-05-15T15:53:04Z</time>
      </trkpt>
      <trkpt lat="43.81982" lon="5.43238">
        <ele>788</ele>
        <time>2022-05-15T15:53:10Z</time>
      </trkpt>
      <trkpt lat="43.81981" lon="5.43259">
        <ele>793</ele>
        <time>2022-05-15T15:53:17Z</time>
      </trkpt>
      <trkpt lat="43.81976" lon="5.43278">
        <ele>799.1</ele>
        <time>2022-05-15T15:53:24Z</time>
      </trkpt>
      <trkpt lat="43.81974" lon="5.43303">
        <ele>806.3</ele>
        <time>2022-05-15T15:53:33Z</time>
      </trkpt>
      <trkpt lat="43.81971" lon="5.43319">
        <ele>811.4</ele>
        <time>2022-05-15T15:53:39Z</time>
      </trkpt>
      <trkpt lat="43.81969" lon="5.43334">
        <ele>816</ele>
        <time>2022-05-15T15:53:45Z</time>
      </trkpt>
      <trkpt lat="43.81967" lon="5.43355">
        <ele>819.4</ele>
        <time>2022-05-15T15:53:52Z</time>
      </trkpt>
      <trkpt lat="43.8196" lon="5.43373">
        <ele>824.1</ele>
        <time>2022-05-15T15:53:59Z</time>
      </trkpt>
      <trkpt lat="43.81959" lon="5.4339">
        <ele>826.9</ele>
        <time>2022-05-15T15:54:05Z</time>
      </trkpt>
      <trkpt lat="43.81958" lon="5.43408">
        <ele>829.9</ele>
        <time>2022-05-15T15:54:11Z</time>
      </trkpt>
      <trkpt lat="43.81957" lon="5.43425">
        <ele>831.6</ele>
        <time>2022-05-15T15:54:17Z</time>
      </trkpt>
      <trkpt lat="43.81951" lon="5.43447">
        <ele>834.2</ele>
        <time>2022-05-15T15:54:25Z</time>
      </trkpt>
      <trkpt lat="43.81941" lon="5.43464">
        <ele>838.5</ele>
        <time>2022-05-15T15:54:33Z</time>
      </trkpt>
      <trkpt lat="43.81938" lon="5.43477">
        <ele>839.8</ele>
        <time>2022-05-15T15:54:38Z</time>
      </trkpt>
      <trkpt lat="43.81932" lon="5.43494">
        <ele>842.5</ele>
        <time>2022-05-15T15:54:44Z</time>
      </trkpt>
      <trkpt lat="43.81923" lon="5.43504">
        <ele>846.2</ele>
        <time>2022-05-15T15:54:50Z</time>
      </trkpt>
      <trkpt lat="43.81915" lon="5.4352">
        <ele>848.1</ele>
        <time>2022-05-15T15:54:56Z</time>
      </trkpt>
      <trkpt lat="43.81912" lon="5.43532">
        <ele>848</ele>
        <time>2022-05-15T15:55:01Z</time>
      </trkpt>
      <trkpt lat="43.81911" lon="5.43534">
        <ele>848.2</ele>
        <time>2022-05-15T15:55:02Z</time>
      </trkpt>
      <trkpt lat="43.81907" lon="5.4355">
        <ele>848.4</ele>
        <time>2022-05-15T15:55:08Z</time>
      </trkpt>
      <trkpt lat="43.81902" lon="5.43568">
        <ele>849.2</ele>
        <time>2022-05-15T15:55:15Z</time>
      </trkpt>
      <trkpt lat="43.81897" lon="5.4358">
        <ele>850.4</ele>
        <time>2022-05-15T15:55:20Z</time>
      </trkpt>
      <trkpt lat="43.81892" lon="5.43592">
        <ele>851.5</ele>
        <time>2022-05-15T15:55:25Z</time>
      </trkpt>
      <trkpt lat="43.81885" lon="5.43608">
        <ele>853</ele>
        <time>2022-05-15T15:55:31Z</time>
      </trkpt>
      <trkpt lat="43.81876" lon="5.43628">
        <ele>854.8</ele>
        <time>2022-05-15T15:55:40Z</time>
      </trkpt>
      <trkpt lat="43.8187" lon="5.43631">
        <ele>856.5</ele>
        <time>2022-05-15T15:55:45Z</time>
      </trkpt>
      <trkpt lat="43.81869" lon="5.43632">
        <ele>856.8</ele>
        <time>2022-05-15T15:55:48Z</time>
      </trkpt>
      <trkpt lat="43.81868" lon="5.43634">
        <ele>857</ele>
        <time>2022-05-15T15:55:49Z</time>
      </trkpt>
      <trkpt lat="43.81859" lon="5.43643">
        <ele>859.3</ele>
        <time>2022-05-15T15:55:54Z</time>
      </trkpt>
      <trkpt lat="43.81849" lon="5.43659">
        <ele>861.6</ele>
        <time>2022-05-15T15:56:01Z</time>
      </trkpt>
      <trkpt lat="43.81841" lon="5.43676">
        <ele>863.3</ele>
        <time>2022-05-15T15:56:08Z</time>
      </trkpt>
      <trkpt lat="43.81834" lon="5.43689">
        <ele>864.7</ele>
        <time>2022-05-15T15:56:14Z</time>
      </trkpt>
      <trkpt lat="43.81824" lon="5.43705">
        <ele>867.1</ele>
        <time>2022-05-15T15:56:22Z</time>
      </trkpt>
      <trkpt lat="43.81815" lon="5.43715">
        <ele>869.5</ele>
        <time>2022-05-15T15:56:29Z</time>
      </trkpt>
      <trkpt lat="43.81807" lon="5.43723">
        <ele>871.7</ele>
        <time>2022-05-15T15:56:35Z</time>
      </trkpt>
      <trkpt lat="43.81803" lon="5.43729">
        <ele>872.8</ele>
        <time>2022-05-15T15:56:38Z</time>
      </trkpt>
      <trkpt lat="43.81798" lon="5.43737">
        <ele>874.2</ele>
        <time>2022-05-15T15:56:42Z</time>
      </trkpt>
      <trkpt lat="43.81796" lon="5.43739">
        <ele>874.8</ele>
        <time>2022-05-15T15:56:47Z</time>
      </trkpt>
      <trkpt lat="43.81799" lon="5.43742">
        <ele>873.8</ele>
        <time>2022-05-15T15:56:56Z</time>
      </trkpt>
      <trkpt lat="43.81804" lon="5.43754">
        <ele>872</ele>
        <time>2022-05-15T15:57:01Z</time>
      </trkpt>
      <trkpt lat="43.81806" lon="5.43769">
        <ele>871.7</ele>
        <time>2022-05-15T15:57:07Z</time>
      </trkpt>
      <trkpt lat="43.81806" lon="5.4379">
        <ele>872.3</ele>
        <time>2022-05-15T15:57:15Z</time>
      </trkpt>
      <trkpt lat="43.81806" lon="5.43792">
        <ele>872.4</ele>
        <time>2022-05-15T15:57:16Z</time>
      </trkpt>
      <trkpt lat="43.81807" lon="5.43803">
        <ele>872.5</ele>
        <time>2022-05-15T15:57:20Z</time>
      </trkpt>
      <trkpt lat="43.81809" lon="5.43817">
        <ele>872.4</ele>
        <time>2022-05-15T15:57:26Z</time>
      </trkpt>
      <trkpt lat="43.81809" lon="5.43831">
        <ele>872.9</ele>
        <time>2022-05-15T15:57:32Z</time>
      </trkpt>
      <trkpt lat="43.8181" lon="5.43836">
        <ele>873.3</ele>
        <time>2022-05-15T15:57:34Z</time>
      </trkpt>
      <trkpt lat="43.81809" lon="5.43843">
        <ele>874.9</ele>
        <time>2022-05-15T15:57:37Z</time>
      </trkpt>
      <trkpt lat="43.81809" lon="5.43852">
        <ele>876.8</ele>
        <time>2022-05-15T15:57:41Z</time>
      </trkpt>
      <trkpt lat="43.81809" lon="5.43857">
        <ele>877.8</ele>
        <time>2022-05-15T15:57:43Z</time>
      </trkpt>
      <trkpt lat="43.8181" lon="5.43862">
        <ele>878.6</ele>
        <time>2022-05-15T15:57:45Z</time>
      </trkpt>
      <trkpt lat="43.8181" lon="5.43869">
        <ele>880</ele>
        <time>2022-05-15T15:57:48Z</time>
      </trkpt>
      <trkpt lat="43.81809" lon="5.43886">
        <ele>883.7</ele>
        <time>2022-05-15T15:57:55Z</time>
      </trkpt>
      <trkpt lat="43.81813" lon="5.43898">
        <ele>885.3</ele>
        <time>2022-05-15T15:58:00Z</time>
      </trkpt>
      <trkpt lat="43.81813" lon="5.43901">
        <ele>886</ele>
        <time>2022-05-15T15:58:01Z</time>
      </trkpt>
      <trkpt lat="43.81814" lon="5.43902">
        <ele>886</ele>
        <time>2022-05-15T15:58:02Z</time>
      </trkpt>
      <trkpt lat="43.81815" lon="5.43914">
        <ele>888.2</ele>
        <time>2022-05-15T15:58:07Z</time>
      </trkpt>
      <trkpt lat="43.81815" lon="5.43925">
        <ele>890.4</ele>
        <time>2022-05-15T15:58:11Z</time>
      </trkpt>
      <trkpt lat="43.81813" lon="5.43929">
        <ele>891.6</ele>
        <time>2022-05-15T15:58:13Z</time>
      </trkpt>
      <trkpt lat="43.81809" lon="5.43939">
        <ele>894.6</ele>
        <time>2022-05-15T15:58:19Z</time>
      </trkpt>
      <trkpt lat="43.8181" lon="5.43939">
        <ele>894.3</ele>
        <time>2022-05-15T15:58:38Z</time>
      </trkpt>
      <trkpt lat="43.81809" lon="5.43941">
        <ele>895</ele>
        <time>2022-05-15T16:00:04Z</time>
      </trkpt>
      <trkpt lat="43.81805" lon="5.4394">
        <ele>895.7</ele>
        <time>2022-05-15T16:01:17Z</time>
      </trkpt>
      <trkpt lat="43.81801" lon="5.43936">
        <ele>895.8</ele>
        <time>2022-05-15T16:01:19Z</time>
      </trkpt>
      <trkpt lat="43.81798" lon="5.43932">
        <ele>895.6</ele>
        <time>2022-05-15T16:01:20Z</time>
      </trkpt>
      <trkpt lat="43.81794" lon="5.43928">
        <ele>895.6</ele>
        <time>2022-05-15T16:01:21Z</time>
      </trkpt>
      <trkpt lat="43.81785" lon="5.43918">
        <ele>895.2</ele>
        <time>2022-05-15T16:01:24Z</time>
      </trkpt>
      <trkpt lat="43.81777" lon="5.4391">
        <ele>895.1</ele>
        <time>2022-05-15T16:01:28Z</time>
      </trkpt>
      <trkpt lat="43.81768" lon="5.43895">
        <ele>893.9</ele>
        <time>2022-05-15T16:01:35Z</time>
      </trkpt>
      <trkpt lat="43.81761" lon="5.43881">
        <ele>892.5</ele>
        <time>2022-05-15T16:01:42Z</time>
      </trkpt>
      <trkpt lat="43.81757" lon="5.43875">
        <ele>892.1</ele>
        <time>2022-05-15T16:01:47Z</time>
      </trkpt>
      <trkpt lat="43.81755" lon="5.43869">
        <ele>891.3</ele>
        <time>2022-05-15T16:01:56Z</time>
      </trkpt>
      <trkpt lat="43.81749" lon="5.43858">
        <ele>890.4</ele>
        <time>2022-05-15T16:02:02Z</time>
      </trkpt>
      <trkpt lat="43.81743" lon="5.43852">
        <ele>891.3</ele>
        <time>2022-05-15T16:02:07Z</time>
      </trkpt>
      <trkpt lat="43.81732" lon="5.43848">
        <ele>894.5</ele>
        <time>2022-05-15T16:02:13Z</time>
      </trkpt>
      <trkpt lat="43.81723" lon="5.4385">
        <ele>898.1</ele>
        <time>2022-05-15T16:02:19Z</time>
      </trkpt>
      <trkpt lat="43.81706" lon="5.43853">
        <ele>904.5</ele>
        <time>2022-05-15T16:02:25Z</time>
      </trkpt>
      <trkpt lat="43.81697" lon="5.43853">
        <ele>907.7</ele>
        <time>2022-05-15T16:02:27Z</time>
      </trkpt>
      <trkpt lat="43.81688" lon="5.4385">
        <ele>910.6</ele>
        <time>2022-05-15T16:02:29Z</time>
      </trkpt>
      <trkpt lat="43.81677" lon="5.43842">
        <ele>913.8</ele>
        <time>2022-05-15T16:02:33Z</time>
      </trkpt>
      <trkpt lat="43.81676" lon="5.43839">
        <ele>913.9</ele>
        <time>2022-05-15T16:02:37Z</time>
      </trkpt>
      <trkpt lat="43.81678" lon="5.43835">
        <ele>912.8</ele>
        <time>2022-05-15T16:02:39Z</time>
      </trkpt>
      <trkpt lat="43.8168" lon="5.43828">
        <ele>911.6</ele>
        <time>2022-05-15T16:02:41Z</time>
      </trkpt>
      <trkpt lat="43.81684" lon="5.4382">
        <ele>909.8</ele>
        <time>2022-05-15T16:02:43Z</time>
      </trkpt>
      <trkpt lat="43.81689" lon="5.43809">
        <ele>907.5</ele>
        <time>2022-05-15T16:02:45Z</time>
      </trkpt>
      <trkpt lat="43.81698" lon="5.43794">
        <ele>904.1</ele>
        <time>2022-05-15T16:02:49Z</time>
      </trkpt>
      <trkpt lat="43.81699" lon="5.43786">
        <ele>903.6</ele>
        <time>2022-05-15T16:02:52Z</time>
      </trkpt>
      <trkpt lat="43.817" lon="5.43783">
        <ele>903.2</ele>
        <time>2022-05-15T16:02:53Z</time>
      </trkpt>
      <trkpt lat="43.81702" lon="5.43767">
        <ele>902.4</ele>
        <time>2022-05-15T16:02:58Z</time>
      </trkpt>
      <trkpt lat="43.81705" lon="5.4375">
        <ele>901.3</ele>
        <time>2022-05-15T16:03:03Z</time>
      </trkpt>
      <trkpt lat="43.81705" lon="5.43746">
        <ele>900.8</ele>
        <time>2022-05-15T16:03:04Z</time>
      </trkpt>
      <trkpt lat="43.8171" lon="5.43725">
        <ele>897.1</ele>
        <time>2022-05-15T16:03:11Z</time>
      </trkpt>
      <trkpt lat="43.81715" lon="5.43706">
        <ele>894.2</ele>
        <time>2022-05-15T16:03:17Z</time>
      </trkpt>
      <trkpt lat="43.8172" lon="5.4368">
        <ele>891.2</ele>
        <time>2022-05-15T16:03:25Z</time>
      </trkpt>
      <trkpt lat="43.81727" lon="5.43659">
        <ele>887.8</ele>
        <time>2022-05-15T16:03:31Z</time>
      </trkpt>
      <trkpt lat="43.8173" lon="5.43645">
        <ele>883.9</ele>
        <time>2022-05-15T16:03:36Z</time>
      </trkpt>
      <trkpt lat="43.81736" lon="5.43627">
        <ele>879.4</ele>
        <time>2022-05-15T16:03:41Z</time>
      </trkpt>
      <trkpt lat="43.81741" lon="5.43604">
        <ele>873.8</ele>
        <time>2022-05-15T16:03:48Z</time>
      </trkpt>
      <trkpt lat="43.81748" lon="5.43571">
        <ele>864.6</ele>
        <time>2022-05-15T16:03:56Z</time>
      </trkpt>
      <trkpt lat="43.81752" lon="5.43553">
        <ele>857.8</ele>
        <time>2022-05-15T16:04:01Z</time>
      </trkpt>
      <trkpt lat="43.81751" lon="5.43551">
        <ele>856.9</ele>
        <time>2022-05-15T16:04:02Z</time>
      </trkpt>
      <trkpt lat="43.81746" lon="5.43547">
        <ele>854.4</ele>
        <time>2022-05-15T16:04:06Z</time>
      </trkpt>
      <trkpt lat="43.81744" lon="5.43548">
        <ele>854.5</ele>
        <time>2022-05-15T16:04:07Z</time>
      </trkpt>
      <trkpt lat="43.81742" lon="5.43552">
        <ele>855.7</ele>
        <time>2022-05-15T16:04:09Z</time>
      </trkpt>
      <trkpt lat="43.8174" lon="5.43556">
        <ele>857</ele>
        <time>2022-05-15T16:04:11Z</time>
      </trkpt>
      <trkpt lat="43.81739" lon="5.43558">
        <ele>857.7</ele>
        <time>2022-05-15T16:04:12Z</time>
      </trkpt>
      <trkpt lat="43.81731" lon="5.4357">
        <ele>861.2</ele>
        <time>2022-05-15T16:04:19Z</time>
      </trkpt>
      <trkpt lat="43.81725" lon="5.43578">
        <ele>863.5</ele>
        <time>2022-05-15T16:04:25Z</time>
      </trkpt>
      <trkpt lat="43.81725" lon="5.43577">
        <ele>863.1</ele>
        <time>2022-05-15T16:06:01Z</time>
      </trkpt>
      <trkpt lat="43.81726" lon="5.43578">
        <ele>863.7</ele>
        <time>2022-05-15T16:06:23Z</time>
      </trkpt>
      <trkpt lat="43.81725" lon="5.4358">
        <ele>864.4</ele>
        <time>2022-05-15T16:06:47Z</time>
      </trkpt>
      <trkpt lat="43.81719" lon="5.43591">
        <ele>867.1</ele>
        <time>2022-05-15T16:06:53Z</time>
      </trkpt>
      <trkpt lat="43.81707" lon="5.43604">
        <ele>869.5</ele>
        <time>2022-05-15T16:07:01Z</time>
      </trkpt>
      <trkpt lat="43.81696" lon="5.43616">
        <ele>872.3</ele>
        <time>2022-05-15T16:07:09Z</time>
      </trkpt>
      <trkpt lat="43.81686" lon="5.43629">
        <ele>876.1</ele>
        <time>2022-05-15T16:07:17Z</time>
      </trkpt>
      <trkpt lat="43.81677" lon="5.4364">
        <ele>879.7</ele>
        <time>2022-05-15T16:07:24Z</time>
      </trkpt>
      <trkpt lat="43.81667" lon="5.43654">
        <ele>884.8</ele>
        <time>2022-05-15T16:07:32Z</time>
      </trkpt>
      <trkpt lat="43.81659" lon="5.43668">
        <ele>889</ele>
        <time>2022-05-15T16:07:40Z</time>
      </trkpt>
      <trkpt lat="43.81651" lon="5.43683">
        <ele>891.6</ele>
        <time>2022-05-15T16:07:48Z</time>
      </trkpt>
      <trkpt lat="43.81641" lon="5.43698">
        <ele>894.3</ele>
        <time>2022-05-15T16:07:57Z</time>
      </trkpt>
      <trkpt lat="43.81632" lon="5.43712">
        <ele>897.2</ele>
        <time>2022-05-15T16:08:05Z</time>
      </trkpt>
      <trkpt lat="43.8162" lon="5.43723">
        <ele>899.2</ele>
        <time>2022-05-15T16:08:13Z</time>
      </trkpt>
      <trkpt lat="43.81607" lon="5.43729">
        <ele>899.8</ele>
        <time>2022-05-15T16:08:20Z</time>
      </trkpt>
      <trkpt lat="43.81593" lon="5.43737">
        <ele>901.2</ele>
        <time>2022-05-15T16:08:25Z</time>
      </trkpt>
      <trkpt lat="43.81583" lon="5.43752">
        <ele>905.5</ele>
        <time>2022-05-15T16:08:30Z</time>
      </trkpt>
      <trkpt lat="43.81576" lon="5.43764">
        <ele>908.1</ele>
        <time>2022-05-15T16:08:35Z</time>
      </trkpt>
      <trkpt lat="43.81566" lon="5.43778">
        <ele>910.9</ele>
        <time>2022-05-15T16:08:42Z</time>
      </trkpt>
      <trkpt lat="43.81558" lon="5.43795">
        <ele>915</ele>
        <time>2022-05-15T16:08:50Z</time>
      </trkpt>
      <trkpt lat="43.8155" lon="5.43808">
        <ele>918</ele>
        <time>2022-05-15T16:08:56Z</time>
      </trkpt>
      <trkpt lat="43.81543" lon="5.43817">
        <ele>920</ele>
        <time>2022-05-15T16:09:02Z</time>
      </trkpt>
      <trkpt lat="43.81535" lon="5.43828">
        <ele>922.5</ele>
        <time>2022-05-15T16:09:08Z</time>
      </trkpt>
      <trkpt lat="43.81528" lon="5.43837">
        <ele>924.3</ele>
        <time>2022-05-15T16:09:14Z</time>
      </trkpt>
      <trkpt lat="43.81525" lon="5.4384">
        <ele>924.7</ele>
        <time>2022-05-15T16:09:16Z</time>
      </trkpt>
      <trkpt lat="43.81523" lon="5.43843">
        <ele>925.2</ele>
        <time>2022-05-15T16:09:18Z</time>
      </trkpt>
      <trkpt lat="43.81517" lon="5.43853">
        <ele>927.2</ele>
        <time>2022-05-15T16:09:23Z</time>
      </trkpt>
      <trkpt lat="43.81515" lon="5.43856">
        <ele>927.8</ele>
        <time>2022-05-15T16:09:25Z</time>
      </trkpt>
      <trkpt lat="43.8151" lon="5.43861">
        <ele>928.6</ele>
        <time>2022-05-15T16:09:28Z</time>
      </trkpt>
      <trkpt lat="43.81501" lon="5.43867">
        <ele>929.4</ele>
        <time>2022-05-15T16:09:33Z</time>
      </trkpt>
      <trkpt lat="43.81496" lon="5.4387">
        <ele>930.1</ele>
        <time>2022-05-15T16:09:36Z</time>
      </trkpt>
      <trkpt lat="43.81492" lon="5.43872">
        <ele>930.7</ele>
        <time>2022-05-15T16:09:38Z</time>
      </trkpt>
      <trkpt lat="43.81482" lon="5.43882">
        <ele>933.4</ele>
        <time>2022-05-15T16:09:43Z</time>
      </trkpt>
      <trkpt lat="43.81471" lon="5.43896">
        <ele>936.9</ele>
        <time>2022-05-15T16:09:48Z</time>
      </trkpt>
      <trkpt lat="43.81464" lon="5.43905">
        <ele>939.2</ele>
        <time>2022-05-15T16:09:52Z</time>
      </trkpt>
      <trkpt lat="43.81463" lon="5.43907">
        <ele>939.7</ele>
        <time>2022-05-15T16:09:53Z</time>
      </trkpt>
      <trkpt lat="43.81463" lon="5.4391">
        <ele>940.4</ele>
        <time>2022-05-15T16:09:54Z</time>
      </trkpt>
      <trkpt lat="43.81461" lon="5.43919">
        <ele>942.4</ele>
        <time>2022-05-15T16:09:57Z</time>
      </trkpt>
      <trkpt lat="43.81458" lon="5.4394">
        <ele>945.6</ele>
        <time>2022-05-15T16:10:04Z</time>
      </trkpt>
      <trkpt lat="43.81458" lon="5.43956">
        <ele>948.1</ele>
        <time>2022-05-15T16:10:09Z</time>
      </trkpt>
      <trkpt lat="43.81458" lon="5.43959">
        <ele>948.6</ele>
        <time>2022-05-15T16:10:10Z</time>
      </trkpt>
      <trkpt lat="43.81458" lon="5.43965">
        <ele>949.5</ele>
        <time>2022-05-15T16:10:12Z</time>
      </trkpt>
      <trkpt lat="43.81457" lon="5.43974">
        <ele>950.9</ele>
        <time>2022-05-15T16:10:15Z</time>
      </trkpt>
      <trkpt lat="43.81453" lon="5.43986">
        <ele>952.5</ele>
        <time>2022-05-15T16:10:21Z</time>
      </trkpt>
      <trkpt lat="43.81449" lon="5.44002">
        <ele>954.4</ele>
        <time>2022-05-15T16:10:28Z</time>
      </trkpt>
      <trkpt lat="43.81454" lon="5.44022">
        <ele>955.3</ele>
        <time>2022-05-15T16:10:35Z</time>
      </trkpt>
      <trkpt lat="43.81458" lon="5.44046">
        <ele>956.4</ele>
        <time>2022-05-15T16:10:42Z</time>
      </trkpt>
      <trkpt lat="43.81461" lon="5.44067">
        <ele>957.2</ele>
        <time>2022-05-15T16:10:47Z</time>
      </trkpt>
      <trkpt lat="43.81468" lon="5.44084">
        <ele>958.2</ele>
        <time>2022-05-15T16:10:51Z</time>
      </trkpt>
      <trkpt lat="43.81479" lon="5.44087">
        <ele>958.8</ele>
        <time>2022-05-15T16:10:55Z</time>
      </trkpt>
      <trkpt lat="43.81494" lon="5.44092">
        <ele>959.3</ele>
        <time>2022-05-15T16:10:59Z</time>
      </trkpt>
      <trkpt lat="43.81499" lon="5.44095">
        <ele>959.2</ele>
        <time>2022-05-15T16:11:00Z</time>
      </trkpt>
      <trkpt lat="43.81533" lon="5.44122">
        <ele>955.2</ele>
        <time>2022-05-15T16:11:07Z</time>
      </trkpt>
      <trkpt lat="43.81546" lon="5.44133">
        <ele>953.7</ele>
        <time>2022-05-15T16:11:10Z</time>
      </trkpt>
      <trkpt lat="43.81551" lon="5.44141">
        <ele>952.7</ele>
        <time>2022-05-15T16:11:12Z</time>
      </trkpt>
      <trkpt lat="43.81566" lon="5.44165">
        <ele>950</ele>
        <time>2022-05-15T16:11:18Z</time>
      </trkpt>
      <trkpt lat="43.81575" lon="5.44191">
        <ele>947.8</ele>
        <time>2022-05-15T16:11:24Z</time>
      </trkpt>
      <trkpt lat="43.8158" lon="5.4423">
        <ele>945.1</ele>
        <time>2022-05-15T16:11:32Z</time>
      </trkpt>
      <trkpt lat="43.8158" lon="5.44264">
        <ele>941.6</ele>
        <time>2022-05-15T16:11:38Z</time>
      </trkpt>
      <trkpt lat="43.8158" lon="5.44275">
        <ele>940.1</ele>
        <time>2022-05-15T16:11:40Z</time>
      </trkpt>
      <trkpt lat="43.81582" lon="5.44298">
        <ele>937.4</ele>
        <time>2022-05-15T16:11:44Z</time>
      </trkpt>
      <trkpt lat="43.81587" lon="5.44333">
        <ele>934</ele>
        <time>2022-05-15T16:11:50Z</time>
      </trkpt>
      <trkpt lat="43.81602" lon="5.44377">
        <ele>933.6</ele>
        <time>2022-05-15T16:11:58Z</time>
      </trkpt>
      <trkpt lat="43.81627" lon="5.44431">
        <ele>937.3</ele>
        <time>2022-05-15T16:12:08Z</time>
      </trkpt>
      <trkpt lat="43.8163" lon="5.44437">
        <ele>938.2</ele>
        <time>2022-05-15T16:12:09Z</time>
      </trkpt>
      <trkpt lat="43.81631" lon="5.4445">
        <ele>938.6</ele>
        <time>2022-05-15T16:12:11Z</time>
      </trkpt>
      <trkpt lat="43.81631" lon="5.44457">
        <ele>938.7</ele>
        <time>2022-05-15T16:12:12Z</time>
      </trkpt>
      <trkpt lat="43.8163" lon="5.44463">
        <ele>938.5</ele>
        <time>2022-05-15T16:12:13Z</time>
      </trkpt>
      <trkpt lat="43.81625" lon="5.4448">
        <ele>937.3</ele>
        <time>2022-05-15T16:12:16Z</time>
      </trkpt>
      <trkpt lat="43.81619" lon="5.44513">
        <ele>936.6</ele>
        <time>2022-05-15T16:12:22Z</time>
      </trkpt>
      <trkpt lat="43.81612" lon="5.44552">
        <ele>936.8</ele>
        <time>2022-05-15T16:12:29Z</time>
      </trkpt>
      <trkpt lat="43.81611" lon="5.44583">
        <ele>938.3</ele>
        <time>2022-05-15T16:12:35Z</time>
      </trkpt>
      <trkpt lat="43.8162" lon="5.44604">
        <ele>937.2</ele>
        <time>2022-05-15T16:12:40Z</time>
      </trkpt>
      <trkpt lat="43.81632" lon="5.44626">
        <ele>936.8</ele>
        <time>2022-05-15T16:12:45Z</time>
      </trkpt>
      <trkpt lat="43.81635" lon="5.44631">
        <ele>936.8</ele>
        <time>2022-05-15T16:12:46Z</time>
      </trkpt>
      <trkpt lat="43.81647" lon="5.44648">
        <ele>937.4</ele>
        <time>2022-05-15T16:12:50Z</time>
      </trkpt>
      <trkpt lat="43.8165" lon="5.44651">
        <ele>937.7</ele>
        <time>2022-05-15T16:12:51Z</time>
      </trkpt>
      <trkpt lat="43.81667" lon="5.44665">
        <ele>940.3</ele>
        <time>2022-05-15T16:12:56Z</time>
      </trkpt>
      <trkpt lat="43.81692" lon="5.44674">
        <ele>944.3</ele>
        <time>2022-05-15T16:13:02Z</time>
      </trkpt>
      <trkpt lat="43.81714" lon="5.44676">
        <ele>948.8</ele>
        <time>2022-05-15T16:13:07Z</time>
      </trkpt>
      <trkpt lat="43.81719" lon="5.44675">
        <ele>950.2</ele>
        <time>2022-05-15T16:13:08Z</time>
      </trkpt>
      <trkpt lat="43.81737" lon="5.44674">
        <ele>954.5</ele>
        <time>2022-05-15T16:13:12Z</time>
      </trkpt>
      <trkpt lat="43.81746" lon="5.44673">
        <ele>956.7</ele>
        <time>2022-05-15T16:13:14Z</time>
      </trkpt>
      <trkpt lat="43.8175" lon="5.44674">
        <ele>957.4</ele>
        <time>2022-05-15T16:13:15Z</time>
      </trkpt>
      <trkpt lat="43.81772" lon="5.44677">
        <ele>958.2</ele>
        <time>2022-05-15T16:13:20Z</time>
      </trkpt>
      <trkpt lat="43.81777" lon="5.44678">
        <ele>958.3</ele>
        <time>2022-05-15T16:13:21Z</time>
      </trkpt>
      <trkpt lat="43.81792" lon="5.44686">
        <ele>957.3</ele>
        <time>2022-05-15T16:13:25Z</time>
      </trkpt>
      <trkpt lat="43.81807" lon="5.44703">
        <ele>953.8</ele>
        <time>2022-05-15T16:13:30Z</time>
      </trkpt>
      <trkpt lat="43.81818" lon="5.44735">
        <ele>945.8</ele>
        <time>2022-05-15T16:13:35Z</time>
      </trkpt>
      <trkpt lat="43.81832" lon="5.44778">
        <ele>936.3</ele>
        <time>2022-05-15T16:13:40Z</time>
      </trkpt>
      <trkpt lat="43.81847" lon="5.44818">
        <ele>931.5</ele>
        <time>2022-05-15T16:13:44Z</time>
      </trkpt>
      <trkpt lat="43.81849" lon="5.44839">
        <ele>929.1</ele>
        <time>2022-05-15T16:13:46Z</time>
      </trkpt>
      <trkpt lat="43.81849" lon="5.4485">
        <ele>929</ele>
        <time>2022-05-15T16:13:47Z</time>
      </trkpt>
      <trkpt lat="43.81847" lon="5.44876">
        <ele>928.2</ele>
        <time>2022-05-15T16:13:50Z</time>
      </trkpt>
      <trkpt lat="43.81846" lon="5.44883">
        <ele>927.8</ele>
        <time>2022-05-15T16:13:51Z</time>
      </trkpt>
      <trkpt lat="43.81844" lon="5.44889">
        <ele>927.1</ele>
        <time>2022-05-15T16:13:52Z</time>
      </trkpt>
      <trkpt lat="43.81842" lon="5.44901">
        <ele>926.3</ele>
        <time>2022-05-15T16:13:54Z</time>
      </trkpt>
      <trkpt lat="43.8184" lon="5.44905">
        <ele>925.5</ele>
        <time>2022-05-15T16:13:55Z</time>
      </trkpt>
      <trkpt lat="43.81835" lon="5.44922">
        <ele>923.9</ele>
        <time>2022-05-15T16:13:59Z</time>
      </trkpt>
      <trkpt lat="43.81827" lon="5.44949">
        <ele>923</ele>
        <time>2022-05-15T16:14:06Z</time>
      </trkpt>
      <trkpt lat="43.81819" lon="5.44981">
        <ele>921.7</ele>
        <time>2022-05-15T16:14:14Z</time>
      </trkpt>
      <trkpt lat="43.81821" lon="5.45003">
        <ele>923</ele>
        <time>2022-05-15T16:14:19Z</time>
      </trkpt>
      <trkpt lat="43.81832" lon="5.45025">
        <ele>925.4</ele>
        <time>2022-05-15T16:14:25Z</time>
      </trkpt>
      <trkpt lat="43.81852" lon="5.45045">
        <ele>931.4</ele>
        <time>2022-05-15T16:14:32Z</time>
      </trkpt>
      <trkpt lat="43.81867" lon="5.45066">
        <ele>935.4</ele>
        <time>2022-05-15T16:14:38Z</time>
      </trkpt>
      <trkpt lat="43.81884" lon="5.45097">
        <ele>937.9</ele>
        <time>2022-05-15T16:14:46Z</time>
      </trkpt>
      <trkpt lat="43.81896" lon="5.45137">
        <ele>935.4</ele>
        <time>2022-05-15T16:14:55Z</time>
      </trkpt>
      <trkpt lat="43.81901" lon="5.45164">
        <ele>932.7</ele>
        <time>2022-05-15T16:15:01Z</time>
      </trkpt>
      <trkpt lat="43.8191" lon="5.45197">
        <ele>934.8</ele>
        <time>2022-05-15T16:15:08Z</time>
      </trkpt>
      <trkpt lat="43.81912" lon="5.45234">
        <ele>933.9</ele>
        <time>2022-05-15T16:15:15Z</time>
      </trkpt>
      <trkpt lat="43.81915" lon="5.45259">
        <ele>934.2</ele>
        <time>2022-05-15T16:15:20Z</time>
      </trkpt>
      <trkpt lat="43.81915" lon="5.45281">
        <ele>933.7</ele>
        <time>2022-05-15T16:15:25Z</time>
      </trkpt>
      <trkpt lat="43.8192" lon="5.45304">
        <ele>935</ele>
        <time>2022-05-15T16:15:31Z</time>
      </trkpt>
      <trkpt lat="43.81927" lon="5.45332">
        <ele>937</ele>
        <time>2022-05-15T16:15:39Z</time>
      </trkpt>
      <trkpt lat="43.81936" lon="5.4535">
        <ele>940.4</ele>
        <time>2022-05-15T16:15:45Z</time>
      </trkpt>
      <trkpt lat="43.8194" lon="5.45378">
        <ele>941.8</ele>
        <time>2022-05-15T16:15:53Z</time>
      </trkpt>
      <trkpt lat="43.8194" lon="5.454">
        <ele>941.7</ele>
        <time>2022-05-15T16:16:00Z</time>
      </trkpt>
      <trkpt lat="43.81943" lon="5.45422">
        <ele>943</ele>
        <time>2022-05-15T16:16:07Z</time>
      </trkpt>
      <trkpt lat="43.81948" lon="5.45448">
        <ele>946.1</ele>
        <time>2022-05-15T16:16:15Z</time>
      </trkpt>
      <trkpt lat="43.81949" lon="5.45473">
        <ele>947.6</ele>
        <time>2022-05-15T16:16:23Z</time>
      </trkpt>
      <trkpt lat="43.81947" lon="5.45499">
        <ele>948</ele>
        <time>2022-05-15T16:16:32Z</time>
      </trkpt>
      <trkpt lat="43.81945" lon="5.45512">
        <ele>948</ele>
        <time>2022-05-15T16:16:37Z</time>
      </trkpt>
      <trkpt lat="43.81943" lon="5.45517">
        <ele>947.6</ele>
        <time>2022-05-15T16:16:39Z</time>
      </trkpt>
      <trkpt lat="43.81943" lon="5.4552">
        <ele>947.8</ele>
        <time>2022-05-15T16:16:40Z</time>
      </trkpt>
      <trkpt lat="43.81944" lon="5.45531">
        <ele>948.9</ele>
        <time>2022-05-15T16:16:44Z</time>
      </trkpt>
      <trkpt lat="43.81945" lon="5.45551">
        <ele>950.7</ele>
        <time>2022-05-15T16:16:51Z</time>
      </trkpt>
      <trkpt lat="43.81945" lon="5.45575">
        <ele>952.3</ele>
        <time>2022-05-15T16:16:59Z</time>
      </trkpt>
      <trkpt lat="43.81946" lon="5.45595">
        <ele>954.5</ele>
        <time>2022-05-15T16:17:06Z</time>
      </trkpt>
      <trkpt lat="43.81952" lon="5.45607">
        <ele>957.7</ele>
        <time>2022-05-15T16:17:11Z</time>
      </trkpt>
      <trkpt lat="43.81956" lon="5.45626">
        <ele>960.9</ele>
        <time>2022-05-15T16:17:18Z</time>
      </trkpt>
      <trkpt lat="43.81957" lon="5.4565">
        <ele>963.8</ele>
        <time>2022-05-15T16:17:26Z</time>
      </trkpt>
      <trkpt lat="43.81957" lon="5.45674">
        <ele>966.8</ele>
        <time>2022-05-15T16:17:34Z</time>
      </trkpt>
      <trkpt lat="43.81953" lon="5.45693">
        <ele>968.7</ele>
        <time>2022-05-15T16:17:41Z</time>
      </trkpt>
      <trkpt lat="43.81947" lon="5.45712">
        <ele>969.9</ele>
        <time>2022-05-15T16:17:48Z</time>
      </trkpt>
      <trkpt lat="43.81937" lon="5.45736">
        <ele>970.8</ele>
        <time>2022-05-15T16:17:57Z</time>
      </trkpt>
      <trkpt lat="43.81929" lon="5.45757">
        <ele>971.3</ele>
        <time>2022-05-15T16:18:05Z</time>
      </trkpt>
      <trkpt lat="43.81922" lon="5.45779">
        <ele>971.7</ele>
        <time>2022-05-15T16:18:13Z</time>
      </trkpt>
      <trkpt lat="43.81911" lon="5.45801">
        <ele>972.9</ele>
        <time>2022-05-15T16:18:21Z</time>
      </trkpt>
      <trkpt lat="43.81903" lon="5.45818">
        <ele>975.3</ele>
        <time>2022-05-15T16:18:27Z</time>
      </trkpt>
      <trkpt lat="43.81899" lon="5.45823">
        <ele>976.2</ele>
        <time>2022-05-15T16:18:29Z</time>
      </trkpt>
      <trkpt lat="43.81897" lon="5.45829">
        <ele>977.1</ele>
        <time>2022-05-15T16:18:31Z</time>
      </trkpt>
      <trkpt lat="43.81894" lon="5.45867">
        <ele>982.6</ele>
        <time>2022-05-15T16:18:40Z</time>
      </trkpt>
      <trkpt lat="43.81897" lon="5.45911">
        <ele>988.2</ele>
        <time>2022-05-15T16:18:49Z</time>
      </trkpt>
      <trkpt lat="43.81902" lon="5.45939">
        <ele>990.8</ele>
        <time>2022-05-15T16:18:55Z</time>
      </trkpt>
      <trkpt lat="43.81914" lon="5.45972">
        <ele>991.7</ele>
        <time>2022-05-15T16:19:02Z</time>
      </trkpt>
      <trkpt lat="43.81922" lon="5.45995">
        <ele>994.1</ele>
        <time>2022-05-15T16:19:07Z</time>
      </trkpt>
      <trkpt lat="43.81924" lon="5.46001">
        <ele>995</ele>
        <time>2022-05-15T16:19:08Z</time>
      </trkpt>
      <trkpt lat="43.81934" lon="5.46031">
        <ele>1000.9</ele>
        <time>2022-05-15T16:19:14Z</time>
      </trkpt>
      <trkpt lat="43.81936" lon="5.46036">
        <ele>1001.8</ele>
        <time>2022-05-15T16:19:15Z</time>
      </trkpt>
      <trkpt lat="43.81942" lon="5.46056">
        <ele>1004.5</ele>
        <time>2022-05-15T16:19:19Z</time>
      </trkpt>
      <trkpt lat="43.81949" lon="5.46082">
        <ele>1007.2</ele>
        <time>2022-05-15T16:19:25Z</time>
      </trkpt>
      <trkpt lat="43.8195" lon="5.46108">
        <ele>1010.7</ele>
        <time>2022-05-15T16:19:30Z</time>
      </trkpt>
      <trkpt lat="43.81949" lon="5.46136">
        <ele>1014.8</ele>
        <time>2022-05-15T16:19:37Z</time>
      </trkpt>
      <trkpt lat="43.81951" lon="5.46159">
        <ele>1017.7</ele>
        <time>2022-05-15T16:19:43Z</time>
      </trkpt>
      <trkpt lat="43.81953" lon="5.46179">
        <ele>1019.9</ele>
        <time>2022-05-15T16:19:48Z</time>
      </trkpt>
      <trkpt lat="43.81955" lon="5.46197">
        <ele>1021.8</ele>
        <time>2022-05-15T16:19:53Z</time>
      </trkpt>
      <trkpt lat="43.81961" lon="5.46223">
        <ele>1024.4</ele>
        <time>2022-05-15T16:20:00Z</time>
      </trkpt>
      <trkpt lat="43.81972" lon="5.46249">
        <ele>1027.2</ele>
        <time>2022-05-15T16:20:07Z</time>
      </trkpt>
      <trkpt lat="43.81983" lon="5.46269">
        <ele>1029.8</ele>
        <time>2022-05-15T16:20:13Z</time>
      </trkpt>
      <trkpt lat="43.8199" lon="5.46295">
        <ele>1033.6</ele>
        <time>2022-05-15T16:20:20Z</time>
      </trkpt>
      <trkpt lat="43.81993" lon="5.46321">
        <ele>1037.5</ele>
        <time>2022-05-15T16:20:26Z</time>
      </trkpt>
      <trkpt lat="43.81991" lon="5.46349">
        <ele>1041.7</ele>
        <time>2022-05-15T16:20:33Z</time>
      </trkpt>
      <trkpt lat="43.81987" lon="5.46367">
        <ele>1044.6</ele>
        <time>2022-05-15T16:20:38Z</time>
      </trkpt>
      <trkpt lat="43.81981" lon="5.46385">
        <ele>1048</ele>
        <time>2022-05-15T16:20:43Z</time>
      </trkpt>
      <trkpt lat="43.81976" lon="5.46402">
        <ele>1051.5</ele>
        <time>2022-05-15T16:20:48Z</time>
      </trkpt>
      <trkpt lat="43.81968" lon="5.46421">
        <ele>1056</ele>
        <time>2022-05-15T16:20:54Z</time>
      </trkpt>
      <trkpt lat="43.81958" lon="5.46446">
        <ele>1061.1</ele>
        <time>2022-05-15T16:21:02Z</time>
      </trkpt>
      <trkpt lat="43.8195" lon="5.46468">
        <ele>1066</ele>
        <time>2022-05-15T16:21:09Z</time>
      </trkpt>
      <trkpt lat="43.81945" lon="5.46494">
        <ele>1071</ele>
        <time>2022-05-15T16:21:17Z</time>
      </trkpt>
      <trkpt lat="43.81943" lon="5.46515">
        <ele>1074.4</ele>
        <time>2022-05-15T16:21:23Z</time>
      </trkpt>
      <trkpt lat="43.81943" lon="5.46539">
        <ele>1077.4</ele>
        <time>2022-05-15T16:21:30Z</time>
      </trkpt>
      <trkpt lat="43.81945" lon="5.46553">
        <ele>1078.6</ele>
        <time>2022-05-15T16:21:34Z</time>
      </trkpt>
      <trkpt lat="43.8195" lon="5.46571">
        <ele>1079.4</ele>
        <time>2022-05-15T16:21:40Z</time>
      </trkpt>
      <trkpt lat="43.81957" lon="5.46593">
        <ele>1079.1</ele>
        <time>2022-05-15T16:21:47Z</time>
      </trkpt>
      <trkpt lat="43.81964" lon="5.46609">
        <ele>1077.5</ele>
        <time>2022-05-15T16:21:52Z</time>
      </trkpt>
      <trkpt lat="43.81971" lon="5.46622">
        <ele>1075.9</ele>
        <time>2022-05-15T16:21:56Z</time>
      </trkpt>
      <trkpt lat="43.81975" lon="5.46635">
        <ele>1075.2</ele>
        <time>2022-05-15T16:22:00Z</time>
      </trkpt>
      <trkpt lat="43.81976" lon="5.46638">
        <ele>1075.1</ele>
        <time>2022-05-15T16:22:01Z</time>
      </trkpt>
      <trkpt lat="43.81976" lon="5.46645">
        <ele>1075.3</ele>
        <time>2022-05-15T16:22:03Z</time>
      </trkpt>
      <trkpt lat="43.81977" lon="5.46652">
        <ele>1075.3</ele>
        <time>2022-05-15T16:22:05Z</time>
      </trkpt>
      <trkpt lat="43.81973" lon="5.46682">
        <ele>1073.7</ele>
        <time>2022-05-15T16:22:13Z</time>
      </trkpt>
      <trkpt lat="43.81961" lon="5.46708">
        <ele>1071.6</ele>
        <time>2022-05-15T16:22:21Z</time>
      </trkpt>
      <trkpt lat="43.81953" lon="5.46721">
        <ele>1071.1</ele>
        <time>2022-05-15T16:22:26Z</time>
      </trkpt>
      <trkpt lat="43.81942" lon="5.46731">
        <ele>1072</ele>
        <time>2022-05-15T16:22:31Z</time>
      </trkpt>
      <trkpt lat="43.81931" lon="5.46745">
        <ele>1072.2</ele>
        <time>2022-05-15T16:22:37Z</time>
      </trkpt>
      <trkpt lat="43.81919" lon="5.46753">
        <ele>1073.4</ele>
        <time>2022-05-15T16:22:42Z</time>
      </trkpt>
      <trkpt lat="43.81901" lon="5.46763">
        <ele>1073.9</ele>
        <time>2022-05-15T16:22:49Z</time>
      </trkpt>
      <trkpt lat="43.8189" lon="5.46772">
        <ele>1073.3</ele>
        <time>2022-05-15T16:22:54Z</time>
      </trkpt>
      <trkpt lat="43.81869" lon="5.46781">
        <ele>1074.9</ele>
        <time>2022-05-15T16:23:02Z</time>
      </trkpt>
      <trkpt lat="43.81849" lon="5.46785">
        <ele>1078.1</ele>
        <time>2022-05-15T16:23:10Z</time>
      </trkpt>
      <trkpt lat="43.81828" lon="5.46786">
        <ele>1082.5</ele>
        <time>2022-05-15T16:23:18Z</time>
      </trkpt>
      <trkpt lat="43.81809" lon="5.46786">
        <ele>1087</ele>
        <time>2022-05-15T16:23:25Z</time>
      </trkpt>
      <trkpt lat="43.81791" lon="5.4679">
        <ele>1090.1</ele>
        <time>2022-05-15T16:23:32Z</time>
      </trkpt>
      <trkpt lat="43.81777" lon="5.46796">
        <ele>1091.9</ele>
        <time>2022-05-15T16:23:37Z</time>
      </trkpt>
      <trkpt lat="43.81758" lon="5.46803">
        <ele>1094.7</ele>
        <time>2022-05-15T16:23:44Z</time>
      </trkpt>
      <trkpt lat="43.81738" lon="5.4681">
        <ele>1097.3</ele>
        <time>2022-05-15T16:23:52Z</time>
      </trkpt>
      <trkpt lat="43.81721" lon="5.46818">
        <ele>1098.9</ele>
        <time>2022-05-15T16:23:59Z</time>
      </trkpt>
      <trkpt lat="43.81707" lon="5.46825">
        <ele>1100.4</ele>
        <time>2022-05-15T16:24:04Z</time>
      </trkpt>
      <trkpt lat="43.81691" lon="5.46836">
        <ele>1102.1</ele>
        <time>2022-05-15T16:24:11Z</time>
      </trkpt>
      <trkpt lat="43.81677" lon="5.46848">
        <ele>1103.9</ele>
        <time>2022-05-15T16:24:17Z</time>
      </trkpt>
      <trkpt lat="43.81662" lon="5.46855">
        <ele>1105.5</ele>
        <time>2022-05-15T16:24:23Z</time>
      </trkpt>
      <trkpt lat="43.81645" lon="5.46871">
        <ele>1103.6</ele>
        <time>2022-05-15T16:24:31Z</time>
      </trkpt>
      <trkpt lat="43.81641" lon="5.46874">
        <ele>1103.3</ele>
        <time>2022-05-15T16:24:35Z</time>
      </trkpt>
      <trkpt lat="43.81633" lon="5.46884">
        <ele>1102</ele>
        <time>2022-05-15T16:25:22Z</time>
      </trkpt>
      <trkpt lat="43.81622" lon="5.46895">
        <ele>1100.5</ele>
        <time>2022-05-15T16:25:28Z</time>
      </trkpt>
      <trkpt lat="43.81607" lon="5.46909">
        <ele>1098.4</ele>
        <time>2022-05-15T16:25:35Z</time>
      </trkpt>
      <trkpt lat="43.81591" lon="5.46924">
        <ele>1096.7</ele>
        <time>2022-05-15T16:25:42Z</time>
      </trkpt>
      <trkpt lat="43.81574" lon="5.46941">
        <ele>1092.8</ele>
        <time>2022-05-15T16:25:50Z</time>
      </trkpt>
      <trkpt lat="43.81554" lon="5.46953">
        <ele>1085.9</ele>
        <time>2022-05-15T16:25:58Z</time>
      </trkpt>
      <trkpt lat="43.81541" lon="5.4695">
        <ele>1082.2</ele>
        <time>2022-05-15T16:26:03Z</time>
      </trkpt>
      <trkpt lat="43.81532" lon="5.46929">
        <ele>1081.2</ele>
        <time>2022-05-15T16:26:10Z</time>
      </trkpt>
      <trkpt lat="43.81536" lon="5.46911">
        <ele>1084.5</ele>
        <time>2022-05-15T16:26:15Z</time>
      </trkpt>
      <trkpt lat="43.81539" lon="5.46886">
        <ele>1090.4</ele>
        <time>2022-05-15T16:26:23Z</time>
      </trkpt>
      <trkpt lat="43.81529" lon="5.46867">
        <ele>1091.8</ele>
        <time>2022-05-15T16:26:31Z</time>
      </trkpt>
      <trkpt lat="43.81529" lon="5.46865">
        <ele>1092.2</ele>
        <time>2022-05-15T16:26:32Z</time>
      </trkpt>
      <trkpt lat="43.81532" lon="5.4686">
        <ele>1094</ele>
        <time>2022-05-15T16:26:34Z</time>
      </trkpt>
      <trkpt lat="43.81539" lon="5.46845">
        <ele>1098.6</ele>
        <time>2022-05-15T16:26:40Z</time>
      </trkpt>
      <trkpt lat="43.81548" lon="5.46829">
        <ele>1103.2</ele>
        <time>2022-05-15T16:26:47Z</time>
      </trkpt>
      <trkpt lat="43.81551" lon="5.46821">
        <ele>1104.4</ele>
        <time>2022-05-15T16:26:50Z</time>
      </trkpt>
      <trkpt lat="43.8155" lon="5.46819">
        <ele>1104.4</ele>
        <time>2022-05-15T16:26:51Z</time>
      </trkpt>
      <trkpt lat="43.81538" lon="5.46806">
        <ele>1103</ele>
        <time>2022-05-15T16:26:58Z</time>
      </trkpt>
      <trkpt lat="43.81526" lon="5.4679">
        <ele>1101.9</ele>
        <time>2022-05-15T16:27:06Z</time>
      </trkpt>
      <trkpt lat="43.81517" lon="5.4677">
        <ele>1101.8</ele>
        <time>2022-05-15T16:27:14Z</time>
      </trkpt>
      <trkpt lat="43.81514" lon="5.46752">
        <ele>1102.7</ele>
        <time>2022-05-15T16:27:20Z</time>
      </trkpt>
      <trkpt lat="43.81514" lon="5.46749">
        <ele>1102.8</ele>
        <time>2022-05-15T16:27:21Z</time>
      </trkpt>
      <trkpt lat="43.81516" lon="5.46749">
        <ele>1103.2</ele>
        <time>2022-05-15T16:27:27Z</time>
      </trkpt>
      <trkpt lat="43.81517" lon="5.46748">
        <ele>1103.4</ele>
        <time>2022-05-15T16:29:07Z</time>
      </trkpt>
      <trkpt lat="43.81518" lon="5.46748">
        <ele>1103.6</ele>
        <time>2022-05-15T16:29:28Z</time>
      </trkpt>
      <trkpt lat="43.81519" lon="5.46748">
        <ele>1103.8</ele>
        <time>2022-05-15T16:31:32Z</time>
      </trkpt>
      <trkpt lat="43.8152" lon="5.46748">
        <ele>1104</ele>
        <time>2022-05-15T16:34:44Z</time>
      </trkpt>
      <trkpt lat="43.81519" lon="5.46747">
        <ele>1103.8</ele>
        <time>2022-05-15T16:35:50Z</time>
      </trkpt>
      <trkpt lat="43.81518" lon="5.46743">
        <ele>1103.4</ele>
        <time>2022-05-15T16:35:56Z</time>
      </trkpt>
      <trkpt lat="43.81519" lon="5.4674">
        <ele>1103.5</ele>
        <time>2022-05-15T16:36:01Z</time>
      </trkpt>
      <trkpt lat="43.81518" lon="5.46738">
        <ele>1103.2</ele>
        <time>2022-05-15T16:36:22Z</time>
      </trkpt>
      <trkpt lat="43.81514" lon="5.46722">
        <ele>1101.7</ele>
        <time>2022-05-15T16:36:27Z</time>
      </trkpt>
      <trkpt lat="43.8151" lon="5.46698">
        <ele>1100</ele>
        <time>2022-05-15T16:36:32Z</time>
      </trkpt>
      <trkpt lat="43.8151" lon="5.46693">
        <ele>1099.8</ele>
        <time>2022-05-15T16:36:35Z</time>
      </trkpt>
      <trkpt lat="43.815" lon="5.46689">
        <ele>1097.8</ele>
        <time>2022-05-15T16:36:55Z</time>
      </trkpt>
      <trkpt lat="43.81485" lon="5.46673">
        <ele>1091.1</ele>
        <time>2022-05-15T16:37:00Z</time>
      </trkpt>
      <trkpt lat="43.81474" lon="5.46659">
        <ele>1086.7</ele>
        <time>2022-05-15T16:37:03Z</time>
      </trkpt>
      <trkpt lat="43.81469" lon="5.46647">
        <ele>1084.9</ele>
        <time>2022-05-15T16:37:05Z</time>
      </trkpt>
      <trkpt lat="43.81468" lon="5.46642">
        <ele>1084.6</ele>
        <time>2022-05-15T16:37:06Z</time>
      </trkpt>
      <trkpt lat="43.81466" lon="5.46629">
        <ele>1084.1</ele>
        <time>2022-05-15T16:37:08Z</time>
      </trkpt>
      <trkpt lat="43.81464" lon="5.46617">
        <ele>1083.8</ele>
        <time>2022-05-15T16:37:10Z</time>
      </trkpt>
      <trkpt lat="43.8146" lon="5.46596">
        <ele>1083.4</ele>
        <time>2022-05-15T16:37:14Z</time>
      </trkpt>
      <trkpt lat="43.81458" lon="5.4658">
        <ele>1084</ele>
        <time>2022-05-15T16:37:18Z</time>
      </trkpt>
      <trkpt lat="43.81456" lon="5.46568">
        <ele>1085.5</ele>
        <time>2022-05-15T16:37:20Z</time>
      </trkpt>
      <trkpt lat="43.81457" lon="5.46562">
        <ele>1086.6</ele>
        <time>2022-05-15T16:37:21Z</time>
      </trkpt>
      <trkpt lat="43.81462" lon="5.4655">
        <ele>1089.3</ele>
        <time>2022-05-15T16:37:25Z</time>
      </trkpt>
      <trkpt lat="43.81463" lon="5.46545">
        <ele>1090.2</ele>
        <time>2022-05-15T16:37:28Z</time>
      </trkpt>
      <trkpt lat="43.81466" lon="5.46541">
        <ele>1091.3</ele>
        <time>2022-05-15T16:37:31Z</time>
      </trkpt>
      <trkpt lat="43.81475" lon="5.46536">
        <ele>1093.4</ele>
        <time>2022-05-15T16:37:37Z</time>
      </trkpt>
      <trkpt lat="43.81477" lon="5.46535">
        <ele>1093.9</ele>
        <time>2022-05-15T16:37:55Z</time>
      </trkpt>
      <trkpt lat="43.81495" lon="5.4653">
        <ele>1097.3</ele>
        <time>2022-05-15T16:38:01Z</time>
      </trkpt>
      <trkpt lat="43.81502" lon="5.46529">
        <ele>1098.2</ele>
        <time>2022-05-15T16:38:03Z</time>
      </trkpt>
      <trkpt lat="43.81512" lon="5.46529">
        <ele>1098.1</ele>
        <time>2022-05-15T16:38:05Z</time>
      </trkpt>
      <trkpt lat="43.81517" lon="5.4653">
        <ele>1097.9</ele>
        <time>2022-05-15T16:38:06Z</time>
      </trkpt>
      <trkpt lat="43.81533" lon="5.46529">
        <ele>1097.9</ele>
        <time>2022-05-15T16:38:09Z</time>
      </trkpt>
      <trkpt lat="43.81538" lon="5.46528">
        <ele>1097.9</ele>
        <time>2022-05-15T16:38:10Z</time>
      </trkpt>
      <trkpt lat="43.81555" lon="5.46522">
        <ele>1097.7</ele>
        <time>2022-05-15T16:38:15Z</time>
      </trkpt>
      <trkpt lat="43.81558" lon="5.46511">
        <ele>1097.8</ele>
        <time>2022-05-15T16:38:19Z</time>
      </trkpt>
      <trkpt lat="43.81557" lon="5.465">
        <ele>1097.9</ele>
        <time>2022-05-15T16:38:22Z</time>
      </trkpt>
      <trkpt lat="43.81559" lon="5.46497">
        <ele>1097.8</ele>
        <time>2022-05-15T16:38:23Z</time>
      </trkpt>
      <trkpt lat="43.81565" lon="5.4649">
        <ele>1097.5</ele>
        <time>2022-05-15T16:38:25Z</time>
      </trkpt>
      <trkpt lat="43.81571" lon="5.46481">
        <ele>1097.3</ele>
        <time>2022-05-15T16:38:27Z</time>
      </trkpt>
      <trkpt lat="43.81583" lon="5.46468">
        <ele>1096.8</ele>
        <time>2022-05-15T16:38:31Z</time>
      </trkpt>
      <trkpt lat="43.81593" lon="5.46463">
        <ele>1095.3</ele>
        <time>2022-05-15T16:38:33Z</time>
      </trkpt>
      <trkpt lat="43.81603" lon="5.46454">
        <ele>1093.7</ele>
        <time>2022-05-15T16:38:35Z</time>
      </trkpt>
      <trkpt lat="43.81608" lon="5.46451">
        <ele>1092.8</ele>
        <time>2022-05-15T16:38:36Z</time>
      </trkpt>
      <trkpt lat="43.81614" lon="5.46445">
        <ele>1091.6</ele>
        <time>2022-05-15T16:38:38Z</time>
      </trkpt>
      <trkpt lat="43.81624" lon="5.46434">
        <ele>1089.3</ele>
        <time>2022-05-15T16:38:42Z</time>
      </trkpt>
      <trkpt lat="43.81625" lon="5.46433">
        <ele>1089.1</ele>
        <time>2022-05-15T16:38:44Z</time>
      </trkpt>
      <trkpt lat="43.81623" lon="5.46433">
        <ele>1089.5</ele>
        <time>2022-05-15T16:38:45Z</time>
      </trkpt>
      <trkpt lat="43.81624" lon="5.46434">
        <ele>1089.3</ele>
        <time>2022-05-15T16:38:48Z</time>
      </trkpt>
      <trkpt lat="43.81637" lon="5.4643">
        <ele>1086.5</ele>
        <time>2022-05-15T16:38:52Z</time>
      </trkpt>
      <trkpt lat="43.81644" lon="5.46425">
        <ele>1084.7</ele>
        <time>2022-05-15T16:38:53Z</time>
      </trkpt>
      <trkpt lat="43.81665" lon="5.46406">
        <ele>1080</ele>
        <time>2022-05-15T16:38:55Z</time>
      </trkpt>
      <trkpt lat="43.81706" lon="5.46363">
        <ele>1073.4</ele>
        <time>2022-05-15T16:38:59Z</time>
      </trkpt>
      <trkpt lat="43.81717" lon="5.46352">
        <ele>1070.6</ele>
        <time>2022-05-15T16:39:01Z</time>
      </trkpt>
      <trkpt lat="43.81725" lon="5.46345">
        <ele>1068.4</ele>
        <time>2022-05-15T16:39:02Z</time>
      </trkpt>
      <trkpt lat="43.81735" lon="5.46339">
        <ele>1065.5</ele>
        <time>2022-05-15T16:39:03Z</time>
      </trkpt>
      <trkpt lat="43.81753" lon="5.46327">
        <ele>1061.1</ele>
        <time>2022-05-15T16:39:05Z</time>
      </trkpt>
      <trkpt lat="43.81792" lon="5.46301">
        <ele>1055.8</ele>
        <time>2022-05-15T16:39:09Z</time>
      </trkpt>
      <trkpt lat="43.81821" lon="5.4628">
        <ele>1050.1</ele>
        <time>2022-05-15T16:39:12Z</time>
      </trkpt>
      <trkpt lat="43.8184" lon="5.46262">
        <ele>1045.9</ele>
        <time>2022-05-15T16:39:14Z</time>
      </trkpt>
      <trkpt lat="43.8187" lon="5.46237">
        <ele>1039.5</ele>
        <time>2022-05-15T16:39:17Z</time>
      </trkpt>
      <trkpt lat="43.81879" lon="5.46227">
        <ele>1037.4</ele>
        <time>2022-05-15T16:39:18Z</time>
      </trkpt>
      <trkpt lat="43.81903" lon="5.46202">
        <ele>1030.8</ele>
        <time>2022-05-15T16:39:21Z</time>
      </trkpt>
      <trkpt lat="43.8192" lon="5.46182">
        <ele>1025.4</ele>
        <time>2022-05-15T16:39:24Z</time>
      </trkpt>
      <trkpt lat="43.81929" lon="5.4617">
        <ele>1023</ele>
        <time>2022-05-15T16:39:26Z</time>
      </trkpt>
      <trkpt lat="43.81937" lon="5.46162">
        <ele>1020.7</ele>
        <time>2022-05-15T16:39:28Z</time>
      </trkpt>
      <trkpt lat="43.81944" lon="5.46155">
        <ele>1018.4</ele>
        <time>2022-05-15T16:39:30Z</time>
      </trkpt>
      <trkpt lat="43.81951" lon="5.46145">
        <ele>1015.8</ele>
        <time>2022-05-15T16:39:34Z</time>
      </trkpt>
      <trkpt lat="43.8195" lon="5.46128">
        <ele>1013.5</ele>
        <time>2022-05-15T16:39:38Z</time>
      </trkpt>
      <trkpt lat="43.81953" lon="5.46103">
        <ele>1009.5</ele>
        <time>2022-05-15T16:39:43Z</time>
      </trkpt>
      <trkpt lat="43.81955" lon="5.46083">
        <ele>1006.4</ele>
        <time>2022-05-15T16:39:48Z</time>
      </trkpt>
      <trkpt lat="43.81954" lon="5.46065">
        <ele>1004.7</ele>
        <time>2022-05-15T16:39:53Z</time>
      </trkpt>
      <trkpt lat="43.81953" lon="5.46044">
        <ele>1002.6</ele>
        <time>2022-05-15T16:39:59Z</time>
      </trkpt>
      <trkpt lat="43.81951" lon="5.46025">
        <ele>1000.5</ele>
        <time>2022-05-15T16:40:05Z</time>
      </trkpt>
      <trkpt lat="43.81951" lon="5.45999">
        <ele>997.7</ele>
        <time>2022-05-15T16:40:13Z</time>
      </trkpt>
      <trkpt lat="43.8195" lon="5.45974">
        <ele>996.5</ele>
        <time>2022-05-15T16:40:21Z</time>
      </trkpt>
      <trkpt lat="43.81951" lon="5.45959">
        <ele>996.1</ele>
        <time>2022-05-15T16:40:26Z</time>
      </trkpt>
      <trkpt lat="43.81946" lon="5.45941">
        <ele>994.3</ele>
        <time>2022-05-15T16:40:32Z</time>
      </trkpt>
      <trkpt lat="43.81943" lon="5.45922">
        <ele>992.6</ele>
        <time>2022-05-15T16:40:38Z</time>
      </trkpt>
      <trkpt lat="43.81948" lon="5.45903">
        <ele>992.4</ele>
        <time>2022-05-15T16:40:42Z</time>
      </trkpt>
      <trkpt lat="43.81948" lon="5.45874">
        <ele>989.6</ele>
        <time>2022-05-15T16:40:46Z</time>
      </trkpt>
      <trkpt lat="43.81946" lon="5.45848">
        <ele>986.6</ele>
        <time>2022-05-15T16:40:49Z</time>
      </trkpt>
      <trkpt lat="43.81948" lon="5.4583">
        <ele>985.4</ele>
        <time>2022-05-15T16:40:51Z</time>
      </trkpt>
      <trkpt lat="43.8195" lon="5.4581">
        <ele>983.7</ele>
        <time>2022-05-15T16:40:54Z</time>
      </trkpt>
      <trkpt lat="43.81952" lon="5.45799">
        <ele>983</ele>
        <time>2022-05-15T16:40:58Z</time>
      </trkpt>
      <trkpt lat="43.81953" lon="5.45794">
        <ele>982.7</ele>
        <time>2022-05-15T16:41:00Z</time>
      </trkpt>
      <trkpt lat="43.81956" lon="5.45789">
        <ele>983</ele>
        <time>2022-05-15T16:41:02Z</time>
      </trkpt>
      <trkpt lat="43.81965" lon="5.45773">
        <ele>983.7</ele>
        <time>2022-05-15T16:41:08Z</time>
      </trkpt>
      <trkpt lat="43.8197" lon="5.45753">
        <ele>982.7</ele>
        <time>2022-05-15T16:41:13Z</time>
      </trkpt>
      <trkpt lat="43.8197" lon="5.45752">
        <ele>982.6</ele>
        <time>2022-05-15T16:41:16Z</time>
      </trkpt>
      <trkpt lat="43.81971" lon="5.45752">
        <ele>982.9</ele>
        <time>2022-05-15T16:41:22Z</time>
      </trkpt>
      <trkpt lat="43.81971" lon="5.45739">
        <ele>980.9</ele>
        <time>2022-05-15T16:42:12Z</time>
      </trkpt>
      <trkpt lat="43.8197" lon="5.45716">
        <ele>976.9</ele>
        <time>2022-05-15T16:42:17Z</time>
      </trkpt>
      <trkpt lat="43.8197" lon="5.45703">
        <ele>974.9</ele>
        <time>2022-05-15T16:42:19Z</time>
      </trkpt>
      <trkpt lat="43.81967" lon="5.45678">
        <ele>970.1</ele>
        <time>2022-05-15T16:42:22Z</time>
      </trkpt>
      <trkpt lat="43.81965" lon="5.45649">
        <ele>965.9</ele>
        <time>2022-05-15T16:42:25Z</time>
      </trkpt>
      <trkpt lat="43.81965" lon="5.4563">
        <ele>963.9</ele>
        <time>2022-05-15T16:42:27Z</time>
      </trkpt>
      <trkpt lat="43.81962" lon="5.45613">
        <ele>961.3</ele>
        <time>2022-05-15T16:42:29Z</time>
      </trkpt>
      <trkpt lat="43.81959" lon="5.45598">
        <ele>958.8</ele>
        <time>2022-05-15T16:42:31Z</time>
      </trkpt>
      <trkpt lat="43.81956" lon="5.45582">
        <ele>956.2</ele>
        <time>2022-05-15T16:42:33Z</time>
      </trkpt>
      <trkpt lat="43.81957" lon="5.45566">
        <ele>955.6</ele>
        <time>2022-05-15T16:42:35Z</time>
      </trkpt>
      <trkpt lat="43.81957" lon="5.45558">
        <ele>955.2</ele>
        <time>2022-05-15T16:42:36Z</time>
      </trkpt>
      <trkpt lat="43.81959" lon="5.45532">
        <ele>954.5</ele>
        <time>2022-05-15T16:42:39Z</time>
      </trkpt>
      <trkpt lat="43.8196" lon="5.45518">
        <ele>954.1</ele>
        <time>2022-05-15T16:42:41Z</time>
      </trkpt>
      <trkpt lat="43.81959" lon="5.45504">
        <ele>953</ele>
        <time>2022-05-15T16:42:43Z</time>
      </trkpt>
      <trkpt lat="43.81956" lon="5.45491">
        <ele>951.2</ele>
        <time>2022-05-15T16:42:45Z</time>
      </trkpt>
      <trkpt lat="43.81955" lon="5.45484">
        <ele>950.4</ele>
        <time>2022-05-15T16:42:46Z</time>
      </trkpt>
      <trkpt lat="43.81954" lon="5.45466">
        <ele>949.2</ele>
        <time>2022-05-15T16:42:48Z</time>
      </trkpt>
      <trkpt lat="43.8195" lon="5.45441">
        <ele>946.5</ele>
        <time>2022-05-15T16:42:51Z</time>
      </trkpt>
      <trkpt lat="43.81946" lon="5.45425">
        <ele>944.3</ele>
        <time>2022-05-15T16:42:53Z</time>
      </trkpt>
      <trkpt lat="43.81942" lon="5.45409">
        <ele>942.5</ele>
        <time>2022-05-15T16:42:55Z</time>
      </trkpt>
      <trkpt lat="43.8194" lon="5.45384">
        <ele>941.8</ele>
        <time>2022-05-15T16:42:58Z</time>
      </trkpt>
      <trkpt lat="43.8194" lon="5.45375">
        <ele>941.8</ele>
        <time>2022-05-15T16:42:59Z</time>
      </trkpt>
      <trkpt lat="43.81937" lon="5.4535">
        <ele>940.8</ele>
        <time>2022-05-15T16:43:02Z</time>
      </trkpt>
      <trkpt lat="43.81936" lon="5.45342">
        <ele>940.4</ele>
        <time>2022-05-15T16:43:03Z</time>
      </trkpt>
      <trkpt lat="43.81936" lon="5.45334">
        <ele>940.4</ele>
        <time>2022-05-15T16:43:04Z</time>
      </trkpt>
      <trkpt lat="43.81938" lon="5.45322">
        <ele>941.5</ele>
        <time>2022-05-15T16:43:06Z</time>
      </trkpt>
      <trkpt lat="43.81936" lon="5.45305">
        <ele>941.2</ele>
        <time>2022-05-15T16:43:10Z</time>
      </trkpt>
      <trkpt lat="43.81935" lon="5.45276">
        <ele>941.6</ele>
        <time>2022-05-15T16:43:17Z</time>
      </trkpt>
      <trkpt lat="43.81936" lon="5.45251">
        <ele>942.6</ele>
        <time>2022-05-15T16:43:24Z</time>
      </trkpt>
      <trkpt lat="43.81939" lon="5.45234">
        <ele>944.6</ele>
        <time>2022-05-15T16:43:29Z</time>
      </trkpt>
      <trkpt lat="43.81948" lon="5.45215">
        <ele>948.9</ele>
        <time>2022-05-15T16:43:35Z</time>
      </trkpt>
      <trkpt lat="43.81954" lon="5.4519">
        <ele>952.3</ele>
        <time>2022-05-15T16:43:41Z</time>
      </trkpt>
      <trkpt lat="43.81951" lon="5.45171">
        <ele>952</ele>
        <time>2022-05-15T16:43:46Z</time>
      </trkpt>
      <trkpt lat="43.8195" lon="5.4515">
        <ele>953.8</ele>
        <time>2022-05-15T16:43:51Z</time>
      </trkpt>
      <trkpt lat="43.8195" lon="5.45129">
        <ele>956.3</ele>
        <time>2022-05-15T16:43:56Z</time>
      </trkpt>
      <trkpt lat="43.81949" lon="5.45107">
        <ele>958.7</ele>
        <time>2022-05-15T16:44:02Z</time>
      </trkpt>
      <trkpt lat="43.81947" lon="5.45087">
        <ele>960.6</ele>
        <time>2022-05-15T16:44:07Z</time>
      </trkpt>
      <trkpt lat="43.81937" lon="5.45069">
        <ele>959.1</ele>
        <time>2022-05-15T16:44:12Z</time>
      </trkpt>
      <trkpt lat="43.81935" lon="5.45065">
        <ele>958.8</ele>
        <time>2022-05-15T16:44:16Z</time>
      </trkpt>
      <trkpt lat="43.81934" lon="5.45064">
        <ele>958.6</ele>
        <time>2022-05-15T16:44:48Z</time>
      </trkpt>
      <trkpt lat="43.81932" lon="5.45063">
        <ele>958.2</ele>
        <time>2022-05-15T16:44:49Z</time>
      </trkpt>
      <trkpt lat="43.81923" lon="5.4505">
        <ele>957.1</ele>
        <time>2022-05-15T16:44:53Z</time>
      </trkpt>
      <trkpt lat="43.81918" lon="5.45042">
        <ele>956.7</ele>
        <time>2022-05-15T16:44:55Z</time>
      </trkpt>
      <trkpt lat="43.81913" lon="5.45032">
        <ele>955.9</ele>
        <time>2022-05-15T16:44:57Z</time>
      </trkpt>
      <trkpt lat="43.8191" lon="5.45026">
        <ele>955.3</ele>
        <time>2022-05-15T16:44:58Z</time>
      </trkpt>
      <trkpt lat="43.819" lon="5.45003">
        <ele>953.3</ele>
        <time>2022-05-15T16:45:03Z</time>
      </trkpt>
      <trkpt lat="43.81894" lon="5.44987">
        <ele>950.2</ele>
        <time>2022-05-15T16:45:07Z</time>
      </trkpt>
      <trkpt lat="43.81892" lon="5.44969">
        <ele>947.9</ele>
        <time>2022-05-15T16:45:11Z</time>
      </trkpt>
      <trkpt lat="43.8189" lon="5.44965">
        <ele>946.8</ele>
        <time>2022-05-15T16:45:12Z</time>
      </trkpt>
      <trkpt lat="43.81882" lon="5.44954">
        <ele>943</ele>
        <time>2022-05-15T16:45:15Z</time>
      </trkpt>
      <trkpt lat="43.81878" lon="5.44944">
        <ele>940.7</ele>
        <time>2022-05-15T16:45:17Z</time>
      </trkpt>
      <trkpt lat="43.81873" lon="5.44933">
        <ele>938.1</ele>
        <time>2022-05-15T16:45:19Z</time>
      </trkpt>
      <trkpt lat="43.81863" lon="5.44907">
        <ele>933.3</ele>
        <time>2022-05-15T16:45:23Z</time>
      </trkpt>
      <trkpt lat="43.8186" lon="5.449">
        <ele>932.2</ele>
        <time>2022-05-15T16:45:24Z</time>
      </trkpt>
      <trkpt lat="43.81858" lon="5.44893">
        <ele>931.6</ele>
        <time>2022-05-15T16:45:25Z</time>
      </trkpt>
      <trkpt lat="43.81856" lon="5.44872">
        <ele>930.9</ele>
        <time>2022-05-15T16:45:28Z</time>
      </trkpt>
      <trkpt lat="43.81855" lon="5.44865">
        <ele>930.7</ele>
        <time>2022-05-15T16:45:29Z</time>
      </trkpt>
      <trkpt lat="43.81851" lon="5.44851">
        <ele>929.6</ele>
        <time>2022-05-15T16:45:31Z</time>
      </trkpt>
      <trkpt lat="43.81853" lon="5.44837">
        <ele>930.2</ele>
        <time>2022-05-15T16:45:33Z</time>
      </trkpt>
      <trkpt lat="43.81855" lon="5.44833">
        <ele>930.8</ele>
        <time>2022-05-15T16:45:34Z</time>
      </trkpt>
      <trkpt lat="43.81861" lon="5.44824">
        <ele>933.9</ele>
        <time>2022-05-15T16:45:38Z</time>
      </trkpt>
      <trkpt lat="43.81864" lon="5.44819">
        <ele>935.6</ele>
        <time>2022-05-15T16:45:40Z</time>
      </trkpt>
      <trkpt lat="43.81868" lon="5.44817">
        <ele>936.9</ele>
        <time>2022-05-15T16:45:42Z</time>
      </trkpt>
      <trkpt lat="43.8187" lon="5.44817">
        <ele>937.4</ele>
        <time>2022-05-15T16:45:43Z</time>
      </trkpt>
      <trkpt lat="43.81873" lon="5.4482">
        <ele>937.7</ele>
        <time>2022-05-15T16:45:45Z</time>
      </trkpt>
      <trkpt lat="43.81875" lon="5.44822">
        <ele>937.8</ele>
        <time>2022-05-15T16:45:46Z</time>
      </trkpt>
      <trkpt lat="43.81885" lon="5.44821">
        <ele>940.5</ele>
        <time>2022-05-15T16:45:49Z</time>
      </trkpt>
      <trkpt lat="43.81897" lon="5.44829">
        <ele>942.4</ele>
        <time>2022-05-15T16:45:53Z</time>
      </trkpt>
      <trkpt lat="43.81911" lon="5.44839">
        <ele>945.8</ele>
        <time>2022-05-15T16:45:56Z</time>
      </trkpt>
      <trkpt lat="43.81916" lon="5.44842">
        <ele>947.3</ele>
        <time>2022-05-15T16:45:57Z</time>
      </trkpt>
      <trkpt lat="43.81932" lon="5.4485">
        <ele>947.1</ele>
        <time>2022-05-15T16:46:00Z</time>
      </trkpt>
      <trkpt lat="43.81942" lon="5.44853">
        <ele>946.8</ele>
        <time>2022-05-15T16:46:02Z</time>
      </trkpt>
      <trkpt lat="43.81946" lon="5.44855">
        <ele>946.8</ele>
        <time>2022-05-15T16:46:03Z</time>
      </trkpt>
      <trkpt lat="43.81955" lon="5.4486">
        <ele>946.9</ele>
        <time>2022-05-15T16:46:05Z</time>
      </trkpt>
      <trkpt lat="43.81958" lon="5.44861">
        <ele>946.8</ele>
        <time>2022-05-15T16:46:06Z</time>
      </trkpt>
      <trkpt lat="43.81964" lon="5.44862">
        <ele>946.7</ele>
        <time>2022-05-15T16:46:08Z</time>
      </trkpt>
      <trkpt lat="43.8197" lon="5.44867">
        <ele>947.1</ele>
        <time>2022-05-15T16:46:10Z</time>
      </trkpt>
      <trkpt lat="43.81978" lon="5.44874">
        <ele>947.9</ele>
        <time>2022-05-15T16:46:12Z</time>
      </trkpt>
      <trkpt lat="43.81985" lon="5.44874">
        <ele>947.7</ele>
        <time>2022-05-15T16:46:14Z</time>
      </trkpt>
      <trkpt lat="43.81999" lon="5.44872">
        <ele>947</ele>
        <time>2022-05-15T16:46:17Z</time>
      </trkpt>
      <trkpt lat="43.82003" lon="5.44871">
        <ele>946.2</ele>
        <time>2022-05-15T16:46:18Z</time>
      </trkpt>
      <trkpt lat="43.82011" lon="5.44868">
        <ele>943.9</ele>
        <time>2022-05-15T16:46:20Z</time>
      </trkpt>
      <trkpt lat="43.8202" lon="5.44865">
        <ele>941.4</ele>
        <time>2022-05-15T16:46:22Z</time>
      </trkpt>
      <trkpt lat="43.82023" lon="5.44865">
        <ele>940.8</ele>
        <time>2022-05-15T16:46:23Z</time>
      </trkpt>
      <trkpt lat="43.82029" lon="5.44865">
        <ele>939.5</ele>
        <time>2022-05-15T16:46:25Z</time>
      </trkpt>
      <trkpt lat="43.82046" lon="5.44859">
        <ele>934.6</ele>
        <time>2022-05-15T16:46:30Z</time>
      </trkpt>
      <trkpt lat="43.82058" lon="5.44857">
        <ele>931.5</ele>
        <time>2022-05-15T16:46:33Z</time>
      </trkpt>
      <trkpt lat="43.82067" lon="5.44855">
        <ele>929.1</ele>
        <time>2022-05-15T16:46:35Z</time>
      </trkpt>
      <trkpt lat="43.82088" lon="5.4484">
        <ele>920.9</ele>
        <time>2022-05-15T16:46:40Z</time>
      </trkpt>
      <trkpt lat="43.82093" lon="5.44837">
        <ele>919.4</ele>
        <time>2022-05-15T16:46:41Z</time>
      </trkpt>
      <trkpt lat="43.82103" lon="5.44834">
        <ele>916.9</ele>
        <time>2022-05-15T16:46:43Z</time>
      </trkpt>
      <trkpt lat="43.82112" lon="5.44834">
        <ele>915.4</ele>
        <time>2022-05-15T16:46:46Z</time>
      </trkpt>
      <trkpt lat="43.82121" lon="5.44831">
        <ele>913.9</ele>
        <time>2022-05-15T16:46:48Z</time>
      </trkpt>
      <trkpt lat="43.82129" lon="5.44828">
        <ele>912.7</ele>
        <time>2022-05-15T16:46:50Z</time>
      </trkpt>
      <trkpt lat="43.82133" lon="5.44826">
        <ele>912.1</ele>
        <time>2022-05-15T16:46:51Z</time>
      </trkpt>
      <trkpt lat="43.82146" lon="5.4482">
        <ele>909.9</ele>
        <time>2022-05-15T16:46:54Z</time>
      </trkpt>
      <trkpt lat="43.82161" lon="5.44809">
        <ele>907.2</ele>
        <time>2022-05-15T16:46:57Z</time>
      </trkpt>
      <trkpt lat="43.82165" lon="5.44805">
        <ele>906.4</ele>
        <time>2022-05-15T16:46:58Z</time>
      </trkpt>
      <trkpt lat="43.82176" lon="5.44797">
        <ele>904.9</ele>
        <time>2022-05-15T16:47:00Z</time>
      </trkpt>
      <trkpt lat="43.82181" lon="5.44794">
        <ele>904.2</ele>
        <time>2022-05-15T16:47:01Z</time>
      </trkpt>
      <trkpt lat="43.82191" lon="5.4479">
        <ele>902.6</ele>
        <time>2022-05-15T16:47:04Z</time>
      </trkpt>
      <trkpt lat="43.82205" lon="5.44785">
        <ele>900.1</ele>
        <time>2022-05-15T16:47:08Z</time>
      </trkpt>
      <trkpt lat="43.82209" lon="5.44783">
        <ele>899.1</ele>
        <time>2022-05-15T16:47:09Z</time>
      </trkpt>
      <trkpt lat="43.82214" lon="5.44781">
        <ele>898</ele>
        <time>2022-05-15T16:47:10Z</time>
      </trkpt>
      <trkpt lat="43.82225" lon="5.44777">
        <ele>895.3</ele>
        <time>2022-05-15T16:47:13Z</time>
      </trkpt>
      <trkpt lat="43.82233" lon="5.44778">
        <ele>894.1</ele>
        <time>2022-05-15T16:47:16Z</time>
      </trkpt>
      <trkpt lat="43.82237" lon="5.44778">
        <ele>893.4</ele>
        <time>2022-05-15T16:47:21Z</time>
      </trkpt>
      <trkpt lat="43.82239" lon="5.44777">
        <ele>892.8</ele>
        <time>2022-05-15T16:47:23Z</time>
      </trkpt>
      <trkpt lat="43.82242" lon="5.44777">
        <ele>892.2</ele>
        <time>2022-05-15T16:47:25Z</time>
      </trkpt>
      <trkpt lat="43.8225" lon="5.44776">
        <ele>890.5</ele>
        <time>2022-05-15T16:47:34Z</time>
      </trkpt>
      <trkpt lat="43.82254" lon="5.44775">
        <ele>890</ele>
        <time>2022-05-15T16:47:35Z</time>
      </trkpt>
      <trkpt lat="43.82267" lon="5.44775">
        <ele>889.4</ele>
        <time>2022-05-15T16:47:39Z</time>
      </trkpt>
      <trkpt lat="43.82278" lon="5.44773">
        <ele>888.2</ele>
        <time>2022-05-15T16:47:43Z</time>
      </trkpt>
      <trkpt lat="43.8228" lon="5.44771">
        <ele>887.4</ele>
        <time>2022-05-15T16:47:44Z</time>
      </trkpt>
      <trkpt lat="43.82285" lon="5.44767">
        <ele>885.8</ele>
        <time>2022-05-15T16:47:46Z</time>
      </trkpt>
      <trkpt lat="43.82292" lon="5.44766">
        <ele>885</ele>
        <time>2022-05-15T16:47:49Z</time>
      </trkpt>
      <trkpt lat="43.82294" lon="5.44763">
        <ele>883.9</ele>
        <time>2022-05-15T16:47:51Z</time>
      </trkpt>
      <trkpt lat="43.82295" lon="5.4476">
        <ele>882.7</ele>
        <time>2022-05-15T16:47:52Z</time>
      </trkpt>
      <trkpt lat="43.82303" lon="5.44755">
        <ele>880.4</ele>
        <time>2022-05-15T16:47:54Z</time>
      </trkpt>
      <trkpt lat="43.82307" lon="5.44752">
        <ele>879</ele>
        <time>2022-05-15T16:47:55Z</time>
      </trkpt>
      <trkpt lat="43.82318" lon="5.44746">
        <ele>876.7</ele>
        <time>2022-05-15T16:47:57Z</time>
      </trkpt>
      <trkpt lat="43.82328" lon="5.4474">
        <ele>874.7</ele>
        <time>2022-05-15T16:47:59Z</time>
      </trkpt>
      <trkpt lat="43.82332" lon="5.44738">
        <ele>873.9</ele>
        <time>2022-05-15T16:48:00Z</time>
      </trkpt>
      <trkpt lat="43.82344" lon="5.44729">
        <ele>872.1</ele>
        <time>2022-05-15T16:48:03Z</time>
      </trkpt>
      <trkpt lat="43.82359" lon="5.4472">
        <ele>870</ele>
        <time>2022-05-15T16:48:07Z</time>
      </trkpt>
      <trkpt lat="43.82362" lon="5.44718">
        <ele>869.4</ele>
        <time>2022-05-15T16:48:08Z</time>
      </trkpt>
      <trkpt lat="43.82366" lon="5.44713">
        <ele>867.9</ele>
        <time>2022-05-15T16:48:10Z</time>
      </trkpt>
      <trkpt lat="43.82367" lon="5.44711">
        <ele>867.3</ele>
        <time>2022-05-15T16:48:13Z</time>
      </trkpt>
      <trkpt lat="43.82367" lon="5.44709">
        <ele>866.8</ele>
        <time>2022-05-15T16:48:31Z</time>
      </trkpt>
      <trkpt lat="43.82367" lon="5.44708">
        <ele>866.5</ele>
        <time>2022-05-15T16:48:37Z</time>
      </trkpt>
      <trkpt lat="43.82372" lon="5.44704">
        <ele>865.1</ele>
        <time>2022-05-15T16:48:42Z</time>
      </trkpt>
      <trkpt lat="43.82387" lon="5.44695">
        <ele>861.2</ele>
        <time>2022-05-15T16:48:47Z</time>
      </trkpt>
      <trkpt lat="43.82393" lon="5.44693">
        <ele>860</ele>
        <time>2022-05-15T16:48:49Z</time>
      </trkpt>
      <trkpt lat="43.82396" lon="5.44689">
        <ele>858.3</ele>
        <time>2022-05-15T16:48:50Z</time>
      </trkpt>
      <trkpt lat="43.824" lon="5.44686">
        <ele>856.8</ele>
        <time>2022-05-15T16:48:51Z</time>
      </trkpt>
      <trkpt lat="43.82404" lon="5.44682">
        <ele>854.9</ele>
        <time>2022-05-15T16:48:53Z</time>
      </trkpt>
      <trkpt lat="43.82406" lon="5.4468">
        <ele>853.9</ele>
        <time>2022-05-15T16:48:54Z</time>
      </trkpt>
      <trkpt lat="43.82409" lon="5.44679">
        <ele>853.1</ele>
        <time>2022-05-15T16:48:57Z</time>
      </trkpt>
      <trkpt lat="43.82415" lon="5.44673">
        <ele>849.9</ele>
        <time>2022-05-15T16:49:01Z</time>
      </trkpt>
      <trkpt lat="43.82421" lon="5.44662">
        <ele>847.3</ele>
        <time>2022-05-15T16:49:04Z</time>
      </trkpt>
      <trkpt lat="43.82423" lon="5.44657">
        <ele>847.2</ele>
        <time>2022-05-15T16:49:05Z</time>
      </trkpt>
      <trkpt lat="43.82429" lon="5.44648">
        <ele>847</ele>
        <time>2022-05-15T16:49:07Z</time>
      </trkpt>
      <trkpt lat="43.82434" lon="5.4464">
        <ele>846.5</ele>
        <time>2022-05-15T16:49:09Z</time>
      </trkpt>
      <trkpt lat="43.82437" lon="5.44637">
        <ele>846.3</ele>
        <time>2022-05-15T16:49:10Z</time>
      </trkpt>
      <trkpt lat="43.82446" lon="5.44624">
        <ele>844.7</ele>
        <time>2022-05-15T16:49:13Z</time>
      </trkpt>
      <trkpt lat="43.82462" lon="5.44601">
        <ele>840</ele>
        <time>2022-05-15T16:49:17Z</time>
      </trkpt>
      <trkpt lat="43.82474" lon="5.44579">
        <ele>834.3</ele>
        <time>2022-05-15T16:49:21Z</time>
      </trkpt>
      <trkpt lat="43.82492" lon="5.44565">
        <ele>829.5</ele>
        <time>2022-05-15T16:49:25Z</time>
      </trkpt>
      <trkpt lat="43.82515" lon="5.44557">
        <ele>828.7</ele>
        <time>2022-05-15T16:49:29Z</time>
      </trkpt>
      <trkpt lat="43.8252" lon="5.44554">
        <ele>828.7</ele>
        <time>2022-05-15T16:49:30Z</time>
      </trkpt>
      <trkpt lat="43.82528" lon="5.44547">
        <ele>828</ele>
        <time>2022-05-15T16:49:32Z</time>
      </trkpt>
      <trkpt lat="43.82531" lon="5.44545">
        <ele>827.8</ele>
        <time>2022-05-15T16:49:33Z</time>
      </trkpt>
      <trkpt lat="43.82536" lon="5.44542">
        <ele>827.5</ele>
        <time>2022-05-15T16:49:35Z</time>
      </trkpt>
      <trkpt lat="43.82543" lon="5.44537">
        <ele>826.8</ele>
        <time>2022-05-15T16:49:38Z</time>
      </trkpt>
      <trkpt lat="43.82547" lon="5.44529">
        <ele>824.7</ele>
        <time>2022-05-15T16:49:42Z</time>
      </trkpt>
      <trkpt lat="43.8255" lon="5.44524">
        <ele>823.3</ele>
        <time>2022-05-15T16:49:55Z</time>
      </trkpt>
      <trkpt lat="43.82554" lon="5.44511">
        <ele>819.3</ele>
        <time>2022-05-15T16:49:58Z</time>
      </trkpt>
      <trkpt lat="43.82555" lon="5.44506">
        <ele>817.6</ele>
        <time>2022-05-15T16:49:59Z</time>
      </trkpt>
      <trkpt lat="43.82558" lon="5.44489">
        <ele>813.7</ele>
        <time>2022-05-15T16:50:02Z</time>
      </trkpt>
      <trkpt lat="43.8256" lon="5.44483">
        <ele>812.5</ele>
        <time>2022-05-15T16:50:03Z</time>
      </trkpt>
      <trkpt lat="43.82562" lon="5.44478">
        <ele>811.4</ele>
        <time>2022-05-15T16:50:04Z</time>
      </trkpt>
      <trkpt lat="43.82564" lon="5.44462">
        <ele>808.1</ele>
        <time>2022-05-15T16:50:07Z</time>
      </trkpt>
      <trkpt lat="43.82564" lon="5.44452">
        <ele>806.2</ele>
        <time>2022-05-15T16:50:11Z</time>
      </trkpt>
      <trkpt lat="43.82564" lon="5.44451">
        <ele>806</ele>
        <time>2022-05-15T16:50:21Z</time>
      </trkpt>
      <trkpt lat="43.82567" lon="5.44444">
        <ele>804.2</ele>
        <time>2022-05-15T16:50:24Z</time>
      </trkpt>
      <trkpt lat="43.82572" lon="5.44437">
        <ele>801.9</ele>
        <time>2022-05-15T16:50:26Z</time>
      </trkpt>
      <trkpt lat="43.8258" lon="5.44429">
        <ele>798.6</ele>
        <time>2022-05-15T16:50:28Z</time>
      </trkpt>
      <trkpt lat="43.82588" lon="5.44422">
        <ele>797.3</ele>
        <time>2022-05-15T16:50:30Z</time>
      </trkpt>
      <trkpt lat="43.82597" lon="5.44418">
        <ele>798.3</ele>
        <time>2022-05-15T16:50:32Z</time>
      </trkpt>
      <trkpt lat="43.82606" lon="5.44416">
        <ele>799.8</ele>
        <time>2022-05-15T16:50:35Z</time>
      </trkpt>
      <trkpt lat="43.82611" lon="5.44413">
        <ele>800.2</ele>
        <time>2022-05-15T16:50:49Z</time>
      </trkpt>
      <trkpt lat="43.82617" lon="5.44414">
        <ele>801.7</ele>
        <time>2022-05-15T16:50:52Z</time>
      </trkpt>
      <trkpt lat="43.8262" lon="5.44415">
        <ele>802.5</ele>
        <time>2022-05-15T16:50:54Z</time>
      </trkpt>
      <trkpt lat="43.82632" lon="5.44413">
        <ele>804.5</ele>
        <time>2022-05-15T16:50:58Z</time>
      </trkpt>
      <trkpt lat="43.82637" lon="5.44413">
        <ele>805.6</ele>
        <time>2022-05-15T16:50:59Z</time>
      </trkpt>
      <trkpt lat="43.82642" lon="5.44414">
        <ele>806.9</ele>
        <time>2022-05-15T16:51:00Z</time>
      </trkpt>
      <trkpt lat="43.82649" lon="5.44415">
        <ele>808.7</ele>
        <time>2022-05-15T16:51:02Z</time>
      </trkpt>
      <trkpt lat="43.82658" lon="5.44414">
        <ele>810.2</ele>
        <time>2022-05-15T16:51:07Z</time>
      </trkpt>
      <trkpt lat="43.82667" lon="5.44415">
        <ele>812.3</ele>
        <time>2022-05-15T16:51:09Z</time>
      </trkpt>
      <trkpt lat="43.82676" lon="5.44419">
        <ele>812.8</ele>
        <time>2022-05-15T16:51:11Z</time>
      </trkpt>
      <trkpt lat="43.82684" lon="5.44422">
        <ele>812.8</ele>
        <time>2022-05-15T16:51:13Z</time>
      </trkpt>
      <trkpt lat="43.82693" lon="5.44425">
        <ele>812.7</ele>
        <time>2022-05-15T16:51:15Z</time>
      </trkpt>
      <trkpt lat="43.82705" lon="5.44434">
        <ele>813.8</ele>
        <time>2022-05-15T16:51:20Z</time>
      </trkpt>
      <trkpt lat="43.82707" lon="5.44437">
        <ele>814.3</ele>
        <time>2022-05-15T16:51:23Z</time>
      </trkpt>
      <trkpt lat="43.82709" lon="5.44441">
        <ele>815</ele>
        <time>2022-05-15T16:51:53Z</time>
      </trkpt>
      <trkpt lat="43.82716" lon="5.44462">
        <ele>819.3</ele>
        <time>2022-05-15T16:51:57Z</time>
      </trkpt>
      <trkpt lat="43.82719" lon="5.44477">
        <ele>822.4</ele>
        <time>2022-05-15T16:51:59Z</time>
      </trkpt>
      <trkpt lat="43.82722" lon="5.44491">
        <ele>825.2</ele>
        <time>2022-05-15T16:52:01Z</time>
      </trkpt>
      <trkpt lat="43.82725" lon="5.44525">
        <ele>828.8</ele>
        <time>2022-05-15T16:52:05Z</time>
      </trkpt>
      <trkpt lat="43.82725" lon="5.44561">
        <ele>831.8</ele>
        <time>2022-05-15T16:52:09Z</time>
      </trkpt>
      <trkpt lat="43.82724" lon="5.44585">
        <ele>834.1</ele>
        <time>2022-05-15T16:52:12Z</time>
      </trkpt>
      <trkpt lat="43.82722" lon="5.44591">
        <ele>835.5</ele>
        <time>2022-05-15T16:52:13Z</time>
      </trkpt>
      <trkpt lat="43.82722" lon="5.44595">
        <ele>835.9</ele>
        <time>2022-05-15T16:52:14Z</time>
      </trkpt>
      <trkpt lat="43.82723" lon="5.44597">
        <ele>835.7</ele>
        <time>2022-05-15T16:52:15Z</time>
      </trkpt>
      <trkpt lat="43.82728" lon="5.44603">
        <ele>834.2</ele>
        <time>2022-05-15T16:52:17Z</time>
      </trkpt>
      <trkpt lat="43.82732" lon="5.44607">
        <ele>833</ele>
        <time>2022-05-15T16:52:18Z</time>
      </trkpt>
      <trkpt lat="43.82735" lon="5.44612">
        <ele>832.2</ele>
        <time>2022-05-15T16:52:19Z</time>
      </trkpt>
      <trkpt lat="43.82747" lon="5.44631">
        <ele>828.7</ele>
        <time>2022-05-15T16:52:22Z</time>
      </trkpt>
      <trkpt lat="43.82757" lon="5.44649">
        <ele>824.8</ele>
        <time>2022-05-15T16:52:25Z</time>
      </trkpt>
      <trkpt lat="43.8276" lon="5.44654">
        <ele>823.5</ele>
        <time>2022-05-15T16:52:26Z</time>
      </trkpt>
      <trkpt lat="43.82768" lon="5.44667">
        <ele>820.1</ele>
        <time>2022-05-15T16:52:28Z</time>
      </trkpt>
      <trkpt lat="43.82775" lon="5.4468">
        <ele>818.3</ele>
        <time>2022-05-15T16:52:30Z</time>
      </trkpt>
      <trkpt lat="43.82778" lon="5.44684">
        <ele>817.3</ele>
        <time>2022-05-15T16:52:31Z</time>
      </trkpt>
      <trkpt lat="43.82784" lon="5.44695">
        <ele>815.9</ele>
        <time>2022-05-15T16:52:33Z</time>
      </trkpt>
      <trkpt lat="43.82789" lon="5.44709">
        <ele>815.5</ele>
        <time>2022-05-15T16:52:35Z</time>
      </trkpt>
      <trkpt lat="43.82791" lon="5.44714">
        <ele>815.3</ele>
        <time>2022-05-15T16:52:36Z</time>
      </trkpt>
      <trkpt lat="43.82794" lon="5.44719">
        <ele>814.6</ele>
        <time>2022-05-15T16:52:37Z</time>
      </trkpt>
      <trkpt lat="43.828" lon="5.44723">
        <ele>812.1</ele>
        <time>2022-05-15T16:52:39Z</time>
      </trkpt>
      <trkpt lat="43.8281" lon="5.44713">
        <ele>805.2</ele>
        <time>2022-05-15T16:52:42Z</time>
      </trkpt>
      <trkpt lat="43.82818" lon="5.44703">
        <ele>799.1</ele>
        <time>2022-05-15T16:52:44Z</time>
      </trkpt>
      <trkpt lat="43.82824" lon="5.44699">
        <ele>795.2</ele>
        <time>2022-05-15T16:52:45Z</time>
      </trkpt>
      <trkpt lat="43.8283" lon="5.44697">
        <ele>791.6</ele>
        <time>2022-05-15T16:52:46Z</time>
      </trkpt>
      <trkpt lat="43.82841" lon="5.44696">
        <ele>787.6</ele>
        <time>2022-05-15T16:52:48Z</time>
      </trkpt>
      <trkpt lat="43.82852" lon="5.44705">
        <ele>786.3</ele>
        <time>2022-05-15T16:52:50Z</time>
      </trkpt>
      <trkpt lat="43.82857" lon="5.44712">
        <ele>786.3</ele>
        <time>2022-05-15T16:52:51Z</time>
      </trkpt>
      <trkpt lat="43.82862" lon="5.44718">
        <ele>786</ele>
        <time>2022-05-15T16:52:52Z</time>
      </trkpt>
      <trkpt lat="43.82873" lon="5.4473">
        <ele>785.1</ele>
        <time>2022-05-15T16:52:54Z</time>
      </trkpt>
      <trkpt lat="43.82889" lon="5.44757">
        <ele>784.7</ele>
        <time>2022-05-15T16:52:57Z</time>
      </trkpt>
      <trkpt lat="43.82913" lon="5.4479">
        <ele>780.5</ele>
        <time>2022-05-15T16:53:01Z</time>
      </trkpt>
      <trkpt lat="43.82918" lon="5.44796">
        <ele>779.6</ele>
        <time>2022-05-15T16:53:02Z</time>
      </trkpt>
      <trkpt lat="43.82922" lon="5.44798">
        <ele>778.9</ele>
        <time>2022-05-15T16:53:03Z</time>
      </trkpt>
      <trkpt lat="43.82926" lon="5.44797">
        <ele>778</ele>
        <time>2022-05-15T16:53:04Z</time>
      </trkpt>
      <trkpt lat="43.8293" lon="5.44796">
        <ele>777.1</ele>
        <time>2022-05-15T16:53:06Z</time>
      </trkpt>
      <trkpt lat="43.82929" lon="5.44797">
        <ele>777.4</ele>
        <time>2022-05-15T16:53:49Z</time>
      </trkpt>
      <trkpt lat="43.8293" lon="5.44802">
        <ele>777.6</ele>
        <time>2022-05-15T16:53:52Z</time>
      </trkpt>
      <trkpt lat="43.8293" lon="5.44806">
        <ele>777.9</ele>
        <time>2022-05-15T16:53:53Z</time>
      </trkpt>
      <trkpt lat="43.8293" lon="5.44811">
        <ele>778.4</ele>
        <time>2022-05-15T16:53:54Z</time>
      </trkpt>
      <trkpt lat="43.82934" lon="5.44823">
        <ele>778.6</ele>
        <time>2022-05-15T16:53:56Z</time>
      </trkpt>
      <trkpt lat="43.82938" lon="5.44837">
        <ele>778.7</ele>
        <time>2022-05-15T16:53:58Z</time>
      </trkpt>
      <trkpt lat="43.82943" lon="5.44851">
        <ele>777.7</ele>
        <time>2022-05-15T16:54:00Z</time>
      </trkpt>
      <trkpt lat="43.8295" lon="5.44863">
        <ele>776.1</ele>
        <time>2022-05-15T16:54:02Z</time>
      </trkpt>
      <trkpt lat="43.82953" lon="5.44869">
        <ele>775.3</ele>
        <time>2022-05-15T16:54:03Z</time>
      </trkpt>
      <trkpt lat="43.82955" lon="5.44876">
        <ele>774.8</ele>
        <time>2022-05-15T16:54:04Z</time>
      </trkpt>
      <trkpt lat="43.82956" lon="5.44892">
        <ele>774.4</ele>
        <time>2022-05-15T16:54:06Z</time>
      </trkpt>
      <trkpt lat="43.82957" lon="5.44899">
        <ele>774.1</ele>
        <time>2022-05-15T16:54:07Z</time>
      </trkpt>
      <trkpt lat="43.82961" lon="5.44917">
        <ele>772.8</ele>
        <time>2022-05-15T16:54:09Z</time>
      </trkpt>
      <trkpt lat="43.82963" lon="5.44934">
        <ele>771.5</ele>
        <time>2022-05-15T16:54:11Z</time>
      </trkpt>
      <trkpt lat="43.82965" lon="5.4494">
        <ele>770.6</ele>
        <time>2022-05-15T16:54:12Z</time>
      </trkpt>
      <trkpt lat="43.82967" lon="5.44945">
        <ele>769.8</ele>
        <time>2022-05-15T16:54:13Z</time>
      </trkpt>
      <trkpt lat="43.82972" lon="5.44951">
        <ele>768</ele>
        <time>2022-05-15T16:54:15Z</time>
      </trkpt>
      <trkpt lat="43.8297" lon="5.44964">
        <ele>767.9</ele>
        <time>2022-05-15T16:54:18Z</time>
      </trkpt>
      <trkpt lat="43.8297" lon="5.44979">
        <ele>767.2</ele>
        <time>2022-05-15T16:54:22Z</time>
      </trkpt>
      <trkpt lat="43.82968" lon="5.44984">
        <ele>767.7</ele>
        <time>2022-05-15T16:54:26Z</time>
      </trkpt>
      <trkpt lat="43.82968" lon="5.44986">
        <ele>767.6</ele>
        <time>2022-05-15T16:54:34Z</time>
      </trkpt>
      <trkpt lat="43.82969" lon="5.44992">
        <ele>766.9</ele>
        <time>2022-05-15T16:54:37Z</time>
      </trkpt>
      <trkpt lat="43.82967" lon="5.44993">
        <ele>767.6</ele>
        <time>2022-05-15T16:54:42Z</time>
      </trkpt>
      <trkpt lat="43.82967" lon="5.44994">
        <ele>767.6</ele>
        <time>2022-05-15T16:56:16Z</time>
      </trkpt>
      <trkpt lat="43.82967" lon="5.44995">
        <ele>767.5</ele>
        <time>2022-05-15T16:56:48Z</time>
      </trkpt>
      <trkpt lat="43.82966" lon="5.44995">
        <ele>767.9</ele>
        <time>2022-05-15T16:57:37Z</time>
      </trkpt>
      <trkpt lat="43.82967" lon="5.44994">
        <ele>767.6</ele>
        <time>2022-05-15T16:58:11Z</time>
      </trkpt>
      <trkpt lat="43.82967" lon="5.44995">
        <ele>767.5</ele>
        <time>2022-05-15T16:58:48Z</time>
      </trkpt>
      <trkpt lat="43.82968" lon="5.44995">
        <ele>767.1</ele>
        <time>2022-05-15T16:59:23Z</time>
      </trkpt>
      <trkpt lat="43.82968" lon="5.44996">
        <ele>767.1</ele>
        <time>2022-05-15T17:01:28Z</time>
      </trkpt>
      <trkpt lat="43.82968" lon="5.44997">
        <ele>767</ele>
        <time>2022-05-15T17:02:17Z</time>
      </trkpt>
      <trkpt lat="43.82969" lon="5.45009">
        <ele>766</ele>
        <time>2022-05-15T17:03:45Z</time>
      </trkpt>
      <trkpt lat="43.8297" lon="5.45023">
        <ele>764.8</ele>
        <time>2022-05-15T17:03:47Z</time>
      </trkpt>
      <trkpt lat="43.8297" lon="5.45036">
        <ele>764</ele>
        <time>2022-05-15T17:03:49Z</time>
      </trkpt>
      <trkpt lat="43.8297" lon="5.45043">
        <ele>763.6</ele>
        <time>2022-05-15T17:03:50Z</time>
      </trkpt>
      <trkpt lat="43.82971" lon="5.45056">
        <ele>762.4</ele>
        <time>2022-05-15T17:03:52Z</time>
      </trkpt>
      <trkpt lat="43.82973" lon="5.45063">
        <ele>761.3</ele>
        <time>2022-05-15T17:03:53Z</time>
      </trkpt>
      <trkpt lat="43.82975" lon="5.45069">
        <ele>760.2</ele>
        <time>2022-05-15T17:03:54Z</time>
      </trkpt>
      <trkpt lat="43.82979" lon="5.45084">
        <ele>757.7</ele>
        <time>2022-05-15T17:03:56Z</time>
      </trkpt>
      <trkpt lat="43.82981" lon="5.45091">
        <ele>756.2</ele>
        <time>2022-05-15T17:03:57Z</time>
      </trkpt>
      <trkpt lat="43.82985" lon="5.45102">
        <ele>753.6</ele>
        <time>2022-05-15T17:03:59Z</time>
      </trkpt>
      <trkpt lat="43.82992" lon="5.45126">
        <ele>748.7</ele>
        <time>2022-05-15T17:04:04Z</time>
      </trkpt>
      <trkpt lat="43.82995" lon="5.45132">
        <ele>747</ele>
        <time>2022-05-15T17:04:06Z</time>
      </trkpt>
      <trkpt lat="43.82997" lon="5.45136">
        <ele>746</ele>
        <time>2022-05-15T17:04:07Z</time>
      </trkpt>
      <trkpt lat="43.83002" lon="5.45145">
        <ele>743.5</ele>
        <time>2022-05-15T17:04:09Z</time>
      </trkpt>
      <trkpt lat="43.83005" lon="5.45154">
        <ele>741.9</ele>
        <time>2022-05-15T17:04:11Z</time>
      </trkpt>
      <trkpt lat="43.83009" lon="5.45158">
        <ele>740.5</ele>
        <time>2022-05-15T17:04:13Z</time>
      </trkpt>
      <trkpt lat="43.83011" lon="5.45159">
        <ele>739.9</ele>
        <time>2022-05-15T17:04:14Z</time>
      </trkpt>
      <trkpt lat="43.83024" lon="5.45156">
        <ele>736.7</ele>
        <time>2022-05-15T17:04:17Z</time>
      </trkpt>
      <trkpt lat="43.83034" lon="5.45151">
        <ele>734.4</ele>
        <time>2022-05-15T17:04:20Z</time>
      </trkpt>
      <trkpt lat="43.83038" lon="5.4515">
        <ele>733.4</ele>
        <time>2022-05-15T17:04:21Z</time>
      </trkpt>
      <trkpt lat="43.83047" lon="5.45153">
        <ele>730.8</ele>
        <time>2022-05-15T17:04:23Z</time>
      </trkpt>
      <trkpt lat="43.83051" lon="5.45156">
        <ele>729.6</ele>
        <time>2022-05-15T17:04:24Z</time>
      </trkpt>
      <trkpt lat="43.8306" lon="5.45164">
        <ele>727</ele>
        <time>2022-05-15T17:04:26Z</time>
      </trkpt>
      <trkpt lat="43.83072" lon="5.45179">
        <ele>724.2</ele>
        <time>2022-05-15T17:04:29Z</time>
      </trkpt>
      <trkpt lat="43.83082" lon="5.45191">
        <ele>722.2</ele>
        <time>2022-05-15T17:04:32Z</time>
      </trkpt>
      <trkpt lat="43.8309" lon="5.452">
        <ele>721.2</ele>
        <time>2022-05-15T17:04:36Z</time>
      </trkpt>
      <trkpt lat="43.83103" lon="5.45201">
        <ele>719.3</ele>
        <time>2022-05-15T17:04:41Z</time>
      </trkpt>
      <trkpt lat="43.83104" lon="5.45201">
        <ele>719.1</ele>
        <time>2022-05-15T17:04:45Z</time>
      </trkpt>
      <trkpt lat="43.83108" lon="5.45199">
        <ele>718.4</ele>
        <time>2022-05-15T17:05:02Z</time>
      </trkpt>
      <trkpt lat="43.8311" lon="5.45199">
        <ele>718.1</ele>
        <time>2022-05-15T17:05:05Z</time>
      </trkpt>
      <trkpt lat="43.83111" lon="5.45197">
        <ele>717.9</ele>
        <time>2022-05-15T17:05:06Z</time>
      </trkpt>
      <trkpt lat="43.83114" lon="5.45193">
        <ele>717.3</ele>
        <time>2022-05-15T17:06:33Z</time>
      </trkpt>
      <trkpt lat="43.83116" lon="5.4519">
        <ele>716.9</ele>
        <time>2022-05-15T17:06:35Z</time>
      </trkpt>
      <trkpt lat="43.83122" lon="5.45178">
        <ele>715.4</ele>
        <time>2022-05-15T17:06:39Z</time>
      </trkpt>
      <trkpt lat="43.83131" lon="5.45153">
        <ele>713.8</ele>
        <time>2022-05-15T17:06:44Z</time>
      </trkpt>
      <trkpt lat="43.83134" lon="5.45148">
        <ele>713.5</ele>
        <time>2022-05-15T17:06:45Z</time>
      </trkpt>
      <trkpt lat="43.83151" lon="5.45121">
        <ele>711.4</ele>
        <time>2022-05-15T17:06:50Z</time>
      </trkpt>
      <trkpt lat="43.83173" lon="5.45088">
        <ele>709.6</ele>
        <time>2022-05-15T17:06:55Z</time>
      </trkpt>
      <trkpt lat="43.832" lon="5.45048">
        <ele>711.2</ele>
        <time>2022-05-15T17:07:00Z</time>
      </trkpt>
      <trkpt lat="43.83206" lon="5.45042">
        <ele>711</ele>
        <time>2022-05-15T17:07:01Z</time>
      </trkpt>
      <trkpt lat="43.83223" lon="5.45031">
        <ele>709.5</ele>
        <time>2022-05-15T17:07:04Z</time>
      </trkpt>
      <trkpt lat="43.83248" lon="5.45023">
        <ele>706</ele>
        <time>2022-05-15T17:07:09Z</time>
      </trkpt>
      <trkpt lat="43.83257" lon="5.45026">
        <ele>704.7</ele>
        <time>2022-05-15T17:07:11Z</time>
      </trkpt>
      <trkpt lat="43.8326" lon="5.45029">
        <ele>704.3</ele>
        <time>2022-05-15T17:07:12Z</time>
      </trkpt>
      <trkpt lat="43.83264" lon="5.45033">
        <ele>703.9</ele>
        <time>2022-05-15T17:07:13Z</time>
      </trkpt>
      <trkpt lat="43.83271" lon="5.4505">
        <ele>703.2</ele>
        <time>2022-05-15T17:07:16Z</time>
      </trkpt>
      <trkpt lat="43.83277" lon="5.45061">
        <ele>702.9</ele>
        <time>2022-05-15T17:07:19Z</time>
      </trkpt>
      <trkpt lat="43.83277" lon="5.45062">
        <ele>702.9</ele>
        <time>2022-05-15T17:07:23Z</time>
      </trkpt>
      <trkpt lat="43.8328" lon="5.4506">
        <ele>702.6</ele>
        <time>2022-05-15T17:07:50Z</time>
      </trkpt>
      <trkpt lat="43.83287" lon="5.45044">
        <ele>701.4</ele>
        <time>2022-05-15T17:07:54Z</time>
      </trkpt>
      <trkpt lat="43.83293" lon="5.45034">
        <ele>700.3</ele>
        <time>2022-05-15T17:07:56Z</time>
      </trkpt>
      <trkpt lat="43.83301" lon="5.45027">
        <ele>698.9</ele>
        <time>2022-05-15T17:07:58Z</time>
      </trkpt>
      <trkpt lat="43.83312" lon="5.45016">
        <ele>696.7</ele>
        <time>2022-05-15T17:08:01Z</time>
      </trkpt>
      <trkpt lat="43.83318" lon="5.45008">
        <ele>695.2</ele>
        <time>2022-05-15T17:08:03Z</time>
      </trkpt>
      <trkpt lat="43.83324" lon="5.44996">
        <ele>693.6</ele>
        <time>2022-05-15T17:08:06Z</time>
      </trkpt>
      <trkpt lat="43.83323" lon="5.44993">
        <ele>693.8</ele>
        <time>2022-05-15T17:08:07Z</time>
      </trkpt>
      <trkpt lat="43.83317" lon="5.44986">
        <ele>695</ele>
        <time>2022-05-15T17:08:09Z</time>
      </trkpt>
      <trkpt lat="43.83312" lon="5.44975">
        <ele>696.3</ele>
        <time>2022-05-15T17:08:11Z</time>
      </trkpt>
      <trkpt lat="43.83302" lon="5.4496">
        <ele>699.1</ele>
        <time>2022-05-15T17:08:15Z</time>
      </trkpt>
      <trkpt lat="43.83303" lon="5.44951">
        <ele>699.3</ele>
        <time>2022-05-15T17:08:18Z</time>
      </trkpt>
      <trkpt lat="43.83304" lon="5.4495">
        <ele>699.1</ele>
        <time>2022-05-15T17:08:19Z</time>
      </trkpt>
      <trkpt lat="43.83305" lon="5.44947">
        <ele>698.9</ele>
        <time>2022-05-15T17:08:21Z</time>
      </trkpt>
      <trkpt lat="43.83307" lon="5.44938">
        <ele>698.7</ele>
        <time>2022-05-15T17:08:24Z</time>
      </trkpt>
      <trkpt lat="43.83313" lon="5.44924">
        <ele>697.4</ele>
        <time>2022-05-15T17:08:28Z</time>
      </trkpt>
      <trkpt lat="43.83316" lon="5.44917">
        <ele>696.6</ele>
        <time>2022-05-15T17:08:30Z</time>
      </trkpt>
      <trkpt lat="43.83319" lon="5.44906">
        <ele>695.9</ele>
        <time>2022-05-15T17:08:33Z</time>
      </trkpt>
      <trkpt lat="43.83323" lon="5.44896">
        <ele>694.8</ele>
        <time>2022-05-15T17:08:37Z</time>
      </trkpt>
      <trkpt lat="43.83324" lon="5.4489">
        <ele>694.6</ele>
        <time>2022-05-15T17:08:50Z</time>
      </trkpt>
      <trkpt lat="43.83331" lon="5.44878">
        <ele>692.7</ele>
        <time>2022-05-15T17:08:53Z</time>
      </trkpt>
      <trkpt lat="43.8334" lon="5.44866">
        <ele>690.5</ele>
        <time>2022-05-15T17:08:56Z</time>
      </trkpt>
      <trkpt lat="43.83342" lon="5.4486">
        <ele>690.1</ele>
        <time>2022-05-15T17:08:57Z</time>
      </trkpt>
      <trkpt lat="43.83352" lon="5.44834">
        <ele>687.4</ele>
        <time>2022-05-15T17:09:01Z</time>
      </trkpt>
      <trkpt lat="43.83354" lon="5.44827">
        <ele>686.7</ele>
        <time>2022-05-15T17:09:02Z</time>
      </trkpt>
      <trkpt lat="43.83361" lon="5.448">
        <ele>684.3</ele>
        <time>2022-05-15T17:09:05Z</time>
      </trkpt>
      <trkpt lat="43.83365" lon="5.44791">
        <ele>683.1</ele>
        <time>2022-05-15T17:09:06Z</time>
      </trkpt>
      <trkpt lat="43.83373" lon="5.4477">
        <ele>680.7</ele>
        <time>2022-05-15T17:09:09Z</time>
      </trkpt>
      <trkpt lat="43.83374" lon="5.44763">
        <ele>680.3</ele>
        <time>2022-05-15T17:09:10Z</time>
      </trkpt>
      <trkpt lat="43.83374" lon="5.44738">
        <ele>679.8</ele>
        <time>2022-05-15T17:09:13Z</time>
      </trkpt>
      <trkpt lat="43.83376" lon="5.44721">
        <ele>678.5</ele>
        <time>2022-05-15T17:09:15Z</time>
      </trkpt>
      <trkpt lat="43.83381" lon="5.44694">
        <ele>676.1</ele>
        <time>2022-05-15T17:09:18Z</time>
      </trkpt>
      <trkpt lat="43.83382" lon="5.44686">
        <ele>675.5</ele>
        <time>2022-05-15T17:09:19Z</time>
      </trkpt>
      <trkpt lat="43.8338" lon="5.44678">
        <ele>675.7</ele>
        <time>2022-05-15T17:09:20Z</time>
      </trkpt>
      <trkpt lat="43.83373" lon="5.44653">
        <ele>677.5</ele>
        <time>2022-05-15T17:09:23Z</time>
      </trkpt>
      <trkpt lat="43.83373" lon="5.44635">
        <ele>678.2</ele>
        <time>2022-05-15T17:09:25Z</time>
      </trkpt>
      <trkpt lat="43.83374" lon="5.44627">
        <ele>678.2</ele>
        <time>2022-05-15T17:09:26Z</time>
      </trkpt>
      <trkpt lat="43.83374" lon="5.4462">
        <ele>678.5</ele>
        <time>2022-05-15T17:09:27Z</time>
      </trkpt>
      <trkpt lat="43.83373" lon="5.44607">
        <ele>679.2</ele>
        <time>2022-05-15T17:09:29Z</time>
      </trkpt>
      <trkpt lat="43.83369" lon="5.44597">
        <ele>680.8</ele>
        <time>2022-05-15T17:09:31Z</time>
      </trkpt>
      <trkpt lat="43.83365" lon="5.44589">
        <ele>682.3</ele>
        <time>2022-05-15T17:09:33Z</time>
      </trkpt>
      <trkpt lat="43.83365" lon="5.44587">
        <ele>682.3</ele>
        <time>2022-05-15T17:09:34Z</time>
      </trkpt>
      <trkpt lat="43.83361" lon="5.44579">
        <ele>683.8</ele>
        <time>2022-05-15T17:09:36Z</time>
      </trkpt>
      <trkpt lat="43.83358" lon="5.44575">
        <ele>684.7</ele>
        <time>2022-05-15T17:09:37Z</time>
      </trkpt>
      <trkpt lat="43.83359" lon="5.44568">
        <ele>684.6</ele>
        <time>2022-05-15T17:09:40Z</time>
      </trkpt>
      <trkpt lat="43.83356" lon="5.44564">
        <ele>685.5</ele>
        <time>2022-05-15T17:09:41Z</time>
      </trkpt>
      <trkpt lat="43.83354" lon="5.44556">
        <ele>686.2</ele>
        <time>2022-05-15T17:09:44Z</time>
      </trkpt>
      <trkpt lat="43.83353" lon="5.44546">
        <ele>686.6</ele>
        <time>2022-05-15T17:09:47Z</time>
      </trkpt>
      <trkpt lat="43.83353" lon="5.44536">
        <ele>686.8</ele>
        <time>2022-05-15T17:09:50Z</time>
      </trkpt>
      <trkpt lat="43.83354" lon="5.44533">
        <ele>686.5</ele>
        <time>2022-05-15T17:09:51Z</time>
      </trkpt>
      <trkpt lat="43.83356" lon="5.44522">
        <ele>686.2</ele>
        <time>2022-05-15T17:09:55Z</time>
      </trkpt>
      <trkpt lat="43.83362" lon="5.44503">
        <ele>685.1</ele>
        <time>2022-05-15T17:10:01Z</time>
      </trkpt>
      <trkpt lat="43.83364" lon="5.44497">
        <ele>684.2</ele>
        <time>2022-05-15T17:10:03Z</time>
      </trkpt>
      <trkpt lat="43.83365" lon="5.44491">
        <ele>683.1</ele>
        <time>2022-05-15T17:10:05Z</time>
      </trkpt>
      <trkpt lat="43.83366" lon="5.44477">
        <ele>680.8</ele>
        <time>2022-05-15T17:10:09Z</time>
      </trkpt>
      <trkpt lat="43.83366" lon="5.44473">
        <ele>680.2</ele>
        <time>2022-05-15T17:10:10Z</time>
      </trkpt>
      <trkpt lat="43.83366" lon="5.44462">
        <ele>678.6</ele>
        <time>2022-05-15T17:10:13Z</time>
      </trkpt>
      <trkpt lat="43.83368" lon="5.44453">
        <ele>677</ele>
        <time>2022-05-15T17:10:15Z</time>
      </trkpt>
      <trkpt lat="43.83374" lon="5.4443">
        <ele>673.3</ele>
        <time>2022-05-15T17:10:19Z</time>
      </trkpt>
      <trkpt lat="43.83375" lon="5.44424">
        <ele>672.4</ele>
        <time>2022-05-15T17:10:20Z</time>
      </trkpt>
      <trkpt lat="43.83379" lon="5.44407">
        <ele>670.4</ele>
        <time>2022-05-15T17:10:23Z</time>
      </trkpt>
      <trkpt lat="43.83382" lon="5.44395">
        <ele>669.1</ele>
        <time>2022-05-15T17:10:25Z</time>
      </trkpt>
      <trkpt lat="43.83389" lon="5.44368">
        <ele>666</ele>
        <time>2022-05-15T17:10:30Z</time>
      </trkpt>
      <trkpt lat="43.83391" lon="5.44364">
        <ele>665.4</ele>
        <time>2022-05-15T17:10:31Z</time>
      </trkpt>
      <trkpt lat="43.83401" lon="5.44357">
        <ele>663.6</ele>
        <time>2022-05-15T17:10:34Z</time>
      </trkpt>
      <trkpt lat="43.83412" lon="5.44348">
        <ele>661.3</ele>
        <time>2022-05-15T17:10:37Z</time>
      </trkpt>
      <trkpt lat="43.83416" lon="5.44343">
        <ele>660.2</ele>
        <time>2022-05-15T17:10:38Z</time>
      </trkpt>
      <trkpt lat="43.83433" lon="5.4432">
        <ele>657.8</ele>
        <time>2022-05-15T17:10:42Z</time>
      </trkpt>
      <trkpt lat="43.8344" lon="5.44306">
        <ele>657.2</ele>
        <time>2022-05-15T17:10:45Z</time>
      </trkpt>
      <trkpt lat="43.83447" lon="5.44296">
        <ele>656.3</ele>
        <time>2022-05-15T17:10:49Z</time>
      </trkpt>
      <trkpt lat="43.83447" lon="5.44295">
        <ele>656.3</ele>
        <time>2022-05-15T17:10:59Z</time>
      </trkpt>
      <trkpt lat="43.83447" lon="5.44294">
        <ele>656.3</ele>
        <time>2022-05-15T17:11:05Z</time>
      </trkpt>
      <trkpt lat="43.83443" lon="5.44293">
        <ele>656.9</ele>
        <time>2022-05-15T17:11:07Z</time>
      </trkpt>
      <trkpt lat="43.83428" lon="5.443">
        <ele>658.8</ele>
        <time>2022-05-15T17:11:12Z</time>
      </trkpt>
      <trkpt lat="43.83425" lon="5.44302">
        <ele>659.1</ele>
        <time>2022-05-15T17:11:13Z</time>
      </trkpt>
      <trkpt lat="43.83416" lon="5.44303">
        <ele>660.2</ele>
        <time>2022-05-15T17:11:15Z</time>
      </trkpt>
      <trkpt lat="43.83411" lon="5.44303">
        <ele>661.2</ele>
        <time>2022-05-15T17:11:17Z</time>
      </trkpt>
      <trkpt lat="43.8341" lon="5.44303">
        <ele>661.4</ele>
        <time>2022-05-15T17:11:27Z</time>
      </trkpt>
      <trkpt lat="43.8341" lon="5.44302">
        <ele>661.5</ele>
        <time>2022-05-15T17:11:28Z</time>
      </trkpt>
      <trkpt lat="43.83413" lon="5.443">
        <ele>660.9</ele>
        <time>2022-05-15T17:11:29Z</time>
      </trkpt>
      <trkpt lat="43.83415" lon="5.44298">
        <ele>660.6</ele>
        <time>2022-05-15T17:11:30Z</time>
      </trkpt>
      <trkpt lat="43.8342" lon="5.4429">
        <ele>660.1</ele>
        <time>2022-05-15T17:11:32Z</time>
      </trkpt>
      <trkpt lat="43.83423" lon="5.44285">
        <ele>659.8</ele>
        <time>2022-05-15T17:11:33Z</time>
      </trkpt>
      <trkpt lat="43.83426" lon="5.44281">
        <ele>659.5</ele>
        <time>2022-05-15T17:11:34Z</time>
      </trkpt>
      <trkpt lat="43.83433" lon="5.44275">
        <ele>658.5</ele>
        <time>2022-05-15T17:11:36Z</time>
      </trkpt>
      <trkpt lat="43.83439" lon="5.44265">
        <ele>657.6</ele>
        <time>2022-05-15T17:11:38Z</time>
      </trkpt>
      <trkpt lat="43.83445" lon="5.44256">
        <ele>656.6</ele>
        <time>2022-05-15T17:11:40Z</time>
      </trkpt>
      <trkpt lat="43.83448" lon="5.44251">
        <ele>656</ele>
        <time>2022-05-15T17:11:41Z</time>
      </trkpt>
      <trkpt lat="43.83456" lon="5.44239">
        <ele>654.9</ele>
        <time>2022-05-15T17:11:44Z</time>
      </trkpt>
      <trkpt lat="43.83457" lon="5.44236">
        <ele>654.8</ele>
        <time>2022-05-15T17:11:45Z</time>
      </trkpt>
      <trkpt lat="43.83458" lon="5.44231">
        <ele>654.8</ele>
        <time>2022-05-15T17:11:47Z</time>
      </trkpt>
      <trkpt lat="43.83458" lon="5.44229">
        <ele>654.8</ele>
        <time>2022-05-15T17:11:48Z</time>
      </trkpt>
      <trkpt lat="43.83458" lon="5.44224">
        <ele>655</ele>
        <time>2022-05-15T17:11:50Z</time>
      </trkpt>
      <trkpt lat="43.83457" lon="5.4422">
        <ele>655.4</ele>
        <time>2022-05-15T17:11:51Z</time>
      </trkpt>
      <trkpt lat="43.83458" lon="5.44211">
        <ele>655.5</ele>
        <time>2022-05-15T17:11:53Z</time>
      </trkpt>
      <trkpt lat="43.83458" lon="5.44208">
        <ele>655.6</ele>
        <time>2022-05-15T17:11:54Z</time>
      </trkpt>
      <trkpt lat="43.83459" lon="5.44207">
        <ele>655.4</ele>
        <time>2022-05-15T17:11:56Z</time>
      </trkpt>
      <trkpt lat="43.83462" lon="5.442">
        <ele>654.8</ele>
        <time>2022-05-15T17:12:00Z</time>
      </trkpt>
      <trkpt lat="43.83473" lon="5.44188">
        <ele>651.8</ele>
        <time>2022-05-15T17:12:05Z</time>
      </trkpt>
      <trkpt lat="43.83479" lon="5.44181">
        <ele>650.1</ele>
        <time>2022-05-15T17:12:08Z</time>
      </trkpt>
      <trkpt lat="43.83478" lon="5.4417">
        <ele>650.4</ele>
        <time>2022-05-15T17:12:10Z</time>
      </trkpt>
      <trkpt lat="43.83478" lon="5.44164">
        <ele>650.6</ele>
        <time>2022-05-15T17:12:11Z</time>
      </trkpt>
      <trkpt lat="43.83483" lon="5.4414">
        <ele>650.3</ele>
        <time>2022-05-15T17:12:14Z</time>
      </trkpt>
      <trkpt lat="43.83486" lon="5.44133">
        <ele>649.7</ele>
        <time>2022-05-15T17:12:15Z</time>
      </trkpt>
      <trkpt lat="43.83494" lon="5.44118">
        <ele>647.9</ele>
        <time>2022-05-15T17:12:17Z</time>
      </trkpt>
      <trkpt lat="43.83502" lon="5.44101">
        <ele>646.5</ele>
        <time>2022-05-15T17:12:19Z</time>
      </trkpt>
      <trkpt lat="43.83504" lon="5.44082">
        <ele>647.1</ele>
        <time>2022-05-15T17:12:21Z</time>
      </trkpt>
      <trkpt lat="43.83508" lon="5.44064">
        <ele>647.5</ele>
        <time>2022-05-15T17:12:23Z</time>
      </trkpt>
      <trkpt lat="43.8351" lon="5.44057">
        <ele>647.4</ele>
        <time>2022-05-15T17:12:24Z</time>
      </trkpt>
      <trkpt lat="43.83511" lon="5.44048">
        <ele>647.7</ele>
        <time>2022-05-15T17:12:25Z</time>
      </trkpt>
      <trkpt lat="43.83513" lon="5.44029">
        <ele>648.3</ele>
        <time>2022-05-15T17:12:27Z</time>
      </trkpt>
      <trkpt lat="43.83515" lon="5.4401">
        <ele>648.8</ele>
        <time>2022-05-15T17:12:29Z</time>
      </trkpt>
      <trkpt lat="43.83518" lon="5.44">
        <ele>648.3</ele>
        <time>2022-05-15T17:12:30Z</time>
      </trkpt>
      <trkpt lat="43.83526" lon="5.43979">
        <ele>646.3</ele>
        <time>2022-05-15T17:12:32Z</time>
      </trkpt>
      <trkpt lat="43.83537" lon="5.43962">
        <ele>643.2</ele>
        <time>2022-05-15T17:12:34Z</time>
      </trkpt>
      <trkpt lat="43.83556" lon="5.43938">
        <ele>637.9</ele>
        <time>2022-05-15T17:12:37Z</time>
      </trkpt>
      <trkpt lat="43.83567" lon="5.43924">
        <ele>635</ele>
        <time>2022-05-15T17:12:39Z</time>
      </trkpt>
      <trkpt lat="43.83569" lon="5.43909">
        <ele>635.5</ele>
        <time>2022-05-15T17:12:41Z</time>
      </trkpt>
      <trkpt lat="43.83571" lon="5.439">
        <ele>635.8</ele>
        <time>2022-05-15T17:12:42Z</time>
      </trkpt>
      <trkpt lat="43.83574" lon="5.43892">
        <ele>635.7</ele>
        <time>2022-05-15T17:12:43Z</time>
      </trkpt>
      <trkpt lat="43.83586" lon="5.43878">
        <ele>634</ele>
        <time>2022-05-15T17:12:45Z</time>
      </trkpt>
      <trkpt lat="43.83593" lon="5.43872">
        <ele>632.9</ele>
        <time>2022-05-15T17:12:46Z</time>
      </trkpt>
      <trkpt lat="43.83607" lon="5.43863">
        <ele>629.9</ele>
        <time>2022-05-15T17:12:48Z</time>
      </trkpt>
      <trkpt lat="43.83616" lon="5.43858">
        <ele>627.7</ele>
        <time>2022-05-15T17:12:49Z</time>
      </trkpt>
      <trkpt lat="43.83631" lon="5.43849">
        <ele>623.6</ele>
        <time>2022-05-15T17:12:51Z</time>
      </trkpt>
      <trkpt lat="43.83635" lon="5.43846">
        <ele>622.4</ele>
        <time>2022-05-15T17:12:52Z</time>
      </trkpt>
      <trkpt lat="43.83637" lon="5.43841">
        <ele>621.9</ele>
        <time>2022-05-15T17:12:53Z</time>
      </trkpt>
      <trkpt lat="43.83634" lon="5.43825">
        <ele>623.4</ele>
        <time>2022-05-15T17:12:55Z</time>
      </trkpt>
      <trkpt lat="43.83639" lon="5.43782">
        <ele>624.2</ele>
        <time>2022-05-15T17:12:59Z</time>
      </trkpt>
      <trkpt lat="43.83642" lon="5.43744">
        <ele>625.1</ele>
        <time>2022-05-15T17:13:02Z</time>
      </trkpt>
      <trkpt lat="43.83642" lon="5.43731">
        <ele>624.8</ele>
        <time>2022-05-15T17:13:03Z</time>
      </trkpt>
      <trkpt lat="43.83644" lon="5.43709">
        <ele>623.7</ele>
        <time>2022-05-15T17:13:05Z</time>
      </trkpt>
      <trkpt lat="43.83648" lon="5.43701">
        <ele>622.5</ele>
        <time>2022-05-15T17:13:06Z</time>
      </trkpt>
      <trkpt lat="43.83653" lon="5.43693">
        <ele>621.1</ele>
        <time>2022-05-15T17:13:07Z</time>
      </trkpt>
      <trkpt lat="43.83656" lon="5.43676">
        <ele>619.9</ele>
        <time>2022-05-15T17:13:09Z</time>
      </trkpt>
      <trkpt lat="43.83658" lon="5.43666">
        <ele>619.2</ele>
        <time>2022-05-15T17:13:10Z</time>
      </trkpt>
      <trkpt lat="43.83661" lon="5.43657">
        <ele>618.4</ele>
        <time>2022-05-15T17:13:11Z</time>
      </trkpt>
      <trkpt lat="43.83666" lon="5.43649">
        <ele>617.2</ele>
        <time>2022-05-15T17:13:12Z</time>
      </trkpt>
      <trkpt lat="43.83683" lon="5.43623">
        <ele>611.6</ele>
        <time>2022-05-15T17:13:15Z</time>
      </trkpt>
      <trkpt lat="43.83687" lon="5.43614">
        <ele>610.1</ele>
        <time>2022-05-15T17:13:16Z</time>
      </trkpt>
      <trkpt lat="43.83693" lon="5.43595">
        <ele>607.7</ele>
        <time>2022-05-15T17:13:18Z</time>
      </trkpt>
      <trkpt lat="43.83692" lon="5.43576">
        <ele>606.7</ele>
        <time>2022-05-15T17:13:20Z</time>
      </trkpt>
      <trkpt lat="43.8369" lon="5.43566">
        <ele>605.7</ele>
        <time>2022-05-15T17:13:21Z</time>
      </trkpt>
      <trkpt lat="43.8369" lon="5.43555">
        <ele>603.9</ele>
        <time>2022-05-15T17:13:22Z</time>
      </trkpt>
      <trkpt lat="43.83692" lon="5.43534">
        <ele>599.8</ele>
        <time>2022-05-15T17:13:24Z</time>
      </trkpt>
      <trkpt lat="43.83692" lon="5.43523">
        <ele>598.1</ele>
        <time>2022-05-15T17:13:25Z</time>
      </trkpt>
      <trkpt lat="43.83688" lon="5.43501">
        <ele>595.5</ele>
        <time>2022-05-15T17:13:27Z</time>
      </trkpt>
      <trkpt lat="43.83685" lon="5.43476">
        <ele>592.4</ele>
        <time>2022-05-15T17:13:30Z</time>
      </trkpt>
      <trkpt lat="43.83681" lon="5.43471">
        <ele>592.5</ele>
        <time>2022-05-15T17:13:33Z</time>
      </trkpt>
      <trkpt lat="43.83674" lon="5.43455">
        <ele>591.4</ele>
        <time>2022-05-15T17:14:08Z</time>
      </trkpt>
      <trkpt lat="43.83666" lon="5.4344">
        <ele>590.3</ele>
        <time>2022-05-15T17:14:10Z</time>
      </trkpt>
      <trkpt lat="43.83655" lon="5.43429">
        <ele>590.5</ele>
        <time>2022-05-15T17:14:12Z</time>
      </trkpt>
      <trkpt lat="43.83652" lon="5.43425">
        <ele>590.4</ele>
        <time>2022-05-15T17:14:13Z</time>
      </trkpt>
      <trkpt lat="43.83649" lon="5.43422">
        <ele>590.6</ele>
        <time>2022-05-15T17:14:15Z</time>
      </trkpt>
      <trkpt lat="43.83649" lon="5.43421">
        <ele>590.5</ele>
        <time>2022-05-15T17:14:20Z</time>
      </trkpt>
      <trkpt lat="43.83651" lon="5.43423">
        <ele>590.3</ele>
        <time>2022-05-15T17:14:21Z</time>
      </trkpt>
      <trkpt lat="43.83654" lon="5.43423">
        <ele>589.7</ele>
        <time>2022-05-15T17:14:25Z</time>
      </trkpt>
      <trkpt lat="43.83658" lon="5.43421">
        <ele>588.6</ele>
        <time>2022-05-15T17:14:29Z</time>
      </trkpt>
      <trkpt lat="43.83661" lon="5.43418">
        <ele>587.4</ele>
        <time>2022-05-15T17:14:31Z</time>
      </trkpt>
      <trkpt lat="43.83662" lon="5.43408">
        <ele>588.2</ele>
        <time>2022-05-15T17:14:34Z</time>
      </trkpt>
      <trkpt lat="43.83662" lon="5.43404">
        <ele>588.7</ele>
        <time>2022-05-15T17:14:35Z</time>
      </trkpt>
      <trkpt lat="43.83665" lon="5.43393">
        <ele>589.5</ele>
        <time>2022-05-15T17:14:37Z</time>
      </trkpt>
      <trkpt lat="43.83669" lon="5.4338">
        <ele>590.3</ele>
        <time>2022-05-15T17:14:39Z</time>
      </trkpt>
      <trkpt lat="43.83676" lon="5.43357">
        <ele>591.5</ele>
        <time>2022-05-15T17:14:42Z</time>
      </trkpt>
      <trkpt lat="43.83679" lon="5.43348">
        <ele>591.8</ele>
        <time>2022-05-15T17:14:43Z</time>
      </trkpt>
      <trkpt lat="43.83685" lon="5.43331">
        <ele>591.9</ele>
        <time>2022-05-15T17:14:45Z</time>
      </trkpt>
      <trkpt lat="43.83689" lon="5.43323">
        <ele>591.4</ele>
        <time>2022-05-15T17:14:46Z</time>
      </trkpt>
      <trkpt lat="43.83703" lon="5.43288">
        <ele>589.9</ele>
        <time>2022-05-15T17:14:50Z</time>
      </trkpt>
      <trkpt lat="43.83706" lon="5.43279">
        <ele>589.7</ele>
        <time>2022-05-15T17:14:51Z</time>
      </trkpt>
      <trkpt lat="43.83708" lon="5.43269">
        <ele>589.7</ele>
        <time>2022-05-15T17:14:52Z</time>
      </trkpt>
      <trkpt lat="43.83715" lon="5.43248">
        <ele>588.9</ele>
        <time>2022-05-15T17:14:54Z</time>
      </trkpt>
      <trkpt lat="43.83726" lon="5.43231">
        <ele>586.6</ele>
        <time>2022-05-15T17:14:56Z</time>
      </trkpt>
      <trkpt lat="43.83733" lon="5.43224">
        <ele>585</ele>
        <time>2022-05-15T17:14:57Z</time>
      </trkpt>
      <trkpt lat="43.83737" lon="5.43216">
        <ele>584.5</ele>
        <time>2022-05-15T17:14:58Z</time>
      </trkpt>
      <trkpt lat="43.83741" lon="5.43208">
        <ele>584.1</ele>
        <time>2022-05-15T17:14:59Z</time>
      </trkpt>
      <trkpt lat="43.83746" lon="5.432">
        <ele>583.5</ele>
        <time>2022-05-15T17:15:00Z</time>
      </trkpt>
      <trkpt lat="43.83759" lon="5.43182">
        <ele>582.1</ele>
        <time>2022-05-15T17:15:03Z</time>
      </trkpt>
      <trkpt lat="43.83762" lon="5.43177">
        <ele>581.8</ele>
        <time>2022-05-15T17:15:04Z</time>
      </trkpt>
      <trkpt lat="43.83764" lon="5.43171">
        <ele>581.7</ele>
        <time>2022-05-15T17:15:05Z</time>
      </trkpt>
      <trkpt lat="43.83767" lon="5.43165">
        <ele>581.1</ele>
        <time>2022-05-15T17:15:06Z</time>
      </trkpt>
      <trkpt lat="43.83774" lon="5.43152">
        <ele>579.4</ele>
        <time>2022-05-15T17:15:08Z</time>
      </trkpt>
      <trkpt lat="43.83777" lon="5.43146">
        <ele>578.6</ele>
        <time>2022-05-15T17:15:09Z</time>
      </trkpt>
      <trkpt lat="43.83776" lon="5.43138">
        <ele>579.1</ele>
        <time>2022-05-15T17:15:11Z</time>
      </trkpt>
      <trkpt lat="43.83777" lon="5.43137">
        <ele>578.8</ele>
        <time>2022-05-15T17:15:16Z</time>
      </trkpt>
      <trkpt lat="43.83779" lon="5.43135">
        <ele>578.3</ele>
        <time>2022-05-15T17:15:44Z</time>
      </trkpt>
      <trkpt lat="43.83781" lon="5.43131">
        <ele>577.7</ele>
        <time>2022-05-15T17:15:46Z</time>
      </trkpt>
      <trkpt lat="43.83787" lon="5.43122">
        <ele>576</ele>
        <time>2022-05-15T17:15:49Z</time>
      </trkpt>
      <trkpt lat="43.8379" lon="5.43118">
        <ele>575.1</ele>
        <time>2022-05-15T17:15:50Z</time>
      </trkpt>
      <trkpt lat="43.83793" lon="5.43107">
        <ele>574.3</ele>
        <time>2022-05-15T17:15:52Z</time>
      </trkpt>
      <trkpt lat="43.83794" lon="5.43094">
        <ele>574.1</ele>
        <time>2022-05-15T17:15:54Z</time>
      </trkpt>
      <trkpt lat="43.83804" lon="5.43059">
        <ele>571.8</ele>
        <time>2022-05-15T17:15:59Z</time>
      </trkpt>
      <trkpt lat="43.8381" lon="5.43041">
        <ele>570.7</ele>
        <time>2022-05-15T17:16:01Z</time>
      </trkpt>
      <trkpt lat="43.83812" lon="5.4303">
        <ele>570.5</ele>
        <time>2022-05-15T17:16:02Z</time>
      </trkpt>
      <trkpt lat="43.83816" lon="5.43021">
        <ele>569.8</ele>
        <time>2022-05-15T17:16:03Z</time>
      </trkpt>
      <trkpt lat="43.83821" lon="5.43005">
        <ele>569.1</ele>
        <time>2022-05-15T17:16:05Z</time>
      </trkpt>
      <trkpt lat="43.83821" lon="5.42987">
        <ele>569.4</ele>
        <time>2022-05-15T17:16:07Z</time>
      </trkpt>
      <trkpt lat="43.83819" lon="5.42978">
        <ele>570</ele>
        <time>2022-05-15T17:16:08Z</time>
      </trkpt>
      <trkpt lat="43.83818" lon="5.42968">
        <ele>570.3</ele>
        <time>2022-05-15T17:16:09Z</time>
      </trkpt>
      <trkpt lat="43.8382" lon="5.42934">
        <ele>569.8</ele>
        <time>2022-05-15T17:16:12Z</time>
      </trkpt>
      <trkpt lat="43.83819" lon="5.42904">
        <ele>569.1</ele>
        <time>2022-05-15T17:16:15Z</time>
      </trkpt>
      <trkpt lat="43.83819" lon="5.42883">
        <ele>567.4</ele>
        <time>2022-05-15T17:16:17Z</time>
      </trkpt>
      <trkpt lat="43.8382" lon="5.4284">
        <ele>563.7</ele>
        <time>2022-05-15T17:16:21Z</time>
      </trkpt>
      <trkpt lat="43.83821" lon="5.4283">
        <ele>563</ele>
        <time>2022-05-15T17:16:22Z</time>
      </trkpt>
      <trkpt lat="43.83825" lon="5.42809">
        <ele>562.6</ele>
        <time>2022-05-15T17:16:24Z</time>
      </trkpt>
      <trkpt lat="43.83835" lon="5.42793">
        <ele>560.7</ele>
        <time>2022-05-15T17:16:26Z</time>
      </trkpt>
      <trkpt lat="43.83851" lon="5.42763">
        <ele>557.7</ele>
        <time>2022-05-15T17:16:30Z</time>
      </trkpt>
      <trkpt lat="43.83853" lon="5.42759">
        <ele>557.3</ele>
        <time>2022-05-15T17:16:31Z</time>
      </trkpt>
      <trkpt lat="43.83852" lon="5.42759">
        <ele>557.5</ele>
        <time>2022-05-15T17:16:32Z</time>
      </trkpt>
      <trkpt lat="43.83848" lon="5.42756">
        <ele>558.4</ele>
        <time>2022-05-15T17:16:39Z</time>
      </trkpt>
      <trkpt lat="43.8385" lon="5.42755">
        <ele>558</ele>
        <time>2022-05-15T17:17:26Z</time>
      </trkpt>
      <trkpt lat="43.83848" lon="5.42754">
        <ele>558.5</ele>
        <time>2022-05-15T17:18:12Z</time>
      </trkpt>
      <trkpt lat="43.83849" lon="5.42754">
        <ele>558.2</ele>
        <time>2022-05-15T17:18:42Z</time>
      </trkpt>
      <trkpt lat="43.83848" lon="5.42753">
        <ele>558.5</ele>
        <time>2022-05-15T17:19:20Z</time>
      </trkpt>
      <trkpt lat="43.83849" lon="5.42752">
        <ele>558.2</ele>
        <time>2022-05-15T17:19:23Z</time>
      </trkpt>
      <trkpt lat="43.83849" lon="5.42751">
        <ele>558.2</ele>
        <time>2022-05-15T17:19:25Z</time>
      </trkpt>
      <trkpt lat="43.83851" lon="5.42747">
        <ele>558</ele>
        <time>2022-05-15T17:19:27Z</time>
      </trkpt>
      <trkpt lat="43.83855" lon="5.42738">
        <ele>557.7</ele>
        <time>2022-05-15T17:19:30Z</time>
      </trkpt>
      <trkpt lat="43.83859" lon="5.42729">
        <ele>557.4</ele>
        <time>2022-05-15T17:19:32Z</time>
      </trkpt>
      <trkpt lat="43.83866" lon="5.42722">
        <ele>556.1</ele>
        <time>2022-05-15T17:19:34Z</time>
      </trkpt>
      <trkpt lat="43.83872" lon="5.42714">
        <ele>555</ele>
        <time>2022-05-15T17:19:36Z</time>
      </trkpt>
      <trkpt lat="43.83877" lon="5.42706">
        <ele>554.1</ele>
        <time>2022-05-15T17:19:38Z</time>
      </trkpt>
      <trkpt lat="43.83885" lon="5.42693">
        <ele>552.5</ele>
        <time>2022-05-15T17:19:41Z</time>
      </trkpt>
      <trkpt lat="43.83891" lon="5.42682">
        <ele>551.3</ele>
        <time>2022-05-15T17:19:43Z</time>
      </trkpt>
      <trkpt lat="43.83896" lon="5.42668">
        <ele>550.4</ele>
        <time>2022-05-15T17:19:45Z</time>
      </trkpt>
      <trkpt lat="43.83906" lon="5.42638">
        <ele>550.5</ele>
        <time>2022-05-15T17:19:49Z</time>
      </trkpt>
      <trkpt lat="43.83909" lon="5.42631">
        <ele>550.4</ele>
        <time>2022-05-15T17:19:50Z</time>
      </trkpt>
      <trkpt lat="43.83916" lon="5.42617">
        <ele>550.1</ele>
        <time>2022-05-15T17:19:52Z</time>
      </trkpt>
      <trkpt lat="43.83921" lon="5.42601">
        <ele>550.9</ele>
        <time>2022-05-15T17:19:54Z</time>
      </trkpt>
      <trkpt lat="43.83926" lon="5.42587">
        <ele>551.1</ele>
        <time>2022-05-15T17:19:56Z</time>
      </trkpt>
      <trkpt lat="43.83929" lon="5.4258">
        <ele>551</ele>
        <time>2022-05-15T17:19:57Z</time>
      </trkpt>
      <trkpt lat="43.83932" lon="5.42572">
        <ele>551.2</ele>
        <time>2022-05-15T17:19:58Z</time>
      </trkpt>
      <trkpt lat="43.83937" lon="5.42559">
        <ele>551.4</ele>
        <time>2022-05-15T17:20:00Z</time>
      </trkpt>
      <trkpt lat="43.83948" lon="5.42552">
        <ele>549.1</ele>
        <time>2022-05-15T17:20:03Z</time>
      </trkpt>
      <trkpt lat="43.83953" lon="5.42549">
        <ele>548</ele>
        <time>2022-05-15T17:20:04Z</time>
      </trkpt>
      <trkpt lat="43.83965" lon="5.4254">
        <ele>545.5</ele>
        <time>2022-05-15T17:20:07Z</time>
      </trkpt>
      <trkpt lat="43.8399" lon="5.42525">
        <ele>539.6</ele>
        <time>2022-05-15T17:20:13Z</time>
      </trkpt>
      <trkpt lat="43.84" lon="5.4252">
        <ele>537.1</ele>
        <time>2022-05-15T17:20:15Z</time>
      </trkpt>
      <trkpt lat="43.84005" lon="5.4251">
        <ele>537.3</ele>
        <time>2022-05-15T17:20:17Z</time>
      </trkpt>
      <trkpt lat="43.84003" lon="5.42497">
        <ele>538.6</ele>
        <time>2022-05-15T17:20:20Z</time>
      </trkpt>
      <trkpt lat="43.84" lon="5.42469">
        <ele>540.5</ele>
        <time>2022-05-15T17:20:26Z</time>
      </trkpt>
      <trkpt lat="43.83999" lon="5.42453">
        <ele>541.6</ele>
        <time>2022-05-15T17:20:29Z</time>
      </trkpt>
      <trkpt lat="43.83997" lon="5.4244">
        <ele>542.8</ele>
        <time>2022-05-15T17:20:31Z</time>
      </trkpt>
      <trkpt lat="43.83993" lon="5.42418">
        <ele>545</ele>
        <time>2022-05-15T17:20:34Z</time>
      </trkpt>
      <trkpt lat="43.83993" lon="5.42402">
        <ele>544</ele>
        <time>2022-05-15T17:20:36Z</time>
      </trkpt>
      <trkpt lat="43.8399" lon="5.42355">
        <ele>541.5</ele>
        <time>2022-05-15T17:20:42Z</time>
      </trkpt>
      <trkpt lat="43.83985" lon="5.42334">
        <ele>541.5</ele>
        <time>2022-05-15T17:20:45Z</time>
      </trkpt>
      <trkpt lat="43.83981" lon="5.42327">
        <ele>541.9</ele>
        <time>2022-05-15T17:20:46Z</time>
      </trkpt>
      <trkpt lat="43.83975" lon="5.42317">
        <ele>542.6</ele>
        <time>2022-05-15T17:20:48Z</time>
      </trkpt>
      <trkpt lat="43.83972" lon="5.42312">
        <ele>542.9</ele>
        <time>2022-05-15T17:20:49Z</time>
      </trkpt>
      <trkpt lat="43.83959" lon="5.42298">
        <ele>545.7</ele>
        <time>2022-05-15T17:20:53Z</time>
      </trkpt>
      <trkpt lat="43.83949" lon="5.42291">
        <ele>548.4</ele>
        <time>2022-05-15T17:20:56Z</time>
      </trkpt>
      <trkpt lat="43.83948" lon="5.42289">
        <ele>548.5</ele>
        <time>2022-05-15T17:20:57Z</time>
      </trkpt>
      <trkpt lat="43.83939" lon="5.42267">
        <ele>549.8</ele>
        <time>2022-05-15T17:21:02Z</time>
      </trkpt>
      <trkpt lat="43.83935" lon="5.42257">
        <ele>550.5</ele>
        <time>2022-05-15T17:21:04Z</time>
      </trkpt>
      <trkpt lat="43.83932" lon="5.42246">
        <ele>550.5</ele>
        <time>2022-05-15T17:21:06Z</time>
      </trkpt>
      <trkpt lat="43.83925" lon="5.42223">
        <ele>549.8</ele>
        <time>2022-05-15T17:21:11Z</time>
      </trkpt>
      <trkpt lat="43.83916" lon="5.42201">
        <ele>549.5</ele>
        <time>2022-05-15T17:21:16Z</time>
      </trkpt>
      <trkpt lat="43.83905" lon="5.42177">
        <ele>548.4</ele>
        <time>2022-05-15T17:21:21Z</time>
      </trkpt>
      <trkpt lat="43.83898" lon="5.42157">
        <ele>547</ele>
        <time>2022-05-15T17:21:25Z</time>
      </trkpt>
      <trkpt lat="43.83895" lon="5.4215">
        <ele>546.5</ele>
        <time>2022-05-15T17:21:26Z</time>
      </trkpt>
      <trkpt lat="43.83881" lon="5.4211">
        <ele>544</ele>
        <time>2022-05-15T17:21:31Z</time>
      </trkpt>
      <trkpt lat="43.8387" lon="5.42077">
        <ele>542.4</ele>
        <time>2022-05-15T17:21:35Z</time>
      </trkpt>
      <trkpt lat="43.83869" lon="5.42068">
        <ele>540.8</ele>
        <time>2022-05-15T17:21:36Z</time>
      </trkpt>
      <trkpt lat="43.83865" lon="5.42043">
        <ele>536.6</ele>
        <time>2022-05-15T17:21:39Z</time>
      </trkpt>
      <trkpt lat="43.83861" lon="5.42026">
        <ele>534</ele>
        <time>2022-05-15T17:21:41Z</time>
      </trkpt>
      <trkpt lat="43.83856" lon="5.42007">
        <ele>530.9</ele>
        <time>2022-05-15T17:21:43Z</time>
      </trkpt>
      <trkpt lat="43.83852" lon="5.42">
        <ele>530.3</ele>
        <time>2022-05-15T17:21:44Z</time>
      </trkpt>
      <trkpt lat="43.8383" lon="5.41974">
        <ele>529.8</ele>
        <time>2022-05-15T17:21:48Z</time>
      </trkpt>
      <trkpt lat="43.83826" lon="5.41968">
        <ele>529.3</ele>
        <time>2022-05-15T17:21:49Z</time>
      </trkpt>
      <trkpt lat="43.83814" lon="5.41945">
        <ele>526.3</ele>
        <time>2022-05-15T17:21:52Z</time>
      </trkpt>
      <trkpt lat="43.8381" lon="5.41937">
        <ele>525.2</ele>
        <time>2022-05-15T17:21:53Z</time>
      </trkpt>
      <trkpt lat="43.83801" lon="5.41922">
        <ele>523.2</ele>
        <time>2022-05-15T17:21:55Z</time>
      </trkpt>
      <trkpt lat="43.83792" lon="5.41912">
        <ele>522.5</ele>
        <time>2022-05-15T17:21:57Z</time>
      </trkpt>
      <trkpt lat="43.8377" lon="5.41881">
        <ele>519.2</ele>
        <time>2022-05-15T17:22:02Z</time>
      </trkpt>
      <trkpt lat="43.83747" lon="5.4185">
        <ele>513.6</ele>
        <time>2022-05-15T17:22:07Z</time>
      </trkpt>
      <trkpt lat="43.83741" lon="5.41845">
        <ele>512.7</ele>
        <time>2022-05-15T17:22:08Z</time>
      </trkpt>
      <trkpt lat="43.83736" lon="5.41841">
        <ele>512.2</ele>
        <time>2022-05-15T17:22:09Z</time>
      </trkpt>
      <trkpt lat="43.83722" lon="5.41825">
        <ele>512.5</ele>
        <time>2022-05-15T17:22:12Z</time>
      </trkpt>
      <trkpt lat="43.83718" lon="5.41818">
        <ele>513.5</ele>
        <time>2022-05-15T17:22:13Z</time>
      </trkpt>
      <trkpt lat="43.83711" lon="5.41804">
        <ele>515.8</ele>
        <time>2022-05-15T17:22:15Z</time>
      </trkpt>
      <trkpt lat="43.83709" lon="5.4179">
        <ele>517.5</ele>
        <time>2022-05-15T17:22:17Z</time>
      </trkpt>
      <trkpt lat="43.83709" lon="5.41782">
        <ele>518.3</ele>
        <time>2022-05-15T17:22:18Z</time>
      </trkpt>
      <trkpt lat="43.83714" lon="5.41758">
        <ele>518.9</ele>
        <time>2022-05-15T17:22:21Z</time>
      </trkpt>
      <trkpt lat="43.83717" lon="5.4175">
        <ele>518.5</ele>
        <time>2022-05-15T17:22:22Z</time>
      </trkpt>
      <trkpt lat="43.8372" lon="5.41743">
        <ele>517.8</ele>
        <time>2022-05-15T17:22:23Z</time>
      </trkpt>
      <trkpt lat="43.83722" lon="5.41729">
        <ele>517.8</ele>
        <time>2022-05-15T17:22:25Z</time>
      </trkpt>
      <trkpt lat="43.8372" lon="5.41722">
        <ele>519</ele>
        <time>2022-05-15T17:22:27Z</time>
      </trkpt>
      <trkpt lat="43.83718" lon="5.41719">
        <ele>519.9</ele>
        <time>2022-05-15T17:22:28Z</time>
      </trkpt>
      <trkpt lat="43.83715" lon="5.41714">
        <ele>521.3</ele>
        <time>2022-05-15T17:22:30Z</time>
      </trkpt>
      <trkpt lat="43.83712" lon="5.41704">
        <ele>523.1</ele>
        <time>2022-05-15T17:22:32Z</time>
      </trkpt>
      <trkpt lat="43.83708" lon="5.41687">
        <ele>525.8</ele>
        <time>2022-05-15T17:22:35Z</time>
      </trkpt>
      <trkpt lat="43.83703" lon="5.41676">
        <ele>528.6</ele>
        <time>2022-05-15T17:22:37Z</time>
      </trkpt>
      <trkpt lat="43.83694" lon="5.41646">
        <ele>532.3</ele>
        <time>2022-05-15T17:22:42Z</time>
      </trkpt>
      <trkpt lat="43.83692" lon="5.41641">
        <ele>532.9</ele>
        <time>2022-05-15T17:22:43Z</time>
      </trkpt>
      <trkpt lat="43.83687" lon="5.41628">
        <ele>534.5</ele>
        <time>2022-05-15T17:22:45Z</time>
      </trkpt>
      <trkpt lat="43.83683" lon="5.41615">
        <ele>535.6</ele>
        <time>2022-05-15T17:22:47Z</time>
      </trkpt>
      <trkpt lat="43.8368" lon="5.41603">
        <ele>536.3</ele>
        <time>2022-05-15T17:22:49Z</time>
      </trkpt>
      <trkpt lat="43.83676" lon="5.4159">
        <ele>537.4</ele>
        <time>2022-05-15T17:22:51Z</time>
      </trkpt>
      <trkpt lat="43.83675" lon="5.41584">
        <ele>537.5</ele>
        <time>2022-05-15T17:22:52Z</time>
      </trkpt>
      <trkpt lat="43.83675" lon="5.41579">
        <ele>537.5</ele>
        <time>2022-05-15T17:22:53Z</time>
      </trkpt>
      <trkpt lat="43.83676" lon="5.41574">
        <ele>537</ele>
        <time>2022-05-15T17:22:54Z</time>
      </trkpt>
      <trkpt lat="43.83677" lon="5.41569">
        <ele>536.5</ele>
        <time>2022-05-15T17:22:55Z</time>
      </trkpt>
      <trkpt lat="43.83679" lon="5.41558">
        <ele>535.6</ele>
        <time>2022-05-15T17:22:57Z</time>
      </trkpt>
      <trkpt lat="43.83681" lon="5.41553">
        <ele>534.7</ele>
        <time>2022-05-15T17:22:58Z</time>
      </trkpt>
      <trkpt lat="43.83686" lon="5.41541">
        <ele>532.5</ele>
        <time>2022-05-15T17:23:00Z</time>
      </trkpt>
      <trkpt lat="43.83691" lon="5.41515">
        <ele>530.2</ele>
        <time>2022-05-15T17:23:03Z</time>
      </trkpt>
      <trkpt lat="43.83693" lon="5.41504">
        <ele>529.3</ele>
        <time>2022-05-15T17:23:04Z</time>
      </trkpt>
      <trkpt lat="43.83693" lon="5.41494">
        <ele>529.5</ele>
        <time>2022-05-15T17:23:05Z</time>
      </trkpt>
      <trkpt lat="43.83692" lon="5.41475">
        <ele>530.7</ele>
        <time>2022-05-15T17:23:07Z</time>
      </trkpt>
      <trkpt lat="43.83692" lon="5.41457">
        <ele>531.4</ele>
        <time>2022-05-15T17:23:09Z</time>
      </trkpt>
      <trkpt lat="43.83692" lon="5.41449">
        <ele>531.7</ele>
        <time>2022-05-15T17:23:10Z</time>
      </trkpt>
      <trkpt lat="43.83694" lon="5.41441">
        <ele>531.2</ele>
        <time>2022-05-15T17:23:11Z</time>
      </trkpt>
      <trkpt lat="43.83698" lon="5.41425">
        <ele>530.1</ele>
        <time>2022-05-15T17:23:13Z</time>
      </trkpt>
      <trkpt lat="43.83701" lon="5.41418">
        <ele>529.1</ele>
        <time>2022-05-15T17:23:14Z</time>
      </trkpt>
      <trkpt lat="43.83708" lon="5.41403">
        <ele>526.6</ele>
        <time>2022-05-15T17:23:16Z</time>
      </trkpt>
      <trkpt lat="43.83711" lon="5.41395">
        <ele>525.5</ele>
        <time>2022-05-15T17:23:17Z</time>
      </trkpt>
      <trkpt lat="43.83712" lon="5.41386">
        <ele>525.3</ele>
        <time>2022-05-15T17:23:18Z</time>
      </trkpt>
      <trkpt lat="43.83711" lon="5.4136">
        <ele>526.5</ele>
        <time>2022-05-15T17:23:21Z</time>
      </trkpt>
      <trkpt lat="43.83711" lon="5.41345">
        <ele>526.9</ele>
        <time>2022-05-15T17:23:23Z</time>
      </trkpt>
      <trkpt lat="43.83709" lon="5.41338">
        <ele>528</ele>
        <time>2022-05-15T17:23:24Z</time>
      </trkpt>
      <trkpt lat="43.83708" lon="5.41331">
        <ele>528.7</ele>
        <time>2022-05-15T17:23:25Z</time>
      </trkpt>
      <trkpt lat="43.83707" lon="5.41311">
        <ele>529.6</ele>
        <time>2022-05-15T17:23:28Z</time>
      </trkpt>
      <trkpt lat="43.83709" lon="5.41299">
        <ele>529</ele>
        <time>2022-05-15T17:23:30Z</time>
      </trkpt>
      <trkpt lat="43.83712" lon="5.41294">
        <ele>527.8</ele>
        <time>2022-05-15T17:23:31Z</time>
      </trkpt>
      <trkpt lat="43.83717" lon="5.41286">
        <ele>525.8</ele>
        <time>2022-05-15T17:23:33Z</time>
      </trkpt>
      <trkpt lat="43.83718" lon="5.4128">
        <ele>525.6</ele>
        <time>2022-05-15T17:23:34Z</time>
      </trkpt>
      <trkpt lat="43.83719" lon="5.41274">
        <ele>525.3</ele>
        <time>2022-05-15T17:23:35Z</time>
      </trkpt>
      <trkpt lat="43.83723" lon="5.41264">
        <ele>523.9</ele>
        <time>2022-05-15T17:23:37Z</time>
      </trkpt>
      <trkpt lat="43.83726" lon="5.41261">
        <ele>522.7</ele>
        <time>2022-05-15T17:23:38Z</time>
      </trkpt>
      <trkpt lat="43.83729" lon="5.41255">
        <ele>521.6</ele>
        <time>2022-05-15T17:23:40Z</time>
      </trkpt>
      <trkpt lat="43.83726" lon="5.41248">
        <ele>523.1</ele>
        <time>2022-05-15T17:23:44Z</time>
      </trkpt>
      <trkpt lat="43.83729" lon="5.41243">
        <ele>522</ele>
        <time>2022-05-15T17:24:27Z</time>
      </trkpt>
      <trkpt lat="43.83733" lon="5.41238">
        <ele>520.5</ele>
        <time>2022-05-15T17:24:30Z</time>
      </trkpt>
      <trkpt lat="43.83733" lon="5.41233">
        <ele>520.6</ele>
        <time>2022-05-15T17:24:32Z</time>
      </trkpt>
      <trkpt lat="43.83734" lon="5.41228">
        <ele>520.4</ele>
        <time>2022-05-15T17:24:34Z</time>
      </trkpt>
      <trkpt lat="43.83739" lon="5.41214">
        <ele>518.7</ele>
        <time>2022-05-15T17:24:38Z</time>
      </trkpt>
      <trkpt lat="43.83743" lon="5.41202">
        <ele>517.5</ele>
        <time>2022-05-15T17:24:41Z</time>
      </trkpt>
      <trkpt lat="43.83744" lon="5.41195">
        <ele>517.4</ele>
        <time>2022-05-15T17:24:44Z</time>
      </trkpt>
      <trkpt lat="43.83744" lon="5.41193">
        <ele>517.4</ele>
        <time>2022-05-15T17:24:45Z</time>
      </trkpt>
      <trkpt lat="43.83746" lon="5.41187">
        <ele>516.8</ele>
        <time>2022-05-15T17:24:47Z</time>
      </trkpt>
      <trkpt lat="43.83748" lon="5.41181">
        <ele>516.3</ele>
        <time>2022-05-15T17:24:49Z</time>
      </trkpt>
      <trkpt lat="43.83748" lon="5.41177">
        <ele>516.4</ele>
        <time>2022-05-15T17:24:50Z</time>
      </trkpt>
      <trkpt lat="43.83749" lon="5.4117">
        <ele>516.3</ele>
        <time>2022-05-15T17:24:52Z</time>
      </trkpt>
      <trkpt lat="43.83749" lon="5.41153">
        <ele>516.1</ele>
        <time>2022-05-15T17:24:56Z</time>
      </trkpt>
      <trkpt lat="43.8375" lon="5.41151">
        <ele>515.6</ele>
        <time>2022-05-15T17:24:57Z</time>
      </trkpt>
      <trkpt lat="43.83752" lon="5.41146">
        <ele>515.1</ele>
        <time>2022-05-15T17:24:59Z</time>
      </trkpt>
      <trkpt lat="43.83755" lon="5.4114">
        <ele>514.3</ele>
        <time>2022-05-15T17:25:01Z</time>
      </trkpt>
      <trkpt lat="43.83755" lon="5.41136">
        <ele>514.2</ele>
        <time>2022-05-15T17:25:02Z</time>
      </trkpt>
      <trkpt lat="43.83753" lon="5.41127">
        <ele>514.4</ele>
        <time>2022-05-15T17:25:04Z</time>
      </trkpt>
      <trkpt lat="43.83752" lon="5.41121">
        <ele>514.5</ele>
        <time>2022-05-15T17:25:05Z</time>
      </trkpt>
      <trkpt lat="43.8375" lon="5.41115">
        <ele>514.8</ele>
        <time>2022-05-15T17:25:06Z</time>
      </trkpt>
      <trkpt lat="43.83746" lon="5.41107">
        <ele>516.1</ele>
        <time>2022-05-15T17:25:07Z</time>
      </trkpt>
      <trkpt lat="43.83746" lon="5.411">
        <ele>516</ele>
        <time>2022-05-15T17:25:08Z</time>
      </trkpt>
      <trkpt lat="43.83744" lon="5.41083">
        <ele>516.4</ele>
        <time>2022-05-15T17:25:10Z</time>
      </trkpt>
      <trkpt lat="43.83738" lon="5.41063">
        <ele>519</ele>
        <time>2022-05-15T17:25:12Z</time>
      </trkpt>
      <trkpt lat="43.83737" lon="5.41052">
        <ele>519.6</ele>
        <time>2022-05-15T17:25:13Z</time>
      </trkpt>
      <trkpt lat="43.83737" lon="5.41042">
        <ele>519.7</ele>
        <time>2022-05-15T17:25:14Z</time>
      </trkpt>
      <trkpt lat="43.83739" lon="5.41025">
        <ele>519.1</ele>
        <time>2022-05-15T17:25:16Z</time>
      </trkpt>
      <trkpt lat="43.83743" lon="5.41015">
        <ele>517.7</ele>
        <time>2022-05-15T17:25:18Z</time>
      </trkpt>
      <trkpt lat="43.83742" lon="5.41009">
        <ele>518.1</ele>
        <time>2022-05-15T17:25:19Z</time>
      </trkpt>
      <trkpt lat="43.83738" lon="5.40992">
        <ele>519.7</ele>
        <time>2022-05-15T17:25:21Z</time>
      </trkpt>
      <trkpt lat="43.83737" lon="5.40982">
        <ele>519.8</ele>
        <time>2022-05-15T17:25:22Z</time>
      </trkpt>
      <trkpt lat="43.83738" lon="5.40966">
        <ele>519</ele>
        <time>2022-05-15T17:25:24Z</time>
      </trkpt>
      <trkpt lat="43.8374" lon="5.40952">
        <ele>517.9</ele>
        <time>2022-05-15T17:25:26Z</time>
      </trkpt>
      <trkpt lat="43.83741" lon="5.40947">
        <ele>517.3</ele>
        <time>2022-05-15T17:25:27Z</time>
      </trkpt>
      <trkpt lat="43.83743" lon="5.40933">
        <ele>516.2</ele>
        <time>2022-05-15T17:25:29Z</time>
      </trkpt>
      <trkpt lat="43.83742" lon="5.40924">
        <ele>516.4</ele>
        <time>2022-05-15T17:25:30Z</time>
      </trkpt>
      <trkpt lat="43.83741" lon="5.40915">
        <ele>516.3</ele>
        <time>2022-05-15T17:25:31Z</time>
      </trkpt>
      <trkpt lat="43.8374" lon="5.40898">
        <ele>514.3</ele>
        <time>2022-05-15T17:25:33Z</time>
      </trkpt>
      <trkpt lat="43.83739" lon="5.4089">
        <ele>513.6</ele>
        <time>2022-05-15T17:25:34Z</time>
      </trkpt>
      <trkpt lat="43.83736" lon="5.4088">
        <ele>513.3</ele>
        <time>2022-05-15T17:25:35Z</time>
      </trkpt>
      <trkpt lat="43.83734" lon="5.4087">
        <ele>512.7</ele>
        <time>2022-05-15T17:25:36Z</time>
      </trkpt>
      <trkpt lat="43.83734" lon="5.40863">
        <ele>511.7</ele>
        <time>2022-05-15T17:25:37Z</time>
      </trkpt>
      <trkpt lat="43.83734" lon="5.40855">
        <ele>510.6</ele>
        <time>2022-05-15T17:25:38Z</time>
      </trkpt>
      <trkpt lat="43.8373" lon="5.40847">
        <ele>511.1</ele>
        <time>2022-05-15T17:25:39Z</time>
      </trkpt>
      <trkpt lat="43.83722" lon="5.40831">
        <ele>512</ele>
        <time>2022-05-15T17:25:41Z</time>
      </trkpt>
      <trkpt lat="43.8371" lon="5.40807">
        <ele>512.6</ele>
        <time>2022-05-15T17:25:44Z</time>
      </trkpt>
      <trkpt lat="43.8371" lon="5.40804">
        <ele>512.1</ele>
        <time>2022-05-15T17:25:45Z</time>
      </trkpt>
      <trkpt lat="43.83709" lon="5.40791">
        <ele>510.1</ele>
        <time>2022-05-15T17:25:48Z</time>
      </trkpt>
      <trkpt lat="43.83709" lon="5.40786">
        <ele>509.3</ele>
        <time>2022-05-15T17:25:49Z</time>
      </trkpt>
      <trkpt lat="43.83707" lon="5.40775">
        <ele>507.9</ele>
        <time>2022-05-15T17:25:51Z</time>
      </trkpt>
      <trkpt lat="43.83703" lon="5.40762">
        <ele>506.8</ele>
        <time>2022-05-15T17:25:53Z</time>
      </trkpt>
      <trkpt lat="43.83701" lon="5.40746">
        <ele>504.6</ele>
        <time>2022-05-15T17:25:56Z</time>
      </trkpt>
      <trkpt lat="43.83701" lon="5.40741">
        <ele>504</ele>
        <time>2022-05-15T17:25:57Z</time>
      </trkpt>
      <trkpt lat="43.83697" lon="5.40727">
        <ele>503.3</ele>
        <time>2022-05-15T17:26:00Z</time>
      </trkpt>
      <trkpt lat="43.8369" lon="5.40703">
        <ele>501.8</ele>
        <time>2022-05-15T17:26:04Z</time>
      </trkpt>
      <trkpt lat="43.83687" lon="5.40698">
        <ele>501.8</ele>
        <time>2022-05-15T17:26:05Z</time>
      </trkpt>
      <trkpt lat="43.83684" lon="5.40692">
        <ele>501.6</ele>
        <time>2022-05-15T17:26:06Z</time>
      </trkpt>
      <trkpt lat="43.83682" lon="5.40678">
        <ele>499.9</ele>
        <time>2022-05-15T17:26:08Z</time>
      </trkpt>
      <trkpt lat="43.8368" lon="5.40671">
        <ele>499.3</ele>
        <time>2022-05-15T17:26:09Z</time>
      </trkpt>
      <trkpt lat="43.83677" lon="5.40655">
        <ele>497.3</ele>
        <time>2022-05-15T17:26:11Z</time>
      </trkpt>
      <trkpt lat="43.83674" lon="5.40639">
        <ele>495.1</ele>
        <time>2022-05-15T17:26:13Z</time>
      </trkpt>
      <trkpt lat="43.83668" lon="5.40623">
        <ele>493</ele>
        <time>2022-05-15T17:26:15Z</time>
      </trkpt>
      <trkpt lat="43.83664" lon="5.40609">
        <ele>490.5</ele>
        <time>2022-05-15T17:26:17Z</time>
      </trkpt>
      <trkpt lat="43.83662" lon="5.40603">
        <ele>489.3</ele>
        <time>2022-05-15T17:26:18Z</time>
      </trkpt>
      <trkpt lat="43.83653" lon="5.4059">
        <ele>486.6</ele>
        <time>2022-05-15T17:26:21Z</time>
      </trkpt>
      <trkpt lat="43.83635" lon="5.40566">
        <ele>483.7</ele>
        <time>2022-05-15T17:26:25Z</time>
      </trkpt>
      <trkpt lat="43.83616" lon="5.40539">
        <ele>481.7</ele>
        <time>2022-05-15T17:26:29Z</time>
      </trkpt>
      <trkpt lat="43.83604" lon="5.40517">
        <ele>480.6</ele>
        <time>2022-05-15T17:26:32Z</time>
      </trkpt>
      <trkpt lat="43.83599" lon="5.40511">
        <ele>480.3</ele>
        <time>2022-05-15T17:26:33Z</time>
      </trkpt>
      <trkpt lat="43.83594" lon="5.40504">
        <ele>480</ele>
        <time>2022-05-15T17:26:34Z</time>
      </trkpt>
      <trkpt lat="43.83582" lon="5.40484">
        <ele>479.3</ele>
        <time>2022-05-15T17:26:37Z</time>
      </trkpt>
      <trkpt lat="43.83579" lon="5.40473">
        <ele>479.3</ele>
        <time>2022-05-15T17:26:39Z</time>
      </trkpt>
      <trkpt lat="43.83578" lon="5.40469">
        <ele>479.2</ele>
        <time>2022-05-15T17:26:41Z</time>
      </trkpt>
      <trkpt lat="43.83576" lon="5.40466">
        <ele>479.4</ele>
        <time>2022-05-15T17:26:42Z</time>
      </trkpt>
      <trkpt lat="43.83567" lon="5.40458">
        <ele>480.6</ele>
        <time>2022-05-15T17:26:45Z</time>
      </trkpt>
      <trkpt lat="43.83559" lon="5.4045">
        <ele>481.4</ele>
        <time>2022-05-15T17:26:48Z</time>
      </trkpt>
      <trkpt lat="43.83557" lon="5.40448">
        <ele>481.5</ele>
        <time>2022-05-15T17:26:54Z</time>
      </trkpt>
      <trkpt lat="43.83554" lon="5.40442">
        <ele>481.5</ele>
        <time>2022-05-15T17:26:59Z</time>
      </trkpt>
      <trkpt lat="43.83553" lon="5.40438">
        <ele>481.2</ele>
        <time>2022-05-15T17:27:01Z</time>
      </trkpt>
      <trkpt lat="43.8355" lon="5.40434">
        <ele>481.3</ele>
        <time>2022-05-15T17:27:03Z</time>
      </trkpt>
      <trkpt lat="43.83545" lon="5.40426">
        <ele>481.1</ele>
        <time>2022-05-15T17:27:07Z</time>
      </trkpt>
      <trkpt lat="43.83544" lon="5.40424">
        <ele>481</ele>
        <time>2022-05-15T17:27:15Z</time>
      </trkpt>
      <trkpt lat="43.83542" lon="5.40422">
        <ele>481.1</ele>
        <time>2022-05-15T17:27:17Z</time>
      </trkpt>
      <trkpt lat="43.83542" lon="5.40421">
        <ele>481</ele>
        <time>2022-05-15T17:27:19Z</time>
      </trkpt>
      <trkpt lat="43.83542" lon="5.40424">
        <ele>481.3</ele>
        <time>2022-05-15T17:27:23Z</time>
      </trkpt>
      <trkpt lat="43.83544" lon="5.40428">
        <ele>481.5</ele>
        <time>2022-05-15T17:27:25Z</time>
      </trkpt>
      <trkpt lat="43.83546" lon="5.40434">
        <ele>481.9</ele>
        <time>2022-05-15T17:27:30Z</time>
      </trkpt>
      <trkpt lat="43.83546" lon="5.40435">
        <ele>482</ele>
        <time>2022-05-15T17:27:31Z</time>
      </trkpt>
      <trkpt lat="43.83543" lon="5.40438">
        <ele>482.8</ele>
        <time>2022-05-15T17:27:37Z</time>
      </trkpt>
      <trkpt lat="43.83542" lon="5.40439">
        <ele>483.1</ele>
        <time>2022-05-15T17:27:38Z</time>
      </trkpt>
      <trkpt lat="43.83538" lon="5.40439">
        <ele>483.8</ele>
        <time>2022-05-15T17:27:40Z</time>
      </trkpt>
      <trkpt lat="43.83538" lon="5.4044">
        <ele>483.9</ele>
        <time>2022-05-15T17:27:42Z</time>
      </trkpt>
      <trkpt lat="43.83536" lon="5.4044">
        <ele>484.2</ele>
        <time>2022-05-15T17:28:11Z</time>
      </trkpt>
      <trkpt lat="43.83534" lon="5.40438">
        <ele>484.3</ele>
        <time>2022-05-15T17:28:13Z</time>
      </trkpt>
      <trkpt lat="43.83533" lon="5.40437">
        <ele>484.3</ele>
        <time>2022-05-15T17:28:14Z</time>
      </trkpt>
      <trkpt lat="43.83528" lon="5.40434">
        <ele>484.7</ele>
        <time>2022-05-15T17:28:16Z</time>
      </trkpt>
      <trkpt lat="43.83521" lon="5.40436">
        <ele>486.1</ele>
        <time>2022-05-15T17:28:18Z</time>
      </trkpt>
      <trkpt lat="43.83516" lon="5.40436">
        <ele>486.9</ele>
        <time>2022-05-15T17:28:19Z</time>
      </trkpt>
      <trkpt lat="43.83498" lon="5.40433">
        <ele>489.7</ele>
        <time>2022-05-15T17:28:23Z</time>
      </trkpt>
      <trkpt lat="43.8348" lon="5.4043">
        <ele>495.8</ele>
        <time>2022-05-15T17:28:28Z</time>
      </trkpt>
      <trkpt lat="43.83465" lon="5.40426">
        <ele>500.5</ele>
        <time>2022-05-15T17:28:32Z</time>
      </trkpt>
      <trkpt lat="43.83461" lon="5.40425">
        <ele>501.7</ele>
        <time>2022-05-15T17:28:33Z</time>
      </trkpt>
      <trkpt lat="43.83453" lon="5.40421">
        <ele>503.8</ele>
        <time>2022-05-15T17:28:35Z</time>
      </trkpt>
      <trkpt lat="43.83445" lon="5.40415">
        <ele>505.5</ele>
        <time>2022-05-15T17:28:38Z</time>
      </trkpt>
      <trkpt lat="43.83441" lon="5.4041">
        <ele>506.1</ele>
        <time>2022-05-15T17:28:39Z</time>
      </trkpt>
      <trkpt lat="43.83432" lon="5.40401">
        <ele>507.6</ele>
        <time>2022-05-15T17:28:41Z</time>
      </trkpt>
      <trkpt lat="43.83424" lon="5.4039">
        <ele>508.1</ele>
        <time>2022-05-15T17:28:43Z</time>
      </trkpt>
      <trkpt lat="43.83416" lon="5.40373">
        <ele>507.3</ele>
        <time>2022-05-15T17:28:45Z</time>
      </trkpt>
      <trkpt lat="43.83413" lon="5.40365">
        <ele>506.8</ele>
        <time>2022-05-15T17:28:46Z</time>
      </trkpt>
      <trkpt lat="43.8341" lon="5.40357">
        <ele>506.3</ele>
        <time>2022-05-15T17:28:47Z</time>
      </trkpt>
      <trkpt lat="43.83403" lon="5.4034">
        <ele>505.3</ele>
        <time>2022-05-15T17:28:49Z</time>
      </trkpt>
      <trkpt lat="43.83399" lon="5.40319">
        <ele>503</ele>
        <time>2022-05-15T17:28:51Z</time>
      </trkpt>
      <trkpt lat="43.83397" lon="5.40307">
        <ele>501.7</ele>
        <time>2022-05-15T17:28:52Z</time>
      </trkpt>
      <trkpt lat="43.83393" lon="5.40287">
        <ele>499.8</ele>
        <time>2022-05-15T17:28:54Z</time>
      </trkpt>
      <trkpt lat="43.8339" lon="5.40279">
        <ele>499.5</ele>
        <time>2022-05-15T17:28:55Z</time>
      </trkpt>
      <trkpt lat="43.83387" lon="5.4027">
        <ele>499</ele>
        <time>2022-05-15T17:28:56Z</time>
      </trkpt>
      <trkpt lat="43.83384" lon="5.40261">
        <ele>498.5</ele>
        <time>2022-05-15T17:28:57Z</time>
      </trkpt>
      <trkpt lat="43.83374" lon="5.40245">
        <ele>499.2</ele>
        <time>2022-05-15T17:28:59Z</time>
      </trkpt>
      <trkpt lat="43.83368" lon="5.40229">
        <ele>499.2</ele>
        <time>2022-05-15T17:29:01Z</time>
      </trkpt>
      <trkpt lat="43.83363" lon="5.40206">
        <ele>498</ele>
        <time>2022-05-15T17:29:04Z</time>
      </trkpt>
      <trkpt lat="43.83361" lon="5.40199">
        <ele>497.7</ele>
        <time>2022-05-15T17:29:05Z</time>
      </trkpt>
      <trkpt lat="43.83355" lon="5.40181">
        <ele>497.3</ele>
        <time>2022-05-15T17:29:07Z</time>
      </trkpt>
      <trkpt lat="43.83352" lon="5.40171">
        <ele>496.9</ele>
        <time>2022-05-15T17:29:08Z</time>
      </trkpt>
      <trkpt lat="43.83348" lon="5.40153">
        <ele>497.2</ele>
        <time>2022-05-15T17:29:10Z</time>
      </trkpt>
      <trkpt lat="43.83346" lon="5.40144">
        <ele>497.5</ele>
        <time>2022-05-15T17:29:11Z</time>
      </trkpt>
      <trkpt lat="43.83345" lon="5.40136">
        <ele>497.6</ele>
        <time>2022-05-15T17:29:12Z</time>
      </trkpt>
      <trkpt lat="43.83346" lon="5.4013">
        <ele>497.1</ele>
        <time>2022-05-15T17:29:13Z</time>
      </trkpt>
      <trkpt lat="43.83349" lon="5.40125">
        <ele>496.2</ele>
        <time>2022-05-15T17:29:14Z</time>
      </trkpt>
      <trkpt lat="43.83355" lon="5.40116">
        <ele>494.3</ele>
        <time>2022-05-15T17:29:16Z</time>
      </trkpt>
      <trkpt lat="43.83358" lon="5.40109">
        <ele>493.3</ele>
        <time>2022-05-15T17:29:18Z</time>
      </trkpt>
      <trkpt lat="43.83358" lon="5.40103">
        <ele>493.2</ele>
        <time>2022-05-15T17:29:19Z</time>
      </trkpt>
      <trkpt lat="43.83357" lon="5.40097">
        <ele>493.3</ele>
        <time>2022-05-15T17:29:20Z</time>
      </trkpt>
      <trkpt lat="43.83352" lon="5.40083">
        <ele>494.3</ele>
        <time>2022-05-15T17:29:22Z</time>
      </trkpt>
      <trkpt lat="43.83347" lon="5.40074">
        <ele>495</ele>
        <time>2022-05-15T17:29:23Z</time>
      </trkpt>
      <trkpt lat="43.83331" lon="5.40047">
        <ele>497.3</ele>
        <time>2022-05-15T17:29:26Z</time>
      </trkpt>
      <trkpt lat="43.83322" lon="5.40031">
        <ele>499.5</ele>
        <time>2022-05-15T17:29:28Z</time>
      </trkpt>
      <trkpt lat="43.83314" lon="5.40017">
        <ele>501.5</ele>
        <time>2022-05-15T17:29:30Z</time>
      </trkpt>
      <trkpt lat="43.83306" lon="5.40003">
        <ele>503.4</ele>
        <time>2022-05-15T17:29:33Z</time>
      </trkpt>
      <trkpt lat="43.83307" lon="5.39999">
        <ele>502.6</ele>
        <time>2022-05-15T17:29:35Z</time>
      </trkpt>
      <trkpt lat="43.83297" lon="5.39988">
        <ele>504.4</ele>
        <time>2022-05-15T17:29:38Z</time>
      </trkpt>
      <trkpt lat="43.83295" lon="5.39986">
        <ele>504.8</ele>
        <time>2022-05-15T17:29:44Z</time>
      </trkpt>
      <trkpt lat="43.83294" lon="5.39985">
        <ele>504.9</ele>
        <time>2022-05-15T17:30:04Z</time>
      </trkpt>
      <trkpt lat="43.83295" lon="5.39978">
        <ele>503.3</ele>
        <time>2022-05-15T17:30:35Z</time>
      </trkpt>
      <trkpt lat="43.83298" lon="5.39967">
        <ele>500.3</ele>
        <time>2022-05-15T17:30:39Z</time>
      </trkpt>
      <trkpt lat="43.83296" lon="5.39951">
        <ele>498.1</ele>
        <time>2022-05-15T17:30:45Z</time>
      </trkpt>
      <trkpt lat="43.83295" lon="5.39948">
        <ele>497.9</ele>
        <time>2022-05-15T17:30:46Z</time>
      </trkpt>
      <trkpt lat="43.83297" lon="5.39939">
        <ele>495.6</ele>
        <time>2022-05-15T17:30:49Z</time>
      </trkpt>
      <trkpt lat="43.83297" lon="5.39935">
        <ele>494.9</ele>
        <time>2022-05-15T17:30:50Z</time>
      </trkpt>
      <trkpt lat="43.83293" lon="5.39924">
        <ele>494.4</ele>
        <time>2022-05-15T17:30:52Z</time>
      </trkpt>
      <trkpt lat="43.83291" lon="5.39914">
        <ele>493.3</ele>
        <time>2022-05-15T17:30:54Z</time>
      </trkpt>
      <trkpt lat="43.83289" lon="5.39902">
        <ele>492.1</ele>
        <time>2022-05-15T17:30:56Z</time>
      </trkpt>
      <trkpt lat="43.83286" lon="5.39895">
        <ele>491.9</ele>
        <time>2022-05-15T17:30:57Z</time>
      </trkpt>
      <trkpt lat="43.83278" lon="5.39879">
        <ele>491.5</ele>
        <time>2022-05-15T17:31:00Z</time>
      </trkpt>
      <trkpt lat="43.83268" lon="5.3987">
        <ele>492.5</ele>
        <time>2022-05-15T17:31:02Z</time>
      </trkpt>
      <trkpt lat="43.8326" lon="5.39857">
        <ele>491.9</ele>
        <time>2022-05-15T17:31:06Z</time>
      </trkpt>
      <trkpt lat="43.83255" lon="5.3985">
        <ele>491.6</ele>
        <time>2022-05-15T17:31:08Z</time>
      </trkpt>
      <trkpt lat="43.83254" lon="5.39843">
        <ele>490.3</ele>
        <time>2022-05-15T17:31:10Z</time>
      </trkpt>
      <trkpt lat="43.83245" lon="5.39825">
        <ele>488.4</ele>
        <time>2022-05-15T17:31:14Z</time>
      </trkpt>
      <trkpt lat="43.83243" lon="5.39807">
        <ele>486.3</ele>
        <time>2022-05-15T17:31:18Z</time>
      </trkpt>
      <trkpt lat="43.83242" lon="5.3979">
        <ele>484.3</ele>
        <time>2022-05-15T17:31:23Z</time>
      </trkpt>
      <trkpt lat="43.83243" lon="5.39784">
        <ele>483.3</ele>
        <time>2022-05-15T17:31:25Z</time>
      </trkpt>
      <trkpt lat="43.83241" lon="5.39776">
        <ele>482.7</ele>
        <time>2022-05-15T17:31:27Z</time>
      </trkpt>
      <trkpt lat="43.83239" lon="5.39773">
        <ele>482.8</ele>
        <time>2022-05-15T17:31:28Z</time>
      </trkpt>
      <trkpt lat="43.83236" lon="5.39767">
        <ele>482.8</ele>
        <time>2022-05-15T17:31:29Z</time>
      </trkpt>
      <trkpt lat="43.83224" lon="5.39749">
        <ele>484.2</ele>
        <time>2022-05-15T17:31:33Z</time>
      </trkpt>
      <trkpt lat="43.83221" lon="5.39747">
        <ele>485.2</ele>
        <time>2022-05-15T17:31:34Z</time>
      </trkpt>
      <trkpt lat="43.83211" lon="5.39742">
        <ele>488.2</ele>
        <time>2022-05-15T17:31:36Z</time>
      </trkpt>
      <trkpt lat="43.83202" lon="5.3974">
        <ele>490.9</ele>
        <time>2022-05-15T17:31:38Z</time>
      </trkpt>
      <trkpt lat="43.83198" lon="5.39739">
        <ele>492.1</ele>
        <time>2022-05-15T17:31:39Z</time>
      </trkpt>
      <trkpt lat="43.83195" lon="5.39737">
        <ele>493.1</ele>
        <time>2022-05-15T17:31:41Z</time>
      </trkpt>
      <trkpt lat="43.83195" lon="5.39734">
        <ele>493.3</ele>
        <time>2022-05-15T17:31:42Z</time>
      </trkpt>
      <trkpt lat="43.83194" lon="5.39726">
        <ele>494.2</ele>
        <time>2022-05-15T17:31:44Z</time>
      </trkpt>
      <trkpt lat="43.83195" lon="5.3972">
        <ele>494.3</ele>
        <time>2022-05-15T17:31:46Z</time>
      </trkpt>
      <trkpt lat="43.83196" lon="5.39716">
        <ele>494.3</ele>
        <time>2022-05-15T17:31:49Z</time>
      </trkpt>
      <trkpt lat="43.83195" lon="5.39709">
        <ele>495.1</ele>
        <time>2022-05-15T17:31:51Z</time>
      </trkpt>
      <trkpt lat="43.83196" lon="5.39701">
        <ele>495.4</ele>
        <time>2022-05-15T17:31:53Z</time>
      </trkpt>
      <trkpt lat="43.83198" lon="5.39695">
        <ele>495.1</ele>
        <time>2022-05-15T17:31:55Z</time>
      </trkpt>
      <trkpt lat="43.83201" lon="5.39687">
        <ele>494.7</ele>
        <time>2022-05-15T17:31:57Z</time>
      </trkpt>
      <trkpt lat="43.83206" lon="5.39672">
        <ele>494</ele>
        <time>2022-05-15T17:32:00Z</time>
      </trkpt>
      <trkpt lat="43.83209" lon="5.39666">
        <ele>493.1</ele>
        <time>2022-05-15T17:32:01Z</time>
      </trkpt>
      <trkpt lat="43.83215" lon="5.3966">
        <ele>490</ele>
        <time>2022-05-15T17:32:03Z</time>
      </trkpt>
      <trkpt lat="43.83219" lon="5.39657">
        <ele>488.1</ele>
        <time>2022-05-15T17:32:05Z</time>
      </trkpt>
      <trkpt lat="43.8322" lon="5.39654">
        <ele>487.2</ele>
        <time>2022-05-15T17:32:06Z</time>
      </trkpt>
      <trkpt lat="43.83217" lon="5.39647">
        <ele>486.9</ele>
        <time>2022-05-15T17:32:07Z</time>
      </trkpt>
      <trkpt lat="43.83213" lon="5.3964">
        <ele>486.9</ele>
        <time>2022-05-15T17:32:08Z</time>
      </trkpt>
      <trkpt lat="43.83204" lon="5.39622">
        <ele>486.2</ele>
        <time>2022-05-15T17:32:11Z</time>
      </trkpt>
      <trkpt lat="43.83201" lon="5.39619">
        <ele>486.5</ele>
        <time>2022-05-15T17:32:12Z</time>
      </trkpt>
      <trkpt lat="43.83199" lon="5.39616">
        <ele>486.5</ele>
        <time>2022-05-15T17:32:13Z</time>
      </trkpt>
      <trkpt lat="43.83192" lon="5.39606">
        <ele>486.4</ele>
        <time>2022-05-15T17:32:16Z</time>
      </trkpt>
      <trkpt lat="43.83179" lon="5.39596">
        <ele>487.8</ele>
        <time>2022-05-15T17:32:21Z</time>
      </trkpt>
      <trkpt lat="43.83177" lon="5.39593">
        <ele>487.6</ele>
        <time>2022-05-15T17:33:47Z</time>
      </trkpt>
      <trkpt lat="43.83178" lon="5.39584">
        <ele>485.3</ele>
        <time>2022-05-15T17:33:51Z</time>
      </trkpt>
      <trkpt lat="43.83168" lon="5.39577">
        <ele>486</ele>
        <time>2022-05-15T17:33:56Z</time>
      </trkpt>
      <trkpt lat="43.8316" lon="5.39575">
        <ele>487.2</ele>
        <time>2022-05-15T17:33:58Z</time>
      </trkpt>
      <trkpt lat="43.83147" lon="5.3957">
        <ele>488.6</ele>
        <time>2022-05-15T17:34:01Z</time>
      </trkpt>
      <trkpt lat="43.83134" lon="5.39567">
        <ele>490.4</ele>
        <time>2022-05-15T17:34:05Z</time>
      </trkpt>
      <trkpt lat="43.83115" lon="5.39548">
        <ele>488.8</ele>
        <time>2022-05-15T17:34:09Z</time>
      </trkpt>
      <trkpt lat="43.83109" lon="5.39538">
        <ele>487</ele>
        <time>2022-05-15T17:34:13Z</time>
      </trkpt>
      <trkpt lat="43.83097" lon="5.39515">
        <ele>482.3</ele>
        <time>2022-05-15T17:34:16Z</time>
      </trkpt>
      <trkpt lat="43.83088" lon="5.395">
        <ele>479.2</ele>
        <time>2022-05-15T17:34:19Z</time>
      </trkpt>
      <trkpt lat="43.83063" lon="5.39479">
        <ele>481.6</ele>
        <time>2022-05-15T17:34:22Z</time>
      </trkpt>
      <trkpt lat="43.8305" lon="5.39464">
        <ele>482.3</ele>
        <time>2022-05-15T17:34:24Z</time>
      </trkpt>
      <trkpt lat="43.83043" lon="5.3945">
        <ele>481.4</ele>
        <time>2022-05-15T17:34:26Z</time>
      </trkpt>
      <trkpt lat="43.8303" lon="5.39428">
        <ele>480.6</ele>
        <time>2022-05-15T17:34:29Z</time>
      </trkpt>
      <trkpt lat="43.83027" lon="5.39422">
        <ele>480.2</ele>
        <time>2022-05-15T17:34:30Z</time>
      </trkpt>
      <trkpt lat="43.83023" lon="5.39417">
        <ele>480.3</ele>
        <time>2022-05-15T17:34:31Z</time>
      </trkpt>
      <trkpt lat="43.8301" lon="5.39399">
        <ele>480.7</ele>
        <time>2022-05-15T17:34:34Z</time>
      </trkpt>
      <trkpt lat="43.83006" lon="5.39394">
        <ele>480.6</ele>
        <time>2022-05-15T17:34:35Z</time>
      </trkpt>
      <trkpt lat="43.8299" lon="5.39374">
        <ele>480.3</ele>
        <time>2022-05-15T17:34:38Z</time>
      </trkpt>
      <trkpt lat="43.82979" lon="5.3936">
        <ele>480.8</ele>
        <time>2022-05-15T17:34:40Z</time>
      </trkpt>
      <trkpt lat="43.82967" lon="5.39349">
        <ele>482.5</ele>
        <time>2022-05-15T17:34:42Z</time>
      </trkpt>
      <trkpt lat="43.82962" lon="5.39344">
        <ele>483.2</ele>
        <time>2022-05-15T17:34:43Z</time>
      </trkpt>
      <trkpt lat="43.82944" lon="5.39331">
        <ele>486.9</ele>
        <time>2022-05-15T17:34:47Z</time>
      </trkpt>
      <trkpt lat="43.82939" lon="5.39327">
        <ele>487.7</ele>
        <time>2022-05-15T17:34:50Z</time>
      </trkpt>
      <trkpt lat="43.82926" lon="5.39312">
        <ele>487.8</ele>
        <time>2022-05-15T17:34:56Z</time>
      </trkpt>
      <trkpt lat="43.82923" lon="5.3931">
        <ele>488.2</ele>
        <time>2022-05-15T17:35:01Z</time>
      </trkpt>
      <trkpt lat="43.82909" lon="5.39296">
        <ele>486.5</ele>
        <time>2022-05-15T17:35:03Z</time>
      </trkpt>
      <trkpt lat="43.82902" lon="5.39288">
        <ele>485</ele>
        <time>2022-05-15T17:35:06Z</time>
      </trkpt>
      <trkpt lat="43.82902" lon="5.39285">
        <ele>484.2</ele>
        <time>2022-05-15T17:35:11Z</time>
      </trkpt>
      <trkpt lat="43.82904" lon="5.39278">
        <ele>481.7</ele>
        <time>2022-05-15T17:35:15Z</time>
      </trkpt>
      <trkpt lat="43.82905" lon="5.39274">
        <ele>480.3</ele>
        <time>2022-05-15T17:35:16Z</time>
      </trkpt>
      <trkpt lat="43.82902" lon="5.39258">
        <ele>476.2</ele>
        <time>2022-05-15T17:35:19Z</time>
      </trkpt>
      <trkpt lat="43.82885" lon="5.39237">
        <ele>475.5</ele>
        <time>2022-05-15T17:35:23Z</time>
      </trkpt>
      <trkpt lat="43.8288" lon="5.39231">
        <ele>475.5</ele>
        <time>2022-05-15T17:35:26Z</time>
      </trkpt>
      <trkpt lat="43.82878" lon="5.39228">
        <ele>475.4</ele>
        <time>2022-05-15T17:35:29Z</time>
      </trkpt>
      <trkpt lat="43.82877" lon="5.39225">
        <ele>475.1</ele>
        <time>2022-05-15T17:35:30Z</time>
      </trkpt>
      <trkpt lat="43.82877" lon="5.3922">
        <ele>474</ele>
        <time>2022-05-15T17:35:32Z</time>
      </trkpt>
      <trkpt lat="43.82875" lon="5.39212">
        <ele>472.8</ele>
        <time>2022-05-15T17:35:34Z</time>
      </trkpt>
      <trkpt lat="43.82861" lon="5.39194">
        <ele>472.8</ele>
        <time>2022-05-15T17:35:40Z</time>
      </trkpt>
      <trkpt lat="43.82849" lon="5.39181">
        <ele>473.5</ele>
        <time>2022-05-15T17:35:43Z</time>
      </trkpt>
      <trkpt lat="43.82844" lon="5.39173">
        <ele>473.2</ele>
        <time>2022-05-15T17:35:48Z</time>
      </trkpt>
      <trkpt lat="43.82834" lon="5.39153">
        <ele>471.2</ele>
        <time>2022-05-15T17:35:53Z</time>
      </trkpt>
      <trkpt lat="43.82827" lon="5.39138">
        <ele>468</ele>
        <time>2022-05-15T17:35:57Z</time>
      </trkpt>
      <trkpt lat="43.82823" lon="5.39132">
        <ele>466.7</ele>
        <time>2022-05-15T17:35:59Z</time>
      </trkpt>
      <trkpt lat="43.82816" lon="5.39127">
        <ele>465.9</ele>
        <time>2022-05-15T17:36:01Z</time>
      </trkpt>
      <trkpt lat="43.82806" lon="5.39121">
        <ele>464.9</ele>
        <time>2022-05-15T17:36:04Z</time>
      </trkpt>
      <trkpt lat="43.82795" lon="5.39116">
        <ele>464.2</ele>
        <time>2022-05-15T17:36:07Z</time>
      </trkpt>
      <trkpt lat="43.82792" lon="5.39115">
        <ele>464</ele>
        <time>2022-05-15T17:36:08Z</time>
      </trkpt>
      <trkpt lat="43.82778" lon="5.39107">
        <ele>462.3</ele>
        <time>2022-05-15T17:36:11Z</time>
      </trkpt>
      <trkpt lat="43.82764" lon="5.39103">
        <ele>461.6</ele>
        <time>2022-05-15T17:36:14Z</time>
      </trkpt>
      <trkpt lat="43.82759" lon="5.391">
        <ele>460.8</ele>
        <time>2022-05-15T17:36:15Z</time>
      </trkpt>
      <trkpt lat="43.82748" lon="5.39096">
        <ele>459.6</ele>
        <time>2022-05-15T17:36:17Z</time>
      </trkpt>
      <trkpt lat="43.82733" lon="5.39093">
        <ele>457.4</ele>
        <time>2022-05-15T17:36:20Z</time>
      </trkpt>
      <trkpt lat="43.82725" lon="5.39092">
        <ele>456.5</ele>
        <time>2022-05-15T17:36:22Z</time>
      </trkpt>
      <trkpt lat="43.82722" lon="5.39093">
        <ele>456.7</ele>
        <time>2022-05-15T17:36:23Z</time>
      </trkpt>
      <trkpt lat="43.82718" lon="5.39094">
        <ele>456.8</ele>
        <time>2022-05-15T17:36:25Z</time>
      </trkpt>
      <trkpt lat="43.82714" lon="5.39096">
        <ele>457.3</ele>
        <time>2022-05-15T17:36:27Z</time>
      </trkpt>
      <trkpt lat="43.82708" lon="5.39097">
        <ele>457.3</ele>
        <time>2022-05-15T17:36:30Z</time>
      </trkpt>
      <trkpt lat="43.82705" lon="5.39101">
        <ele>458.7</ele>
        <time>2022-05-15T17:36:32Z</time>
      </trkpt>
      <trkpt lat="43.82702" lon="5.391">
        <ele>458.1</ele>
        <time>2022-05-15T17:36:33Z</time>
      </trkpt>
      <trkpt lat="43.82697" lon="5.39102">
        <ele>458.6</ele>
        <time>2022-05-15T17:36:36Z</time>
      </trkpt>
      <trkpt lat="43.82687" lon="5.391">
        <ele>457.1</ele>
        <time>2022-05-15T17:36:41Z</time>
      </trkpt>
      <trkpt lat="43.82675" lon="5.39104">
        <ele>458</ele>
        <time>2022-05-15T17:36:45Z</time>
      </trkpt>
      <trkpt lat="43.82661" lon="5.39106">
        <ele>458</ele>
        <time>2022-05-15T17:36:49Z</time>
      </trkpt>
      <trkpt lat="43.82656" lon="5.39107">
        <ele>458.2</ele>
        <time>2022-05-15T17:36:50Z</time>
      </trkpt>
      <trkpt lat="43.82638" lon="5.39107">
        <ele>457.4</ele>
        <time>2022-05-15T17:36:54Z</time>
      </trkpt>
      <trkpt lat="43.82616" lon="5.39105">
        <ele>455.9</ele>
        <time>2022-05-15T17:36:59Z</time>
      </trkpt>
      <trkpt lat="43.82602" lon="5.39107">
        <ele>455.9</ele>
        <time>2022-05-15T17:37:02Z</time>
      </trkpt>
      <trkpt lat="43.82597" lon="5.39107">
        <ele>455.7</ele>
        <time>2022-05-15T17:37:03Z</time>
      </trkpt>
      <trkpt lat="43.82586" lon="5.39106">
        <ele>455</ele>
        <time>2022-05-15T17:37:05Z</time>
      </trkpt>
      <trkpt lat="43.82563" lon="5.39093">
        <ele>460.9</ele>
        <time>2022-05-15T17:37:08Z</time>
      </trkpt>
      <trkpt lat="43.82552" lon="5.39088">
        <ele>464.8</ele>
        <time>2022-05-15T17:37:10Z</time>
      </trkpt>
      <trkpt lat="43.82548" lon="5.39085">
        <ele>466</ele>
        <time>2022-05-15T17:37:11Z</time>
      </trkpt>
      <trkpt lat="43.82544" lon="5.39079">
        <ele>466.3</ele>
        <time>2022-05-15T17:37:12Z</time>
      </trkpt>
      <trkpt lat="43.82541" lon="5.39073">
        <ele>465.9</ele>
        <time>2022-05-15T17:37:14Z</time>
      </trkpt>
      <trkpt lat="43.82536" lon="5.39067">
        <ele>466.1</ele>
        <time>2022-05-15T17:37:16Z</time>
      </trkpt>
      <trkpt lat="43.82534" lon="5.39066">
        <ele>466.6</ele>
        <time>2022-05-15T17:37:17Z</time>
      </trkpt>
      <trkpt lat="43.82533" lon="5.39065">
        <ele>466.7</ele>
        <time>2022-05-15T17:37:19Z</time>
      </trkpt>
      <trkpt lat="43.8253" lon="5.39064">
        <ele>467.5</ele>
        <time>2022-05-15T17:37:22Z</time>
      </trkpt>
      <trkpt lat="43.82526" lon="5.3906">
        <ele>467.7</ele>
        <time>2022-05-15T17:37:23Z</time>
      </trkpt>
      <trkpt lat="43.82516" lon="5.3905">
        <ele>467.7</ele>
        <time>2022-05-15T17:37:26Z</time>
      </trkpt>
      <trkpt lat="43.82509" lon="5.39038">
        <ele>465.3</ele>
        <time>2022-05-15T17:37:28Z</time>
      </trkpt>
      <trkpt lat="43.82504" lon="5.39033">
        <ele>464.8</ele>
        <time>2022-05-15T17:37:29Z</time>
      </trkpt>
      <trkpt lat="43.82497" lon="5.39026">
        <ele>463.4</ele>
        <time>2022-05-15T17:37:30Z</time>
      </trkpt>
      <trkpt lat="43.82481" lon="5.39009">
        <ele>459.1</ele>
        <time>2022-05-15T17:37:32Z</time>
      </trkpt>
      <trkpt lat="43.82474" lon="5.39001">
        <ele>457.1</ele>
        <time>2022-05-15T17:37:33Z</time>
      </trkpt>
      <trkpt lat="43.82459" lon="5.38981">
        <ele>453.6</ele>
        <time>2022-05-15T17:37:35Z</time>
      </trkpt>
      <trkpt lat="43.82444" lon="5.38964">
        <ele>450.5</ele>
        <time>2022-05-15T17:37:37Z</time>
      </trkpt>
      <trkpt lat="43.82436" lon="5.38958">
        <ele>449.7</ele>
        <time>2022-05-15T17:37:38Z</time>
      </trkpt>
      <trkpt lat="43.82411" lon="5.38935">
        <ele>444.8</ele>
        <time>2022-05-15T17:37:42Z</time>
      </trkpt>
      <trkpt lat="43.82404" lon="5.38918">
        <ele>439.4</ele>
        <time>2022-05-15T17:37:45Z</time>
      </trkpt>
      <trkpt lat="43.82405" lon="5.38909">
        <ele>437.8</ele>
        <time>2022-05-15T17:37:48Z</time>
      </trkpt>
      <trkpt lat="43.82402" lon="5.38906">
        <ele>437.6</ele>
        <time>2022-05-15T17:37:50Z</time>
      </trkpt>
      <trkpt lat="43.82396" lon="5.38902">
        <ele>437.5</ele>
        <time>2022-05-15T17:37:53Z</time>
      </trkpt>
      <trkpt lat="43.82393" lon="5.38902">
        <ele>437.7</ele>
        <time>2022-05-15T17:37:55Z</time>
      </trkpt>
      <trkpt lat="43.82389" lon="5.38903">
        <ele>438.1</ele>
        <time>2022-05-15T17:37:57Z</time>
      </trkpt>
      <trkpt lat="43.82383" lon="5.389">
        <ele>438.2</ele>
        <time>2022-05-15T17:37:59Z</time>
      </trkpt>
      <trkpt lat="43.82381" lon="5.38899">
        <ele>438.2</ele>
        <time>2022-05-15T17:38:00Z</time>
      </trkpt>
      <trkpt lat="43.82372" lon="5.38894">
        <ele>438.2</ele>
        <time>2022-05-15T17:38:04Z</time>
      </trkpt>
      <trkpt lat="43.8237" lon="5.38889">
        <ele>437.7</ele>
        <time>2022-05-15T17:38:08Z</time>
      </trkpt>
      <trkpt lat="43.82357" lon="5.38881">
        <ele>437.8</ele>
        <time>2022-05-15T17:38:12Z</time>
      </trkpt>
      <trkpt lat="43.82349" lon="5.38877">
        <ele>437.9</ele>
        <time>2022-05-15T17:38:15Z</time>
      </trkpt>
      <trkpt lat="43.82346" lon="5.38876">
        <ele>438.1</ele>
        <time>2022-05-15T17:38:17Z</time>
      </trkpt>
      <trkpt lat="43.82343" lon="5.38874">
        <ele>438.1</ele>
        <time>2022-05-15T17:38:19Z</time>
      </trkpt>
      <trkpt lat="43.82331" lon="5.38869">
        <ele>439.4</ele>
        <time>2022-05-15T17:38:23Z</time>
      </trkpt>
      <trkpt lat="43.82316" lon="5.38863">
        <ele>446.2</ele>
        <time>2022-05-15T17:38:27Z</time>
      </trkpt>
      <trkpt lat="43.82297" lon="5.38855">
        <ele>454.6</ele>
        <time>2022-05-15T17:38:32Z</time>
      </trkpt>
      <trkpt lat="43.8229" lon="5.38854">
        <ele>457.9</ele>
        <time>2022-05-15T17:38:34Z</time>
      </trkpt>
      <trkpt lat="43.82284" lon="5.38859">
        <ele>461.5</ele>
        <time>2022-05-15T17:38:36Z</time>
      </trkpt>
      <trkpt lat="43.8228" lon="5.38862">
        <ele>463.9</ele>
        <time>2022-05-15T17:38:38Z</time>
      </trkpt>
      <trkpt lat="43.82276" lon="5.38864">
        <ele>466.1</ele>
        <time>2022-05-15T17:38:40Z</time>
      </trkpt>
      <trkpt lat="43.82275" lon="5.38864">
        <ele>466.6</ele>
        <time>2022-05-15T17:38:42Z</time>
      </trkpt>
      <trkpt lat="43.82276" lon="5.38862">
        <ele>465.9</ele>
        <time>2022-05-15T17:38:43Z</time>
      </trkpt>
      <trkpt lat="43.82276" lon="5.38855">
        <ele>465</ele>
        <time>2022-05-15T17:38:46Z</time>
      </trkpt>
      <trkpt lat="43.82274" lon="5.38852">
        <ele>465.6</ele>
        <time>2022-05-15T17:38:47Z</time>
      </trkpt>
      <trkpt lat="43.82268" lon="5.38837">
        <ele>466.6</ele>
        <time>2022-05-15T17:38:50Z</time>
      </trkpt>
      <trkpt lat="43.82262" lon="5.38805">
        <ele>463.8</ele>
        <time>2022-05-15T17:38:55Z</time>
      </trkpt>
      <trkpt lat="43.82251" lon="5.38777">
        <ele>463.7</ele>
        <time>2022-05-15T17:39:00Z</time>
      </trkpt>
      <trkpt lat="43.82248" lon="5.38769">
        <ele>464.1</ele>
        <time>2022-05-15T17:39:02Z</time>
      </trkpt>
      <trkpt lat="43.82248" lon="5.38767">
        <ele>463.8</ele>
        <time>2022-05-15T17:39:03Z</time>
      </trkpt>
      <trkpt lat="43.8224" lon="5.38753">
        <ele>467.1</ele>
        <time>2022-05-15T17:39:07Z</time>
      </trkpt>
      <trkpt lat="43.8224" lon="5.38747">
        <ele>465.8</ele>
        <time>2022-05-15T17:39:09Z</time>
      </trkpt>
      <trkpt lat="43.82239" lon="5.3874">
        <ele>464.6</ele>
        <time>2022-05-15T17:39:11Z</time>
      </trkpt>
      <trkpt lat="43.82233" lon="5.38725">
        <ele>465.1</ele>
        <time>2022-05-15T17:39:14Z</time>
      </trkpt>
      <trkpt lat="43.82222" lon="5.38701">
        <ele>466.6</ele>
        <time>2022-05-15T17:39:17Z</time>
      </trkpt>
      <trkpt lat="43.82219" lon="5.38693">
        <ele>466.6</ele>
        <time>2022-05-15T17:39:18Z</time>
      </trkpt>
      <trkpt lat="43.82212" lon="5.38678">
        <ele>467.5</ele>
        <time>2022-05-15T17:39:20Z</time>
      </trkpt>
      <trkpt lat="43.82203" lon="5.38663">
        <ele>469.6</ele>
        <time>2022-05-15T17:39:22Z</time>
      </trkpt>
      <trkpt lat="43.82188" lon="5.38627">
        <ele>466.7</ele>
        <time>2022-05-15T17:39:26Z</time>
      </trkpt>
      <trkpt lat="43.82188" lon="5.38597">
        <ele>455.4</ele>
        <time>2022-05-15T17:39:29Z</time>
      </trkpt>
      <trkpt lat="43.8219" lon="5.38541">
        <ele>442.4</ele>
        <time>2022-05-15T17:39:34Z</time>
      </trkpt>
      <trkpt lat="43.8219" lon="5.38533">
        <ele>441.1</ele>
        <time>2022-05-15T17:39:35Z</time>
      </trkpt>
      <trkpt lat="43.82191" lon="5.38528">
        <ele>439.9</ele>
        <time>2022-05-15T17:39:36Z</time>
      </trkpt>
      <trkpt lat="43.82194" lon="5.38517">
        <ele>437.1</ele>
        <time>2022-05-15T17:39:39Z</time>
      </trkpt>
      <trkpt lat="43.82194" lon="5.38514">
        <ele>436.6</ele>
        <time>2022-05-15T17:39:40Z</time>
      </trkpt>
      <trkpt lat="43.82196" lon="5.38504">
        <ele>434.4</ele>
        <time>2022-05-15T17:39:42Z</time>
      </trkpt>
      <trkpt lat="43.822" lon="5.38491">
        <ele>433.4</ele>
        <time>2022-05-15T17:39:45Z</time>
      </trkpt>
      <trkpt lat="43.82201" lon="5.38488">
        <ele>433.4</ele>
        <time>2022-05-15T17:39:46Z</time>
      </trkpt>
      <trkpt lat="43.82202" lon="5.38468">
        <ele>434.9</ele>
        <time>2022-05-15T17:39:50Z</time>
      </trkpt>
      <trkpt lat="43.82204" lon="5.38438">
        <ele>437</ele>
        <time>2022-05-15T17:39:55Z</time>
      </trkpt>
      <trkpt lat="43.82204" lon="5.38426">
        <ele>438.1</ele>
        <time>2022-05-15T17:39:57Z</time>
      </trkpt>
      <trkpt lat="43.82204" lon="5.38402">
        <ele>436.3</ele>
        <time>2022-05-15T17:40:01Z</time>
      </trkpt>
      <trkpt lat="43.82206" lon="5.38376">
        <ele>431.1</ele>
        <time>2022-05-15T17:40:05Z</time>
      </trkpt>
      <trkpt lat="43.82205" lon="5.38367">
        <ele>429.7</ele>
        <time>2022-05-15T17:40:06Z</time>
      </trkpt>
      <trkpt lat="43.82201" lon="5.38349">
        <ele>427.5</ele>
        <time>2022-05-15T17:40:08Z</time>
      </trkpt>
      <trkpt lat="43.82192" lon="5.38335">
        <ele>426.9</ele>
        <time>2022-05-15T17:40:10Z</time>
      </trkpt>
      <trkpt lat="43.8216" lon="5.38314">
        <ele>429.4</ele>
        <time>2022-05-15T17:40:14Z</time>
      </trkpt>
      <trkpt lat="43.82138" lon="5.383">
        <ele>433.3</ele>
        <time>2022-05-15T17:40:17Z</time>
      </trkpt>
      <trkpt lat="43.82129" lon="5.38288">
        <ele>432.4</ele>
        <time>2022-05-15T17:40:19Z</time>
      </trkpt>
      <trkpt lat="43.82118" lon="5.38277">
        <ele>432</ele>
        <time>2022-05-15T17:40:21Z</time>
      </trkpt>
      <trkpt lat="43.82111" lon="5.38273">
        <ele>432.7</ele>
        <time>2022-05-15T17:40:22Z</time>
      </trkpt>
      <trkpt lat="43.82104" lon="5.3827">
        <ele>433.6</ele>
        <time>2022-05-15T17:40:23Z</time>
      </trkpt>
      <trkpt lat="43.82089" lon="5.38262">
        <ele>434.6</ele>
        <time>2022-05-15T17:40:25Z</time>
      </trkpt>
      <trkpt lat="43.82081" lon="5.38257">
        <ele>434.7</ele>
        <time>2022-05-15T17:40:26Z</time>
      </trkpt>
      <trkpt lat="43.82074" lon="5.3825">
        <ele>433.8</ele>
        <time>2022-05-15T17:40:27Z</time>
      </trkpt>
      <trkpt lat="43.82065" lon="5.38231">
        <ele>432.4</ele>
        <time>2022-05-15T17:40:29Z</time>
      </trkpt>
      <trkpt lat="43.82057" lon="5.3821">
        <ele>430.1</ele>
        <time>2022-05-15T17:40:31Z</time>
      </trkpt>
      <trkpt lat="43.82047" lon="5.38193">
        <ele>429.1</ele>
        <time>2022-05-15T17:40:33Z</time>
      </trkpt>
      <trkpt lat="43.82043" lon="5.38184">
        <ele>428.1</ele>
        <time>2022-05-15T17:40:34Z</time>
      </trkpt>
      <trkpt lat="43.82037" lon="5.38161">
        <ele>426</ele>
        <time>2022-05-15T17:40:36Z</time>
      </trkpt>
      <trkpt lat="43.82035" lon="5.38133">
        <ele>428.3</ele>
        <time>2022-05-15T17:40:39Z</time>
      </trkpt>
      <trkpt lat="43.82036" lon="5.38098">
        <ele>430.2</ele>
        <time>2022-05-15T17:40:44Z</time>
      </trkpt>
      <trkpt lat="43.82039" lon="5.38072">
        <ele>430.8</ele>
        <time>2022-05-15T17:40:49Z</time>
      </trkpt>
      <trkpt lat="43.82043" lon="5.3805">
        <ele>430.7</ele>
        <time>2022-05-15T17:40:53Z</time>
      </trkpt>
      <trkpt lat="43.82046" lon="5.3804">
        <ele>430.3</ele>
        <time>2022-05-15T17:40:55Z</time>
      </trkpt>
      <trkpt lat="43.82052" lon="5.38032">
        <ele>429</ele>
        <time>2022-05-15T17:40:57Z</time>
      </trkpt>
      <trkpt lat="43.82058" lon="5.38026">
        <ele>427.5</ele>
        <time>2022-05-15T17:41:00Z</time>
      </trkpt>
      <trkpt lat="43.8206" lon="5.38019">
        <ele>427.2</ele>
        <time>2022-05-15T17:41:04Z</time>
      </trkpt>
      <trkpt lat="43.82062" lon="5.38016">
        <ele>426.7</ele>
        <time>2022-05-15T17:41:47Z</time>
      </trkpt>
      <trkpt lat="43.82061" lon="5.38017">
        <ele>427</ele>
        <time>2022-05-15T17:43:19Z</time>
      </trkpt>
      <trkpt lat="43.82061" lon="5.38016">
        <ele>427</ele>
        <time>2022-05-15T17:44:38Z</time>
      </trkpt>
      <trkpt lat="43.82064" lon="5.38014">
        <ele>426.2</ele>
        <time>2022-05-15T17:45:07Z</time>
      </trkpt>
      <trkpt lat="43.82066" lon="5.38013">
        <ele>425.7</ele>
        <time>2022-05-15T17:45:08Z</time>
      </trkpt>
      <trkpt lat="43.82073" lon="5.38009">
        <ele>423.7</ele>
        <time>2022-05-15T17:45:10Z</time>
      </trkpt>
      <trkpt lat="43.8208" lon="5.38001">
        <ele>422</ele>
        <time>2022-05-15T17:45:12Z</time>
      </trkpt>
      <trkpt lat="43.82087" lon="5.37989">
        <ele>420.8</ele>
        <time>2022-05-15T17:45:14Z</time>
      </trkpt>
      <trkpt lat="43.8209" lon="5.37974">
        <ele>421</ele>
        <time>2022-05-15T17:45:16Z</time>
      </trkpt>
      <trkpt lat="43.82094" lon="5.37963">
        <ele>420.6</ele>
        <time>2022-05-15T17:45:18Z</time>
      </trkpt>
      <trkpt lat="43.821" lon="5.37948">
        <ele>419.8</ele>
        <time>2022-05-15T17:45:20Z</time>
      </trkpt>
      <trkpt lat="43.82105" lon="5.37932">
        <ele>419.1</ele>
        <time>2022-05-15T17:45:22Z</time>
      </trkpt>
      <trkpt lat="43.82093" lon="5.37901">
        <ele>425.1</ele>
        <time>2022-05-15T17:45:23Z</time>
      </trkpt>
      <trkpt lat="43.82088" lon="5.37882">
        <ele>429.2</ele>
        <time>2022-05-15T17:45:24Z</time>
      </trkpt>
      <trkpt lat="43.82084" lon="5.3785">
        <ele>435.3</ele>
        <time>2022-05-15T17:45:26Z</time>
      </trkpt>
      <trkpt lat="43.82086" lon="5.3782">
        <ele>439.3</ele>
        <time>2022-05-15T17:45:28Z</time>
      </trkpt>
      <trkpt lat="43.82101" lon="5.37736">
        <ele>443.9</ele>
        <time>2022-05-15T17:45:34Z</time>
      </trkpt>
      <trkpt lat="43.82105" lon="5.37722">
        <ele>442</ele>
        <time>2022-05-15T17:45:35Z</time>
      </trkpt>
      <trkpt lat="43.8212" lon="5.37683">
        <ele>434.6</ele>
        <time>2022-05-15T17:45:38Z</time>
      </trkpt>
      <trkpt lat="43.82139" lon="5.37626">
        <ele>420.7</ele>
        <time>2022-05-15T17:45:42Z</time>
      </trkpt>
      <trkpt lat="43.82141" lon="5.37611">
        <ele>418.5</ele>
        <time>2022-05-15T17:45:43Z</time>
      </trkpt>
      <trkpt lat="43.82145" lon="5.37562">
        <ele>417.1</ele>
        <time>2022-05-15T17:45:46Z</time>
      </trkpt>
      <trkpt lat="43.82149" lon="5.37547">
        <ele>417</ele>
        <time>2022-05-15T17:45:47Z</time>
      </trkpt>
      <trkpt lat="43.82154" lon="5.37534">
        <ele>416.3</ele>
        <time>2022-05-15T17:45:48Z</time>
      </trkpt>
      <trkpt lat="43.82167" lon="5.37511">
        <ele>413.3</ele>
        <time>2022-05-15T17:45:50Z</time>
      </trkpt>
      <trkpt lat="43.82196" lon="5.37465">
        <ele>415.8</ele>
        <time>2022-05-15T17:45:55Z</time>
      </trkpt>
      <trkpt lat="43.822" lon="5.37456">
        <ele>416.8</ele>
        <time>2022-05-15T17:45:56Z</time>
      </trkpt>
      <trkpt lat="43.82205" lon="5.37437">
        <ele>420</ele>
        <time>2022-05-15T17:45:58Z</time>
      </trkpt>
      <trkpt lat="43.8221" lon="5.37402">
        <ele>426.4</ele>
        <time>2022-05-15T17:46:02Z</time>
      </trkpt>
      <trkpt lat="43.82212" lon="5.37393">
        <ele>427.3</ele>
        <time>2022-05-15T17:46:03Z</time>
      </trkpt>
      <trkpt lat="43.82221" lon="5.37358">
        <ele>430</ele>
        <time>2022-05-15T17:46:07Z</time>
      </trkpt>
      <trkpt lat="43.82225" lon="5.37349">
        <ele>429.7</ele>
        <time>2022-05-15T17:46:08Z</time>
      </trkpt>
      <trkpt lat="43.82235" lon="5.37332">
        <ele>427.5</ele>
        <time>2022-05-15T17:46:10Z</time>
      </trkpt>
      <trkpt lat="43.82242" lon="5.37324">
        <ele>423.9</ele>
        <time>2022-05-15T17:46:11Z</time>
      </trkpt>
      <trkpt lat="43.82248" lon="5.37314">
        <ele>421</ele>
        <time>2022-05-15T17:46:12Z</time>
      </trkpt>
      <trkpt lat="43.82269" lon="5.37288">
        <ele>412.6</ele>
        <time>2022-05-15T17:46:15Z</time>
      </trkpt>
      <trkpt lat="43.82278" lon="5.37281">
        <ele>409</ele>
        <time>2022-05-15T17:46:16Z</time>
      </trkpt>
      <trkpt lat="43.82295" lon="5.37268">
        <ele>402.5</ele>
        <time>2022-05-15T17:46:18Z</time>
      </trkpt>
      <trkpt lat="43.82309" lon="5.37254">
        <ele>397.8</ele>
        <time>2022-05-15T17:46:20Z</time>
      </trkpt>
      <trkpt lat="43.82305" lon="5.37248">
        <ele>399.9</ele>
        <time>2022-05-15T17:46:27Z</time>
      </trkpt>
      <trkpt lat="43.82304" lon="5.37245">
        <ele>400.3</ele>
        <time>2022-05-15T17:46:29Z</time>
      </trkpt>
      <trkpt lat="43.82299" lon="5.37233">
        <ele>402.3</ele>
        <time>2022-05-15T17:46:32Z</time>
      </trkpt>
      <trkpt lat="43.82298" lon="5.37229">
        <ele>402.7</ele>
        <time>2022-05-15T17:46:33Z</time>
      </trkpt>
      <trkpt lat="43.82297" lon="5.37217">
        <ele>403</ele>
        <time>2022-05-15T17:46:36Z</time>
      </trkpt>
      <trkpt lat="43.82296" lon="5.37213">
        <ele>403.4</ele>
        <time>2022-05-15T17:46:37Z</time>
      </trkpt>
      <trkpt lat="43.82298" lon="5.37205">
        <ele>402.5</ele>
        <time>2022-05-15T17:46:39Z</time>
      </trkpt>
      <trkpt lat="43.823" lon="5.37195">
        <ele>401.7</ele>
        <time>2022-05-15T17:46:41Z</time>
      </trkpt>
      <trkpt lat="43.82301" lon="5.37186">
        <ele>401.3</ele>
        <time>2022-05-15T17:46:43Z</time>
      </trkpt>
      <trkpt lat="43.82298" lon="5.37175">
        <ele>402.4</ele>
        <time>2022-05-15T17:46:46Z</time>
      </trkpt>
      <trkpt lat="43.823" lon="5.37173">
        <ele>401.6</ele>
        <time>2022-05-15T17:46:47Z</time>
      </trkpt>
      <trkpt lat="43.82302" lon="5.37171">
        <ele>400.9</ele>
        <time>2022-05-15T17:46:48Z</time>
      </trkpt>
      <trkpt lat="43.82312" lon="5.3714">
        <ele>394.9</ele>
        <time>2022-05-15T17:46:56Z</time>
      </trkpt>
      <trkpt lat="43.82313" lon="5.37132">
        <ele>393.7</ele>
        <time>2022-05-15T17:46:58Z</time>
      </trkpt>
      <trkpt lat="43.82316" lon="5.37121">
        <ele>391.6</ele>
        <time>2022-05-15T17:47:00Z</time>
      </trkpt>
      <trkpt lat="43.82319" lon="5.37109">
        <ele>389.2</ele>
        <time>2022-05-15T17:47:02Z</time>
      </trkpt>
      <trkpt lat="43.82319" lon="5.37101">
        <ele>388.4</ele>
        <time>2022-05-15T17:47:03Z</time>
      </trkpt>
      <trkpt lat="43.82318" lon="5.37095">
        <ele>388.2</ele>
        <time>2022-05-15T17:47:04Z</time>
      </trkpt>
      <trkpt lat="43.82314" lon="5.37081">
        <ele>388.4</ele>
        <time>2022-05-15T17:47:06Z</time>
      </trkpt>
      <trkpt lat="43.82311" lon="5.37075">
        <ele>388.8</ele>
        <time>2022-05-15T17:47:07Z</time>
      </trkpt>
      <trkpt lat="43.823" lon="5.37059">
        <ele>391.4</ele>
        <time>2022-05-15T17:47:10Z</time>
      </trkpt>
      <trkpt lat="43.82297" lon="5.37053">
        <ele>392</ele>
        <time>2022-05-15T17:47:11Z</time>
      </trkpt>
      <trkpt lat="43.82291" lon="5.37036">
        <ele>392.7</ele>
        <time>2022-05-15T17:47:14Z</time>
      </trkpt>
      <trkpt lat="43.82289" lon="5.37031">
        <ele>393</ele>
        <time>2022-05-15T17:47:15Z</time>
      </trkpt>
      <trkpt lat="43.82283" lon="5.37014">
        <ele>394</ele>
        <time>2022-05-15T17:47:19Z</time>
      </trkpt>
      <trkpt lat="43.82271" lon="5.36998">
        <ele>398.1</ele>
        <time>2022-05-15T17:47:22Z</time>
      </trkpt>
      <trkpt lat="43.82268" lon="5.36991">
        <ele>399.2</ele>
        <time>2022-05-15T17:47:23Z</time>
      </trkpt>
      <trkpt lat="43.82268" lon="5.36985">
        <ele>398.9</ele>
        <time>2022-05-15T17:47:24Z</time>
      </trkpt>
      <trkpt lat="43.82269" lon="5.36981">
        <ele>398.3</ele>
        <time>2022-05-15T17:47:25Z</time>
      </trkpt>
      <trkpt lat="43.8227" lon="5.36968">
        <ele>397.3</ele>
        <time>2022-05-15T17:47:27Z</time>
      </trkpt>
      <trkpt lat="43.82266" lon="5.36951">
        <ele>398.4</ele>
        <time>2022-05-15T17:47:30Z</time>
      </trkpt>
      <trkpt lat="43.82273" lon="5.3694">
        <ele>394.8</ele>
        <time>2022-05-15T17:47:33Z</time>
      </trkpt>
      <trkpt lat="43.82278" lon="5.36929">
        <ele>392.1</ele>
        <time>2022-05-15T17:47:35Z</time>
      </trkpt>
      <trkpt lat="43.82282" lon="5.36918">
        <ele>389.8</ele>
        <time>2022-05-15T17:47:37Z</time>
      </trkpt>
      <trkpt lat="43.82283" lon="5.36915">
        <ele>389.4</ele>
        <time>2022-05-15T17:47:38Z</time>
      </trkpt>
      <trkpt lat="43.82283" lon="5.3691">
        <ele>389.5</ele>
        <time>2022-05-15T17:47:39Z</time>
      </trkpt>
      <trkpt lat="43.82283" lon="5.36899">
        <ele>389.7</ele>
        <time>2022-05-15T17:47:41Z</time>
      </trkpt>
      <trkpt lat="43.82282" lon="5.36894">
        <ele>390.2</ele>
        <time>2022-05-15T17:47:42Z</time>
      </trkpt>
      <trkpt lat="43.82277" lon="5.3688">
        <ele>392.7</ele>
        <time>2022-05-15T17:47:44Z</time>
      </trkpt>
      <trkpt lat="43.82276" lon="5.36873">
        <ele>393.3</ele>
        <time>2022-05-15T17:47:45Z</time>
      </trkpt>
      <trkpt lat="43.82278" lon="5.36849">
        <ele>392.9</ele>
        <time>2022-05-15T17:47:49Z</time>
      </trkpt>
      <trkpt lat="43.8228" lon="5.36827">
        <ele>392</ele>
        <time>2022-05-15T17:47:53Z</time>
      </trkpt>
      <trkpt lat="43.82279" lon="5.3682">
        <ele>392.1</ele>
        <time>2022-05-15T17:47:54Z</time>
      </trkpt>
      <trkpt lat="43.82278" lon="5.36807">
        <ele>392</ele>
        <time>2022-05-15T17:47:56Z</time>
      </trkpt>
      <trkpt lat="43.82277" lon="5.36792">
        <ele>391.7</ele>
        <time>2022-05-15T17:47:58Z</time>
      </trkpt>
      <trkpt lat="43.82275" lon="5.36786">
        <ele>392.3</ele>
        <time>2022-05-15T17:47:59Z</time>
      </trkpt>
      <trkpt lat="43.82275" lon="5.36781">
        <ele>392.1</ele>
        <time>2022-05-15T17:48:00Z</time>
      </trkpt>
      <trkpt lat="43.82273" lon="5.36768">
        <ele>392.4</ele>
        <time>2022-05-15T17:48:02Z</time>
      </trkpt>
      <trkpt lat="43.82268" lon="5.3675">
        <ele>393.8</ele>
        <time>2022-05-15T17:48:06Z</time>
      </trkpt>
      <trkpt lat="43.8226" lon="5.36736">
        <ele>395.7</ele>
        <time>2022-05-15T17:48:10Z</time>
      </trkpt>
      <trkpt lat="43.82258" lon="5.36728">
        <ele>395.5</ele>
        <time>2022-05-15T17:48:12Z</time>
      </trkpt>
      <trkpt lat="43.82258" lon="5.36724">
        <ele>395</ele>
        <time>2022-05-15T17:48:13Z</time>
      </trkpt>
      <trkpt lat="43.82257" lon="5.36719">
        <ele>394.7</ele>
        <time>2022-05-15T17:48:14Z</time>
      </trkpt>
      <trkpt lat="43.82253" lon="5.36706">
        <ele>394.5</ele>
        <time>2022-05-15T17:48:16Z</time>
      </trkpt>
      <trkpt lat="43.82241" lon="5.36692">
        <ele>400.5</ele>
        <time>2022-05-15T17:48:19Z</time>
      </trkpt>
      <trkpt lat="43.82238" lon="5.36687">
        <ele>402.1</ele>
        <time>2022-05-15T17:48:24Z</time>
      </trkpt>
      <trkpt lat="43.82238" lon="5.36683">
        <ele>401.6</ele>
        <time>2022-05-15T17:48:28Z</time>
      </trkpt>
      <trkpt lat="43.82238" lon="5.36681">
        <ele>401.3</ele>
        <time>2022-05-15T17:48:29Z</time>
      </trkpt>
      <trkpt lat="43.82237" lon="5.36675">
        <ele>401.3</ele>
        <time>2022-05-15T17:48:31Z</time>
      </trkpt>
      <trkpt lat="43.82236" lon="5.36669">
        <ele>401.2</ele>
        <time>2022-05-15T17:48:34Z</time>
      </trkpt>
      <trkpt lat="43.82235" lon="5.36657">
        <ele>400.9</ele>
        <time>2022-05-15T17:48:39Z</time>
      </trkpt>
      <trkpt lat="43.82233" lon="5.36647">
        <ele>401.6</ele>
        <time>2022-05-15T17:48:43Z</time>
      </trkpt>
      <trkpt lat="43.82231" lon="5.36642">
        <ele>402.6</ele>
        <time>2022-05-15T17:48:45Z</time>
      </trkpt>
      <trkpt lat="43.8223" lon="5.36638">
        <ele>403</ele>
        <time>2022-05-15T17:48:47Z</time>
      </trkpt>
      <trkpt lat="43.82228" lon="5.3663">
        <ele>403.8</ele>
        <time>2022-05-15T17:48:52Z</time>
      </trkpt>
      <trkpt lat="43.82227" lon="5.36625">
        <ele>404.1</ele>
        <time>2022-05-15T17:48:54Z</time>
      </trkpt>
      <trkpt lat="43.82225" lon="5.36617">
        <ele>404.9</ele>
        <time>2022-05-15T17:48:57Z</time>
      </trkpt>
      <trkpt lat="43.82222" lon="5.36608">
        <ele>406.2</ele>
        <time>2022-05-15T17:49:01Z</time>
      </trkpt>
      <trkpt lat="43.82218" lon="5.36598">
        <ele>408.1</ele>
        <time>2022-05-15T17:49:05Z</time>
      </trkpt>
      <trkpt lat="43.82213" lon="5.36582">
        <ele>410</ele>
        <time>2022-05-15T17:49:10Z</time>
      </trkpt>
      <trkpt lat="43.82212" lon="5.36576">
        <ele>409.8</ele>
        <time>2022-05-15T17:49:12Z</time>
      </trkpt>
      <trkpt lat="43.82209" lon="5.36569">
        <ele>411</ele>
        <time>2022-05-15T17:49:14Z</time>
      </trkpt>
      <trkpt lat="43.82208" lon="5.36564">
        <ele>411</ele>
        <time>2022-05-15T17:49:16Z</time>
      </trkpt>
      <trkpt lat="43.82209" lon="5.36558">
        <ele>409.4</ele>
        <time>2022-05-15T17:49:18Z</time>
      </trkpt>
      <trkpt lat="43.82208" lon="5.36551">
        <ele>409.1</ele>
        <time>2022-05-15T17:49:20Z</time>
      </trkpt>
      <trkpt lat="43.82205" lon="5.36543">
        <ele>410.1</ele>
        <time>2022-05-15T17:49:22Z</time>
      </trkpt>
      <trkpt lat="43.82204" lon="5.36539">
        <ele>410.2</ele>
        <time>2022-05-15T17:49:23Z</time>
      </trkpt>
      <trkpt lat="43.82202" lon="5.36532">
        <ele>410.6</ele>
        <time>2022-05-15T17:49:25Z</time>
      </trkpt>
      <trkpt lat="43.822" lon="5.36523">
        <ele>410.7</ele>
        <time>2022-05-15T17:49:27Z</time>
      </trkpt>
      <trkpt lat="43.82201" lon="5.36516">
        <ele>409</ele>
        <time>2022-05-15T17:49:29Z</time>
      </trkpt>
      <trkpt lat="43.82202" lon="5.36512">
        <ele>407.7</ele>
        <time>2022-05-15T17:49:30Z</time>
      </trkpt>
      <trkpt lat="43.82201" lon="5.36501">
        <ele>406.8</ele>
        <time>2022-05-15T17:49:32Z</time>
      </trkpt>
      <trkpt lat="43.82201" lon="5.36495">
        <ele>405.7</ele>
        <time>2022-05-15T17:49:33Z</time>
      </trkpt>
      <trkpt lat="43.82202" lon="5.36489">
        <ele>403.8</ele>
        <time>2022-05-15T17:49:34Z</time>
      </trkpt>
      <trkpt lat="43.82202" lon="5.36482">
        <ele>402.5</ele>
        <time>2022-05-15T17:49:35Z</time>
      </trkpt>
      <trkpt lat="43.822" lon="5.36467">
        <ele>400.8</ele>
        <time>2022-05-15T17:49:37Z</time>
      </trkpt>
      <trkpt lat="43.82198" lon="5.36454">
        <ele>399.5</ele>
        <time>2022-05-15T17:49:40Z</time>
      </trkpt>
      <trkpt lat="43.82195" lon="5.3645">
        <ele>400.6</ele>
        <time>2022-05-15T17:49:41Z</time>
      </trkpt>
      <trkpt lat="43.82193" lon="5.36445">
        <ele>400.8</ele>
        <time>2022-05-15T17:49:42Z</time>
      </trkpt>
      <trkpt lat="43.8219" lon="5.36433">
        <ele>400.1</ele>
        <time>2022-05-15T17:49:44Z</time>
      </trkpt>
      <trkpt lat="43.82182" lon="5.36419">
        <ele>401.7</ele>
        <time>2022-05-15T17:49:47Z</time>
      </trkpt>
      <trkpt lat="43.82181" lon="5.36416">
        <ele>401.6</ele>
        <time>2022-05-15T17:49:48Z</time>
      </trkpt>
      <trkpt lat="43.82178" lon="5.36409">
        <ele>402.3</ele>
        <time>2022-05-15T17:49:50Z</time>
      </trkpt>
      <trkpt lat="43.82176" lon="5.36404">
        <ele>402.6</ele>
        <time>2022-05-15T17:49:52Z</time>
      </trkpt>
      <trkpt lat="43.8217" lon="5.36397">
        <ele>404.7</ele>
        <time>2022-05-15T17:49:54Z</time>
      </trkpt>
      <trkpt lat="43.82169" lon="5.36393">
        <ele>404.5</ele>
        <time>2022-05-15T17:49:55Z</time>
      </trkpt>
      <trkpt lat="43.82169" lon="5.36389">
        <ele>403.8</ele>
        <time>2022-05-15T17:49:56Z</time>
      </trkpt>
      <trkpt lat="43.82169" lon="5.36378">
        <ele>401.9</ele>
        <time>2022-05-15T17:49:58Z</time>
      </trkpt>
      <trkpt lat="43.82169" lon="5.36367">
        <ele>399.9</ele>
        <time>2022-05-15T17:50:00Z</time>
      </trkpt>
      <trkpt lat="43.82168" lon="5.36354">
        <ele>398.1</ele>
        <time>2022-05-15T17:50:02Z</time>
      </trkpt>
      <trkpt lat="43.82171" lon="5.36335">
        <ele>393.5</ele>
        <time>2022-05-15T17:50:06Z</time>
      </trkpt>
      <trkpt lat="43.82172" lon="5.36331">
        <ele>392.4</ele>
        <time>2022-05-15T17:50:07Z</time>
      </trkpt>
      <trkpt lat="43.82174" lon="5.36321">
        <ele>389.9</ele>
        <time>2022-05-15T17:50:09Z</time>
      </trkpt>
      <trkpt lat="43.82176" lon="5.36317">
        <ele>388.5</ele>
        <time>2022-05-15T17:50:10Z</time>
      </trkpt>
      <trkpt lat="43.82177" lon="5.36304">
        <ele>385.9</ele>
        <time>2022-05-15T17:50:12Z</time>
      </trkpt>
      <trkpt lat="43.82178" lon="5.36288">
        <ele>383</ele>
        <time>2022-05-15T17:50:15Z</time>
      </trkpt>
      <trkpt lat="43.82179" lon="5.36282">
        <ele>381.6</ele>
        <time>2022-05-15T17:50:16Z</time>
      </trkpt>
      <trkpt lat="43.8218" lon="5.36277">
        <ele>380.5</ele>
        <time>2022-05-15T17:50:17Z</time>
      </trkpt>
      <trkpt lat="43.82179" lon="5.36265">
        <ele>378.9</ele>
        <time>2022-05-15T17:50:19Z</time>
      </trkpt>
      <trkpt lat="43.82167" lon="5.36249">
        <ele>379.8</ele>
        <time>2022-05-15T17:50:22Z</time>
      </trkpt>
      <trkpt lat="43.82157" lon="5.36238">
        <ele>382.8</ele>
        <time>2022-05-15T17:50:24Z</time>
      </trkpt>
      <trkpt lat="43.82152" lon="5.36227">
        <ele>383.2</ele>
        <time>2022-05-15T17:50:26Z</time>
      </trkpt>
      <trkpt lat="43.82152" lon="5.36211">
        <ele>380.4</ele>
        <time>2022-05-15T17:50:29Z</time>
      </trkpt>
      <trkpt lat="43.82149" lon="5.36198">
        <ele>379.2</ele>
        <time>2022-05-15T17:50:32Z</time>
      </trkpt>
      <trkpt lat="43.82144" lon="5.3619">
        <ele>379.6</ele>
        <time>2022-05-15T17:50:34Z</time>
      </trkpt>
      <trkpt lat="43.82142" lon="5.36184">
        <ele>379.1</ele>
        <time>2022-05-15T17:50:35Z</time>
      </trkpt>
      <trkpt lat="43.82134" lon="5.36164">
        <ele>377.9</ele>
        <time>2022-05-15T17:50:39Z</time>
      </trkpt>
      <trkpt lat="43.82129" lon="5.36152">
        <ele>377.8</ele>
        <time>2022-05-15T17:50:41Z</time>
      </trkpt>
      <trkpt lat="43.82123" lon="5.3614">
        <ele>377.9</ele>
        <time>2022-05-15T17:50:43Z</time>
      </trkpt>
      <trkpt lat="43.82116" lon="5.36117">
        <ele>376.4</ele>
        <time>2022-05-15T17:50:47Z</time>
      </trkpt>
      <trkpt lat="43.82114" lon="5.36112">
        <ele>376.1</ele>
        <time>2022-05-15T17:50:48Z</time>
      </trkpt>
      <trkpt lat="43.82112" lon="5.36104">
        <ele>375.4</ele>
        <time>2022-05-15T17:50:50Z</time>
      </trkpt>
      <trkpt lat="43.8211" lon="5.36099">
        <ele>375</ele>
        <time>2022-05-15T17:50:51Z</time>
      </trkpt>
      <trkpt lat="43.82106" lon="5.36086">
        <ele>373.8</ele>
        <time>2022-05-15T17:50:53Z</time>
      </trkpt>
      <trkpt lat="43.82101" lon="5.36072">
        <ele>372.9</ele>
        <time>2022-05-15T17:50:55Z</time>
      </trkpt>
      <trkpt lat="43.82101" lon="5.36058">
        <ele>371</ele>
        <time>2022-05-15T17:50:57Z</time>
      </trkpt>
      <trkpt lat="43.821" lon="5.36044">
        <ele>369.3</ele>
        <time>2022-05-15T17:50:59Z</time>
      </trkpt>
      <trkpt lat="43.82097" lon="5.36038">
        <ele>369.1</ele>
        <time>2022-05-15T17:51:00Z</time>
      </trkpt>
      <trkpt lat="43.82086" lon="5.36019">
        <ele>368.9</ele>
        <time>2022-05-15T17:51:03Z</time>
      </trkpt>
      <trkpt lat="43.8208" lon="5.36011">
        <ele>369</ele>
        <time>2022-05-15T17:51:04Z</time>
      </trkpt>
      <trkpt lat="43.82062" lon="5.35983">
        <ele>367.8</ele>
        <time>2022-05-15T17:51:08Z</time>
      </trkpt>
      <trkpt lat="43.82058" lon="5.35976">
        <ele>367.4</ele>
        <time>2022-05-15T17:51:10Z</time>
      </trkpt>
      <trkpt lat="43.82056" lon="5.35972">
        <ele>367.1</ele>
        <time>2022-05-15T17:51:11Z</time>
      </trkpt>
      <trkpt lat="43.82054" lon="5.35967">
        <ele>366.7</ele>
        <time>2022-05-15T17:51:14Z</time>
      </trkpt>
      <trkpt lat="43.82065" lon="5.35974">
        <ele>365.9</ele>
        <time>2022-05-15T17:51:19Z</time>
      </trkpt>
      <trkpt lat="43.82075" lon="5.35983">
        <ele>365.7</ele>
        <time>2022-05-15T17:51:22Z</time>
      </trkpt>
      <trkpt lat="43.8208" lon="5.35985">
        <ele>365.2</ele>
        <time>2022-05-15T17:51:23Z</time>
      </trkpt>
      <trkpt lat="43.82084" lon="5.35985">
        <ele>364.5</ele>
        <time>2022-05-15T17:51:24Z</time>
      </trkpt>
      <trkpt lat="43.82088" lon="5.35976">
        <ele>362.3</ele>
        <time>2022-05-15T17:51:26Z</time>
      </trkpt>
      <trkpt lat="43.82088" lon="5.35963">
        <ele>360.3</ele>
        <time>2022-05-15T17:51:29Z</time>
      </trkpt>
      <trkpt lat="43.8209" lon="5.3596">
        <ele>359.4</ele>
        <time>2022-05-15T17:51:30Z</time>
      </trkpt>
      <trkpt lat="43.8209" lon="5.35953">
        <ele>358.4</ele>
        <time>2022-05-15T17:51:32Z</time>
      </trkpt>
      <trkpt lat="43.82098" lon="5.35962">
        <ele>358.1</ele>
        <time>2022-05-15T17:51:36Z</time>
      </trkpt>
      <trkpt lat="43.821" lon="5.35968">
        <ele>358.6</ele>
        <time>2022-05-15T17:51:37Z</time>
      </trkpt>
      <trkpt lat="43.82111" lon="5.35987">
        <ele>359.2</ele>
        <time>2022-05-15T17:51:40Z</time>
      </trkpt>
      <trkpt lat="43.82115" lon="5.35993">
        <ele>359.2</ele>
        <time>2022-05-15T17:51:41Z</time>
      </trkpt>
      <trkpt lat="43.82127" lon="5.36003">
        <ele>358</ele>
        <time>2022-05-15T17:51:43Z</time>
      </trkpt>
      <trkpt lat="43.82142" lon="5.36005">
        <ele>355</ele>
        <time>2022-05-15T17:51:45Z</time>
      </trkpt>
      <trkpt lat="43.82148" lon="5.36008">
        <ele>354.2</ele>
        <time>2022-05-15T17:51:46Z</time>
      </trkpt>
      <trkpt lat="43.82154" lon="5.36011">
        <ele>353.3</ele>
        <time>2022-05-15T17:51:47Z</time>
      </trkpt>
      <trkpt lat="43.82162" lon="5.3601">
        <ele>351.4</ele>
        <time>2022-05-15T17:51:49Z</time>
      </trkpt>
      <trkpt lat="43.82173" lon="5.36002">
        <ele>348.4</ele>
        <time>2022-05-15T17:51:52Z</time>
      </trkpt>
      <trkpt lat="43.82177" lon="5.36002">
        <ele>347.9</ele>
        <time>2022-05-15T17:51:53Z</time>
      </trkpt>
      <trkpt lat="43.8219" lon="5.36001">
        <ele>346</ele>
        <time>2022-05-15T17:51:57Z</time>
      </trkpt>
      <trkpt lat="43.82202" lon="5.35998">
        <ele>344.2</ele>
        <time>2022-05-15T17:52:02Z</time>
      </trkpt>
      <trkpt lat="43.82212" lon="5.35999">
        <ele>343</ele>
        <time>2022-05-15T17:52:06Z</time>
      </trkpt>
      <trkpt lat="43.82215" lon="5.35997">
        <ele>342.4</ele>
        <time>2022-05-15T17:52:07Z</time>
      </trkpt>
      <trkpt lat="43.82217" lon="5.35993">
        <ele>342</ele>
        <time>2022-05-15T17:52:09Z</time>
      </trkpt>
      <trkpt lat="43.82217" lon="5.35989">
        <ele>341.8</ele>
        <time>2022-05-15T17:52:10Z</time>
      </trkpt>
      <trkpt lat="43.82212" lon="5.35973">
        <ele>341.4</ele>
        <time>2022-05-15T17:52:14Z</time>
      </trkpt>
      <trkpt lat="43.82208" lon="5.35958">
        <ele>340.8</ele>
        <time>2022-05-15T17:52:18Z</time>
      </trkpt>
      <trkpt lat="43.82201" lon="5.35944">
        <ele>340.2</ele>
        <time>2022-05-15T17:52:23Z</time>
      </trkpt>
      <trkpt lat="43.82199" lon="5.35937">
        <ele>339.8</ele>
        <time>2022-05-15T17:52:25Z</time>
      </trkpt>
      <trkpt lat="43.82198" lon="5.35932">
        <ele>339.5</ele>
        <time>2022-05-15T17:52:27Z</time>
      </trkpt>
      <trkpt lat="43.82198" lon="5.35923">
        <ele>338.8</ele>
        <time>2022-05-15T17:52:30Z</time>
      </trkpt>
      <trkpt lat="43.82199" lon="5.35917">
        <ele>338.3</ele>
        <time>2022-05-15T17:52:32Z</time>
      </trkpt>
      <trkpt lat="43.822" lon="5.35904">
        <ele>337.6</ele>
        <time>2022-05-15T17:52:37Z</time>
      </trkpt>
      <trkpt lat="43.822" lon="5.35901">
        <ele>337.4</ele>
        <time>2022-05-15T17:52:38Z</time>
      </trkpt>
      <trkpt lat="43.82201" lon="5.35887">
        <ele>336.8</ele>
        <time>2022-05-15T17:52:43Z</time>
      </trkpt>
      <trkpt lat="43.82201" lon="5.35883">
        <ele>336.6</ele>
        <time>2022-05-15T17:52:44Z</time>
      </trkpt>
      <trkpt lat="43.82205" lon="5.35864">
        <ele>335.7</ele>
        <time>2022-05-15T17:52:49Z</time>
      </trkpt>
      <trkpt lat="43.82204" lon="5.35857">
        <ele>335.4</ele>
        <time>2022-05-15T17:52:50Z</time>
      </trkpt>
      <trkpt lat="43.82202" lon="5.35841">
        <ele>334.6</ele>
        <time>2022-05-15T17:52:53Z</time>
      </trkpt>
      <trkpt lat="43.82201" lon="5.35834">
        <ele>334.3</ele>
        <time>2022-05-15T17:52:55Z</time>
      </trkpt>
      <trkpt lat="43.82198" lon="5.35824">
        <ele>333.9</ele>
        <time>2022-05-15T17:52:57Z</time>
      </trkpt>
      <trkpt lat="43.82193" lon="5.35808">
        <ele>333.1</ele>
        <time>2022-05-15T17:53:00Z</time>
      </trkpt>
      <trkpt lat="43.82192" lon="5.35802">
        <ele>332.8</ele>
        <time>2022-05-15T17:53:01Z</time>
      </trkpt>
      <trkpt lat="43.82191" lon="5.3579">
        <ele>332.3</ele>
        <time>2022-05-15T17:53:03Z</time>
      </trkpt>
      <trkpt lat="43.8219" lon="5.35785">
        <ele>332</ele>
        <time>2022-05-15T17:53:04Z</time>
      </trkpt>
      <trkpt lat="43.8219" lon="5.35779">
        <ele>331.8</ele>
        <time>2022-05-15T17:53:05Z</time>
      </trkpt>
      <trkpt lat="43.82192" lon="5.35765">
        <ele>331.5</ele>
        <time>2022-05-15T17:53:08Z</time>
      </trkpt>
      <trkpt lat="43.82189" lon="5.35754">
        <ele>330.6</ele>
        <time>2022-05-15T17:53:11Z</time>
      </trkpt>
      <trkpt lat="43.82186" lon="5.3575">
        <ele>330</ele>
        <time>2022-05-15T17:53:12Z</time>
      </trkpt>
      <trkpt lat="43.82184" lon="5.35745">
        <ele>329.9</ele>
        <time>2022-05-15T17:53:13Z</time>
      </trkpt>
      <trkpt lat="43.82179" lon="5.3573">
        <ele>329.6</ele>
        <time>2022-05-15T17:53:16Z</time>
      </trkpt>
      <trkpt lat="43.82167" lon="5.3571">
        <ele>328</ele>
        <time>2022-05-15T17:53:21Z</time>
      </trkpt>
      <trkpt lat="43.82166" lon="5.357">
        <ele>328.2</ele>
        <time>2022-05-15T17:53:24Z</time>
      </trkpt>
      <trkpt lat="43.82166" lon="5.35696">
        <ele>328.3</ele>
        <time>2022-05-15T17:53:25Z</time>
      </trkpt>
      <trkpt lat="43.82161" lon="5.35674">
        <ele>328.7</ele>
        <time>2022-05-15T17:53:31Z</time>
      </trkpt>
      <trkpt lat="43.82157" lon="5.35663">
        <ele>329</ele>
        <time>2022-05-15T17:53:34Z</time>
      </trkpt>
      <trkpt lat="43.82154" lon="5.35654">
        <ele>329.4</ele>
        <time>2022-05-15T17:53:37Z</time>
      </trkpt>
      <trkpt lat="43.82153" lon="5.35651">
        <ele>329.6</ele>
        <time>2022-05-15T17:53:38Z</time>
      </trkpt>
      <trkpt lat="43.82149" lon="5.35629">
        <ele>330.5</ele>
        <time>2022-05-15T17:53:44Z</time>
      </trkpt>
      <trkpt lat="43.82147" lon="5.35606">
        <ele>331.5</ele>
        <time>2022-05-15T17:53:50Z</time>
      </trkpt>
      <trkpt lat="43.82144" lon="5.35581">
        <ele>332.4</ele>
        <time>2022-05-15T17:53:56Z</time>
      </trkpt>
      <trkpt lat="43.82144" lon="5.35567">
        <ele>333.1</ele>
        <time>2022-05-15T17:54:00Z</time>
      </trkpt>
      <trkpt lat="43.82142" lon="5.35564">
        <ele>333</ele>
        <time>2022-05-15T17:54:01Z</time>
      </trkpt>
      <trkpt lat="43.8213" lon="5.35548">
        <ele>332</ele>
        <time>2022-05-15T17:54:05Z</time>
      </trkpt>
      <trkpt lat="43.82119" lon="5.35538">
        <ele>330.7</ele>
        <time>2022-05-15T17:54:08Z</time>
      </trkpt>
      <trkpt lat="43.8211" lon="5.35519">
        <ele>329.7</ele>
        <time>2022-05-15T17:54:11Z</time>
      </trkpt>
      <trkpt lat="43.82108" lon="5.35512">
        <ele>329.5</ele>
        <time>2022-05-15T17:54:12Z</time>
      </trkpt>
      <trkpt lat="43.82107" lon="5.35505">
        <ele>329.4</ele>
        <time>2022-05-15T17:54:13Z</time>
      </trkpt>
      <trkpt lat="43.82099" lon="5.35481">
        <ele>328.5</ele>
        <time>2022-05-15T17:54:16Z</time>
      </trkpt>
      <trkpt lat="43.82094" lon="5.35465">
        <ele>327.9</ele>
        <time>2022-05-15T17:54:18Z</time>
      </trkpt>
      <trkpt lat="43.82092" lon="5.35456">
        <ele>327.7</ele>
        <time>2022-05-15T17:54:19Z</time>
      </trkpt>
      <trkpt lat="43.8209" lon="5.35447">
        <ele>327.6</ele>
        <time>2022-05-15T17:54:20Z</time>
      </trkpt>
      <trkpt lat="43.82082" lon="5.35428">
        <ele>326.7</ele>
        <time>2022-05-15T17:54:22Z</time>
      </trkpt>
      <trkpt lat="43.82065" lon="5.35402">
        <ele>327.4</ele>
        <time>2022-05-15T17:54:25Z</time>
      </trkpt>
      <trkpt lat="43.8206" lon="5.35397">
        <ele>327.5</ele>
        <time>2022-05-15T17:54:26Z</time>
      </trkpt>
      <trkpt lat="43.82042" lon="5.35371">
        <ele>328</ele>
        <time>2022-05-15T17:54:30Z</time>
      </trkpt>
      <trkpt lat="43.82023" lon="5.35344">
        <ele>327.8</ele>
        <time>2022-05-15T17:54:34Z</time>
      </trkpt>
      <trkpt lat="43.82013" lon="5.35335">
        <ele>327.2</ele>
        <time>2022-05-15T17:54:36Z</time>
      </trkpt>
      <trkpt lat="43.82002" lon="5.35327">
        <ele>326</ele>
        <time>2022-05-15T17:54:38Z</time>
      </trkpt>
      <trkpt lat="43.81996" lon="5.35323">
        <ele>325.8</ele>
        <time>2022-05-15T17:54:39Z</time>
      </trkpt>
      <trkpt lat="43.81984" lon="5.35324">
        <ele>326</ele>
        <time>2022-05-15T17:54:41Z</time>
      </trkpt>
      <trkpt lat="43.81965" lon="5.35331">
        <ele>326.7</ele>
        <time>2022-05-15T17:54:45Z</time>
      </trkpt>
      <trkpt lat="43.81962" lon="5.35332">
        <ele>326.8</ele>
        <time>2022-05-15T17:54:46Z</time>
      </trkpt>
      <trkpt lat="43.81954" lon="5.35333">
        <ele>327.1</ele>
        <time>2022-05-15T17:54:48Z</time>
      </trkpt>
      <trkpt lat="43.81943" lon="5.35336">
        <ele>327.6</ele>
        <time>2022-05-15T17:54:50Z</time>
      </trkpt>
      <trkpt lat="43.81931" lon="5.3534">
        <ele>328.4</ele>
        <time>2022-05-15T17:54:52Z</time>
      </trkpt>
      <trkpt lat="43.81921" lon="5.35341">
        <ele>328.8</ele>
        <time>2022-05-15T17:54:54Z</time>
      </trkpt>
      <trkpt lat="43.81918" lon="5.3534">
        <ele>328.8</ele>
        <time>2022-05-15T17:54:55Z</time>
      </trkpt>
      <trkpt lat="43.81905" lon="5.35332">
        <ele>330.7</ele>
        <time>2022-05-15T17:54:59Z</time>
      </trkpt>
      <trkpt lat="43.81901" lon="5.35327">
        <ele>331.2</ele>
        <time>2022-05-15T17:55:00Z</time>
      </trkpt>
      <trkpt lat="43.81899" lon="5.35323">
        <ele>331.3</ele>
        <time>2022-05-15T17:55:01Z</time>
      </trkpt>
      <trkpt lat="43.81894" lon="5.35308">
        <ele>331.3</ele>
        <time>2022-05-15T17:55:03Z</time>
      </trkpt>
      <trkpt lat="43.81893" lon="5.35301">
        <ele>330.9</ele>
        <time>2022-05-15T17:55:04Z</time>
      </trkpt>
      <trkpt lat="43.81888" lon="5.35285">
        <ele>330.8</ele>
        <time>2022-05-15T17:55:06Z</time>
      </trkpt>
      <trkpt lat="43.81885" lon="5.35277">
        <ele>331</ele>
        <time>2022-05-15T17:55:07Z</time>
      </trkpt>
      <trkpt lat="43.81869" lon="5.35236">
        <ele>331.9</ele>
        <time>2022-05-15T17:55:12Z</time>
      </trkpt>
      <trkpt lat="43.81853" lon="5.35198">
        <ele>332.2</ele>
        <time>2022-05-15T17:55:16Z</time>
      </trkpt>
      <trkpt lat="43.81846" lon="5.35166">
        <ele>330.3</ele>
        <time>2022-05-15T17:55:19Z</time>
      </trkpt>
      <trkpt lat="43.81846" lon="5.35155">
        <ele>329.1</ele>
        <time>2022-05-15T17:55:20Z</time>
      </trkpt>
      <trkpt lat="43.81845" lon="5.35146">
        <ele>328.2</ele>
        <time>2022-05-15T17:55:21Z</time>
      </trkpt>
      <trkpt lat="43.81843" lon="5.35136">
        <ele>327.4</ele>
        <time>2022-05-15T17:55:23Z</time>
      </trkpt>
      <trkpt lat="43.8184" lon="5.35121">
        <ele>326</ele>
        <time>2022-05-15T17:55:26Z</time>
      </trkpt>
      <trkpt lat="43.81837" lon="5.35109">
        <ele>324.9</ele>
        <time>2022-05-15T17:55:28Z</time>
      </trkpt>
      <trkpt lat="43.81827" lon="5.35069">
        <ele>322.8</ele>
        <time>2022-05-15T17:55:33Z</time>
      </trkpt>
      <trkpt lat="43.81819" lon="5.35045">
        <ele>322.6</ele>
        <time>2022-05-15T17:55:36Z</time>
      </trkpt>
      <trkpt lat="43.81812" lon="5.35029">
        <ele>322.4</ele>
        <time>2022-05-15T17:55:38Z</time>
      </trkpt>
      <trkpt lat="43.8179" lon="5.34975">
        <ele>320.3</ele>
        <time>2022-05-15T17:55:45Z</time>
      </trkpt>
      <trkpt lat="43.81779" lon="5.34952">
        <ele>318.9</ele>
        <time>2022-05-15T17:55:48Z</time>
      </trkpt>
      <trkpt lat="43.8177" lon="5.34939">
        <ele>317.9</ele>
        <time>2022-05-15T17:55:50Z</time>
      </trkpt>
      <trkpt lat="43.81763" lon="5.34924">
        <ele>316</ele>
        <time>2022-05-15T17:55:52Z</time>
      </trkpt>
      <trkpt lat="43.81754" lon="5.34912">
        <ele>314.8</ele>
        <time>2022-05-15T17:55:54Z</time>
      </trkpt>
      <trkpt lat="43.8175" lon="5.34905">
        <ele>314.6</ele>
        <time>2022-05-15T17:55:55Z</time>
      </trkpt>
      <trkpt lat="43.81742" lon="5.34887">
        <ele>314.7</ele>
        <time>2022-05-15T17:55:58Z</time>
      </trkpt>
      <trkpt lat="43.8174" lon="5.34881">
        <ele>314.6</ele>
        <time>2022-05-15T17:55:59Z</time>
      </trkpt>
      <trkpt lat="43.81735" lon="5.34868">
        <ele>314.4</ele>
        <time>2022-05-15T17:56:01Z</time>
      </trkpt>
      <trkpt lat="43.81735" lon="5.34862">
        <ele>314</ele>
        <time>2022-05-15T17:56:02Z</time>
      </trkpt>
      <trkpt lat="43.81734" lon="5.34856">
        <ele>313.7</ele>
        <time>2022-05-15T17:56:03Z</time>
      </trkpt>
      <trkpt lat="43.81728" lon="5.34833">
        <ele>312.5</ele>
        <time>2022-05-15T17:56:06Z</time>
      </trkpt>
      <trkpt lat="43.81724" lon="5.3482">
        <ele>312.4</ele>
        <time>2022-05-15T17:56:08Z</time>
      </trkpt>
      <trkpt lat="43.81718" lon="5.34809">
        <ele>312.2</ele>
        <time>2022-05-15T17:56:10Z</time>
      </trkpt>
      <trkpt lat="43.81711" lon="5.34799">
        <ele>311.8</ele>
        <time>2022-05-15T17:56:12Z</time>
      </trkpt>
      <trkpt lat="43.81709" lon="5.34787">
        <ele>311.4</ele>
        <time>2022-05-15T17:56:14Z</time>
      </trkpt>
      <trkpt lat="43.81706" lon="5.34773">
        <ele>310.7</ele>
        <time>2022-05-15T17:56:16Z</time>
      </trkpt>
      <trkpt lat="43.81701" lon="5.34765">
        <ele>310</ele>
        <time>2022-05-15T17:56:17Z</time>
      </trkpt>
      <trkpt lat="43.81697" lon="5.34757">
        <ele>309.3</ele>
        <time>2022-05-15T17:56:18Z</time>
      </trkpt>
      <trkpt lat="43.81689" lon="5.34741">
        <ele>308.8</ele>
        <time>2022-05-15T17:56:20Z</time>
      </trkpt>
      <trkpt lat="43.81672" lon="5.34724">
        <ele>307.9</ele>
        <time>2022-05-15T17:56:23Z</time>
      </trkpt>
      <trkpt lat="43.81661" lon="5.34715">
        <ele>307.9</ele>
        <time>2022-05-15T17:56:25Z</time>
      </trkpt>
      <trkpt lat="43.81655" lon="5.3471">
        <ele>308.3</ele>
        <time>2022-05-15T17:56:26Z</time>
      </trkpt>
      <trkpt lat="43.81628" lon="5.34694">
        <ele>309</ele>
        <time>2022-05-15T17:56:30Z</time>
      </trkpt>
      <trkpt lat="43.81621" lon="5.3469">
        <ele>308.9</ele>
        <time>2022-05-15T17:56:31Z</time>
      </trkpt>
      <trkpt lat="43.81602" lon="5.34678">
        <ele>308.3</ele>
        <time>2022-05-15T17:56:34Z</time>
      </trkpt>
      <trkpt lat="43.81597" lon="5.34673">
        <ele>307.9</ele>
        <time>2022-05-15T17:56:35Z</time>
      </trkpt>
      <trkpt lat="43.81592" lon="5.34667">
        <ele>307.3</ele>
        <time>2022-05-15T17:56:36Z</time>
      </trkpt>
      <trkpt lat="43.81587" lon="5.34657">
        <ele>306.9</ele>
        <time>2022-05-15T17:56:38Z</time>
      </trkpt>
      <trkpt lat="43.81584" lon="5.34652">
        <ele>306.7</ele>
        <time>2022-05-15T17:56:39Z</time>
      </trkpt>
      <trkpt lat="43.81575" lon="5.34644">
        <ele>307</ele>
        <time>2022-05-15T17:56:41Z</time>
      </trkpt>
      <trkpt lat="43.81568" lon="5.34636">
        <ele>307.2</ele>
        <time>2022-05-15T17:56:43Z</time>
      </trkpt>
      <trkpt lat="43.8156" lon="5.34622">
        <ele>307</ele>
        <time>2022-05-15T17:56:45Z</time>
      </trkpt>
      <trkpt lat="43.81557" lon="5.34615">
        <ele>306.7</ele>
        <time>2022-05-15T17:56:46Z</time>
      </trkpt>
      <trkpt lat="43.81548" lon="5.34592">
        <ele>305.6</ele>
        <time>2022-05-15T17:56:49Z</time>
      </trkpt>
      <trkpt lat="43.81544" lon="5.34577">
        <ele>305.3</ele>
        <time>2022-05-15T17:56:51Z</time>
      </trkpt>
      <trkpt lat="43.81537" lon="5.34563">
        <ele>306</ele>
        <time>2022-05-15T17:56:53Z</time>
      </trkpt>
      <trkpt lat="43.81529" lon="5.34548">
        <ele>306.7</ele>
        <time>2022-05-15T17:56:56Z</time>
      </trkpt>
      <trkpt lat="43.81521" lon="5.34538">
        <ele>307.2</ele>
        <time>2022-05-15T17:56:58Z</time>
      </trkpt>
      <trkpt lat="43.81512" lon="5.3453">
        <ele>307.6</ele>
        <time>2022-05-15T17:57:00Z</time>
      </trkpt>
      <trkpt lat="43.81501" lon="5.34522">
        <ele>307.9</ele>
        <time>2022-05-15T17:57:03Z</time>
      </trkpt>
      <trkpt lat="43.8149" lon="5.34514">
        <ele>307.8</ele>
        <time>2022-05-15T17:57:05Z</time>
      </trkpt>
      <trkpt lat="43.81476" lon="5.34504">
        <ele>307.4</ele>
        <time>2022-05-15T17:57:08Z</time>
      </trkpt>
      <trkpt lat="43.81471" lon="5.34501">
        <ele>307.2</ele>
        <time>2022-05-15T17:57:09Z</time>
      </trkpt>
      <trkpt lat="43.81466" lon="5.34498">
        <ele>307.4</ele>
        <time>2022-05-15T17:57:10Z</time>
      </trkpt>
      <trkpt lat="43.8145" lon="5.34493">
        <ele>307.6</ele>
        <time>2022-05-15T17:57:13Z</time>
      </trkpt>
      <trkpt lat="43.81439" lon="5.34493">
        <ele>306.9</ele>
        <time>2022-05-15T17:57:15Z</time>
      </trkpt>
      <trkpt lat="43.81428" lon="5.34493">
        <ele>306.2</ele>
        <time>2022-05-15T17:57:17Z</time>
      </trkpt>
      <trkpt lat="43.81388" lon="5.34499">
        <ele>302.8</ele>
        <time>2022-05-15T17:57:24Z</time>
      </trkpt>
      <trkpt lat="43.81383" lon="5.345">
        <ele>302.4</ele>
        <time>2022-05-15T17:57:25Z</time>
      </trkpt>
      <trkpt lat="43.81372" lon="5.34501">
        <ele>302</ele>
        <time>2022-05-15T17:57:27Z</time>
      </trkpt>
      <trkpt lat="43.81366" lon="5.345">
        <ele>301.6</ele>
        <time>2022-05-15T17:57:28Z</time>
      </trkpt>
      <trkpt lat="43.8133" lon="5.34492">
        <ele>301.6</ele>
        <time>2022-05-15T17:57:34Z</time>
      </trkpt>
      <trkpt lat="43.81308" lon="5.34488">
        <ele>306.2</ele>
        <time>2022-05-15T17:57:38Z</time>
      </trkpt>
      <trkpt lat="43.81289" lon="5.34478">
        <ele>309.1</ele>
        <time>2022-05-15T17:57:42Z</time>
      </trkpt>
      <trkpt lat="43.81277" lon="5.34467">
        <ele>309.4</ele>
        <time>2022-05-15T17:57:45Z</time>
      </trkpt>
      <trkpt lat="43.81271" lon="5.34463">
        <ele>309.4</ele>
        <time>2022-05-15T17:57:46Z</time>
      </trkpt>
      <trkpt lat="43.81251" lon="5.3445">
        <ele>308</ele>
        <time>2022-05-15T17:57:49Z</time>
      </trkpt>
      <trkpt lat="43.81245" lon="5.34445">
        <ele>307.3</ele>
        <time>2022-05-15T17:57:50Z</time>
      </trkpt>
      <trkpt lat="43.81238" lon="5.3444">
        <ele>306.7</ele>
        <time>2022-05-15T17:57:51Z</time>
      </trkpt>
      <trkpt lat="43.81217" lon="5.34426">
        <ele>304.4</ele>
        <time>2022-05-15T17:57:54Z</time>
      </trkpt>
      <trkpt lat="43.81186" lon="5.34403">
        <ele>304.1</ele>
        <time>2022-05-15T17:57:59Z</time>
      </trkpt>
      <trkpt lat="43.81157" lon="5.34383">
        <ele>306.2</ele>
        <time>2022-05-15T17:58:04Z</time>
      </trkpt>
      <trkpt lat="43.81152" lon="5.34383">
        <ele>307.1</ele>
        <time>2022-05-15T17:58:05Z</time>
      </trkpt>
      <trkpt lat="43.81142" lon="5.34388">
        <ele>309.3</ele>
        <time>2022-05-15T17:58:08Z</time>
      </trkpt>
      <trkpt lat="43.81131" lon="5.34394">
        <ele>312.3</ele>
        <time>2022-05-15T17:58:12Z</time>
      </trkpt>
      <trkpt lat="43.81122" lon="5.34398">
        <ele>314.9</ele>
        <time>2022-05-15T17:58:14Z</time>
      </trkpt>
      <trkpt lat="43.81115" lon="5.34398">
        <ele>316.6</ele>
        <time>2022-05-15T17:58:15Z</time>
      </trkpt>
      <trkpt lat="43.81087" lon="5.34395">
        <ele>322.4</ele>
        <time>2022-05-15T17:58:19Z</time>
      </trkpt>
      <trkpt lat="43.81068" lon="5.34389">
        <ele>323.7</ele>
        <time>2022-05-15T17:58:22Z</time>
      </trkpt>
      <trkpt lat="43.81062" lon="5.34385">
        <ele>323.3</ele>
        <time>2022-05-15T17:58:24Z</time>
      </trkpt>
      <trkpt lat="43.8106" lon="5.34383">
        <ele>322.9</ele>
        <time>2022-05-15T17:58:25Z</time>
      </trkpt>
      <trkpt lat="43.81057" lon="5.34376">
        <ele>321</ele>
        <time>2022-05-15T17:58:26Z</time>
      </trkpt>
      <trkpt lat="43.81056" lon="5.34367">
        <ele>318.1</ele>
        <time>2022-05-15T17:58:28Z</time>
      </trkpt>
      <trkpt lat="43.81053" lon="5.34357">
        <ele>315</ele>
        <time>2022-05-15T17:58:31Z</time>
      </trkpt>
      <trkpt lat="43.81047" lon="5.34345">
        <ele>311.6</ele>
        <time>2022-05-15T17:58:33Z</time>
      </trkpt>
      <trkpt lat="43.81043" lon="5.3434">
        <ele>310.2</ele>
        <time>2022-05-15T17:58:34Z</time>
      </trkpt>
      <trkpt lat="43.81027" lon="5.3432">
        <ele>307.2</ele>
        <time>2022-05-15T17:58:37Z</time>
      </trkpt>
      <trkpt lat="43.80999" lon="5.34292">
        <ele>303.6</ele>
        <time>2022-05-15T17:58:42Z</time>
      </trkpt>
      <trkpt lat="43.80985" lon="5.34276">
        <ele>301.9</ele>
        <time>2022-05-15T17:58:45Z</time>
      </trkpt>
      <trkpt lat="43.80977" lon="5.34264">
        <ele>301.6</ele>
        <time>2022-05-15T17:58:47Z</time>
      </trkpt>
      <trkpt lat="43.80969" lon="5.34253">
        <ele>302.2</ele>
        <time>2022-05-15T17:58:49Z</time>
      </trkpt>
      <trkpt lat="43.8096" lon="5.34242">
        <ele>306.5</ele>
        <time>2022-05-15T17:58:51Z</time>
      </trkpt>
      <trkpt lat="43.80955" lon="5.34237">
        <ele>309.2</ele>
        <time>2022-05-15T17:58:52Z</time>
      </trkpt>
      <trkpt lat="43.80951" lon="5.34236">
        <ele>310.5</ele>
        <time>2022-05-15T17:58:53Z</time>
      </trkpt>
      <trkpt lat="43.8094" lon="5.34232">
        <ele>314.6</ele>
        <time>2022-05-15T17:58:56Z</time>
      </trkpt>
      <trkpt lat="43.80939" lon="5.34233">
        <ele>314.5</ele>
        <time>2022-05-15T17:58:57Z</time>
      </trkpt>
      <trkpt lat="43.80938" lon="5.34231">
        <ele>315.4</ele>
        <time>2022-05-15T17:58:58Z</time>
      </trkpt>
      <trkpt lat="43.80936" lon="5.3423">
        <ele>316.2</ele>
        <time>2022-05-15T17:58:59Z</time>
      </trkpt>
      <trkpt lat="43.80933" lon="5.3423">
        <ele>317</ele>
        <time>2022-05-15T17:59:02Z</time>
      </trkpt>
      <trkpt lat="43.80932" lon="5.34224">
        <ele>319.3</ele>
        <time>2022-05-15T17:59:09Z</time>
      </trkpt>
      <trkpt lat="43.80937" lon="5.34213">
        <ele>321.6</ele>
        <time>2022-05-15T17:59:13Z</time>
      </trkpt>
      <trkpt lat="43.80945" lon="5.34198">
        <ele>324.1</ele>
        <time>2022-05-15T17:59:18Z</time>
      </trkpt>
      <trkpt lat="43.8096" lon="5.34203">
        <ele>318.1</ele>
        <time>2022-05-15T17:59:22Z</time>
      </trkpt>
      <trkpt lat="43.8098" lon="5.34212">
        <ele>309.8</ele>
        <time>2022-05-15T17:59:27Z</time>
      </trkpt>
      <trkpt lat="43.80984" lon="5.34212">
        <ele>308.6</ele>
        <time>2022-05-15T17:59:28Z</time>
      </trkpt>
      <trkpt lat="43.80988" lon="5.34211">
        <ele>307.8</ele>
        <time>2022-05-15T17:59:29Z</time>
      </trkpt>
      <trkpt lat="43.80996" lon="5.34206">
        <ele>306.7</ele>
        <time>2022-05-15T17:59:31Z</time>
      </trkpt>
      <trkpt lat="43.81" lon="5.34201">
        <ele>306.8</ele>
        <time>2022-05-15T17:59:32Z</time>
      </trkpt>
      <trkpt lat="43.8101" lon="5.34186">
        <ele>309.6</ele>
        <time>2022-05-15T17:59:35Z</time>
      </trkpt>
      <trkpt lat="43.81018" lon="5.3417">
        <ele>312.3</ele>
        <time>2022-05-15T17:59:38Z</time>
      </trkpt>
      <trkpt lat="43.81026" lon="5.34154">
        <ele>316.8</ele>
        <time>2022-05-15T17:59:41Z</time>
      </trkpt>
      <trkpt lat="43.81029" lon="5.34151">
        <ele>317.4</ele>
        <time>2022-05-15T17:59:42Z</time>
      </trkpt>
      <trkpt lat="43.81034" lon="5.34151">
        <ele>316.6</ele>
        <time>2022-05-15T17:59:43Z</time>
      </trkpt>
      <trkpt lat="43.81041" lon="5.34158">
        <ele>313.3</ele>
        <time>2022-05-15T17:59:45Z</time>
      </trkpt>
      <trkpt lat="43.81044" lon="5.3417">
        <ele>309.7</ele>
        <time>2022-05-15T17:59:47Z</time>
      </trkpt>
      <trkpt lat="43.81043" lon="5.34176">
        <ele>308.7</ele>
        <time>2022-05-15T17:59:48Z</time>
      </trkpt>
      <trkpt lat="43.81041" lon="5.34182">
        <ele>307.8</ele>
        <time>2022-05-15T17:59:49Z</time>
      </trkpt>
      <trkpt lat="43.81033" lon="5.34196">
        <ele>305.8</ele>
        <time>2022-05-15T17:59:52Z</time>
      </trkpt>
      <trkpt lat="43.81017" lon="5.34219">
        <ele>301.9</ele>
        <time>2022-05-15T17:59:57Z</time>
      </trkpt>
      <trkpt lat="43.81013" lon="5.3423">
        <ele>299.6</ele>
        <time>2022-05-15T17:59:59Z</time>
      </trkpt>
      <trkpt lat="43.81014" lon="5.34243">
        <ele>296.7</ele>
        <time>2022-05-15T18:00:01Z</time>
      </trkpt>
      <trkpt lat="43.81017" lon="5.34249">
        <ele>295.4</ele>
        <time>2022-05-15T18:00:02Z</time>
      </trkpt>
      <trkpt lat="43.81021" lon="5.34254">
        <ele>296</ele>
        <time>2022-05-15T18:00:03Z</time>
      </trkpt>
      <trkpt lat="43.81037" lon="5.3427">
        <ele>298.6</ele>
        <time>2022-05-15T18:00:07Z</time>
      </trkpt>
      <trkpt lat="43.81061" lon="5.34304">
        <ele>302.5</ele>
        <time>2022-05-15T18:00:14Z</time>
      </trkpt>
      <trkpt lat="43.81068" lon="5.34313">
        <ele>303.1</ele>
        <time>2022-05-15T18:00:16Z</time>
      </trkpt>
      <trkpt lat="43.81079" lon="5.34322">
        <ele>303.3</ele>
        <time>2022-05-15T18:00:19Z</time>
      </trkpt>
      <trkpt lat="43.81091" lon="5.34328">
        <ele>303.7</ele>
        <time>2022-05-15T18:00:23Z</time>
      </trkpt>
      <trkpt lat="43.81095" lon="5.34333">
        <ele>304.1</ele>
        <time>2022-05-15T18:00:25Z</time>
      </trkpt>
      <trkpt lat="43.81097" lon="5.34335">
        <ele>304.6</ele>
        <time>2022-05-15T18:00:27Z</time>
      </trkpt>
    </trkseg>
  </trk>
</gpx>